<?xml version="1.0" encoding="UTF-8" standalone="no" ?>
<gpx xmlns="http://www.topografix.com/GPX/1/1" xmlns:xsi="http://www.w3.org/2001/XMLSchema-instance" xsi:schemaLocation="http://www.topografix.com/GPX/1/1 http://www.topografix.com/GPX/1/1/gpx.xsd" version="1.1" creator="VisuGPX - https://www.visugpx.com">
  <metadata>
    <name>semnoz-chat-clergeon</name>
    <desc><![CDATA[semnoz-chat-clergeonv2]]></desc>
  </metadata>
  <trk>
    <name><![CDATA[semnoz-chat-clergeonv2 on GPSies.com]]></name>
    <trkseg>
      <trkpt lat="45.89264" lon="6.09655">
        <ele>527</ele>
        <time>2010-01-01T00:00:00Z</time>
      </trkpt>
      <trkpt lat="45.89329" lon="6.10162">
        <ele>519</ele>
        <time>2010-01-01T00:02:23Z</time>
      </trkpt>
      <trkpt lat="45.89329" lon="6.10159">
        <ele>519</ele>
        <time>2010-01-01T00:02:24Z</time>
      </trkpt>
      <trkpt lat="45.89341" lon="6.1016">
        <ele>518</ele>
        <time>2010-01-01T00:02:29Z</time>
      </trkpt>
      <trkpt lat="45.89356" lon="6.1017">
        <ele>518</ele>
        <time>2010-01-01T00:02:35Z</time>
      </trkpt>
      <trkpt lat="45.89362" lon="6.102">
        <ele>517</ele>
        <time>2010-01-01T00:02:44Z</time>
      </trkpt>
      <trkpt lat="45.8936" lon="6.10319">
        <ele>514</ele>
        <time>2010-01-01T00:03:17Z</time>
      </trkpt>
      <trkpt lat="45.89368" lon="6.10377">
        <ele>515</ele>
        <time>2010-01-01T00:03:34Z</time>
      </trkpt>
      <trkpt lat="45.89415" lon="6.10658">
        <ele>502</ele>
        <time>2010-01-01T00:04:54Z</time>
      </trkpt>
      <trkpt lat="45.89429" lon="6.10762">
        <ele>499</ele>
        <time>2010-01-01T00:05:24Z</time>
      </trkpt>
      <trkpt lat="45.89423" lon="6.10812">
        <ele>496</ele>
        <time>2010-01-01T00:05:38Z</time>
      </trkpt>
      <trkpt lat="45.89417" lon="6.10843">
        <ele>494</ele>
        <time>2010-01-01T00:05:47Z</time>
      </trkpt>
      <trkpt lat="45.89403" lon="6.10873">
        <ele>492</ele>
        <time>2010-01-01T00:05:57Z</time>
      </trkpt>
      <trkpt lat="45.89375" lon="6.1091">
        <ele>489</ele>
        <time>2010-01-01T00:06:12Z</time>
      </trkpt>
      <trkpt lat="45.89272" lon="6.11007">
        <ele>484</ele>
        <time>2010-01-01T00:07:01Z</time>
      </trkpt>
      <trkpt lat="45.89261" lon="6.11021">
        <ele>483</ele>
        <time>2010-01-01T00:07:07Z</time>
      </trkpt>
      <trkpt lat="45.89252" lon="6.11036">
        <ele>483</ele>
        <time>2010-01-01T00:07:13Z</time>
      </trkpt>
      <trkpt lat="45.89242" lon="6.11062">
        <ele>482</ele>
        <time>2010-01-01T00:07:21Z</time>
      </trkpt>
      <trkpt lat="45.89232" lon="6.11097">
        <ele>480</ele>
        <time>2010-01-01T00:07:31Z</time>
      </trkpt>
      <trkpt lat="45.89224" lon="6.11107">
        <ele>480</ele>
        <time>2010-01-01T00:07:36Z</time>
      </trkpt>
      <trkpt lat="45.89215" lon="6.11108">
        <ele>480</ele>
        <time>2010-01-01T00:07:39Z</time>
      </trkpt>
      <trkpt lat="45.89185" lon="6.1109">
        <ele>482</ele>
        <time>2010-01-01T00:07:52Z</time>
      </trkpt>
      <trkpt lat="45.89174" lon="6.11121">
        <ele>478</ele>
        <time>2010-01-01T00:08:02Z</time>
      </trkpt>
      <trkpt lat="45.89173" lon="6.11131">
        <ele>476</ele>
        <time>2010-01-01T00:08:05Z</time>
      </trkpt>
      <trkpt lat="45.89175" lon="6.11138">
        <ele>475</ele>
        <time>2010-01-01T00:08:07Z</time>
      </trkpt>
      <trkpt lat="45.89181" lon="6.11143">
        <ele>474</ele>
        <time>2010-01-01T00:08:10Z</time>
      </trkpt>
      <trkpt lat="45.89219" lon="6.11147">
        <ele>475</ele>
        <time>2010-01-01T00:08:25Z</time>
      </trkpt>
      <trkpt lat="45.89238" lon="6.11155">
        <ele>474</ele>
        <time>2010-01-01T00:08:33Z</time>
      </trkpt>
      <trkpt lat="45.89283" lon="6.11153">
        <ele>473</ele>
        <time>2010-01-01T00:08:51Z</time>
      </trkpt>
      <trkpt lat="45.89292" lon="6.11155">
        <ele>474</ele>
        <time>2010-01-01T00:08:55Z</time>
      </trkpt>
      <trkpt lat="45.89333" lon="6.11149">
        <ele>476</ele>
        <time>2010-01-01T00:09:11Z</time>
      </trkpt>
      <trkpt lat="45.89346" lon="6.11151">
        <ele>476</ele>
        <time>2010-01-01T00:09:16Z</time>
      </trkpt>
      <trkpt lat="45.89375" lon="6.11158">
        <ele>474</ele>
        <time>2010-01-01T00:09:28Z</time>
      </trkpt>
      <trkpt lat="45.89425" lon="6.11164">
        <ele>468</ele>
        <time>2010-01-01T00:09:48Z</time>
      </trkpt>
      <trkpt lat="45.8947" lon="6.11159">
        <ele>464</ele>
        <time>2010-01-01T00:10:06Z</time>
      </trkpt>
      <trkpt lat="45.89476" lon="6.11245">
        <ele>460</ele>
        <time>2010-01-01T00:10:30Z</time>
      </trkpt>
      <trkpt lat="45.89477" lon="6.11313">
        <ele>458</ele>
        <time>2010-01-01T00:10:49Z</time>
      </trkpt>
      <trkpt lat="45.89468" lon="6.11337">
        <ele>458</ele>
        <time>2010-01-01T00:10:57Z</time>
      </trkpt>
      <trkpt lat="45.89469" lon="6.11344">
        <ele>457</ele>
        <time>2010-01-01T00:10:59Z</time>
      </trkpt>
      <trkpt lat="45.89472" lon="6.11348">
        <ele>456</ele>
        <time>2010-01-01T00:11:00Z</time>
      </trkpt>
      <trkpt lat="45.89476" lon="6.1136">
        <ele>456</ele>
        <time>2010-01-01T00:11:04Z</time>
      </trkpt>
      <trkpt lat="45.89477" lon="6.11484">
        <ele>452</ele>
        <time>2010-01-01T00:11:39Z</time>
      </trkpt>
      <trkpt lat="45.89477" lon="6.1168">
        <ele>452</ele>
        <time>2010-01-01T00:12:33Z</time>
      </trkpt>
      <trkpt lat="45.8948" lon="6.11902">
        <ele>452</ele>
        <time>2010-01-01T00:13:35Z</time>
      </trkpt>
      <trkpt lat="45.89518" lon="6.11936">
        <ele>451</ele>
        <time>2010-01-01T00:13:53Z</time>
      </trkpt>
      <trkpt lat="45.89468" lon="6.12092">
        <ele>450</ele>
        <time>2010-01-01T00:14:41Z</time>
      </trkpt>
      <trkpt lat="45.89588" lon="6.12164">
        <ele>455</ele>
        <time>2010-01-01T00:15:33Z</time>
      </trkpt>
      <trkpt lat="45.89524" lon="6.12221">
        <ele>450</ele>
        <time>2010-01-01T00:16:03Z</time>
      </trkpt>
      <trkpt lat="45.89518" lon="6.12215">
        <ele>449</ele>
        <time>2010-01-01T00:16:06Z</time>
      </trkpt>
      <trkpt lat="45.89511" lon="6.12216">
        <ele>448</ele>
        <time>2010-01-01T00:16:09Z</time>
      </trkpt>
      <trkpt lat="45.89508" lon="6.12219">
        <ele>448</ele>
        <time>2010-01-01T00:16:10Z</time>
      </trkpt>
      <trkpt lat="45.89505" lon="6.12229">
        <ele>449</ele>
        <time>2010-01-01T00:16:13Z</time>
      </trkpt>
      <trkpt lat="45.89506" lon="6.12238">
        <ele>450</ele>
        <time>2010-01-01T00:16:16Z</time>
      </trkpt>
      <trkpt lat="45.89522" lon="6.12254">
        <ele>453</ele>
        <time>2010-01-01T00:16:24Z</time>
      </trkpt>
      <trkpt lat="45.89533" lon="6.12277">
        <ele>456</ele>
        <time>2010-01-01T00:16:32Z</time>
      </trkpt>
      <trkpt lat="45.89537" lon="6.12291">
        <ele>456</ele>
        <time>2010-01-01T00:16:36Z</time>
      </trkpt>
      <trkpt lat="45.89539" lon="6.12324">
        <ele>456</ele>
        <time>2010-01-01T00:16:45Z</time>
      </trkpt>
      <trkpt lat="45.89535" lon="6.12364">
        <ele>457</ele>
        <time>2010-01-01T00:16:56Z</time>
      </trkpt>
      <trkpt lat="45.8952" lon="6.12426">
        <ele>466</ele>
        <time>2010-01-01T00:17:15Z</time>
      </trkpt>
      <trkpt lat="45.89519" lon="6.12434">
        <ele>467</ele>
        <time>2010-01-01T00:17:17Z</time>
      </trkpt>
      <trkpt lat="45.89521" lon="6.12448">
        <ele>469</ele>
        <time>2010-01-01T00:17:21Z</time>
      </trkpt>
      <trkpt lat="45.89538" lon="6.12534">
        <ele>477</ele>
        <time>2010-01-01T00:17:46Z</time>
      </trkpt>
      <trkpt lat="45.89544" lon="6.12577">
        <ele>478</ele>
        <time>2010-01-01T00:17:58Z</time>
      </trkpt>
      <trkpt lat="45.89544" lon="6.1259">
        <ele>479</ele>
        <time>2010-01-01T00:18:02Z</time>
      </trkpt>
      <trkpt lat="45.8954" lon="6.12606">
        <ele>481</ele>
        <time>2010-01-01T00:18:06Z</time>
      </trkpt>
      <trkpt lat="45.89498" lon="6.12746">
        <ele>479</ele>
        <time>2010-01-01T00:18:49Z</time>
      </trkpt>
      <trkpt lat="45.89496" lon="6.12747">
        <ele>479</ele>
        <time>2010-01-01T00:18:50Z</time>
      </trkpt>
      <trkpt lat="45.89492" lon="6.12752">
        <ele>479</ele>
        <time>2010-01-01T00:18:52Z</time>
      </trkpt>
      <trkpt lat="45.89492" lon="6.12758">
        <ele>479</ele>
        <time>2010-01-01T00:18:53Z</time>
      </trkpt>
      <trkpt lat="45.89472" lon="6.12775">
        <ele>480</ele>
        <time>2010-01-01T00:19:03Z</time>
      </trkpt>
      <trkpt lat="45.8943" lon="6.12819">
        <ele>480</ele>
        <time>2010-01-01T00:19:23Z</time>
      </trkpt>
      <trkpt lat="45.89417" lon="6.12843">
        <ele>480</ele>
        <time>2010-01-01T00:19:32Z</time>
      </trkpt>
      <trkpt lat="45.89412" lon="6.12867">
        <ele>481</ele>
        <time>2010-01-01T00:19:39Z</time>
      </trkpt>
      <trkpt lat="45.89409" lon="6.12907">
        <ele>481</ele>
        <time>2010-01-01T00:19:50Z</time>
      </trkpt>
      <trkpt lat="45.89408" lon="6.1297">
        <ele>483</ele>
        <time>2010-01-01T00:20:08Z</time>
      </trkpt>
      <trkpt lat="45.89413" lon="6.1298">
        <ele>482</ele>
        <time>2010-01-01T00:20:11Z</time>
      </trkpt>
      <trkpt lat="45.89412" lon="6.12985">
        <ele>483</ele>
        <time>2010-01-01T00:20:13Z</time>
      </trkpt>
      <trkpt lat="45.89413" lon="6.1299">
        <ele>482</ele>
        <time>2010-01-01T00:20:14Z</time>
      </trkpt>
      <trkpt lat="45.894" lon="6.13008">
        <ele>485</ele>
        <time>2010-01-01T00:20:21Z</time>
      </trkpt>
      <trkpt lat="45.89382" lon="6.13053">
        <ele>487</ele>
        <time>2010-01-01T00:20:36Z</time>
      </trkpt>
      <trkpt lat="45.89381" lon="6.13148">
        <ele>483</ele>
        <time>2010-01-01T00:21:02Z</time>
      </trkpt>
      <trkpt lat="45.89361" lon="6.13193">
        <ele>485</ele>
        <time>2010-01-01T00:21:17Z</time>
      </trkpt>
      <trkpt lat="45.89312" lon="6.13292">
        <ele>488</ele>
        <time>2010-01-01T00:21:51Z</time>
      </trkpt>
      <trkpt lat="45.89293" lon="6.1332">
        <ele>492</ele>
        <time>2010-01-01T00:22:02Z</time>
      </trkpt>
      <trkpt lat="45.89275" lon="6.13361">
        <ele>491</ele>
        <time>2010-01-01T00:22:15Z</time>
      </trkpt>
      <trkpt lat="45.89246" lon="6.13399">
        <ele>491</ele>
        <time>2010-01-01T00:22:31Z</time>
      </trkpt>
      <trkpt lat="45.892" lon="6.13438">
        <ele>493</ele>
        <time>2010-01-01T00:22:52Z</time>
      </trkpt>
      <trkpt lat="45.89181" lon="6.13447">
        <ele>497</ele>
        <time>2010-01-01T00:23:00Z</time>
      </trkpt>
      <trkpt lat="45.89151" lon="6.13447">
        <ele>502</ele>
        <time>2010-01-01T00:23:12Z</time>
      </trkpt>
      <trkpt lat="45.89142" lon="6.13444">
        <ele>504</ele>
        <time>2010-01-01T00:23:16Z</time>
      </trkpt>
      <trkpt lat="45.89096" lon="6.13411">
        <ele>511</ele>
        <time>2010-01-01T00:23:37Z</time>
      </trkpt>
      <trkpt lat="45.89085" lon="6.13399">
        <ele>516</ele>
        <time>2010-01-01T00:23:42Z</time>
      </trkpt>
      <trkpt lat="45.89079" lon="6.1339">
        <ele>519</ele>
        <time>2010-01-01T00:23:46Z</time>
      </trkpt>
      <trkpt lat="45.89078" lon="6.13383">
        <ele>520</ele>
        <time>2010-01-01T00:23:48Z</time>
      </trkpt>
      <trkpt lat="45.89077" lon="6.13383">
        <ele>520</ele>
        <time>2010-01-01T00:23:48Z</time>
      </trkpt>
      <trkpt lat="45.89075" lon="6.13365">
        <ele>521</ele>
        <time>2010-01-01T00:23:53Z</time>
      </trkpt>
      <trkpt lat="45.89076" lon="6.13351">
        <ele>521</ele>
        <time>2010-01-01T00:23:57Z</time>
      </trkpt>
      <trkpt lat="45.89085" lon="6.1333">
        <ele>518</ele>
        <time>2010-01-01T00:24:04Z</time>
      </trkpt>
      <trkpt lat="45.89093" lon="6.13324">
        <ele>516</ele>
        <time>2010-01-01T00:24:08Z</time>
      </trkpt>
      <trkpt lat="45.89132" lon="6.13304">
        <ele>512</ele>
        <time>2010-01-01T00:24:24Z</time>
      </trkpt>
      <trkpt lat="45.8914" lon="6.13298">
        <ele>512</ele>
        <time>2010-01-01T00:24:28Z</time>
      </trkpt>
      <trkpt lat="45.89145" lon="6.13291">
        <ele>513</ele>
        <time>2010-01-01T00:24:31Z</time>
      </trkpt>
      <trkpt lat="45.89151" lon="6.13269">
        <ele>515</ele>
        <time>2010-01-01T00:24:37Z</time>
      </trkpt>
      <trkpt lat="45.89149" lon="6.13257">
        <ele>516</ele>
        <time>2010-01-01T00:24:41Z</time>
      </trkpt>
      <trkpt lat="45.89142" lon="6.1324">
        <ele>518</ele>
        <time>2010-01-01T00:24:46Z</time>
      </trkpt>
      <trkpt lat="45.89136" lon="6.13234">
        <ele>519</ele>
        <time>2010-01-01T00:24:49Z</time>
      </trkpt>
      <trkpt lat="45.89118" lon="6.13231">
        <ele>520</ele>
        <time>2010-01-01T00:24:56Z</time>
      </trkpt>
      <trkpt lat="45.89052" lon="6.13231">
        <ele>529</ele>
        <time>2010-01-01T00:25:23Z</time>
      </trkpt>
      <trkpt lat="45.89046" lon="6.13233">
        <ele>531</ele>
        <time>2010-01-01T00:25:25Z</time>
      </trkpt>
      <trkpt lat="45.89036" lon="6.13239">
        <ele>535</ele>
        <time>2010-01-01T00:25:29Z</time>
      </trkpt>
      <trkpt lat="45.89027" lon="6.1325">
        <ele>539</ele>
        <time>2010-01-01T00:25:34Z</time>
      </trkpt>
      <trkpt lat="45.89018" lon="6.13265">
        <ele>542</ele>
        <time>2010-01-01T00:25:40Z</time>
      </trkpt>
      <trkpt lat="45.89012" lon="6.1326">
        <ele>545</ele>
        <time>2010-01-01T00:25:42Z</time>
      </trkpt>
      <trkpt lat="45.89007" lon="6.13267">
        <ele>547</ele>
        <time>2010-01-01T00:25:45Z</time>
      </trkpt>
      <trkpt lat="45.89" lon="6.13249">
        <ele>551</ele>
        <time>2010-01-01T00:25:51Z</time>
      </trkpt>
      <trkpt lat="45.88991" lon="6.13153">
        <ele>554</ele>
        <time>2010-01-01T00:26:18Z</time>
      </trkpt>
      <trkpt lat="45.88986" lon="6.13167">
        <ele>555</ele>
        <time>2010-01-01T00:26:22Z</time>
      </trkpt>
      <trkpt lat="45.88948" lon="6.13213">
        <ele>564</ele>
        <time>2010-01-01T00:26:42Z</time>
      </trkpt>
      <trkpt lat="45.88933" lon="6.13217">
        <ele>569</ele>
        <time>2010-01-01T00:26:48Z</time>
      </trkpt>
      <trkpt lat="45.88926" lon="6.13211">
        <ele>571</ele>
        <time>2010-01-01T00:26:52Z</time>
      </trkpt>
      <trkpt lat="45.88914" lon="6.1319">
        <ele>575</ele>
        <time>2010-01-01T00:26:59Z</time>
      </trkpt>
      <trkpt lat="45.88909" lon="6.13166">
        <ele>577</ele>
        <time>2010-01-01T00:27:06Z</time>
      </trkpt>
      <trkpt lat="45.88908" lon="6.13097">
        <ele>583</ele>
        <time>2010-01-01T00:27:25Z</time>
      </trkpt>
      <trkpt lat="45.88913" lon="6.13069">
        <ele>582</ele>
        <time>2010-01-01T00:27:34Z</time>
      </trkpt>
      <trkpt lat="45.88887" lon="6.1307">
        <ele>596</ele>
        <time>2010-01-01T00:27:44Z</time>
      </trkpt>
      <trkpt lat="45.88881" lon="6.13093">
        <ele>597</ele>
        <time>2010-01-01T00:27:51Z</time>
      </trkpt>
      <trkpt lat="45.88861" lon="6.13137">
        <ele>606</ele>
        <time>2010-01-01T00:28:05Z</time>
      </trkpt>
      <trkpt lat="45.88828" lon="6.13185">
        <ele>611</ele>
        <time>2010-01-01T00:28:24Z</time>
      </trkpt>
      <trkpt lat="45.88801" lon="6.13286">
        <ele>604</ele>
        <time>2010-01-01T00:28:54Z</time>
      </trkpt>
      <trkpt lat="45.88784" lon="6.1333">
        <ele>601</ele>
        <time>2010-01-01T00:29:08Z</time>
      </trkpt>
      <trkpt lat="45.88745" lon="6.13385">
        <ele>596</ele>
        <time>2010-01-01T00:29:30Z</time>
      </trkpt>
      <trkpt lat="45.88733" lon="6.13397">
        <ele>597</ele>
        <time>2010-01-01T00:29:36Z</time>
      </trkpt>
      <trkpt lat="45.88721" lon="6.13406">
        <ele>598</ele>
        <time>2010-01-01T00:29:42Z</time>
      </trkpt>
      <trkpt lat="45.88714" lon="6.13404">
        <ele>601</ele>
        <time>2010-01-01T00:29:44Z</time>
      </trkpt>
      <trkpt lat="45.8871" lon="6.13399">
        <ele>603</ele>
        <time>2010-01-01T00:29:46Z</time>
      </trkpt>
      <trkpt lat="45.88707" lon="6.13394">
        <ele>605</ele>
        <time>2010-01-01T00:29:48Z</time>
      </trkpt>
      <trkpt lat="45.88706" lon="6.13385">
        <ele>607</ele>
        <time>2010-01-01T00:29:51Z</time>
      </trkpt>
      <trkpt lat="45.88711" lon="6.13361">
        <ele>611</ele>
        <time>2010-01-01T00:29:58Z</time>
      </trkpt>
      <trkpt lat="45.88748" lon="6.13309">
        <ele>609</ele>
        <time>2010-01-01T00:30:19Z</time>
      </trkpt>
      <trkpt lat="45.88763" lon="6.13274">
        <ele>615</ele>
        <time>2010-01-01T00:30:30Z</time>
      </trkpt>
      <trkpt lat="45.88779" lon="6.13226">
        <ele>619</ele>
        <time>2010-01-01T00:30:45Z</time>
      </trkpt>
      <trkpt lat="45.88797" lon="6.13142">
        <ele>627</ele>
        <time>2010-01-01T00:31:09Z</time>
      </trkpt>
      <trkpt lat="45.88795" lon="6.13113">
        <ele>628</ele>
        <time>2010-01-01T00:31:17Z</time>
      </trkpt>
      <trkpt lat="45.88777" lon="6.13029">
        <ele>634</ele>
        <time>2010-01-01T00:31:42Z</time>
      </trkpt>
      <trkpt lat="45.88758" lon="6.12991">
        <ele>640</ele>
        <time>2010-01-01T00:31:55Z</time>
      </trkpt>
      <trkpt lat="45.88752" lon="6.12976">
        <ele>642</ele>
        <time>2010-01-01T00:32:00Z</time>
      </trkpt>
      <trkpt lat="45.8875" lon="6.12953">
        <ele>642</ele>
        <time>2010-01-01T00:32:06Z</time>
      </trkpt>
      <trkpt lat="45.88766" lon="6.12889">
        <ele>638</ele>
        <time>2010-01-01T00:32:25Z</time>
      </trkpt>
      <trkpt lat="45.88766" lon="6.12873">
        <ele>635</ele>
        <time>2010-01-01T00:32:30Z</time>
      </trkpt>
      <trkpt lat="45.88759" lon="6.12859">
        <ele>634</ele>
        <time>2010-01-01T00:32:34Z</time>
      </trkpt>
      <trkpt lat="45.88753" lon="6.12857">
        <ele>634</ele>
        <time>2010-01-01T00:32:37Z</time>
      </trkpt>
      <trkpt lat="45.88745" lon="6.12858">
        <ele>637</ele>
        <time>2010-01-01T00:32:40Z</time>
      </trkpt>
      <trkpt lat="45.88737" lon="6.12863">
        <ele>640</ele>
        <time>2010-01-01T00:32:44Z</time>
      </trkpt>
      <trkpt lat="45.88732" lon="6.12873">
        <ele>644</ele>
        <time>2010-01-01T00:32:47Z</time>
      </trkpt>
      <trkpt lat="45.88707" lon="6.12994">
        <ele>659</ele>
        <time>2010-01-01T00:33:22Z</time>
      </trkpt>
      <trkpt lat="45.88689" lon="6.13024">
        <ele>662</ele>
        <time>2010-01-01T00:33:33Z</time>
      </trkpt>
      <trkpt lat="45.8867" lon="6.13045">
        <ele>666</ele>
        <time>2010-01-01T00:33:43Z</time>
      </trkpt>
      <trkpt lat="45.88606" lon="6.13085">
        <ele>671</ele>
        <time>2010-01-01T00:34:11Z</time>
      </trkpt>
      <trkpt lat="45.88564" lon="6.13107">
        <ele>666</ele>
        <time>2010-01-01T00:34:29Z</time>
      </trkpt>
      <trkpt lat="45.88527" lon="6.13113">
        <ele>665</ele>
        <time>2010-01-01T00:34:44Z</time>
      </trkpt>
      <trkpt lat="45.88511" lon="6.13112">
        <ele>665</ele>
        <time>2010-01-01T00:34:50Z</time>
      </trkpt>
      <trkpt lat="45.88497" lon="6.13104">
        <ele>666</ele>
        <time>2010-01-01T00:34:56Z</time>
      </trkpt>
      <trkpt lat="45.88483" lon="6.13089">
        <ele>670</ele>
        <time>2010-01-01T00:35:03Z</time>
      </trkpt>
      <trkpt lat="45.88469" lon="6.13078">
        <ele>673</ele>
        <time>2010-01-01T00:35:09Z</time>
      </trkpt>
      <trkpt lat="45.88453" lon="6.13076">
        <ele>677</ele>
        <time>2010-01-01T00:35:16Z</time>
      </trkpt>
      <trkpt lat="45.88405" lon="6.13108">
        <ele>682</ele>
        <time>2010-01-01T00:35:37Z</time>
      </trkpt>
      <trkpt lat="45.88351" lon="6.13117">
        <ele>689</ele>
        <time>2010-01-01T00:35:59Z</time>
      </trkpt>
      <trkpt lat="45.88309" lon="6.13128">
        <ele>692</ele>
        <time>2010-01-01T00:36:16Z</time>
      </trkpt>
      <trkpt lat="45.88296" lon="6.13126">
        <ele>693</ele>
        <time>2010-01-01T00:36:21Z</time>
      </trkpt>
      <trkpt lat="45.88269" lon="6.13117">
        <ele>695</ele>
        <time>2010-01-01T00:36:32Z</time>
      </trkpt>
      <trkpt lat="45.88246" lon="6.13111">
        <ele>697</ele>
        <time>2010-01-01T00:36:42Z</time>
      </trkpt>
      <trkpt lat="45.88228" lon="6.13114">
        <ele>702</ele>
        <time>2010-01-01T00:36:49Z</time>
      </trkpt>
      <trkpt lat="45.88191" lon="6.13126">
        <ele>707</ele>
        <time>2010-01-01T00:37:04Z</time>
      </trkpt>
      <trkpt lat="45.88156" lon="6.13126">
        <ele>712</ele>
        <time>2010-01-01T00:37:18Z</time>
      </trkpt>
      <trkpt lat="45.88129" lon="6.13113">
        <ele>718</ele>
        <time>2010-01-01T00:37:29Z</time>
      </trkpt>
      <trkpt lat="45.88106" lon="6.13109">
        <ele>720</ele>
        <time>2010-01-01T00:37:39Z</time>
      </trkpt>
      <trkpt lat="45.88086" lon="6.13113">
        <ele>719</ele>
        <time>2010-01-01T00:37:47Z</time>
      </trkpt>
      <trkpt lat="45.8805" lon="6.13142">
        <ele>717</ele>
        <time>2010-01-01T00:38:03Z</time>
      </trkpt>
      <trkpt lat="45.88035" lon="6.13148">
        <ele>717</ele>
        <time>2010-01-01T00:38:10Z</time>
      </trkpt>
      <trkpt lat="45.88024" lon="6.13135">
        <ele>719</ele>
        <time>2010-01-01T00:38:15Z</time>
      </trkpt>
      <trkpt lat="45.88024" lon="6.1312">
        <ele>719</ele>
        <time>2010-01-01T00:38:19Z</time>
      </trkpt>
      <trkpt lat="45.88085" lon="6.13036">
        <ele>725</ele>
        <time>2010-01-01T00:38:53Z</time>
      </trkpt>
      <trkpt lat="45.88094" lon="6.13021">
        <ele>726</ele>
        <time>2010-01-01T00:38:59Z</time>
      </trkpt>
      <trkpt lat="45.88102" lon="6.12976">
        <ele>729</ele>
        <time>2010-01-01T00:39:12Z</time>
      </trkpt>
      <trkpt lat="45.88104" lon="6.1295">
        <ele>730</ele>
        <time>2010-01-01T00:39:19Z</time>
      </trkpt>
      <trkpt lat="45.88099" lon="6.12859">
        <ele>737</ele>
        <time>2010-01-01T00:39:44Z</time>
      </trkpt>
      <trkpt lat="45.88086" lon="6.12841">
        <ele>740</ele>
        <time>2010-01-01T00:39:52Z</time>
      </trkpt>
      <trkpt lat="45.88066" lon="6.1284">
        <ele>741</ele>
        <time>2010-01-01T00:40:00Z</time>
      </trkpt>
      <trkpt lat="45.88042" lon="6.12841">
        <ele>742</ele>
        <time>2010-01-01T00:40:09Z</time>
      </trkpt>
      <trkpt lat="45.88013" lon="6.12836">
        <ele>742</ele>
        <time>2010-01-01T00:40:21Z</time>
      </trkpt>
      <trkpt lat="45.87991" lon="6.12846">
        <ele>742</ele>
        <time>2010-01-01T00:40:30Z</time>
      </trkpt>
      <trkpt lat="45.87956" lon="6.12854">
        <ele>744</ele>
        <time>2010-01-01T00:40:44Z</time>
      </trkpt>
      <trkpt lat="45.87931" lon="6.12847">
        <ele>746</ele>
        <time>2010-01-01T00:40:55Z</time>
      </trkpt>
      <trkpt lat="45.87918" lon="6.12834">
        <ele>748</ele>
        <time>2010-01-01T00:41:01Z</time>
      </trkpt>
      <trkpt lat="45.87904" lon="6.128">
        <ele>753</ele>
        <time>2010-01-01T00:41:12Z</time>
      </trkpt>
      <trkpt lat="45.87882" lon="6.12778">
        <ele>756</ele>
        <time>2010-01-01T00:41:23Z</time>
      </trkpt>
      <trkpt lat="45.87801" lon="6.12734">
        <ele>768</ele>
        <time>2010-01-01T00:41:57Z</time>
      </trkpt>
      <trkpt lat="45.87775" lon="6.12735">
        <ele>771</ele>
        <time>2010-01-01T00:42:08Z</time>
      </trkpt>
      <trkpt lat="45.87746" lon="6.12732">
        <ele>773</ele>
        <time>2010-01-01T00:42:19Z</time>
      </trkpt>
      <trkpt lat="45.8773" lon="6.12728">
        <ele>773</ele>
        <time>2010-01-01T00:42:26Z</time>
      </trkpt>
      <trkpt lat="45.8766" lon="6.12686">
        <ele>778</ele>
        <time>2010-01-01T00:42:56Z</time>
      </trkpt>
      <trkpt lat="45.87642" lon="6.12673">
        <ele>780</ele>
        <time>2010-01-01T00:43:04Z</time>
      </trkpt>
      <trkpt lat="45.87642" lon="6.12672">
        <ele>781</ele>
        <time>2010-01-01T00:43:05Z</time>
      </trkpt>
      <trkpt lat="45.87626" lon="6.1266">
        <ele>783</ele>
        <time>2010-01-01T00:43:12Z</time>
      </trkpt>
      <trkpt lat="45.8759" lon="6.12651">
        <ele>785</ele>
        <time>2010-01-01T00:43:26Z</time>
      </trkpt>
      <trkpt lat="45.87537" lon="6.12653">
        <ele>785</ele>
        <time>2010-01-01T00:43:48Z</time>
      </trkpt>
      <trkpt lat="45.87514" lon="6.12651">
        <ele>785</ele>
        <time>2010-01-01T00:43:57Z</time>
      </trkpt>
      <trkpt lat="45.87488" lon="6.12646">
        <ele>785</ele>
        <time>2010-01-01T00:44:07Z</time>
      </trkpt>
      <trkpt lat="45.87474" lon="6.12636">
        <ele>786</ele>
        <time>2010-01-01T00:44:14Z</time>
      </trkpt>
      <trkpt lat="45.87444" lon="6.12607">
        <ele>788</ele>
        <time>2010-01-01T00:44:28Z</time>
      </trkpt>
      <trkpt lat="45.87427" lon="6.1258">
        <ele>790</ele>
        <time>2010-01-01T00:44:38Z</time>
      </trkpt>
      <trkpt lat="45.87377" lon="6.12489">
        <ele>797</ele>
        <time>2010-01-01T00:45:11Z</time>
      </trkpt>
      <trkpt lat="45.87349" lon="6.12434">
        <ele>799</ele>
        <time>2010-01-01T00:45:30Z</time>
      </trkpt>
      <trkpt lat="45.87332" lon="6.12392">
        <ele>800</ele>
        <time>2010-01-01T00:45:43Z</time>
      </trkpt>
      <trkpt lat="45.87313" lon="6.1237">
        <ele>802</ele>
        <time>2010-01-01T00:45:53Z</time>
      </trkpt>
      <trkpt lat="45.87254" lon="6.12327">
        <ele>802</ele>
        <time>2010-01-01T00:46:19Z</time>
      </trkpt>
      <trkpt lat="45.87216" lon="6.12318">
        <ele>802</ele>
        <time>2010-01-01T00:46:35Z</time>
      </trkpt>
      <trkpt lat="45.87184" lon="6.12315">
        <ele>801</ele>
        <time>2010-01-01T00:46:48Z</time>
      </trkpt>
      <trkpt lat="45.87154" lon="6.12297">
        <ele>801</ele>
        <time>2010-01-01T00:47:01Z</time>
      </trkpt>
      <trkpt lat="45.87124" lon="6.12262">
        <ele>805</ele>
        <time>2010-01-01T00:47:16Z</time>
      </trkpt>
      <trkpt lat="45.87088" lon="6.12228">
        <ele>807</ele>
        <time>2010-01-01T00:47:33Z</time>
      </trkpt>
      <trkpt lat="45.87006" lon="6.12206">
        <ele>812</ele>
        <time>2010-01-01T00:48:07Z</time>
      </trkpt>
      <trkpt lat="45.86941" lon="6.1217">
        <ele>816</ele>
        <time>2010-01-01T00:48:35Z</time>
      </trkpt>
      <trkpt lat="45.86884" lon="6.12154">
        <ele>817</ele>
        <time>2010-01-01T00:48:58Z</time>
      </trkpt>
      <trkpt lat="45.86831" lon="6.12124">
        <ele>816</ele>
        <time>2010-01-01T00:49:21Z</time>
      </trkpt>
      <trkpt lat="45.86783" lon="6.12101">
        <ele>818</ele>
        <time>2010-01-01T00:49:41Z</time>
      </trkpt>
      <trkpt lat="45.86712" lon="6.12097">
        <ele>815</ele>
        <time>2010-01-01T00:50:09Z</time>
      </trkpt>
      <trkpt lat="45.86678" lon="6.12092">
        <ele>816</ele>
        <time>2010-01-01T00:50:23Z</time>
      </trkpt>
      <trkpt lat="45.86656" lon="6.12092">
        <ele>816</ele>
        <time>2010-01-01T00:50:32Z</time>
      </trkpt>
      <trkpt lat="45.86605" lon="6.12104">
        <ele>811</ele>
        <time>2010-01-01T00:50:53Z</time>
      </trkpt>
      <trkpt lat="45.8654" lon="6.12116">
        <ele>808</ele>
        <time>2010-01-01T00:51:19Z</time>
      </trkpt>
      <trkpt lat="45.86526" lon="6.12114">
        <ele>809</ele>
        <time>2010-01-01T00:51:24Z</time>
      </trkpt>
      <trkpt lat="45.86499" lon="6.12096">
        <ele>811</ele>
        <time>2010-01-01T00:51:36Z</time>
      </trkpt>
      <trkpt lat="45.86477" lon="6.12086">
        <ele>814</ele>
        <time>2010-01-01T00:51:46Z</time>
      </trkpt>
      <trkpt lat="45.86454" lon="6.12084">
        <ele>816</ele>
        <time>2010-01-01T00:51:55Z</time>
      </trkpt>
      <trkpt lat="45.86431" lon="6.12093">
        <ele>817</ele>
        <time>2010-01-01T00:52:04Z</time>
      </trkpt>
      <trkpt lat="45.86401" lon="6.12129">
        <ele>820</ele>
        <time>2010-01-01T00:52:20Z</time>
      </trkpt>
      <trkpt lat="45.86325" lon="6.12264">
        <ele>836</ele>
        <time>2010-01-01T00:53:08Z</time>
      </trkpt>
      <trkpt lat="45.86311" lon="6.12282">
        <ele>838</ele>
        <time>2010-01-01T00:53:16Z</time>
      </trkpt>
      <trkpt lat="45.86284" lon="6.12291">
        <ele>839</ele>
        <time>2010-01-01T00:53:27Z</time>
      </trkpt>
      <trkpt lat="45.86263" lon="6.12291">
        <ele>841</ele>
        <time>2010-01-01T00:53:35Z</time>
      </trkpt>
      <trkpt lat="45.86242" lon="6.12282">
        <ele>842</ele>
        <time>2010-01-01T00:53:44Z</time>
      </trkpt>
      <trkpt lat="45.86187" lon="6.12252">
        <ele>842</ele>
        <time>2010-01-01T00:54:08Z</time>
      </trkpt>
      <trkpt lat="45.8615" lon="6.1225">
        <ele>841</ele>
        <time>2010-01-01T00:54:23Z</time>
      </trkpt>
      <trkpt lat="45.86094" lon="6.12267">
        <ele>842</ele>
        <time>2010-01-01T00:54:46Z</time>
      </trkpt>
      <trkpt lat="45.86058" lon="6.12267">
        <ele>845</ele>
        <time>2010-01-01T00:55:00Z</time>
      </trkpt>
      <trkpt lat="45.86001" lon="6.12273">
        <ele>850</ele>
        <time>2010-01-01T00:55:23Z</time>
      </trkpt>
      <trkpt lat="45.85974" lon="6.12272">
        <ele>851</ele>
        <time>2010-01-01T00:55:34Z</time>
      </trkpt>
      <trkpt lat="45.85949" lon="6.12261">
        <ele>851</ele>
        <time>2010-01-01T00:55:44Z</time>
      </trkpt>
      <trkpt lat="45.85907" lon="6.12232">
        <ele>849</ele>
        <time>2010-01-01T00:56:03Z</time>
      </trkpt>
      <trkpt lat="45.85878" lon="6.12196">
        <ele>847</ele>
        <time>2010-01-01T00:56:18Z</time>
      </trkpt>
      <trkpt lat="45.85834" lon="6.12163">
        <ele>846</ele>
        <time>2010-01-01T00:56:38Z</time>
      </trkpt>
      <trkpt lat="45.85798" lon="6.12121">
        <ele>850</ele>
        <time>2010-01-01T00:56:57Z</time>
      </trkpt>
      <trkpt lat="45.8578" lon="6.1208">
        <ele>854</ele>
        <time>2010-01-01T00:57:10Z</time>
      </trkpt>
      <trkpt lat="45.85753" lon="6.12031">
        <ele>856</ele>
        <time>2010-01-01T00:57:27Z</time>
      </trkpt>
      <trkpt lat="45.85748" lon="6.12017">
        <ele>857</ele>
        <time>2010-01-01T00:57:32Z</time>
      </trkpt>
      <trkpt lat="45.85746" lon="6.11989">
        <ele>857</ele>
        <time>2010-01-01T00:57:40Z</time>
      </trkpt>
      <trkpt lat="45.85753" lon="6.11894">
        <ele>858</ele>
        <time>2010-01-01T00:58:06Z</time>
      </trkpt>
      <trkpt lat="45.85748" lon="6.11843">
        <ele>861</ele>
        <time>2010-01-01T00:58:21Z</time>
      </trkpt>
      <trkpt lat="45.85746" lon="6.11779">
        <ele>860</ele>
        <time>2010-01-01T00:58:39Z</time>
      </trkpt>
      <trkpt lat="45.85742" lon="6.11755">
        <ele>862</ele>
        <time>2010-01-01T00:58:45Z</time>
      </trkpt>
      <trkpt lat="45.85738" lon="6.11744">
        <ele>863</ele>
        <time>2010-01-01T00:58:49Z</time>
      </trkpt>
      <trkpt lat="45.85723" lon="6.11721">
        <ele>864</ele>
        <time>2010-01-01T00:58:58Z</time>
      </trkpt>
      <trkpt lat="45.85708" lon="6.11711">
        <ele>867</ele>
        <time>2010-01-01T00:59:04Z</time>
      </trkpt>
      <trkpt lat="45.85694" lon="6.11708">
        <ele>869</ele>
        <time>2010-01-01T00:59:10Z</time>
      </trkpt>
      <trkpt lat="45.85657" lon="6.1171">
        <ele>871</ele>
        <time>2010-01-01T00:59:25Z</time>
      </trkpt>
      <trkpt lat="45.8562" lon="6.11708">
        <ele>873</ele>
        <time>2010-01-01T00:59:40Z</time>
      </trkpt>
      <trkpt lat="45.85603" lon="6.11704">
        <ele>875</ele>
        <time>2010-01-01T00:59:46Z</time>
      </trkpt>
      <trkpt lat="45.85589" lon="6.11694">
        <ele>876</ele>
        <time>2010-01-01T00:59:53Z</time>
      </trkpt>
      <trkpt lat="45.85574" lon="6.11677">
        <ele>879</ele>
        <time>2010-01-01T01:00:00Z</time>
      </trkpt>
      <trkpt lat="45.85563" lon="6.11656">
        <ele>881</ele>
        <time>2010-01-01T01:00:08Z</time>
      </trkpt>
      <trkpt lat="45.85545" lon="6.11585">
        <ele>882</ele>
        <time>2010-01-01T01:00:29Z</time>
      </trkpt>
      <trkpt lat="45.8553" lon="6.11555">
        <ele>884</ele>
        <time>2010-01-01T01:00:39Z</time>
      </trkpt>
      <trkpt lat="45.85517" lon="6.11535">
        <ele>886</ele>
        <time>2010-01-01T01:00:47Z</time>
      </trkpt>
      <trkpt lat="45.85496" lon="6.11519">
        <ele>888</ele>
        <time>2010-01-01T01:00:56Z</time>
      </trkpt>
      <trkpt lat="45.85482" lon="6.11514">
        <ele>891</ele>
        <time>2010-01-01T01:01:02Z</time>
      </trkpt>
      <trkpt lat="45.85459" lon="6.11519">
        <ele>894</ele>
        <time>2010-01-01T01:01:11Z</time>
      </trkpt>
      <trkpt lat="45.85385" lon="6.1152">
        <ele>896</ele>
        <time>2010-01-01T01:01:41Z</time>
      </trkpt>
      <trkpt lat="45.85352" lon="6.11515">
        <ele>897</ele>
        <time>2010-01-01T01:01:54Z</time>
      </trkpt>
      <trkpt lat="45.85333" lon="6.11507">
        <ele>898</ele>
        <time>2010-01-01T01:02:02Z</time>
      </trkpt>
      <trkpt lat="45.85252" lon="6.11455">
        <ele>900</ele>
        <time>2010-01-01T01:02:38Z</time>
      </trkpt>
      <trkpt lat="45.85229" lon="6.1143">
        <ele>898</ele>
        <time>2010-01-01T01:02:49Z</time>
      </trkpt>
      <trkpt lat="45.85181" lon="6.1135">
        <ele>898</ele>
        <time>2010-01-01T01:03:19Z</time>
      </trkpt>
      <trkpt lat="45.85166" lon="6.11332">
        <ele>898</ele>
        <time>2010-01-01T01:03:26Z</time>
      </trkpt>
      <trkpt lat="45.85137" lon="6.11319">
        <ele>896</ele>
        <time>2010-01-01T01:03:39Z</time>
      </trkpt>
      <trkpt lat="45.85074" lon="6.11307">
        <ele>898</ele>
        <time>2010-01-01T01:04:04Z</time>
      </trkpt>
      <trkpt lat="45.85031" lon="6.1128">
        <ele>900</ele>
        <time>2010-01-01T01:04:23Z</time>
      </trkpt>
      <trkpt lat="45.84988" lon="6.11244">
        <ele>908</ele>
        <time>2010-01-01T01:04:43Z</time>
      </trkpt>
      <trkpt lat="45.84948" lon="6.11228">
        <ele>917</ele>
        <time>2010-01-01T01:04:59Z</time>
      </trkpt>
      <trkpt lat="45.84899" lon="6.11219">
        <ele>921</ele>
        <time>2010-01-01T01:05:19Z</time>
      </trkpt>
      <trkpt lat="45.84855" lon="6.11196">
        <ele>925</ele>
        <time>2010-01-01T01:05:38Z</time>
      </trkpt>
      <trkpt lat="45.84839" lon="6.11176">
        <ele>926</ele>
        <time>2010-01-01T01:05:46Z</time>
      </trkpt>
      <trkpt lat="45.84817" lon="6.11164">
        <ele>926</ele>
        <time>2010-01-01T01:05:56Z</time>
      </trkpt>
      <trkpt lat="45.84736" lon="6.1115">
        <ele>930</ele>
        <time>2010-01-01T01:06:28Z</time>
      </trkpt>
      <trkpt lat="45.84692" lon="6.11136">
        <ele>936</ele>
        <time>2010-01-01T01:06:47Z</time>
      </trkpt>
      <trkpt lat="45.84626" lon="6.11124">
        <ele>940</ele>
        <time>2010-01-01T01:07:13Z</time>
      </trkpt>
      <trkpt lat="45.84557" lon="6.11088">
        <ele>947</ele>
        <time>2010-01-01T01:07:43Z</time>
      </trkpt>
      <trkpt lat="45.8454" lon="6.11075">
        <ele>949</ele>
        <time>2010-01-01T01:07:50Z</time>
      </trkpt>
      <trkpt lat="45.84525" lon="6.11055">
        <ele>949</ele>
        <time>2010-01-01T01:07:58Z</time>
      </trkpt>
      <trkpt lat="45.84459" lon="6.1099">
        <ele>958</ele>
        <time>2010-01-01T01:08:30Z</time>
      </trkpt>
      <trkpt lat="45.84365" lon="6.10917">
        <ele>960</ele>
        <time>2010-01-01T01:09:13Z</time>
      </trkpt>
      <trkpt lat="45.84306" lon="6.10887">
        <ele>963</ele>
        <time>2010-01-01T01:09:38Z</time>
      </trkpt>
      <trkpt lat="45.84274" lon="6.10868">
        <ele>964</ele>
        <time>2010-01-01T01:09:52Z</time>
      </trkpt>
      <trkpt lat="45.84242" lon="6.10844">
        <ele>967</ele>
        <time>2010-01-01T01:10:07Z</time>
      </trkpt>
      <trkpt lat="45.84197" lon="6.1082">
        <ele>975</ele>
        <time>2010-01-01T01:10:26Z</time>
      </trkpt>
      <trkpt lat="45.84128" lon="6.10769">
        <ele>980</ele>
        <time>2010-01-01T01:10:57Z</time>
      </trkpt>
      <trkpt lat="45.84057" lon="6.10742">
        <ele>986</ele>
        <time>2010-01-01T01:11:26Z</time>
      </trkpt>
      <trkpt lat="45.83996" lon="6.10707">
        <ele>992</ele>
        <time>2010-01-01T01:11:53Z</time>
      </trkpt>
      <trkpt lat="45.839" lon="6.10636">
        <ele>1003</ele>
        <time>2010-01-01T01:12:36Z</time>
      </trkpt>
      <trkpt lat="45.83832" lon="6.10594">
        <ele>1009</ele>
        <time>2010-01-01T01:13:05Z</time>
      </trkpt>
      <trkpt lat="45.83778" lon="6.10571">
        <ele>1018</ele>
        <time>2010-01-01T01:13:28Z</time>
      </trkpt>
      <trkpt lat="45.83679" lon="6.10495">
        <ele>1034</ele>
        <time>2010-01-01T01:14:13Z</time>
      </trkpt>
      <trkpt lat="45.83653" lon="6.10473">
        <ele>1038</ele>
        <time>2010-01-01T01:14:25Z</time>
      </trkpt>
      <trkpt lat="45.83635" lon="6.1045">
        <ele>1042</ele>
        <time>2010-01-01T01:14:35Z</time>
      </trkpt>
      <trkpt lat="45.83617" lon="6.10413">
        <ele>1043</ele>
        <time>2010-01-01T01:14:47Z</time>
      </trkpt>
      <trkpt lat="45.83596" lon="6.10384">
        <ele>1043</ele>
        <time>2010-01-01T01:14:59Z</time>
      </trkpt>
      <trkpt lat="45.8357" lon="6.10362">
        <ele>1044</ele>
        <time>2010-01-01T01:15:11Z</time>
      </trkpt>
      <trkpt lat="45.83519" lon="6.10333">
        <ele>1050</ele>
        <time>2010-01-01T01:15:33Z</time>
      </trkpt>
      <trkpt lat="45.8346" lon="6.10319">
        <ele>1063</ele>
        <time>2010-01-01T01:15:57Z</time>
      </trkpt>
      <trkpt lat="45.83428" lon="6.10303">
        <ele>1070</ele>
        <time>2010-01-01T01:16:11Z</time>
      </trkpt>
      <trkpt lat="45.83355" lon="6.10236">
        <ele>1072</ele>
        <time>2010-01-01T01:16:45Z</time>
      </trkpt>
      <trkpt lat="45.83306" lon="6.10182">
        <ele>1078</ele>
        <time>2010-01-01T01:17:10Z</time>
      </trkpt>
      <trkpt lat="45.83245" lon="6.10105">
        <ele>1085</ele>
        <time>2010-01-01T01:17:42Z</time>
      </trkpt>
      <trkpt lat="45.83216" lon="6.1006">
        <ele>1085</ele>
        <time>2010-01-01T01:18:00Z</time>
      </trkpt>
      <trkpt lat="45.83178" lon="6.1002">
        <ele>1092</ele>
        <time>2010-01-01T01:18:18Z</time>
      </trkpt>
      <trkpt lat="45.8316" lon="6.10007">
        <ele>1094</ele>
        <time>2010-01-01T01:18:26Z</time>
      </trkpt>
      <trkpt lat="45.83131" lon="6.09992">
        <ele>1097</ele>
        <time>2010-01-01T01:18:39Z</time>
      </trkpt>
      <trkpt lat="45.83093" lon="6.09969">
        <ele>1099</ele>
        <time>2010-01-01T01:18:55Z</time>
      </trkpt>
      <trkpt lat="45.8306" lon="6.09958">
        <ele>1102</ele>
        <time>2010-01-01T01:19:09Z</time>
      </trkpt>
      <trkpt lat="45.8304" lon="6.09948">
        <ele>1105</ele>
        <time>2010-01-01T01:19:17Z</time>
      </trkpt>
      <trkpt lat="45.83029" lon="6.0995">
        <ele>1109</ele>
        <time>2010-01-01T01:19:22Z</time>
      </trkpt>
      <trkpt lat="45.8302" lon="6.09957">
        <ele>1114</ele>
        <time>2010-01-01T01:19:26Z</time>
      </trkpt>
      <trkpt lat="45.83024" lon="6.09968">
        <ele>1114</ele>
        <time>2010-01-01T01:19:29Z</time>
      </trkpt>
      <trkpt lat="45.83065" lon="6.10002">
        <ele>1111</ele>
        <time>2010-01-01T01:19:48Z</time>
      </trkpt>
      <trkpt lat="45.83077" lon="6.10027">
        <ele>1115</ele>
        <time>2010-01-01T01:19:57Z</time>
      </trkpt>
      <trkpt lat="45.83091" lon="6.1007">
        <ele>1120</ele>
        <time>2010-01-01T01:20:10Z</time>
      </trkpt>
      <trkpt lat="45.83099" lon="6.10142">
        <ele>1126</ele>
        <time>2010-01-01T01:20:30Z</time>
      </trkpt>
      <trkpt lat="45.83112" lon="6.10204">
        <ele>1129</ele>
        <time>2010-01-01T01:20:48Z</time>
      </trkpt>
      <trkpt lat="45.83128" lon="6.10241">
        <ele>1134</ele>
        <time>2010-01-01T01:21:01Z</time>
      </trkpt>
      <trkpt lat="45.83137" lon="6.10255">
        <ele>1136</ele>
        <time>2010-01-01T01:21:06Z</time>
      </trkpt>
      <trkpt lat="45.8316" lon="6.10272">
        <ele>1137</ele>
        <time>2010-01-01T01:21:16Z</time>
      </trkpt>
      <trkpt lat="45.8316" lon="6.10279">
        <ele>1138</ele>
        <time>2010-01-01T01:21:18Z</time>
      </trkpt>
      <trkpt lat="45.83157" lon="6.10283">
        <ele>1140</ele>
        <time>2010-01-01T01:21:20Z</time>
      </trkpt>
      <trkpt lat="45.8315" lon="6.10285">
        <ele>1143</ele>
        <time>2010-01-01T01:21:23Z</time>
      </trkpt>
      <trkpt lat="45.83141" lon="6.10282">
        <ele>1144</ele>
        <time>2010-01-01T01:21:26Z</time>
      </trkpt>
      <trkpt lat="45.83069" lon="6.10235">
        <ele>1151</ele>
        <time>2010-01-01T01:21:58Z</time>
      </trkpt>
      <trkpt lat="45.83051" lon="6.10216">
        <ele>1155</ele>
        <time>2010-01-01T01:22:07Z</time>
      </trkpt>
      <trkpt lat="45.8302" lon="6.1017">
        <ele>1157</ele>
        <time>2010-01-01T01:22:25Z</time>
      </trkpt>
      <trkpt lat="45.82993" lon="6.1015">
        <ele>1160</ele>
        <time>2010-01-01T01:22:37Z</time>
      </trkpt>
      <trkpt lat="45.82964" lon="6.10136">
        <ele>1167</ele>
        <time>2010-01-01T01:22:49Z</time>
      </trkpt>
      <trkpt lat="45.82943" lon="6.10122">
        <ele>1171</ele>
        <time>2010-01-01T01:22:59Z</time>
      </trkpt>
      <trkpt lat="45.82931" lon="6.1011">
        <ele>1172</ele>
        <time>2010-01-01T01:23:04Z</time>
      </trkpt>
      <trkpt lat="45.82913" lon="6.1008">
        <ele>1174</ele>
        <time>2010-01-01T01:23:15Z</time>
      </trkpt>
      <trkpt lat="45.82895" lon="6.10058">
        <ele>1175</ele>
        <time>2010-01-01T01:23:25Z</time>
      </trkpt>
      <trkpt lat="45.82879" lon="6.10043">
        <ele>1178</ele>
        <time>2010-01-01T01:23:33Z</time>
      </trkpt>
      <trkpt lat="45.82836" lon="6.10019">
        <ele>1182</ele>
        <time>2010-01-01T01:23:51Z</time>
      </trkpt>
      <trkpt lat="45.82787" lon="6.10019">
        <ele>1186</ele>
        <time>2010-01-01T01:24:11Z</time>
      </trkpt>
      <trkpt lat="45.82769" lon="6.10012">
        <ele>1188</ele>
        <time>2010-01-01T01:24:18Z</time>
      </trkpt>
      <trkpt lat="45.82748" lon="6.09999">
        <ele>1192</ele>
        <time>2010-01-01T01:24:27Z</time>
      </trkpt>
      <trkpt lat="45.82712" lon="6.09973">
        <ele>1197</ele>
        <time>2010-01-01T01:24:43Z</time>
      </trkpt>
      <trkpt lat="45.82649" lon="6.09932">
        <ele>1202</ele>
        <time>2010-01-01T01:25:11Z</time>
      </trkpt>
      <trkpt lat="45.82621" lon="6.09932">
        <ele>1208</ele>
        <time>2010-01-01T01:25:22Z</time>
      </trkpt>
      <trkpt lat="45.82546" lon="6.09891">
        <ele>1211</ele>
        <time>2010-01-01T01:25:54Z</time>
      </trkpt>
      <trkpt lat="45.825" lon="6.09856">
        <ele>1216</ele>
        <time>2010-01-01T01:26:15Z</time>
      </trkpt>
      <trkpt lat="45.82421" lon="6.09832">
        <ele>1228</ele>
        <time>2010-01-01T01:26:48Z</time>
      </trkpt>
      <trkpt lat="45.82349" lon="6.09823">
        <ele>1239</ele>
        <time>2010-01-01T01:27:16Z</time>
      </trkpt>
      <trkpt lat="45.82333" lon="6.09817">
        <ele>1239</ele>
        <time>2010-01-01T01:27:23Z</time>
      </trkpt>
      <trkpt lat="45.82309" lon="6.09788">
        <ele>1234</ele>
        <time>2010-01-01T01:27:36Z</time>
      </trkpt>
      <trkpt lat="45.82286" lon="6.09777">
        <ele>1235</ele>
        <time>2010-01-01T01:27:45Z</time>
      </trkpt>
      <trkpt lat="45.82261" lon="6.09777">
        <ele>1238</ele>
        <time>2010-01-01T01:27:55Z</time>
      </trkpt>
      <trkpt lat="45.8223" lon="6.09789">
        <ele>1240</ele>
        <time>2010-01-01T01:28:08Z</time>
      </trkpt>
      <trkpt lat="45.82193" lon="6.09825">
        <ele>1246</ele>
        <time>2010-01-01T01:28:26Z</time>
      </trkpt>
      <trkpt lat="45.82175" lon="6.09861">
        <ele>1253</ele>
        <time>2010-01-01T01:28:38Z</time>
      </trkpt>
      <trkpt lat="45.82165" lon="6.09875">
        <ele>1255</ele>
        <time>2010-01-01T01:28:44Z</time>
      </trkpt>
      <trkpt lat="45.82153" lon="6.09881">
        <ele>1256</ele>
        <time>2010-01-01T01:28:49Z</time>
      </trkpt>
      <trkpt lat="45.82135" lon="6.09879">
        <ele>1255</ele>
        <time>2010-01-01T01:28:56Z</time>
      </trkpt>
      <trkpt lat="45.82117" lon="6.09882">
        <ele>1255</ele>
        <time>2010-01-01T01:29:04Z</time>
      </trkpt>
      <trkpt lat="45.82091" lon="6.09907">
        <ele>1259</ele>
        <time>2010-01-01T01:29:16Z</time>
      </trkpt>
      <trkpt lat="45.8208" lon="6.09913">
        <ele>1260</ele>
        <time>2010-01-01T01:29:21Z</time>
      </trkpt>
      <trkpt lat="45.82069" lon="6.09913">
        <ele>1260</ele>
        <time>2010-01-01T01:29:25Z</time>
      </trkpt>
      <trkpt lat="45.82027" lon="6.09896">
        <ele>1264</ele>
        <time>2010-01-01T01:29:43Z</time>
      </trkpt>
      <trkpt lat="45.82015" lon="6.09893">
        <ele>1267</ele>
        <time>2010-01-01T01:29:48Z</time>
      </trkpt>
      <trkpt lat="45.81982" lon="6.09897">
        <ele>1274</ele>
        <time>2010-01-01T01:30:01Z</time>
      </trkpt>
      <trkpt lat="45.81952" lon="6.09888">
        <ele>1277</ele>
        <time>2010-01-01T01:30:13Z</time>
      </trkpt>
      <trkpt lat="45.81855" lon="6.09837">
        <ele>1284</ele>
        <time>2010-01-01T01:30:55Z</time>
      </trkpt>
      <trkpt lat="45.81812" lon="6.09798">
        <ele>1285</ele>
        <time>2010-01-01T01:31:15Z</time>
      </trkpt>
      <trkpt lat="45.81803" lon="6.09794">
        <ele>1286</ele>
        <time>2010-01-01T01:31:19Z</time>
      </trkpt>
      <trkpt lat="45.81798" lon="6.09801">
        <ele>1289</ele>
        <time>2010-01-01T01:31:21Z</time>
      </trkpt>
      <trkpt lat="45.81796" lon="6.09813">
        <ele>1293</ele>
        <time>2010-01-01T01:31:25Z</time>
      </trkpt>
      <trkpt lat="45.81803" lon="6.09823">
        <ele>1294</ele>
        <time>2010-01-01T01:31:29Z</time>
      </trkpt>
      <trkpt lat="45.81839" lon="6.09863">
        <ele>1293</ele>
        <time>2010-01-01T01:31:47Z</time>
      </trkpt>
      <trkpt lat="45.81861" lon="6.099">
        <ele>1296</ele>
        <time>2010-01-01T01:32:01Z</time>
      </trkpt>
      <trkpt lat="45.8188" lon="6.09945">
        <ele>1304</ele>
        <time>2010-01-01T01:32:15Z</time>
      </trkpt>
      <trkpt lat="45.81962" lon="6.10047">
        <ele>1307</ele>
        <time>2010-01-01T01:32:59Z</time>
      </trkpt>
      <trkpt lat="45.81971" lon="6.10068">
        <ele>1310</ele>
        <time>2010-01-01T01:33:06Z</time>
      </trkpt>
      <trkpt lat="45.81976" lon="6.10093">
        <ele>1313</ele>
        <time>2010-01-01T01:33:13Z</time>
      </trkpt>
      <trkpt lat="45.81972" lon="6.1013">
        <ele>1319</ele>
        <time>2010-01-01T01:33:23Z</time>
      </trkpt>
      <trkpt lat="45.81971" lon="6.10156">
        <ele>1322</ele>
        <time>2010-01-01T01:33:31Z</time>
      </trkpt>
      <trkpt lat="45.81979" lon="6.10185">
        <ele>1324</ele>
        <time>2010-01-01T01:33:39Z</time>
      </trkpt>
      <trkpt lat="45.81991" lon="6.10211">
        <ele>1325</ele>
        <time>2010-01-01T01:33:48Z</time>
      </trkpt>
      <trkpt lat="45.82036" lon="6.1034">
        <ele>1337</ele>
        <time>2010-01-01T01:34:28Z</time>
      </trkpt>
      <trkpt lat="45.8207" lon="6.10396">
        <ele>1336</ele>
        <time>2010-01-01T01:34:49Z</time>
      </trkpt>
      <trkpt lat="45.82078" lon="6.10421">
        <ele>1337</ele>
        <time>2010-01-01T01:34:57Z</time>
      </trkpt>
      <trkpt lat="45.82074" lon="6.10426">
        <ele>1338</ele>
        <time>2010-01-01T01:34:59Z</time>
      </trkpt>
      <trkpt lat="45.82065" lon="6.10428">
        <ele>1340</ele>
        <time>2010-01-01T01:35:02Z</time>
      </trkpt>
      <trkpt lat="45.82053" lon="6.10419">
        <ele>1341</ele>
        <time>2010-01-01T01:35:08Z</time>
      </trkpt>
      <trkpt lat="45.82013" lon="6.10375">
        <ele>1346</ele>
        <time>2010-01-01T01:35:28Z</time>
      </trkpt>
      <trkpt lat="45.82002" lon="6.10369">
        <ele>1348</ele>
        <time>2010-01-01T01:35:33Z</time>
      </trkpt>
      <trkpt lat="45.81991" lon="6.10367">
        <ele>1349</ele>
        <time>2010-01-01T01:35:37Z</time>
      </trkpt>
      <trkpt lat="45.81967" lon="6.10377">
        <ele>1351</ele>
        <time>2010-01-01T01:35:47Z</time>
      </trkpt>
      <trkpt lat="45.81959" lon="6.10387">
        <ele>1352</ele>
        <time>2010-01-01T01:35:51Z</time>
      </trkpt>
      <trkpt lat="45.81955" lon="6.10401">
        <ele>1353</ele>
        <time>2010-01-01T01:35:56Z</time>
      </trkpt>
      <trkpt lat="45.81952" lon="6.10446">
        <ele>1358</ele>
        <time>2010-01-01T01:36:08Z</time>
      </trkpt>
      <trkpt lat="45.8195" lon="6.10453">
        <ele>1359</ele>
        <time>2010-01-01T01:36:10Z</time>
      </trkpt>
      <trkpt lat="45.81944" lon="6.10462">
        <ele>1361</ele>
        <time>2010-01-01T01:36:14Z</time>
      </trkpt>
      <trkpt lat="45.8193" lon="6.10465">
        <ele>1363</ele>
        <time>2010-01-01T01:36:19Z</time>
      </trkpt>
      <trkpt lat="45.81919" lon="6.1047">
        <ele>1364</ele>
        <time>2010-01-01T01:36:24Z</time>
      </trkpt>
      <trkpt lat="45.81908" lon="6.10467">
        <ele>1365</ele>
        <time>2010-01-01T01:36:29Z</time>
      </trkpt>
      <trkpt lat="45.81895" lon="6.10456">
        <ele>1364</ele>
        <time>2010-01-01T01:36:35Z</time>
      </trkpt>
      <trkpt lat="45.81819" lon="6.10381">
        <ele>1372</ele>
        <time>2010-01-01T01:37:12Z</time>
      </trkpt>
      <trkpt lat="45.81793" lon="6.10353">
        <ele>1372</ele>
        <time>2010-01-01T01:37:25Z</time>
      </trkpt>
      <trkpt lat="45.81771" lon="6.10337">
        <ele>1373</ele>
        <time>2010-01-01T01:37:34Z</time>
      </trkpt>
      <trkpt lat="45.81748" lon="6.10339">
        <ele>1376</ele>
        <time>2010-01-01T01:37:44Z</time>
      </trkpt>
      <trkpt lat="45.81741" lon="6.10336">
        <ele>1377</ele>
        <time>2010-01-01T01:37:47Z</time>
      </trkpt>
      <trkpt lat="45.81731" lon="6.10325">
        <ele>1378</ele>
        <time>2010-01-01T01:37:52Z</time>
      </trkpt>
      <trkpt lat="45.81727" lon="6.10313">
        <ele>1377</ele>
        <time>2010-01-01T01:37:55Z</time>
      </trkpt>
      <trkpt lat="45.81725" lon="6.10264">
        <ele>1378</ele>
        <time>2010-01-01T01:38:09Z</time>
      </trkpt>
      <trkpt lat="45.8172" lon="6.10226">
        <ele>1383</ele>
        <time>2010-01-01T01:38:20Z</time>
      </trkpt>
      <trkpt lat="45.81709" lon="6.10191">
        <ele>1387</ele>
        <time>2010-01-01T01:38:31Z</time>
      </trkpt>
      <trkpt lat="45.81686" lon="6.10134">
        <ele>1393</ele>
        <time>2010-01-01T01:38:49Z</time>
      </trkpt>
      <trkpt lat="45.81677" lon="6.10116">
        <ele>1395</ele>
        <time>2010-01-01T01:38:55Z</time>
      </trkpt>
      <trkpt lat="45.81659" lon="6.1009">
        <ele>1396</ele>
        <time>2010-01-01T01:39:05Z</time>
      </trkpt>
      <trkpt lat="45.81634" lon="6.10073">
        <ele>1399</ele>
        <time>2010-01-01T01:39:16Z</time>
      </trkpt>
      <trkpt lat="45.81576" lon="6.10057">
        <ele>1407</ele>
        <time>2010-01-01T01:39:40Z</time>
      </trkpt>
      <trkpt lat="45.81551" lon="6.10044">
        <ele>1407</ele>
        <time>2010-01-01T01:39:51Z</time>
      </trkpt>
      <trkpt lat="45.81534" lon="6.10039">
        <ele>1408</ele>
        <time>2010-01-01T01:39:58Z</time>
      </trkpt>
      <trkpt lat="45.81519" lon="6.10043">
        <ele>1411</ele>
        <time>2010-01-01T01:40:04Z</time>
      </trkpt>
      <trkpt lat="45.81489" lon="6.10056">
        <ele>1417</ele>
        <time>2010-01-01T01:40:16Z</time>
      </trkpt>
      <trkpt lat="45.81474" lon="6.10055">
        <ele>1418</ele>
        <time>2010-01-01T01:40:22Z</time>
      </trkpt>
      <trkpt lat="45.8144" lon="6.10038">
        <ele>1420</ele>
        <time>2010-01-01T01:40:37Z</time>
      </trkpt>
      <trkpt lat="45.81425" lon="6.10035">
        <ele>1422</ele>
        <time>2010-01-01T01:40:43Z</time>
      </trkpt>
      <trkpt lat="45.81402" lon="6.10039">
        <ele>1427</ele>
        <time>2010-01-01T01:40:52Z</time>
      </trkpt>
      <trkpt lat="45.81381" lon="6.10032">
        <ele>1429</ele>
        <time>2010-01-01T01:41:01Z</time>
      </trkpt>
      <trkpt lat="45.81363" lon="6.10021">
        <ele>1428</ele>
        <time>2010-01-01T01:41:09Z</time>
      </trkpt>
      <trkpt lat="45.81348" lon="6.10005">
        <ele>1430</ele>
        <time>2010-01-01T01:41:16Z</time>
      </trkpt>
      <trkpt lat="45.81326" lon="6.09961">
        <ele>1433</ele>
        <time>2010-01-01T01:41:31Z</time>
      </trkpt>
      <trkpt lat="45.81311" lon="6.09938">
        <ele>1435</ele>
        <time>2010-01-01T01:41:40Z</time>
      </trkpt>
      <trkpt lat="45.81265" lon="6.09892">
        <ele>1439</ele>
        <time>2010-01-01T01:42:02Z</time>
      </trkpt>
      <trkpt lat="45.81248" lon="6.0989">
        <ele>1440</ele>
        <time>2010-01-01T01:42:09Z</time>
      </trkpt>
      <trkpt lat="45.81208" lon="6.09908">
        <ele>1446</ele>
        <time>2010-01-01T01:42:26Z</time>
      </trkpt>
      <trkpt lat="45.81172" lon="6.09904">
        <ele>1450</ele>
        <time>2010-01-01T01:42:40Z</time>
      </trkpt>
      <trkpt lat="45.81138" lon="6.0991">
        <ele>1453</ele>
        <time>2010-01-01T01:42:54Z</time>
      </trkpt>
      <trkpt lat="45.81125" lon="6.09902">
        <ele>1455</ele>
        <time>2010-01-01T01:43:00Z</time>
      </trkpt>
      <trkpt lat="45.81105" lon="6.09872">
        <ele>1457</ele>
        <time>2010-01-01T01:43:11Z</time>
      </trkpt>
      <trkpt lat="45.81062" lon="6.09832">
        <ele>1459</ele>
        <time>2010-01-01T01:43:32Z</time>
      </trkpt>
      <trkpt lat="45.81042" lon="6.09826">
        <ele>1460</ele>
        <time>2010-01-01T01:43:40Z</time>
      </trkpt>
      <trkpt lat="45.81007" lon="6.09825">
        <ele>1462</ele>
        <time>2010-01-01T01:43:54Z</time>
      </trkpt>
      <trkpt lat="45.80952" lon="6.09837">
        <ele>1464</ele>
        <time>2010-01-01T01:44:16Z</time>
      </trkpt>
      <trkpt lat="45.80943" lon="6.09843">
        <ele>1464</ele>
        <time>2010-01-01T01:44:20Z</time>
      </trkpt>
      <trkpt lat="45.80938" lon="6.09855">
        <ele>1466</ele>
        <time>2010-01-01T01:44:24Z</time>
      </trkpt>
      <trkpt lat="45.80939" lon="6.0987">
        <ele>1467</ele>
        <time>2010-01-01T01:44:28Z</time>
      </trkpt>
      <trkpt lat="45.8097" lon="6.09943">
        <ele>1476</ele>
        <time>2010-01-01T01:44:52Z</time>
      </trkpt>
      <trkpt lat="45.80974" lon="6.09962">
        <ele>1477</ele>
        <time>2010-01-01T01:44:58Z</time>
      </trkpt>
      <trkpt lat="45.80975" lon="6.09983">
        <ele>1480</ele>
        <time>2010-01-01T01:45:04Z</time>
      </trkpt>
      <trkpt lat="45.80972" lon="6.09999">
        <ele>1481</ele>
        <time>2010-01-01T01:45:08Z</time>
      </trkpt>
      <trkpt lat="45.80965" lon="6.10017">
        <ele>1483</ele>
        <time>2010-01-01T01:45:14Z</time>
      </trkpt>
      <trkpt lat="45.80949" lon="6.10037">
        <ele>1485</ele>
        <time>2010-01-01T01:45:23Z</time>
      </trkpt>
      <trkpt lat="45.8085" lon="6.10113">
        <ele>1493</ele>
        <time>2010-01-01T01:46:07Z</time>
      </trkpt>
      <trkpt lat="45.80835" lon="6.1013">
        <ele>1495</ele>
        <time>2010-01-01T01:46:15Z</time>
      </trkpt>
      <trkpt lat="45.80828" lon="6.10146">
        <ele>1495</ele>
        <time>2010-01-01T01:46:20Z</time>
      </trkpt>
      <trkpt lat="45.80821" lon="6.10176">
        <ele>1496</ele>
        <time>2010-01-01T01:46:29Z</time>
      </trkpt>
      <trkpt lat="45.8082" lon="6.10225">
        <ele>1499</ele>
        <time>2010-01-01T01:46:43Z</time>
      </trkpt>
      <trkpt lat="45.80811" lon="6.10247">
        <ele>1500</ele>
        <time>2010-01-01T01:46:50Z</time>
      </trkpt>
      <trkpt lat="45.80801" lon="6.10262">
        <ele>1502</ele>
        <time>2010-01-01T01:46:56Z</time>
      </trkpt>
      <trkpt lat="45.80761" lon="6.10287">
        <ele>1507</ele>
        <time>2010-01-01T01:47:13Z</time>
      </trkpt>
      <trkpt lat="45.80738" lon="6.10311">
        <ele>1511</ele>
        <time>2010-01-01T01:47:25Z</time>
      </trkpt>
      <trkpt lat="45.80713" lon="6.10329">
        <ele>1513</ele>
        <time>2010-01-01T01:47:36Z</time>
      </trkpt>
      <trkpt lat="45.80695" lon="6.10347">
        <ele>1514</ele>
        <time>2010-01-01T01:47:45Z</time>
      </trkpt>
      <trkpt lat="45.80627" lon="6.10385">
        <ele>1525</ele>
        <time>2010-01-01T01:48:14Z</time>
      </trkpt>
      <trkpt lat="45.80608" lon="6.1039">
        <ele>1527</ele>
        <time>2010-01-01T01:48:22Z</time>
      </trkpt>
      <trkpt lat="45.80548" lon="6.10393">
        <ele>1531</ele>
        <time>2010-01-01T01:48:46Z</time>
      </trkpt>
      <trkpt lat="45.80521" lon="6.10391">
        <ele>1536</ele>
        <time>2010-01-01T01:48:56Z</time>
      </trkpt>
      <trkpt lat="45.80462" lon="6.10367">
        <ele>1543</ele>
        <time>2010-01-01T01:49:21Z</time>
      </trkpt>
      <trkpt lat="45.80402" lon="6.10338">
        <ele>1548</ele>
        <time>2010-01-01T01:49:46Z</time>
      </trkpt>
      <trkpt lat="45.80245" lon="6.10293">
        <ele>1562</ele>
        <time>2010-01-01T01:50:50Z</time>
      </trkpt>
      <trkpt lat="45.80229" lon="6.10292">
        <ele>1561</ele>
        <time>2010-01-01T01:50:57Z</time>
      </trkpt>
      <trkpt lat="45.80216" lon="6.10297">
        <ele>1562</ele>
        <time>2010-01-01T01:51:02Z</time>
      </trkpt>
      <trkpt lat="45.80208" lon="6.10304">
        <ele>1563</ele>
        <time>2010-01-01T01:51:06Z</time>
      </trkpt>
      <trkpt lat="45.80147" lon="6.10377">
        <ele>1572</ele>
        <time>2010-01-01T01:51:38Z</time>
      </trkpt>
      <trkpt lat="45.80108" lon="6.10431">
        <ele>1576</ele>
        <time>2010-01-01T01:51:59Z</time>
      </trkpt>
      <trkpt lat="45.801" lon="6.10453">
        <ele>1576</ele>
        <time>2010-01-01T01:52:06Z</time>
      </trkpt>
      <trkpt lat="45.80098" lon="6.10469">
        <ele>1578</ele>
        <time>2010-01-01T01:52:11Z</time>
      </trkpt>
      <trkpt lat="45.801" lon="6.10499">
        <ele>1581</ele>
        <time>2010-01-01T01:52:19Z</time>
      </trkpt>
      <trkpt lat="45.80092" lon="6.10543">
        <ele>1582</ele>
        <time>2010-01-01T01:52:32Z</time>
      </trkpt>
      <trkpt lat="45.80086" lon="6.10593">
        <ele>1584</ele>
        <time>2010-01-01T01:52:46Z</time>
      </trkpt>
      <trkpt lat="45.80089" lon="6.10613">
        <ele>1587</ele>
        <time>2010-01-01T01:52:52Z</time>
      </trkpt>
      <trkpt lat="45.80095" lon="6.10627">
        <ele>1589</ele>
        <time>2010-01-01T01:52:57Z</time>
      </trkpt>
      <trkpt lat="45.80106" lon="6.10644">
        <ele>1592</ele>
        <time>2010-01-01T01:53:03Z</time>
      </trkpt>
      <trkpt lat="45.80131" lon="6.10665">
        <ele>1600</ele>
        <time>2010-01-01T01:53:15Z</time>
      </trkpt>
      <trkpt lat="45.80145" lon="6.10683">
        <ele>1602</ele>
        <time>2010-01-01T01:53:22Z</time>
      </trkpt>
      <trkpt lat="45.80169" lon="6.10732">
        <ele>1604</ele>
        <time>2010-01-01T01:53:39Z</time>
      </trkpt>
      <trkpt lat="45.80203" lon="6.10818">
        <ele>1607</ele>
        <time>2010-01-01T01:54:06Z</time>
      </trkpt>
      <trkpt lat="45.80207" lon="6.10838">
        <ele>1607</ele>
        <time>2010-01-01T01:54:12Z</time>
      </trkpt>
      <trkpt lat="45.80209" lon="6.10858">
        <ele>1608</ele>
        <time>2010-01-01T01:54:18Z</time>
      </trkpt>
      <trkpt lat="45.80206" lon="6.10907">
        <ele>1615</ele>
        <time>2010-01-01T01:54:32Z</time>
      </trkpt>
      <trkpt lat="45.80232" lon="6.1104">
        <ele>1624</ele>
        <time>2010-01-01T01:55:10Z</time>
      </trkpt>
      <trkpt lat="45.80231" lon="6.11051">
        <ele>1624</ele>
        <time>2010-01-01T01:55:13Z</time>
      </trkpt>
      <trkpt lat="45.80227" lon="6.11059">
        <ele>1624</ele>
        <time>2010-01-01T01:55:16Z</time>
      </trkpt>
      <trkpt lat="45.80217" lon="6.11062">
        <ele>1624</ele>
        <time>2010-01-01T01:55:20Z</time>
      </trkpt>
      <trkpt lat="45.80207" lon="6.11062">
        <ele>1625</ele>
        <time>2010-01-01T01:55:24Z</time>
      </trkpt>
      <trkpt lat="45.80196" lon="6.11055">
        <ele>1627</ele>
        <time>2010-01-01T01:55:29Z</time>
      </trkpt>
      <trkpt lat="45.80176" lon="6.11035">
        <ele>1631</ele>
        <time>2010-01-01T01:55:39Z</time>
      </trkpt>
      <trkpt lat="45.80161" lon="6.11027">
        <ele>1634</ele>
        <time>2010-01-01T01:55:45Z</time>
      </trkpt>
      <trkpt lat="45.80132" lon="6.11016">
        <ele>1636</ele>
        <time>2010-01-01T01:55:57Z</time>
      </trkpt>
      <trkpt lat="45.80123" lon="6.11008">
        <ele>1638</ele>
        <time>2010-01-01T01:56:01Z</time>
      </trkpt>
      <trkpt lat="45.80104" lon="6.10978">
        <ele>1643</ele>
        <time>2010-01-01T01:56:13Z</time>
      </trkpt>
      <trkpt lat="45.8009" lon="6.1096">
        <ele>1646</ele>
        <time>2010-01-01T01:56:20Z</time>
      </trkpt>
      <trkpt lat="45.80076" lon="6.10949">
        <ele>1648</ele>
        <time>2010-01-01T01:56:27Z</time>
      </trkpt>
      <trkpt lat="45.80022" lon="6.10914">
        <ele>1654</ele>
        <time>2010-01-01T01:56:50Z</time>
      </trkpt>
      <trkpt lat="45.79986" lon="6.10898">
        <ele>1654</ele>
        <time>2010-01-01T01:57:05Z</time>
      </trkpt>
      <trkpt lat="45.79976" lon="6.10889">
        <ele>1656</ele>
        <time>2010-01-01T01:57:10Z</time>
      </trkpt>
      <trkpt lat="45.79964" lon="6.10872">
        <ele>1655</ele>
        <time>2010-01-01T01:57:17Z</time>
      </trkpt>
      <trkpt lat="45.79954" lon="6.10851">
        <ele>1654</ele>
        <time>2010-01-01T01:57:24Z</time>
      </trkpt>
      <trkpt lat="45.7994" lon="6.10803">
        <ele>1657</ele>
        <time>2010-01-01T01:57:38Z</time>
      </trkpt>
      <trkpt lat="45.79924" lon="6.10758">
        <ele>1657</ele>
        <time>2010-01-01T01:57:53Z</time>
      </trkpt>
      <trkpt lat="45.79915" lon="6.10749">
        <ele>1658</ele>
        <time>2010-01-01T01:57:57Z</time>
      </trkpt>
      <trkpt lat="45.79914" lon="6.10749">
        <ele>1658</ele>
        <time>2010-01-01T01:57:57Z</time>
      </trkpt>
      <trkpt lat="45.79908" lon="6.10742">
        <ele>1658</ele>
        <time>2010-01-01T01:58:00Z</time>
      </trkpt>
      <trkpt lat="45.79874" lon="6.10718">
        <ele>1662</ele>
        <time>2010-01-01T01:58:16Z</time>
      </trkpt>
      <trkpt lat="45.79843" lon="6.10703">
        <ele>1666</ele>
        <time>2010-01-01T01:58:29Z</time>
      </trkpt>
      <trkpt lat="45.79819" lon="6.10724">
        <ele>1668</ele>
        <time>2010-01-01T01:58:40Z</time>
      </trkpt>
      <trkpt lat="45.79808" lon="6.1073">
        <ele>1667</ele>
        <time>2010-01-01T01:58:45Z</time>
      </trkpt>
      <trkpt lat="45.79786" lon="6.10725">
        <ele>1670</ele>
        <time>2010-01-01T01:58:54Z</time>
      </trkpt>
      <trkpt lat="45.79754" lon="6.10707">
        <ele>1670</ele>
        <time>2010-01-01T01:59:07Z</time>
      </trkpt>
      <trkpt lat="45.79673" lon="6.10647">
        <ele>1663</ele>
        <time>2010-01-01T01:59:44Z</time>
      </trkpt>
      <trkpt lat="45.79657" lon="6.10627">
        <ele>1660</ele>
        <time>2010-01-01T01:59:52Z</time>
      </trkpt>
      <trkpt lat="45.79563" lon="6.10358">
        <ele>1655</ele>
        <time>2010-01-01T02:01:16Z</time>
      </trkpt>
      <trkpt lat="45.79546" lon="6.10329">
        <ele>1654</ele>
        <time>2010-01-01T02:01:27Z</time>
      </trkpt>
      <trkpt lat="45.79481" lon="6.10289">
        <ele>1649</ele>
        <time>2010-01-01T02:01:55Z</time>
      </trkpt>
      <trkpt lat="45.79439" lon="6.10258">
        <ele>1648</ele>
        <time>2010-01-01T02:02:14Z</time>
      </trkpt>
      <trkpt lat="45.79411" lon="6.1023">
        <ele>1646</ele>
        <time>2010-01-01T02:02:28Z</time>
      </trkpt>
      <trkpt lat="45.79391" lon="6.10221">
        <ele>1645</ele>
        <time>2010-01-01T02:02:36Z</time>
      </trkpt>
      <trkpt lat="45.79363" lon="6.10219">
        <ele>1643</ele>
        <time>2010-01-01T02:02:47Z</time>
      </trkpt>
      <trkpt lat="45.79344" lon="6.10225">
        <ele>1643</ele>
        <time>2010-01-01T02:02:55Z</time>
      </trkpt>
      <trkpt lat="45.79325" lon="6.10227">
        <ele>1642</ele>
        <time>2010-01-01T02:03:03Z</time>
      </trkpt>
      <trkpt lat="45.7928" lon="6.1021">
        <ele>1640</ele>
        <time>2010-01-01T02:03:21Z</time>
      </trkpt>
      <trkpt lat="45.79261" lon="6.10199">
        <ele>1640</ele>
        <time>2010-01-01T02:03:30Z</time>
      </trkpt>
      <trkpt lat="45.79247" lon="6.10205">
        <ele>1638</ele>
        <time>2010-01-01T02:03:35Z</time>
      </trkpt>
      <trkpt lat="45.79248" lon="6.10228">
        <ele>1635</ele>
        <time>2010-01-01T02:03:42Z</time>
      </trkpt>
      <trkpt lat="45.79275" lon="6.10266">
        <ele>1632</ele>
        <time>2010-01-01T02:03:57Z</time>
      </trkpt>
      <trkpt lat="45.7935" lon="6.10336">
        <ele>1626</ele>
        <time>2010-01-01T02:04:33Z</time>
      </trkpt>
      <trkpt lat="45.79376" lon="6.1038">
        <ele>1624</ele>
        <time>2010-01-01T02:04:49Z</time>
      </trkpt>
      <trkpt lat="45.7944" lon="6.10455">
        <ele>1615</ele>
        <time>2010-01-01T02:05:22Z</time>
      </trkpt>
      <trkpt lat="45.79512" lon="6.10649">
        <ele>1603</ele>
        <time>2010-01-01T02:06:23Z</time>
      </trkpt>
      <trkpt lat="45.79529" lon="6.10706">
        <ele>1601</ele>
        <time>2010-01-01T02:06:41Z</time>
      </trkpt>
      <trkpt lat="45.79524" lon="6.10736">
        <ele>1596</ele>
        <time>2010-01-01T02:06:49Z</time>
      </trkpt>
      <trkpt lat="45.79506" lon="6.10755">
        <ele>1592</ele>
        <time>2010-01-01T02:06:58Z</time>
      </trkpt>
      <trkpt lat="45.79457" lon="6.10774">
        <ele>1586</ele>
        <time>2010-01-01T02:07:19Z</time>
      </trkpt>
      <trkpt lat="45.79392" lon="6.10796">
        <ele>1582</ele>
        <time>2010-01-01T02:07:45Z</time>
      </trkpt>
      <trkpt lat="45.7937" lon="6.10807">
        <ele>1581</ele>
        <time>2010-01-01T02:07:55Z</time>
      </trkpt>
      <trkpt lat="45.7935" lon="6.10836">
        <ele>1580</ele>
        <time>2010-01-01T02:08:06Z</time>
      </trkpt>
      <trkpt lat="45.79312" lon="6.10925">
        <ele>1574</ele>
        <time>2010-01-01T02:08:35Z</time>
      </trkpt>
      <trkpt lat="45.79294" lon="6.11002">
        <ele>1575</ele>
        <time>2010-01-01T02:08:58Z</time>
      </trkpt>
      <trkpt lat="45.79298" lon="6.11091">
        <ele>1573</ele>
        <time>2010-01-01T02:09:23Z</time>
      </trkpt>
      <trkpt lat="45.79296" lon="6.11142">
        <ele>1571</ele>
        <time>2010-01-01T02:09:37Z</time>
      </trkpt>
      <trkpt lat="45.79286" lon="6.11161">
        <ele>1570</ele>
        <time>2010-01-01T02:09:44Z</time>
      </trkpt>
      <trkpt lat="45.79264" lon="6.11166">
        <ele>1568</ele>
        <time>2010-01-01T02:09:52Z</time>
      </trkpt>
      <trkpt lat="45.79229" lon="6.11156">
        <ele>1562</ele>
        <time>2010-01-01T02:10:07Z</time>
      </trkpt>
      <trkpt lat="45.79186" lon="6.11122">
        <ele>1562</ele>
        <time>2010-01-01T02:10:26Z</time>
      </trkpt>
      <trkpt lat="45.79113" lon="6.11103">
        <ele>1554</ele>
        <time>2010-01-01T02:10:56Z</time>
      </trkpt>
      <trkpt lat="45.79058" lon="6.11078">
        <ele>1545</ele>
        <time>2010-01-01T02:11:19Z</time>
      </trkpt>
      <trkpt lat="45.79018" lon="6.1107">
        <ele>1542</ele>
        <time>2010-01-01T02:11:35Z</time>
      </trkpt>
      <trkpt lat="45.78985" lon="6.11062">
        <ele>1541</ele>
        <time>2010-01-01T02:11:49Z</time>
      </trkpt>
      <trkpt lat="45.78918" lon="6.11008">
        <ele>1537</ele>
        <time>2010-01-01T02:12:20Z</time>
      </trkpt>
      <trkpt lat="45.78903" lon="6.1101">
        <ele>1535</ele>
        <time>2010-01-01T02:12:26Z</time>
      </trkpt>
      <trkpt lat="45.78885" lon="6.11028">
        <ele>1530</ele>
        <time>2010-01-01T02:12:34Z</time>
      </trkpt>
      <trkpt lat="45.78874" lon="6.11042">
        <ele>1527</ele>
        <time>2010-01-01T02:12:40Z</time>
      </trkpt>
      <trkpt lat="45.78856" lon="6.11055">
        <ele>1523</ele>
        <time>2010-01-01T02:12:48Z</time>
      </trkpt>
      <trkpt lat="45.78813" lon="6.1106">
        <ele>1520</ele>
        <time>2010-01-01T02:13:06Z</time>
      </trkpt>
      <trkpt lat="45.78768" lon="6.11055">
        <ele>1516</ele>
        <time>2010-01-01T02:13:24Z</time>
      </trkpt>
      <trkpt lat="45.7874" lon="6.11044">
        <ele>1516</ele>
        <time>2010-01-01T02:13:35Z</time>
      </trkpt>
      <trkpt lat="45.78673" lon="6.11042">
        <ele>1510</ele>
        <time>2010-01-01T02:14:02Z</time>
      </trkpt>
      <trkpt lat="45.78641" lon="6.11053">
        <ele>1506</ele>
        <time>2010-01-01T02:14:15Z</time>
      </trkpt>
      <trkpt lat="45.78611" lon="6.11067">
        <ele>1501</ele>
        <time>2010-01-01T02:14:28Z</time>
      </trkpt>
      <trkpt lat="45.78568" lon="6.11072">
        <ele>1501</ele>
        <time>2010-01-01T02:14:45Z</time>
      </trkpt>
      <trkpt lat="45.78544" lon="6.1108">
        <ele>1498</ele>
        <time>2010-01-01T02:14:55Z</time>
      </trkpt>
      <trkpt lat="45.78536" lon="6.111">
        <ele>1496</ele>
        <time>2010-01-01T02:15:01Z</time>
      </trkpt>
      <trkpt lat="45.78542" lon="6.1112">
        <ele>1496</ele>
        <time>2010-01-01T02:15:08Z</time>
      </trkpt>
      <trkpt lat="45.7858" lon="6.11167">
        <ele>1495</ele>
        <time>2010-01-01T02:15:28Z</time>
      </trkpt>
      <trkpt lat="45.78589" lon="6.11196">
        <ele>1494</ele>
        <time>2010-01-01T02:15:37Z</time>
      </trkpt>
      <trkpt lat="45.78578" lon="6.1126">
        <ele>1490</ele>
        <time>2010-01-01T02:15:55Z</time>
      </trkpt>
      <trkpt lat="45.78583" lon="6.11367">
        <ele>1477</ele>
        <time>2010-01-01T02:16:25Z</time>
      </trkpt>
      <trkpt lat="45.78578" lon="6.11431">
        <ele>1467</ele>
        <time>2010-01-01T02:16:43Z</time>
      </trkpt>
      <trkpt lat="45.78572" lon="6.11456">
        <ele>1462</ele>
        <time>2010-01-01T02:16:50Z</time>
      </trkpt>
      <trkpt lat="45.78557" lon="6.11459">
        <ele>1461</ele>
        <time>2010-01-01T02:16:56Z</time>
      </trkpt>
      <trkpt lat="45.78531" lon="6.11449">
        <ele>1461</ele>
        <time>2010-01-01T02:17:07Z</time>
      </trkpt>
      <trkpt lat="45.78496" lon="6.11449">
        <ele>1455</ele>
        <time>2010-01-01T02:17:21Z</time>
      </trkpt>
      <trkpt lat="45.78475" lon="6.11434">
        <ele>1455</ele>
        <time>2010-01-01T02:17:30Z</time>
      </trkpt>
      <trkpt lat="45.78457" lon="6.11412">
        <ele>1456</ele>
        <time>2010-01-01T02:17:40Z</time>
      </trkpt>
      <trkpt lat="45.78431" lon="6.1141">
        <ele>1453</ele>
        <time>2010-01-01T02:17:50Z</time>
      </trkpt>
      <trkpt lat="45.78409" lon="6.11417">
        <ele>1450</ele>
        <time>2010-01-01T02:17:59Z</time>
      </trkpt>
      <trkpt lat="45.78386" lon="6.11413">
        <ele>1446</ele>
        <time>2010-01-01T02:18:09Z</time>
      </trkpt>
      <trkpt lat="45.78363" lon="6.11391">
        <ele>1444</ele>
        <time>2010-01-01T02:18:20Z</time>
      </trkpt>
      <trkpt lat="45.78331" lon="6.11378">
        <ele>1444</ele>
        <time>2010-01-01T02:18:33Z</time>
      </trkpt>
      <trkpt lat="45.78257" lon="6.11374">
        <ele>1437</ele>
        <time>2010-01-01T02:19:03Z</time>
      </trkpt>
      <trkpt lat="45.78206" lon="6.11386">
        <ele>1426</ele>
        <time>2010-01-01T02:19:23Z</time>
      </trkpt>
      <trkpt lat="45.78177" lon="6.11386">
        <ele>1423</ele>
        <time>2010-01-01T02:19:35Z</time>
      </trkpt>
      <trkpt lat="45.78167" lon="6.11369">
        <ele>1423</ele>
        <time>2010-01-01T02:19:41Z</time>
      </trkpt>
      <trkpt lat="45.78144" lon="6.11281">
        <ele>1429</ele>
        <time>2010-01-01T02:20:07Z</time>
      </trkpt>
      <trkpt lat="45.78131" lon="6.1126">
        <ele>1428</ele>
        <time>2010-01-01T02:20:15Z</time>
      </trkpt>
      <trkpt lat="45.78116" lon="6.11251">
        <ele>1426</ele>
        <time>2010-01-01T02:20:22Z</time>
      </trkpt>
      <trkpt lat="45.78097" lon="6.11261">
        <ele>1427</ele>
        <time>2010-01-01T02:20:30Z</time>
      </trkpt>
      <trkpt lat="45.78084" lon="6.11296">
        <ele>1424</ele>
        <time>2010-01-01T02:20:41Z</time>
      </trkpt>
      <trkpt lat="45.78075" lon="6.11345">
        <ele>1422</ele>
        <time>2010-01-01T02:20:55Z</time>
      </trkpt>
      <trkpt lat="45.78062" lon="6.11352">
        <ele>1421</ele>
        <time>2010-01-01T02:21:01Z</time>
      </trkpt>
      <trkpt lat="45.78034" lon="6.11342">
        <ele>1419</ele>
        <time>2010-01-01T02:21:12Z</time>
      </trkpt>
      <trkpt lat="45.77989" lon="6.11313">
        <ele>1414</ele>
        <time>2010-01-01T02:21:32Z</time>
      </trkpt>
      <trkpt lat="45.77967" lon="6.11286">
        <ele>1411</ele>
        <time>2010-01-01T02:21:44Z</time>
      </trkpt>
      <trkpt lat="45.77951" lon="6.11195">
        <ele>1415</ele>
        <time>2010-01-01T02:22:10Z</time>
      </trkpt>
      <trkpt lat="45.77952" lon="6.11127">
        <ele>1412</ele>
        <time>2010-01-01T02:22:29Z</time>
      </trkpt>
      <trkpt lat="45.77964" lon="6.11103">
        <ele>1412</ele>
        <time>2010-01-01T02:22:37Z</time>
      </trkpt>
      <trkpt lat="45.77975" lon="6.11069">
        <ele>1412</ele>
        <time>2010-01-01T02:22:47Z</time>
      </trkpt>
      <trkpt lat="45.77964" lon="6.11042">
        <ele>1409</ele>
        <time>2010-01-01T02:22:56Z</time>
      </trkpt>
      <trkpt lat="45.77939" lon="6.11026">
        <ele>1406</ele>
        <time>2010-01-01T02:23:07Z</time>
      </trkpt>
      <trkpt lat="45.77895" lon="6.11021">
        <ele>1410</ele>
        <time>2010-01-01T02:23:25Z</time>
      </trkpt>
      <trkpt lat="45.77846" lon="6.1104">
        <ele>1417</ele>
        <time>2010-01-01T02:23:45Z</time>
      </trkpt>
      <trkpt lat="45.77783" lon="6.11097">
        <ele>1411</ele>
        <time>2010-01-01T02:24:15Z</time>
      </trkpt>
      <trkpt lat="45.77723" lon="6.11153">
        <ele>1398</ele>
        <time>2010-01-01T02:24:44Z</time>
      </trkpt>
      <trkpt lat="45.7771" lon="6.11168">
        <ele>1395</ele>
        <time>2010-01-01T02:24:50Z</time>
      </trkpt>
      <trkpt lat="45.77684" lon="6.11173">
        <ele>1393</ele>
        <time>2010-01-01T02:25:01Z</time>
      </trkpt>
      <trkpt lat="45.77652" lon="6.11161">
        <ele>1394</ele>
        <time>2010-01-01T02:25:14Z</time>
      </trkpt>
      <trkpt lat="45.77585" lon="6.11124">
        <ele>1394</ele>
        <time>2010-01-01T02:25:43Z</time>
      </trkpt>
      <trkpt lat="45.77516" lon="6.11108">
        <ele>1390</ele>
        <time>2010-01-01T02:26:11Z</time>
      </trkpt>
      <trkpt lat="45.77322" lon="6.11077">
        <ele>1380</ele>
        <time>2010-01-01T02:27:29Z</time>
      </trkpt>
      <trkpt lat="45.77056" lon="6.11044">
        <ele>1366</ele>
        <time>2010-01-01T02:29:16Z</time>
      </trkpt>
      <trkpt lat="45.76989" lon="6.11019">
        <ele>1364</ele>
        <time>2010-01-01T02:29:43Z</time>
      </trkpt>
      <trkpt lat="45.76949" lon="6.1098">
        <ele>1367</ele>
        <time>2010-01-01T02:30:03Z</time>
      </trkpt>
      <trkpt lat="45.76893" lon="6.10953">
        <ele>1363</ele>
        <time>2010-01-01T02:30:26Z</time>
      </trkpt>
      <trkpt lat="45.76817" lon="6.10938">
        <ele>1358</ele>
        <time>2010-01-01T02:30:57Z</time>
      </trkpt>
      <trkpt lat="45.76783" lon="6.10921">
        <ele>1357</ele>
        <time>2010-01-01T02:31:12Z</time>
      </trkpt>
      <trkpt lat="45.7676" lon="6.10892">
        <ele>1357</ele>
        <time>2010-01-01T02:31:24Z</time>
      </trkpt>
      <trkpt lat="45.76752" lon="6.10844">
        <ele>1358</ele>
        <time>2010-01-01T02:31:38Z</time>
      </trkpt>
      <trkpt lat="45.76744" lon="6.10805">
        <ele>1356</ele>
        <time>2010-01-01T02:31:49Z</time>
      </trkpt>
      <trkpt lat="45.76729" lon="6.10781">
        <ele>1353</ele>
        <time>2010-01-01T02:31:58Z</time>
      </trkpt>
      <trkpt lat="45.76705" lon="6.10769">
        <ele>1351</ele>
        <time>2010-01-01T02:32:08Z</time>
      </trkpt>
      <trkpt lat="45.76683" lon="6.10742">
        <ele>1352</ele>
        <time>2010-01-01T02:32:20Z</time>
      </trkpt>
      <trkpt lat="45.76673" lon="6.10708">
        <ele>1354</ele>
        <time>2010-01-01T02:32:30Z</time>
      </trkpt>
      <trkpt lat="45.76651" lon="6.10679">
        <ele>1356</ele>
        <time>2010-01-01T02:32:42Z</time>
      </trkpt>
      <trkpt lat="45.76621" lon="6.10673">
        <ele>1356</ele>
        <time>2010-01-01T02:32:54Z</time>
      </trkpt>
      <trkpt lat="45.76573" lon="6.10672">
        <ele>1350</ele>
        <time>2010-01-01T02:33:13Z</time>
      </trkpt>
      <trkpt lat="45.76551" lon="6.10664">
        <ele>1348</ele>
        <time>2010-01-01T02:33:22Z</time>
      </trkpt>
      <trkpt lat="45.76529" lon="6.10646">
        <ele>1351</ele>
        <time>2010-01-01T02:33:33Z</time>
      </trkpt>
      <trkpt lat="45.76504" lon="6.10644">
        <ele>1350</ele>
        <time>2010-01-01T02:33:43Z</time>
      </trkpt>
      <trkpt lat="45.76473" lon="6.10646">
        <ele>1349</ele>
        <time>2010-01-01T02:33:55Z</time>
      </trkpt>
      <trkpt lat="45.76441" lon="6.10655">
        <ele>1345</ele>
        <time>2010-01-01T02:34:08Z</time>
      </trkpt>
      <trkpt lat="45.76411" lon="6.10657">
        <ele>1342</ele>
        <time>2010-01-01T02:34:20Z</time>
      </trkpt>
      <trkpt lat="45.76324" lon="6.10638">
        <ele>1337</ele>
        <time>2010-01-01T02:34:55Z</time>
      </trkpt>
      <trkpt lat="45.76295" lon="6.10611">
        <ele>1334</ele>
        <time>2010-01-01T02:35:09Z</time>
      </trkpt>
      <trkpt lat="45.76275" lon="6.10573">
        <ele>1332</ele>
        <time>2010-01-01T02:35:22Z</time>
      </trkpt>
      <trkpt lat="45.76266" lon="6.10535">
        <ele>1336</ele>
        <time>2010-01-01T02:35:34Z</time>
      </trkpt>
      <trkpt lat="45.7624" lon="6.10501">
        <ele>1337</ele>
        <time>2010-01-01T02:35:48Z</time>
      </trkpt>
      <trkpt lat="45.76201" lon="6.10489">
        <ele>1332</ele>
        <time>2010-01-01T02:36:04Z</time>
      </trkpt>
      <trkpt lat="45.76173" lon="6.10495">
        <ele>1325</ele>
        <time>2010-01-01T02:36:15Z</time>
      </trkpt>
      <trkpt lat="45.76146" lon="6.10485">
        <ele>1321</ele>
        <time>2010-01-01T02:36:26Z</time>
      </trkpt>
      <trkpt lat="45.76128" lon="6.10443">
        <ele>1322</ele>
        <time>2010-01-01T02:36:40Z</time>
      </trkpt>
      <trkpt lat="45.76102" lon="6.10389">
        <ele>1320</ele>
        <time>2010-01-01T02:36:58Z</time>
      </trkpt>
      <trkpt lat="45.7608" lon="6.10372">
        <ele>1316</ele>
        <time>2010-01-01T02:37:08Z</time>
      </trkpt>
      <trkpt lat="45.76067" lon="6.10382">
        <ele>1314</ele>
        <time>2010-01-01T02:37:14Z</time>
      </trkpt>
      <trkpt lat="45.76074" lon="6.10427">
        <ele>1312</ele>
        <time>2010-01-01T02:37:27Z</time>
      </trkpt>
      <trkpt lat="45.76169" lon="6.10602">
        <ele>1309</ele>
        <time>2010-01-01T02:38:29Z</time>
      </trkpt>
      <trkpt lat="45.76256" lon="6.10757">
        <ele>1293</ele>
        <time>2010-01-01T02:39:25Z</time>
      </trkpt>
      <trkpt lat="45.76271" lon="6.10791">
        <ele>1289</ele>
        <time>2010-01-01T02:39:36Z</time>
      </trkpt>
      <trkpt lat="45.76291" lon="6.10803">
        <ele>1289</ele>
        <time>2010-01-01T02:39:44Z</time>
      </trkpt>
      <trkpt lat="45.76344" lon="6.10803">
        <ele>1294</ele>
        <time>2010-01-01T02:40:06Z</time>
      </trkpt>
      <trkpt lat="45.76397" lon="6.10823">
        <ele>1291</ele>
        <time>2010-01-01T02:40:28Z</time>
      </trkpt>
      <trkpt lat="45.76502" lon="6.10977">
        <ele>1268</ele>
        <time>2010-01-01T02:41:28Z</time>
      </trkpt>
      <trkpt lat="45.76568" lon="6.1106">
        <ele>1257</ele>
        <time>2010-01-01T02:42:03Z</time>
      </trkpt>
      <trkpt lat="45.76661" lon="6.11122">
        <ele>1261</ele>
        <time>2010-01-01T02:42:44Z</time>
      </trkpt>
      <trkpt lat="45.76777" lon="6.11222">
        <ele>1247</ele>
        <time>2010-01-01T02:43:38Z</time>
      </trkpt>
      <trkpt lat="45.76961" lon="6.11385">
        <ele>1229</ele>
        <time>2010-01-01T02:45:05Z</time>
      </trkpt>
      <trkpt lat="45.77058" lon="6.11449">
        <ele>1219</ele>
        <time>2010-01-01T02:45:47Z</time>
      </trkpt>
      <trkpt lat="45.77129" lon="6.11486">
        <ele>1217</ele>
        <time>2010-01-01T02:46:18Z</time>
      </trkpt>
      <trkpt lat="45.77166" lon="6.11494">
        <ele>1220</ele>
        <time>2010-01-01T02:46:33Z</time>
      </trkpt>
      <trkpt lat="45.77207" lon="6.1152">
        <ele>1216</ele>
        <time>2010-01-01T02:46:51Z</time>
      </trkpt>
      <trkpt lat="45.77299" lon="6.11588">
        <ele>1204</ele>
        <time>2010-01-01T02:47:32Z</time>
      </trkpt>
      <trkpt lat="45.77375" lon="6.11638">
        <ele>1202</ele>
        <time>2010-01-01T02:48:06Z</time>
      </trkpt>
      <trkpt lat="45.77396" lon="6.11646">
        <ele>1202</ele>
        <time>2010-01-01T02:48:14Z</time>
      </trkpt>
      <trkpt lat="45.77401" lon="6.11652">
        <ele>1199</ele>
        <time>2010-01-01T02:48:17Z</time>
      </trkpt>
      <trkpt lat="45.77401" lon="6.11662">
        <ele>1192</ele>
        <time>2010-01-01T02:48:20Z</time>
      </trkpt>
      <trkpt lat="45.77396" lon="6.11667">
        <ele>1189</ele>
        <time>2010-01-01T02:48:22Z</time>
      </trkpt>
      <trkpt lat="45.77386" lon="6.11667">
        <ele>1188</ele>
        <time>2010-01-01T02:48:26Z</time>
      </trkpt>
      <trkpt lat="45.77301" lon="6.11617">
        <ele>1187</ele>
        <time>2010-01-01T02:49:03Z</time>
      </trkpt>
      <trkpt lat="45.77257" lon="6.1161">
        <ele>1179</ele>
        <time>2010-01-01T02:49:21Z</time>
      </trkpt>
      <trkpt lat="45.77212" lon="6.11588">
        <ele>1180</ele>
        <time>2010-01-01T02:49:40Z</time>
      </trkpt>
      <trkpt lat="45.7718" lon="6.11566">
        <ele>1181</ele>
        <time>2010-01-01T02:49:54Z</time>
      </trkpt>
      <trkpt lat="45.77165" lon="6.11562">
        <ele>1179</ele>
        <time>2010-01-01T02:50:00Z</time>
      </trkpt>
      <trkpt lat="45.77125" lon="6.11555">
        <ele>1171</ele>
        <time>2010-01-01T02:50:16Z</time>
      </trkpt>
      <trkpt lat="45.77055" lon="6.11534">
        <ele>1172</ele>
        <time>2010-01-01T02:50:45Z</time>
      </trkpt>
      <trkpt lat="45.77001" lon="6.11524">
        <ele>1162</ele>
        <time>2010-01-01T02:51:07Z</time>
      </trkpt>
      <trkpt lat="45.76807" lon="6.11432">
        <ele>1146</ele>
        <time>2010-01-01T02:52:28Z</time>
      </trkpt>
      <trkpt lat="45.76694" lon="6.11385">
        <ele>1144</ele>
        <time>2010-01-01T02:53:15Z</time>
      </trkpt>
      <trkpt lat="45.76497" lon="6.11315">
        <ele>1130</ele>
        <time>2010-01-01T02:54:37Z</time>
      </trkpt>
      <trkpt lat="45.7638" lon="6.11268">
        <ele>1124</ele>
        <time>2010-01-01T02:55:25Z</time>
      </trkpt>
      <trkpt lat="45.76343" lon="6.11266">
        <ele>1115</ele>
        <time>2010-01-01T02:55:40Z</time>
      </trkpt>
      <trkpt lat="45.76267" lon="6.11246">
        <ele>1109</ele>
        <time>2010-01-01T02:56:11Z</time>
      </trkpt>
      <trkpt lat="45.76217" lon="6.11223">
        <ele>1106</ele>
        <time>2010-01-01T02:56:32Z</time>
      </trkpt>
      <trkpt lat="45.76171" lon="6.11215">
        <ele>1102</ele>
        <time>2010-01-01T02:56:51Z</time>
      </trkpt>
      <trkpt lat="45.76125" lon="6.11203">
        <ele>1097</ele>
        <time>2010-01-01T02:57:09Z</time>
      </trkpt>
      <trkpt lat="45.761" lon="6.11183">
        <ele>1100</ele>
        <time>2010-01-01T02:57:21Z</time>
      </trkpt>
      <trkpt lat="45.7609" lon="6.11183">
        <ele>1098</ele>
        <time>2010-01-01T02:57:25Z</time>
      </trkpt>
      <trkpt lat="45.76084" lon="6.11196">
        <ele>1092</ele>
        <time>2010-01-01T02:57:29Z</time>
      </trkpt>
      <trkpt lat="45.76091" lon="6.11209">
        <ele>1089</ele>
        <time>2010-01-01T02:57:34Z</time>
      </trkpt>
      <trkpt lat="45.76155" lon="6.11237">
        <ele>1088</ele>
        <time>2010-01-01T02:58:01Z</time>
      </trkpt>
      <trkpt lat="45.76211" lon="6.1127">
        <ele>1081</ele>
        <time>2010-01-01T02:58:25Z</time>
      </trkpt>
      <trkpt lat="45.76254" lon="6.11307">
        <ele>1079</ele>
        <time>2010-01-01T02:58:45Z</time>
      </trkpt>
      <trkpt lat="45.76391" lon="6.11396">
        <ele>1068</ele>
        <time>2010-01-01T02:59:45Z</time>
      </trkpt>
      <trkpt lat="45.76467" lon="6.11463">
        <ele>1058</ele>
        <time>2010-01-01T03:00:21Z</time>
      </trkpt>
      <trkpt lat="45.76645" lon="6.11579">
        <ele>1048</ele>
        <time>2010-01-01T03:01:39Z</time>
      </trkpt>
      <trkpt lat="45.76743" lon="6.11652">
        <ele>1043</ele>
        <time>2010-01-01T03:02:23Z</time>
      </trkpt>
      <trkpt lat="45.76952" lon="6.11859">
        <ele>1030</ele>
        <time>2010-01-01T03:04:05Z</time>
      </trkpt>
      <trkpt lat="45.77065" lon="6.12013">
        <ele>1010</ele>
        <time>2010-01-01T03:05:07Z</time>
      </trkpt>
      <trkpt lat="45.77092" lon="6.12025">
        <ele>1010</ele>
        <time>2010-01-01T03:05:19Z</time>
      </trkpt>
      <trkpt lat="45.77133" lon="6.12065">
        <ele>1009</ele>
        <time>2010-01-01T03:05:39Z</time>
      </trkpt>
      <trkpt lat="45.77144" lon="6.12085">
        <ele>1005</ele>
        <time>2010-01-01T03:05:46Z</time>
      </trkpt>
      <trkpt lat="45.7714" lon="6.12099">
        <ele>1001</ele>
        <time>2010-01-01T03:05:50Z</time>
      </trkpt>
      <trkpt lat="45.7713" lon="6.12102">
        <ele>998</ele>
        <time>2010-01-01T03:05:54Z</time>
      </trkpt>
      <trkpt lat="45.77119" lon="6.12096">
        <ele>996</ele>
        <time>2010-01-01T03:05:59Z</time>
      </trkpt>
      <trkpt lat="45.77081" lon="6.12053">
        <ele>1001</ele>
        <time>2010-01-01T03:06:18Z</time>
      </trkpt>
      <trkpt lat="45.77064" lon="6.12042">
        <ele>1001</ele>
        <time>2010-01-01T03:06:25Z</time>
      </trkpt>
      <trkpt lat="45.77013" lon="6.12024">
        <ele>995</ele>
        <time>2010-01-01T03:06:47Z</time>
      </trkpt>
      <trkpt lat="45.76957" lon="6.11989">
        <ele>992</ele>
        <time>2010-01-01T03:07:11Z</time>
      </trkpt>
      <trkpt lat="45.76875" lon="6.11921">
        <ele>986</ele>
        <time>2010-01-01T03:07:49Z</time>
      </trkpt>
      <trkpt lat="45.7663" lon="6.11813">
        <ele>968</ele>
        <time>2010-01-01T03:09:31Z</time>
      </trkpt>
      <trkpt lat="45.76613" lon="6.11813">
        <ele>964</ele>
        <time>2010-01-01T03:09:38Z</time>
      </trkpt>
      <trkpt lat="45.76609" lon="6.11831">
        <ele>958</ele>
        <time>2010-01-01T03:09:44Z</time>
      </trkpt>
      <trkpt lat="45.76619" lon="6.11847">
        <ele>956</ele>
        <time>2010-01-01T03:09:50Z</time>
      </trkpt>
      <trkpt lat="45.76668" lon="6.11883">
        <ele>958</ele>
        <time>2010-01-01T03:10:12Z</time>
      </trkpt>
      <trkpt lat="45.76687" lon="6.11909">
        <ele>953</ele>
        <time>2010-01-01T03:10:22Z</time>
      </trkpt>
      <trkpt lat="45.76754" lon="6.12022">
        <ele>940</ele>
        <time>2010-01-01T03:11:04Z</time>
      </trkpt>
      <trkpt lat="45.7676" lon="6.12074">
        <ele>934</ele>
        <time>2010-01-01T03:11:18Z</time>
      </trkpt>
      <trkpt lat="45.76777" lon="6.12124">
        <ele>931</ele>
        <time>2010-01-01T03:11:34Z</time>
      </trkpt>
      <trkpt lat="45.76781" lon="6.12165">
        <ele>927</ele>
        <time>2010-01-01T03:11:45Z</time>
      </trkpt>
      <trkpt lat="45.76806" lon="6.12191">
        <ele>931</ele>
        <time>2010-01-01T03:11:58Z</time>
      </trkpt>
      <trkpt lat="45.76841" lon="6.12205">
        <ele>936</ele>
        <time>2010-01-01T03:12:12Z</time>
      </trkpt>
      <trkpt lat="45.76896" lon="6.12261">
        <ele>939</ele>
        <time>2010-01-01T03:12:39Z</time>
      </trkpt>
      <trkpt lat="45.76908" lon="6.12284">
        <ele>938</ele>
        <time>2010-01-01T03:12:47Z</time>
      </trkpt>
      <trkpt lat="45.76982" lon="6.12339">
        <ele>932</ele>
        <time>2010-01-01T03:13:21Z</time>
      </trkpt>
      <trkpt lat="45.77174" lon="6.1252">
        <ele>933</ele>
        <time>2010-01-01T03:14:53Z</time>
      </trkpt>
      <trkpt lat="45.7725" lon="6.12578">
        <ele>935</ele>
        <time>2010-01-01T03:15:27Z</time>
      </trkpt>
      <trkpt lat="45.77322" lon="6.12639">
        <ele>936</ele>
        <time>2010-01-01T03:16:01Z</time>
      </trkpt>
      <trkpt lat="45.77295" lon="6.12749">
        <ele>925</ele>
        <time>2010-01-01T03:16:33Z</time>
      </trkpt>
      <trkpt lat="45.77392" lon="6.12806">
        <ele>923</ele>
        <time>2010-01-01T03:17:15Z</time>
      </trkpt>
      <trkpt lat="45.77393" lon="6.12843">
        <ele>920</ele>
        <time>2010-01-01T03:17:25Z</time>
      </trkpt>
      <trkpt lat="45.774" lon="6.12878">
        <ele>920</ele>
        <time>2010-01-01T03:17:36Z</time>
      </trkpt>
      <trkpt lat="45.77401" lon="6.12898">
        <ele>920</ele>
        <time>2010-01-01T03:17:41Z</time>
      </trkpt>
      <trkpt lat="45.77381" lon="6.12948">
        <ele>918</ele>
        <time>2010-01-01T03:17:57Z</time>
      </trkpt>
      <trkpt lat="45.7737" lon="6.12959">
        <ele>917</ele>
        <time>2010-01-01T03:18:03Z</time>
      </trkpt>
      <trkpt lat="45.7722" lon="6.1298">
        <ele>907</ele>
        <time>2010-01-01T03:19:03Z</time>
      </trkpt>
      <trkpt lat="45.77209" lon="6.12985">
        <ele>907</ele>
        <time>2010-01-01T03:19:08Z</time>
      </trkpt>
      <trkpt lat="45.77204" lon="6.12995">
        <ele>907</ele>
        <time>2010-01-01T03:19:11Z</time>
      </trkpt>
      <trkpt lat="45.77201" lon="6.13007">
        <ele>907</ele>
        <time>2010-01-01T03:19:15Z</time>
      </trkpt>
      <trkpt lat="45.77194" lon="6.131">
        <ele>904</ele>
        <time>2010-01-01T03:19:41Z</time>
      </trkpt>
      <trkpt lat="45.77176" lon="6.13185">
        <ele>900</ele>
        <time>2010-01-01T03:20:06Z</time>
      </trkpt>
      <trkpt lat="45.77181" lon="6.13163">
        <ele>901</ele>
        <time>2010-01-01T03:20:12Z</time>
      </trkpt>
      <trkpt lat="45.7714" lon="6.13115">
        <ele>900</ele>
        <time>2010-01-01T03:20:33Z</time>
      </trkpt>
      <trkpt lat="45.77031" lon="6.12996">
        <ele>895</ele>
        <time>2010-01-01T03:21:28Z</time>
      </trkpt>
      <trkpt lat="45.77022" lon="6.12968">
        <ele>894</ele>
        <time>2010-01-01T03:21:37Z</time>
      </trkpt>
      <trkpt lat="45.77015" lon="6.12913">
        <ele>890</ele>
        <time>2010-01-01T03:21:52Z</time>
      </trkpt>
      <trkpt lat="45.77004" lon="6.12852">
        <ele>888</ele>
        <time>2010-01-01T03:22:10Z</time>
      </trkpt>
      <trkpt lat="45.76992" lon="6.12824">
        <ele>888</ele>
        <time>2010-01-01T03:22:19Z</time>
      </trkpt>
      <trkpt lat="45.76922" lon="6.12746">
        <ele>883</ele>
        <time>2010-01-01T03:22:55Z</time>
      </trkpt>
      <trkpt lat="45.76895" lon="6.12719">
        <ele>883</ele>
        <time>2010-01-01T03:23:08Z</time>
      </trkpt>
      <trkpt lat="45.76879" lon="6.12712">
        <ele>883</ele>
        <time>2010-01-01T03:23:14Z</time>
      </trkpt>
      <trkpt lat="45.76852" lon="6.12713">
        <ele>881</ele>
        <time>2010-01-01T03:23:25Z</time>
      </trkpt>
      <trkpt lat="45.76805" lon="6.12719">
        <ele>877</ele>
        <time>2010-01-01T03:23:44Z</time>
      </trkpt>
      <trkpt lat="45.76776" lon="6.12713">
        <ele>875</ele>
        <time>2010-01-01T03:23:56Z</time>
      </trkpt>
      <trkpt lat="45.76647" lon="6.12641">
        <ele>869</ele>
        <time>2010-01-01T03:24:51Z</time>
      </trkpt>
      <trkpt lat="45.76515" lon="6.12542">
        <ele>864</ele>
        <time>2010-01-01T03:25:51Z</time>
      </trkpt>
      <trkpt lat="45.76495" lon="6.12524">
        <ele>863</ele>
        <time>2010-01-01T03:26:00Z</time>
      </trkpt>
      <trkpt lat="45.76447" lon="6.12457">
        <ele>859</ele>
        <time>2010-01-01T03:26:27Z</time>
      </trkpt>
      <trkpt lat="45.76418" lon="6.12412">
        <ele>857</ele>
        <time>2010-01-01T03:26:44Z</time>
      </trkpt>
      <trkpt lat="45.76408" lon="6.12385">
        <ele>857</ele>
        <time>2010-01-01T03:26:53Z</time>
      </trkpt>
      <trkpt lat="45.76404" lon="6.12349">
        <ele>857</ele>
        <time>2010-01-01T03:27:03Z</time>
      </trkpt>
      <trkpt lat="45.76401" lon="6.12296">
        <ele>856</ele>
        <time>2010-01-01T03:27:18Z</time>
      </trkpt>
      <trkpt lat="45.76396" lon="6.12258">
        <ele>855</ele>
        <time>2010-01-01T03:27:29Z</time>
      </trkpt>
      <trkpt lat="45.76372" lon="6.12207">
        <ele>854</ele>
        <time>2010-01-01T03:27:46Z</time>
      </trkpt>
      <trkpt lat="45.76351" lon="6.12182">
        <ele>854</ele>
        <time>2010-01-01T03:27:57Z</time>
      </trkpt>
      <trkpt lat="45.76307" lon="6.12158">
        <ele>851</ele>
        <time>2010-01-01T03:28:16Z</time>
      </trkpt>
      <trkpt lat="45.76161" lon="6.12084">
        <ele>844</ele>
        <time>2010-01-01T03:29:18Z</time>
      </trkpt>
      <trkpt lat="45.761" lon="6.12047">
        <ele>842</ele>
        <time>2010-01-01T03:29:44Z</time>
      </trkpt>
      <trkpt lat="45.76067" lon="6.12018">
        <ele>843</ele>
        <time>2010-01-01T03:30:00Z</time>
      </trkpt>
      <trkpt lat="45.76026" lon="6.11971">
        <ele>842</ele>
        <time>2010-01-01T03:30:21Z</time>
      </trkpt>
      <trkpt lat="45.7599" lon="6.11921">
        <ele>835</ele>
        <time>2010-01-01T03:30:41Z</time>
      </trkpt>
      <trkpt lat="45.75964" lon="6.1189">
        <ele>833</ele>
        <time>2010-01-01T03:30:54Z</time>
      </trkpt>
      <trkpt lat="45.75882" lon="6.11833">
        <ele>838</ele>
        <time>2010-01-01T03:31:31Z</time>
      </trkpt>
      <trkpt lat="45.75833" lon="6.11801">
        <ele>843</ele>
        <time>2010-01-01T03:31:52Z</time>
      </trkpt>
      <trkpt lat="45.75796" lon="6.11785">
        <ele>836</ele>
        <time>2010-01-01T03:32:08Z</time>
      </trkpt>
      <trkpt lat="45.75539" lon="6.11709">
        <ele>818</ele>
        <time>2010-01-01T03:33:53Z</time>
      </trkpt>
      <trkpt lat="45.75515" lon="6.11693">
        <ele>820</ele>
        <time>2010-01-01T03:34:03Z</time>
      </trkpt>
      <trkpt lat="45.75489" lon="6.11665">
        <ele>824</ele>
        <time>2010-01-01T03:34:16Z</time>
      </trkpt>
      <trkpt lat="45.75471" lon="6.11655">
        <ele>825</ele>
        <time>2010-01-01T03:34:24Z</time>
      </trkpt>
      <trkpt lat="45.75439" lon="6.11647">
        <ele>824</ele>
        <time>2010-01-01T03:34:37Z</time>
      </trkpt>
      <trkpt lat="45.75408" lon="6.11637">
        <ele>826</ele>
        <time>2010-01-01T03:34:50Z</time>
      </trkpt>
      <trkpt lat="45.7511" lon="6.11475">
        <ele>818</ele>
        <time>2010-01-01T03:36:57Z</time>
      </trkpt>
      <trkpt lat="45.7507" lon="6.11456">
        <ele>818</ele>
        <time>2010-01-01T03:37:14Z</time>
      </trkpt>
      <trkpt lat="45.74917" lon="6.11414">
        <ele>810</ele>
        <time>2010-01-01T03:38:17Z</time>
      </trkpt>
      <trkpt lat="45.74902" lon="6.11413">
        <ele>809</ele>
        <time>2010-01-01T03:38:23Z</time>
      </trkpt>
      <trkpt lat="45.74793" lon="6.11437">
        <ele>799</ele>
        <time>2010-01-01T03:39:07Z</time>
      </trkpt>
      <trkpt lat="45.74703" lon="6.11435">
        <ele>791</ele>
        <time>2010-01-01T03:39:43Z</time>
      </trkpt>
      <trkpt lat="45.7468" lon="6.11427">
        <ele>790</ele>
        <time>2010-01-01T03:39:52Z</time>
      </trkpt>
      <trkpt lat="45.74648" lon="6.11409">
        <ele>791</ele>
        <time>2010-01-01T03:40:06Z</time>
      </trkpt>
      <trkpt lat="45.74641" lon="6.11407">
        <ele>791</ele>
        <time>2010-01-01T03:40:09Z</time>
      </trkpt>
      <trkpt lat="45.74632" lon="6.11408">
        <ele>790</ele>
        <time>2010-01-01T03:40:12Z</time>
      </trkpt>
      <trkpt lat="45.74625" lon="6.11416">
        <ele>789</ele>
        <time>2010-01-01T03:40:16Z</time>
      </trkpt>
      <trkpt lat="45.74618" lon="6.11405">
        <ele>789</ele>
        <time>2010-01-01T03:40:20Z</time>
      </trkpt>
      <trkpt lat="45.74585" lon="6.11368">
        <ele>787</ele>
        <time>2010-01-01T03:40:37Z</time>
      </trkpt>
      <trkpt lat="45.74579" lon="6.11348">
        <ele>789</ele>
        <time>2010-01-01T03:40:43Z</time>
      </trkpt>
      <trkpt lat="45.7458" lon="6.11316">
        <ele>793</ele>
        <time>2010-01-01T03:40:52Z</time>
      </trkpt>
      <trkpt lat="45.74577" lon="6.11305">
        <ele>795</ele>
        <time>2010-01-01T03:40:55Z</time>
      </trkpt>
      <trkpt lat="45.74569" lon="6.11298">
        <ele>796</ele>
        <time>2010-01-01T03:40:59Z</time>
      </trkpt>
      <trkpt lat="45.74481" lon="6.11308">
        <ele>789</ele>
        <time>2010-01-01T03:41:34Z</time>
      </trkpt>
      <trkpt lat="45.74457" lon="6.11318">
        <ele>785</ele>
        <time>2010-01-01T03:41:44Z</time>
      </trkpt>
      <trkpt lat="45.74421" lon="6.11324">
        <ele>781</ele>
        <time>2010-01-01T03:41:59Z</time>
      </trkpt>
      <trkpt lat="45.74371" lon="6.1134">
        <ele>778</ele>
        <time>2010-01-01T03:42:19Z</time>
      </trkpt>
      <trkpt lat="45.7435" lon="6.11338">
        <ele>777</ele>
        <time>2010-01-01T03:42:28Z</time>
      </trkpt>
      <trkpt lat="45.74303" lon="6.11314">
        <ele>776</ele>
        <time>2010-01-01T03:42:48Z</time>
      </trkpt>
      <trkpt lat="45.74296" lon="6.1132">
        <ele>776</ele>
        <time>2010-01-01T03:42:51Z</time>
      </trkpt>
      <trkpt lat="45.74295" lon="6.11335">
        <ele>775</ele>
        <time>2010-01-01T03:42:55Z</time>
      </trkpt>
      <trkpt lat="45.74305" lon="6.11355">
        <ele>775</ele>
        <time>2010-01-01T03:43:02Z</time>
      </trkpt>
      <trkpt lat="45.74326" lon="6.11382">
        <ele>774</ele>
        <time>2010-01-01T03:43:13Z</time>
      </trkpt>
      <trkpt lat="45.74328" lon="6.11401">
        <ele>773</ele>
        <time>2010-01-01T03:43:19Z</time>
      </trkpt>
      <trkpt lat="45.74326" lon="6.11419">
        <ele>771</ele>
        <time>2010-01-01T03:43:24Z</time>
      </trkpt>
      <trkpt lat="45.74267" lon="6.11391">
        <ele>769</ele>
        <time>2010-01-01T03:43:49Z</time>
      </trkpt>
      <trkpt lat="45.7425" lon="6.11379">
        <ele>769</ele>
        <time>2010-01-01T03:43:56Z</time>
      </trkpt>
      <trkpt lat="45.74147" lon="6.11287">
        <ele>759</ele>
        <time>2010-01-01T03:44:45Z</time>
      </trkpt>
      <trkpt lat="45.74126" lon="6.1127">
        <ele>759</ele>
        <time>2010-01-01T03:44:55Z</time>
      </trkpt>
      <trkpt lat="45.74105" lon="6.11264">
        <ele>758</ele>
        <time>2010-01-01T03:45:03Z</time>
      </trkpt>
      <trkpt lat="45.74086" lon="6.11266">
        <ele>755</ele>
        <time>2010-01-01T03:45:11Z</time>
      </trkpt>
      <trkpt lat="45.7404" lon="6.11283">
        <ele>748</ele>
        <time>2010-01-01T03:45:30Z</time>
      </trkpt>
      <trkpt lat="45.74018" lon="6.11283">
        <ele>747</ele>
        <time>2010-01-01T03:45:39Z</time>
      </trkpt>
      <trkpt lat="45.73938" lon="6.11276">
        <ele>743</ele>
        <time>2010-01-01T03:46:11Z</time>
      </trkpt>
      <trkpt lat="45.73923" lon="6.1127">
        <ele>742</ele>
        <time>2010-01-01T03:46:17Z</time>
      </trkpt>
      <trkpt lat="45.73891" lon="6.11246">
        <ele>741</ele>
        <time>2010-01-01T03:46:31Z</time>
      </trkpt>
      <trkpt lat="45.73867" lon="6.11224">
        <ele>740</ele>
        <time>2010-01-01T03:46:43Z</time>
      </trkpt>
      <trkpt lat="45.73858" lon="6.11203">
        <ele>740</ele>
        <time>2010-01-01T03:46:50Z</time>
      </trkpt>
      <trkpt lat="45.73853" lon="6.1118">
        <ele>740</ele>
        <time>2010-01-01T03:46:56Z</time>
      </trkpt>
      <trkpt lat="45.73848" lon="6.11148">
        <ele>737</ele>
        <time>2010-01-01T03:47:06Z</time>
      </trkpt>
      <trkpt lat="45.73843" lon="6.111">
        <ele>734</ele>
        <time>2010-01-01T03:47:19Z</time>
      </trkpt>
      <trkpt lat="45.73839" lon="6.11085">
        <ele>733</ele>
        <time>2010-01-01T03:47:24Z</time>
      </trkpt>
      <trkpt lat="45.73832" lon="6.11078">
        <ele>732</ele>
        <time>2010-01-01T03:47:27Z</time>
      </trkpt>
      <trkpt lat="45.73826" lon="6.11078">
        <ele>731</ele>
        <time>2010-01-01T03:47:29Z</time>
      </trkpt>
      <trkpt lat="45.7382" lon="6.11083">
        <ele>730</ele>
        <time>2010-01-01T03:47:32Z</time>
      </trkpt>
      <trkpt lat="45.73817" lon="6.11098">
        <ele>730</ele>
        <time>2010-01-01T03:47:37Z</time>
      </trkpt>
      <trkpt lat="45.73811" lon="6.1114">
        <ele>729</ele>
        <time>2010-01-01T03:47:49Z</time>
      </trkpt>
      <trkpt lat="45.738" lon="6.1118">
        <ele>728</ele>
        <time>2010-01-01T03:48:01Z</time>
      </trkpt>
      <trkpt lat="45.73785" lon="6.11223">
        <ele>726</ele>
        <time>2010-01-01T03:48:14Z</time>
      </trkpt>
      <trkpt lat="45.73769" lon="6.11255">
        <ele>723</ele>
        <time>2010-01-01T03:48:25Z</time>
      </trkpt>
      <trkpt lat="45.73748" lon="6.11268">
        <ele>721</ele>
        <time>2010-01-01T03:48:34Z</time>
      </trkpt>
      <trkpt lat="45.73674" lon="6.11262">
        <ele>717</ele>
        <time>2010-01-01T03:49:04Z</time>
      </trkpt>
      <trkpt lat="45.73645" lon="6.11269">
        <ele>715</ele>
        <time>2010-01-01T03:49:16Z</time>
      </trkpt>
      <trkpt lat="45.73618" lon="6.11291">
        <ele>714</ele>
        <time>2010-01-01T03:49:28Z</time>
      </trkpt>
      <trkpt lat="45.73594" lon="6.11298">
        <ele>715</ele>
        <time>2010-01-01T03:49:38Z</time>
      </trkpt>
      <trkpt lat="45.73558" lon="6.11288">
        <ele>715</ele>
        <time>2010-01-01T03:49:53Z</time>
      </trkpt>
      <trkpt lat="45.73513" lon="6.11259">
        <ele>714</ele>
        <time>2010-01-01T03:50:12Z</time>
      </trkpt>
      <trkpt lat="45.73485" lon="6.11235">
        <ele>713</ele>
        <time>2010-01-01T03:50:25Z</time>
      </trkpt>
      <trkpt lat="45.73434" lon="6.11131">
        <ele>713</ele>
        <time>2010-01-01T03:51:01Z</time>
      </trkpt>
      <trkpt lat="45.73398" lon="6.11092">
        <ele>706</ele>
        <time>2010-01-01T03:51:19Z</time>
      </trkpt>
      <trkpt lat="45.7335" lon="6.11053">
        <ele>696</ele>
        <time>2010-01-01T03:51:41Z</time>
      </trkpt>
      <trkpt lat="45.73217" lon="6.10996">
        <ele>685</ele>
        <time>2010-01-01T03:52:37Z</time>
      </trkpt>
      <trkpt lat="45.7309" lon="6.10919">
        <ele>677</ele>
        <time>2010-01-01T03:53:32Z</time>
      </trkpt>
      <trkpt lat="45.73071" lon="6.109">
        <ele>675</ele>
        <time>2010-01-01T03:53:41Z</time>
      </trkpt>
      <trkpt lat="45.73054" lon="6.10867">
        <ele>676</ele>
        <time>2010-01-01T03:53:53Z</time>
      </trkpt>
      <trkpt lat="45.73041" lon="6.1082">
        <ele>679</ele>
        <time>2010-01-01T03:54:07Z</time>
      </trkpt>
      <trkpt lat="45.73027" lon="6.1078">
        <ele>680</ele>
        <time>2010-01-01T03:54:19Z</time>
      </trkpt>
      <trkpt lat="45.72832" lon="6.10517">
        <ele>663</ele>
        <time>2010-01-01T03:56:06Z</time>
      </trkpt>
      <trkpt lat="45.72822" lon="6.10509">
        <ele>662</ele>
        <time>2010-01-01T03:56:11Z</time>
      </trkpt>
      <trkpt lat="45.72804" lon="6.10507">
        <ele>659</ele>
        <time>2010-01-01T03:56:18Z</time>
      </trkpt>
      <trkpt lat="45.72617" lon="6.10574">
        <ele>643</ele>
        <time>2010-01-01T03:57:35Z</time>
      </trkpt>
      <trkpt lat="45.72587" lon="6.10566">
        <ele>645</ele>
        <time>2010-01-01T03:57:48Z</time>
      </trkpt>
      <trkpt lat="45.72403" lon="6.10493">
        <ele>632</ele>
        <time>2010-01-01T03:59:04Z</time>
      </trkpt>
      <trkpt lat="45.72284" lon="6.10449">
        <ele>625</ele>
        <time>2010-01-01T03:59:53Z</time>
      </trkpt>
      <trkpt lat="45.72275" lon="6.10439">
        <ele>625</ele>
        <time>2010-01-01T03:59:58Z</time>
      </trkpt>
      <trkpt lat="45.72244" lon="6.10387">
        <ele>627</ele>
        <time>2010-01-01T04:00:17Z</time>
      </trkpt>
      <trkpt lat="45.72234" lon="6.10368">
        <ele>624</ele>
        <time>2010-01-01T04:00:24Z</time>
      </trkpt>
      <trkpt lat="45.72228" lon="6.10347">
        <ele>622</ele>
        <time>2010-01-01T04:00:30Z</time>
      </trkpt>
      <trkpt lat="45.72227" lon="6.10331">
        <ele>621</ele>
        <time>2010-01-01T04:00:34Z</time>
      </trkpt>
      <trkpt lat="45.72227" lon="6.10314">
        <ele>620</ele>
        <time>2010-01-01T04:00:39Z</time>
      </trkpt>
      <trkpt lat="45.72231" lon="6.10297">
        <ele>620</ele>
        <time>2010-01-01T04:00:44Z</time>
      </trkpt>
      <trkpt lat="45.72236" lon="6.10283">
        <ele>621</ele>
        <time>2010-01-01T04:00:49Z</time>
      </trkpt>
      <trkpt lat="45.72243" lon="6.10272">
        <ele>621</ele>
        <time>2010-01-01T04:00:53Z</time>
      </trkpt>
      <trkpt lat="45.7225" lon="6.10266">
        <ele>621</ele>
        <time>2010-01-01T04:00:56Z</time>
      </trkpt>
      <trkpt lat="45.7226" lon="6.10259">
        <ele>622</ele>
        <time>2010-01-01T04:01:00Z</time>
      </trkpt>
      <trkpt lat="45.72271" lon="6.10254">
        <ele>624</ele>
        <time>2010-01-01T04:01:05Z</time>
      </trkpt>
      <trkpt lat="45.7228" lon="6.10242">
        <ele>624</ele>
        <time>2010-01-01T04:01:10Z</time>
      </trkpt>
      <trkpt lat="45.72279" lon="6.10227">
        <ele>622</ele>
        <time>2010-01-01T04:01:14Z</time>
      </trkpt>
      <trkpt lat="45.72275" lon="6.10212">
        <ele>620</ele>
        <time>2010-01-01T04:01:19Z</time>
      </trkpt>
      <trkpt lat="45.7227" lon="6.10206">
        <ele>618</ele>
        <time>2010-01-01T04:01:21Z</time>
      </trkpt>
      <trkpt lat="45.72262" lon="6.10202">
        <ele>615</ele>
        <time>2010-01-01T04:01:25Z</time>
      </trkpt>
      <trkpt lat="45.72251" lon="6.10226">
        <ele>614</ele>
        <time>2010-01-01T04:01:33Z</time>
      </trkpt>
      <trkpt lat="45.72236" lon="6.10246">
        <ele>614</ele>
        <time>2010-01-01T04:01:41Z</time>
      </trkpt>
      <trkpt lat="45.72188" lon="6.10299">
        <ele>610</ele>
        <time>2010-01-01T04:02:05Z</time>
      </trkpt>
      <trkpt lat="45.72182" lon="6.1031">
        <ele>610</ele>
        <time>2010-01-01T04:02:09Z</time>
      </trkpt>
      <trkpt lat="45.72179" lon="6.10321">
        <ele>609</ele>
        <time>2010-01-01T04:02:12Z</time>
      </trkpt>
      <trkpt lat="45.72179" lon="6.10335">
        <ele>610</ele>
        <time>2010-01-01T04:02:16Z</time>
      </trkpt>
      <trkpt lat="45.72185" lon="6.10369">
        <ele>610</ele>
        <time>2010-01-01T04:02:26Z</time>
      </trkpt>
      <trkpt lat="45.72191" lon="6.10388">
        <ele>609</ele>
        <time>2010-01-01T04:02:32Z</time>
      </trkpt>
      <trkpt lat="45.72202" lon="6.10413">
        <ele>610</ele>
        <time>2010-01-01T04:02:40Z</time>
      </trkpt>
      <trkpt lat="45.72232" lon="6.10457">
        <ele>609</ele>
        <time>2010-01-01T04:02:57Z</time>
      </trkpt>
      <trkpt lat="45.72231" lon="6.10466">
        <ele>606</ele>
        <time>2010-01-01T04:03:00Z</time>
      </trkpt>
      <trkpt lat="45.72227" lon="6.10469">
        <ele>604</ele>
        <time>2010-01-01T04:03:02Z</time>
      </trkpt>
      <trkpt lat="45.72222" lon="6.1047">
        <ele>602</ele>
        <time>2010-01-01T04:03:04Z</time>
      </trkpt>
      <trkpt lat="45.72215" lon="6.10465">
        <ele>602</ele>
        <time>2010-01-01T04:03:07Z</time>
      </trkpt>
      <trkpt lat="45.72214" lon="6.10465">
        <ele>602</ele>
        <time>2010-01-01T04:03:07Z</time>
      </trkpt>
      <trkpt lat="45.72185" lon="6.10435">
        <ele>601</ele>
        <time>2010-01-01T04:03:22Z</time>
      </trkpt>
      <trkpt lat="45.72146" lon="6.10377">
        <ele>602</ele>
        <time>2010-01-01T04:03:44Z</time>
      </trkpt>
      <trkpt lat="45.72122" lon="6.10333">
        <ele>599</ele>
        <time>2010-01-01T04:04:00Z</time>
      </trkpt>
      <trkpt lat="45.72115" lon="6.10334">
        <ele>597</ele>
        <time>2010-01-01T04:04:02Z</time>
      </trkpt>
      <trkpt lat="45.72111" lon="6.10337">
        <ele>597</ele>
        <time>2010-01-01T04:04:04Z</time>
      </trkpt>
      <trkpt lat="45.72109" lon="6.10349">
        <ele>596</ele>
        <time>2010-01-01T04:04:08Z</time>
      </trkpt>
      <trkpt lat="45.72113" lon="6.10362">
        <ele>597</ele>
        <time>2010-01-01T04:04:12Z</time>
      </trkpt>
      <trkpt lat="45.72122" lon="6.10377">
        <ele>598</ele>
        <time>2010-01-01T04:04:17Z</time>
      </trkpt>
      <trkpt lat="45.72133" lon="6.10393">
        <ele>600</ele>
        <time>2010-01-01T04:04:24Z</time>
      </trkpt>
      <trkpt lat="45.72154" lon="6.10437">
        <ele>596</ele>
        <time>2010-01-01T04:04:38Z</time>
      </trkpt>
      <trkpt lat="45.72155" lon="6.10451">
        <ele>594</ele>
        <time>2010-01-01T04:04:42Z</time>
      </trkpt>
      <trkpt lat="45.72153" lon="6.10466">
        <ele>592</ele>
        <time>2010-01-01T04:04:47Z</time>
      </trkpt>
      <trkpt lat="45.72143" lon="6.10492">
        <ele>587</ele>
        <time>2010-01-01T04:04:55Z</time>
      </trkpt>
      <trkpt lat="45.72132" lon="6.10506">
        <ele>584</ele>
        <time>2010-01-01T04:05:01Z</time>
      </trkpt>
      <trkpt lat="45.7212" lon="6.10516">
        <ele>582</ele>
        <time>2010-01-01T04:05:06Z</time>
      </trkpt>
      <trkpt lat="45.71962" lon="6.10613">
        <ele>585</ele>
        <time>2010-01-01T04:06:15Z</time>
      </trkpt>
      <trkpt lat="45.71881" lon="6.10659">
        <ele>585</ele>
        <time>2010-01-01T04:06:50Z</time>
      </trkpt>
      <trkpt lat="45.71788" lon="6.10703">
        <ele>586</ele>
        <time>2010-01-01T04:07:29Z</time>
      </trkpt>
      <trkpt lat="45.71668" lon="6.10726">
        <ele>585</ele>
        <time>2010-01-01T04:08:18Z</time>
      </trkpt>
      <trkpt lat="45.71641" lon="6.10734">
        <ele>584</ele>
        <time>2010-01-01T04:08:29Z</time>
      </trkpt>
      <trkpt lat="45.71618" lon="6.10736">
        <ele>584</ele>
        <time>2010-01-01T04:08:38Z</time>
      </trkpt>
      <trkpt lat="45.71608" lon="6.10732">
        <ele>584</ele>
        <time>2010-01-01T04:08:42Z</time>
      </trkpt>
      <trkpt lat="45.71601" lon="6.10725">
        <ele>584</ele>
        <time>2010-01-01T04:08:46Z</time>
      </trkpt>
      <trkpt lat="45.71568" lon="6.10672">
        <ele>584</ele>
        <time>2010-01-01T04:09:05Z</time>
      </trkpt>
      <trkpt lat="45.71558" lon="6.10659">
        <ele>585</ele>
        <time>2010-01-01T04:09:11Z</time>
      </trkpt>
      <trkpt lat="45.71547" lon="6.10649">
        <ele>585</ele>
        <time>2010-01-01T04:09:16Z</time>
      </trkpt>
      <trkpt lat="45.71502" lon="6.1063">
        <ele>586</ele>
        <time>2010-01-01T04:09:35Z</time>
      </trkpt>
      <trkpt lat="45.71462" lon="6.1062">
        <ele>587</ele>
        <time>2010-01-01T04:09:51Z</time>
      </trkpt>
      <trkpt lat="45.71425" lon="6.10616">
        <ele>586</ele>
        <time>2010-01-01T04:10:06Z</time>
      </trkpt>
      <trkpt lat="45.71418" lon="6.10617">
        <ele>586</ele>
        <time>2010-01-01T04:10:09Z</time>
      </trkpt>
      <trkpt lat="45.71396" lon="6.10558">
        <ele>588</ele>
        <time>2010-01-01T04:10:27Z</time>
      </trkpt>
      <trkpt lat="45.71382" lon="6.10532">
        <ele>591</ele>
        <time>2010-01-01T04:10:37Z</time>
      </trkpt>
      <trkpt lat="45.71328" lon="6.10463">
        <ele>599</ele>
        <time>2010-01-01T04:11:06Z</time>
      </trkpt>
      <trkpt lat="45.71311" lon="6.10441">
        <ele>602</ele>
        <time>2010-01-01T04:11:15Z</time>
      </trkpt>
      <trkpt lat="45.71298" lon="6.10429">
        <ele>604</ele>
        <time>2010-01-01T04:11:21Z</time>
      </trkpt>
      <trkpt lat="45.71287" lon="6.10424">
        <ele>604</ele>
        <time>2010-01-01T04:11:26Z</time>
      </trkpt>
      <trkpt lat="45.71274" lon="6.10423">
        <ele>604</ele>
        <time>2010-01-01T04:11:31Z</time>
      </trkpt>
      <trkpt lat="45.71268" lon="6.10425">
        <ele>604</ele>
        <time>2010-01-01T04:11:33Z</time>
      </trkpt>
      <trkpt lat="45.7122" lon="6.10465">
        <ele>603</ele>
        <time>2010-01-01T04:11:55Z</time>
      </trkpt>
      <trkpt lat="45.71209" lon="6.10467">
        <ele>604</ele>
        <time>2010-01-01T04:12:00Z</time>
      </trkpt>
      <trkpt lat="45.71201" lon="6.10464">
        <ele>606</ele>
        <time>2010-01-01T04:12:03Z</time>
      </trkpt>
      <trkpt lat="45.71196" lon="6.10452">
        <ele>610</ele>
        <time>2010-01-01T04:12:07Z</time>
      </trkpt>
      <trkpt lat="45.71197" lon="6.10442">
        <ele>613</ele>
        <time>2010-01-01T04:12:10Z</time>
      </trkpt>
      <trkpt lat="45.71201" lon="6.10434">
        <ele>614</ele>
        <time>2010-01-01T04:12:13Z</time>
      </trkpt>
      <trkpt lat="45.71217" lon="6.1042">
        <ele>617</ele>
        <time>2010-01-01T04:12:20Z</time>
      </trkpt>
      <trkpt lat="45.71249" lon="6.10386">
        <ele>617</ele>
        <time>2010-01-01T04:12:36Z</time>
      </trkpt>
      <trkpt lat="45.71259" lon="6.1038">
        <ele>619</ele>
        <time>2010-01-01T04:12:40Z</time>
      </trkpt>
      <trkpt lat="45.7127" lon="6.10379">
        <ele>620</ele>
        <time>2010-01-01T04:12:45Z</time>
      </trkpt>
      <trkpt lat="45.71287" lon="6.10382">
        <ele>620</ele>
        <time>2010-01-01T04:12:52Z</time>
      </trkpt>
      <trkpt lat="45.71293" lon="6.10381">
        <ele>621</ele>
        <time>2010-01-01T04:12:54Z</time>
      </trkpt>
      <trkpt lat="45.71298" lon="6.10377">
        <ele>624</ele>
        <time>2010-01-01T04:12:56Z</time>
      </trkpt>
      <trkpt lat="45.71299" lon="6.10371">
        <ele>627</ele>
        <time>2010-01-01T04:12:58Z</time>
      </trkpt>
      <trkpt lat="45.71297" lon="6.10362">
        <ele>630</ele>
        <time>2010-01-01T04:13:01Z</time>
      </trkpt>
      <trkpt lat="45.71293" lon="6.10356">
        <ele>631</ele>
        <time>2010-01-01T04:13:03Z</time>
      </trkpt>
      <trkpt lat="45.71287" lon="6.10355">
        <ele>631</ele>
        <time>2010-01-01T04:13:06Z</time>
      </trkpt>
      <trkpt lat="45.71188" lon="6.10375">
        <ele>629</ele>
        <time>2010-01-01T04:13:46Z</time>
      </trkpt>
      <trkpt lat="45.7117" lon="6.10384">
        <ele>628</ele>
        <time>2010-01-01T04:13:53Z</time>
      </trkpt>
      <trkpt lat="45.71124" lon="6.1042">
        <ele>624</ele>
        <time>2010-01-01T04:14:14Z</time>
      </trkpt>
      <trkpt lat="45.71106" lon="6.10425">
        <ele>625</ele>
        <time>2010-01-01T04:14:22Z</time>
      </trkpt>
      <trkpt lat="45.71094" lon="6.10424">
        <ele>626</ele>
        <time>2010-01-01T04:14:26Z</time>
      </trkpt>
      <trkpt lat="45.71083" lon="6.10419">
        <ele>627</ele>
        <time>2010-01-01T04:14:31Z</time>
      </trkpt>
      <trkpt lat="45.71066" lon="6.10406">
        <ele>630</ele>
        <time>2010-01-01T04:14:39Z</time>
      </trkpt>
      <trkpt lat="45.71045" lon="6.10395">
        <ele>633</ele>
        <time>2010-01-01T04:14:48Z</time>
      </trkpt>
      <trkpt lat="45.71016" lon="6.10395">
        <ele>637</ele>
        <time>2010-01-01T04:14:59Z</time>
      </trkpt>
      <trkpt lat="45.71001" lon="6.10409">
        <ele>638</ele>
        <time>2010-01-01T04:15:06Z</time>
      </trkpt>
      <trkpt lat="45.70984" lon="6.10431">
        <ele>639</ele>
        <time>2010-01-01T04:15:16Z</time>
      </trkpt>
      <trkpt lat="45.70975" lon="6.10439">
        <ele>639</ele>
        <time>2010-01-01T04:15:20Z</time>
      </trkpt>
      <trkpt lat="45.70944" lon="6.10461">
        <ele>642</ele>
        <time>2010-01-01T04:15:34Z</time>
      </trkpt>
      <trkpt lat="45.70894" lon="6.10477">
        <ele>646</ele>
        <time>2010-01-01T04:15:54Z</time>
      </trkpt>
      <trkpt lat="45.70884" lon="6.10486">
        <ele>647</ele>
        <time>2010-01-01T04:15:59Z</time>
      </trkpt>
      <trkpt lat="45.70833" lon="6.10559">
        <ele>650</ele>
        <time>2010-01-01T04:16:28Z</time>
      </trkpt>
      <trkpt lat="45.70814" lon="6.10575">
        <ele>650</ele>
        <time>2010-01-01T04:16:37Z</time>
      </trkpt>
      <trkpt lat="45.70786" lon="6.10589">
        <ele>651</ele>
        <time>2010-01-01T04:16:48Z</time>
      </trkpt>
      <trkpt lat="45.70772" lon="6.10593">
        <ele>652</ele>
        <time>2010-01-01T04:16:54Z</time>
      </trkpt>
      <trkpt lat="45.70711" lon="6.10597">
        <ele>654</ele>
        <time>2010-01-01T04:17:19Z</time>
      </trkpt>
      <trkpt lat="45.70703" lon="6.10593">
        <ele>653</ele>
        <time>2010-01-01T04:17:22Z</time>
      </trkpt>
      <trkpt lat="45.70694" lon="6.10602">
        <ele>654</ele>
        <time>2010-01-01T04:17:26Z</time>
      </trkpt>
      <trkpt lat="45.70684" lon="6.10606">
        <ele>654</ele>
        <time>2010-01-01T04:17:31Z</time>
      </trkpt>
      <trkpt lat="45.7067" lon="6.10606">
        <ele>654</ele>
        <time>2010-01-01T04:17:36Z</time>
      </trkpt>
      <trkpt lat="45.70627" lon="6.10593">
        <ele>658</ele>
        <time>2010-01-01T04:17:54Z</time>
      </trkpt>
      <trkpt lat="45.70488" lon="6.10538">
        <ele>669</ele>
        <time>2010-01-01T04:18:51Z</time>
      </trkpt>
      <trkpt lat="45.7047" lon="6.1054">
        <ele>670</ele>
        <time>2010-01-01T04:18:59Z</time>
      </trkpt>
      <trkpt lat="45.70441" lon="6.10548">
        <ele>671</ele>
        <time>2010-01-01T04:19:11Z</time>
      </trkpt>
      <trkpt lat="45.70277" lon="6.1062">
        <ele>678</ele>
        <time>2010-01-01T04:20:19Z</time>
      </trkpt>
      <trkpt lat="45.70248" lon="6.1063">
        <ele>679</ele>
        <time>2010-01-01T04:20:31Z</time>
      </trkpt>
      <trkpt lat="45.70162" lon="6.10621">
        <ele>685</ele>
        <time>2010-01-01T04:21:06Z</time>
      </trkpt>
      <trkpt lat="45.70134" lon="6.10615">
        <ele>686</ele>
        <time>2010-01-01T04:21:17Z</time>
      </trkpt>
      <trkpt lat="45.70116" lon="6.10621">
        <ele>687</ele>
        <time>2010-01-01T04:21:24Z</time>
      </trkpt>
      <trkpt lat="45.70097" lon="6.10635">
        <ele>688</ele>
        <time>2010-01-01T04:21:33Z</time>
      </trkpt>
      <trkpt lat="45.70006" lon="6.10845">
        <ele>692</ele>
        <time>2010-01-01T04:22:42Z</time>
      </trkpt>
      <trkpt lat="45.70002" lon="6.10883">
        <ele>691</ele>
        <time>2010-01-01T04:22:53Z</time>
      </trkpt>
      <trkpt lat="45.69996" lon="6.10908">
        <ele>691</ele>
        <time>2010-01-01T04:23:00Z</time>
      </trkpt>
      <trkpt lat="45.69983" lon="6.10899">
        <ele>692</ele>
        <time>2010-01-01T04:23:06Z</time>
      </trkpt>
      <trkpt lat="45.69963" lon="6.10941">
        <ele>694</ele>
        <time>2010-01-01T04:23:20Z</time>
      </trkpt>
      <trkpt lat="45.69939" lon="6.10982">
        <ele>695</ele>
        <time>2010-01-01T04:23:35Z</time>
      </trkpt>
      <trkpt lat="45.69918" lon="6.10995">
        <ele>694</ele>
        <time>2010-01-01T04:23:44Z</time>
      </trkpt>
      <trkpt lat="45.69776" lon="6.11011">
        <ele>702</ele>
        <time>2010-01-01T04:24:41Z</time>
      </trkpt>
      <trkpt lat="45.69763" lon="6.11022">
        <ele>709</ele>
        <time>2010-01-01T04:24:47Z</time>
      </trkpt>
      <trkpt lat="45.69758" lon="6.11045">
        <ele>710</ele>
        <time>2010-01-01T04:24:54Z</time>
      </trkpt>
      <trkpt lat="45.69759" lon="6.11093">
        <ele>705</ele>
        <time>2010-01-01T04:25:08Z</time>
      </trkpt>
      <trkpt lat="45.69751" lon="6.11141">
        <ele>703</ele>
        <time>2010-01-01T04:25:21Z</time>
      </trkpt>
      <trkpt lat="45.69733" lon="6.11196">
        <ele>708</ele>
        <time>2010-01-01T04:25:38Z</time>
      </trkpt>
      <trkpt lat="45.69727" lon="6.11232">
        <ele>708</ele>
        <time>2010-01-01T04:25:49Z</time>
      </trkpt>
      <trkpt lat="45.69729" lon="6.11274">
        <ele>708</ele>
        <time>2010-01-01T04:26:00Z</time>
      </trkpt>
      <trkpt lat="45.69738" lon="6.11319">
        <ele>703</ele>
        <time>2010-01-01T04:26:13Z</time>
      </trkpt>
      <trkpt lat="45.69738" lon="6.11347">
        <ele>701</ele>
        <time>2010-01-01T04:26:21Z</time>
      </trkpt>
      <trkpt lat="45.69733" lon="6.11371">
        <ele>702</ele>
        <time>2010-01-01T04:26:28Z</time>
      </trkpt>
      <trkpt lat="45.69722" lon="6.11405">
        <ele>700</ele>
        <time>2010-01-01T04:26:39Z</time>
      </trkpt>
      <trkpt lat="45.6971" lon="6.11425">
        <ele>699</ele>
        <time>2010-01-01T04:26:46Z</time>
      </trkpt>
      <trkpt lat="45.69697" lon="6.11436">
        <ele>698</ele>
        <time>2010-01-01T04:26:52Z</time>
      </trkpt>
      <trkpt lat="45.6968" lon="6.11444">
        <ele>699</ele>
        <time>2010-01-01T04:26:59Z</time>
      </trkpt>
      <trkpt lat="45.69581" lon="6.1143">
        <ele>702</ele>
        <time>2010-01-01T04:27:39Z</time>
      </trkpt>
      <trkpt lat="45.69505" lon="6.11402">
        <ele>701</ele>
        <time>2010-01-01T04:28:11Z</time>
      </trkpt>
      <trkpt lat="45.69423" lon="6.11385">
        <ele>691</ele>
        <time>2010-01-01T04:28:44Z</time>
      </trkpt>
      <trkpt lat="45.69373" lon="6.11362">
        <ele>692</ele>
        <time>2010-01-01T04:29:05Z</time>
      </trkpt>
      <trkpt lat="45.69298" lon="6.11306">
        <ele>693</ele>
        <time>2010-01-01T04:29:39Z</time>
      </trkpt>
      <trkpt lat="45.6929" lon="6.11313">
        <ele>691</ele>
        <time>2010-01-01T04:29:42Z</time>
      </trkpt>
      <trkpt lat="45.69281" lon="6.11315">
        <ele>689</ele>
        <time>2010-01-01T04:29:46Z</time>
      </trkpt>
      <trkpt lat="45.69257" lon="6.11328">
        <ele>685</ele>
        <time>2010-01-01T04:29:56Z</time>
      </trkpt>
      <trkpt lat="45.69243" lon="6.11328">
        <ele>685</ele>
        <time>2010-01-01T04:30:02Z</time>
      </trkpt>
      <trkpt lat="45.69228" lon="6.11323">
        <ele>684</ele>
        <time>2010-01-01T04:30:08Z</time>
      </trkpt>
      <trkpt lat="45.69218" lon="6.11322">
        <ele>684</ele>
        <time>2010-01-01T04:30:12Z</time>
      </trkpt>
      <trkpt lat="45.69201" lon="6.1133">
        <ele>682</ele>
        <time>2010-01-01T04:30:19Z</time>
      </trkpt>
      <trkpt lat="45.69189" lon="6.11344">
        <ele>681</ele>
        <time>2010-01-01T04:30:25Z</time>
      </trkpt>
      <trkpt lat="45.69186" lon="6.11357">
        <ele>680</ele>
        <time>2010-01-01T04:30:29Z</time>
      </trkpt>
      <trkpt lat="45.69193" lon="6.11389">
        <ele>679</ele>
        <time>2010-01-01T04:30:39Z</time>
      </trkpt>
      <trkpt lat="45.6919" lon="6.11405">
        <ele>678</ele>
        <time>2010-01-01T04:30:43Z</time>
      </trkpt>
      <trkpt lat="45.69182" lon="6.11417">
        <ele>677</ele>
        <time>2010-01-01T04:30:48Z</time>
      </trkpt>
      <trkpt lat="45.69165" lon="6.11434">
        <ele>674</ele>
        <time>2010-01-01T04:30:56Z</time>
      </trkpt>
      <trkpt lat="45.69113" lon="6.11473">
        <ele>671</ele>
        <time>2010-01-01T04:31:20Z</time>
      </trkpt>
      <trkpt lat="45.69077" lon="6.11518">
        <ele>667</ele>
        <time>2010-01-01T04:31:39Z</time>
      </trkpt>
      <trkpt lat="45.69033" lon="6.11578">
        <ele>660</ele>
        <time>2010-01-01T04:32:03Z</time>
      </trkpt>
      <trkpt lat="45.69023" lon="6.1161">
        <ele>653</ele>
        <time>2010-01-01T04:32:13Z</time>
      </trkpt>
      <trkpt lat="45.69023" lon="6.11641">
        <ele>650</ele>
        <time>2010-01-01T04:32:22Z</time>
      </trkpt>
      <trkpt lat="45.69028" lon="6.11674">
        <ele>652</ele>
        <time>2010-01-01T04:32:31Z</time>
      </trkpt>
      <trkpt lat="45.69035" lon="6.11699">
        <ele>653</ele>
        <time>2010-01-01T04:32:39Z</time>
      </trkpt>
      <trkpt lat="45.69037" lon="6.1173">
        <ele>653</ele>
        <time>2010-01-01T04:32:47Z</time>
      </trkpt>
      <trkpt lat="45.69033" lon="6.11747">
        <ele>652</ele>
        <time>2010-01-01T04:32:52Z</time>
      </trkpt>
      <trkpt lat="45.69027" lon="6.11752">
        <ele>650</ele>
        <time>2010-01-01T04:32:55Z</time>
      </trkpt>
      <trkpt lat="45.69022" lon="6.1175">
        <ele>649</ele>
        <time>2010-01-01T04:32:57Z</time>
      </trkpt>
      <trkpt lat="45.69018" lon="6.11745">
        <ele>648</ele>
        <time>2010-01-01T04:32:59Z</time>
      </trkpt>
      <trkpt lat="45.69014" lon="6.1172">
        <ele>648</ele>
        <time>2010-01-01T04:33:07Z</time>
      </trkpt>
      <trkpt lat="45.69015" lon="6.11705">
        <ele>648</ele>
        <time>2010-01-01T04:33:11Z</time>
      </trkpt>
      <trkpt lat="45.69011" lon="6.1168">
        <ele>647</ele>
        <time>2010-01-01T04:33:18Z</time>
      </trkpt>
      <trkpt lat="45.69004" lon="6.11652">
        <ele>645</ele>
        <time>2010-01-01T04:33:26Z</time>
      </trkpt>
      <trkpt lat="45.68989" lon="6.11561">
        <ele>652</ele>
        <time>2010-01-01T04:33:52Z</time>
      </trkpt>
      <trkpt lat="45.68977" lon="6.11544">
        <ele>651</ele>
        <time>2010-01-01T04:33:59Z</time>
      </trkpt>
      <trkpt lat="45.68955" lon="6.11529">
        <ele>647</ele>
        <time>2010-01-01T04:34:09Z</time>
      </trkpt>
      <trkpt lat="45.68933" lon="6.11526">
        <ele>642</ele>
        <time>2010-01-01T04:34:18Z</time>
      </trkpt>
      <trkpt lat="45.68909" lon="6.11534">
        <ele>637</ele>
        <time>2010-01-01T04:34:28Z</time>
      </trkpt>
      <trkpt lat="45.68894" lon="6.11559">
        <ele>633</ele>
        <time>2010-01-01T04:34:37Z</time>
      </trkpt>
      <trkpt lat="45.68882" lon="6.11604">
        <ele>630</ele>
        <time>2010-01-01T04:34:50Z</time>
      </trkpt>
      <trkpt lat="45.68841" lon="6.11783">
        <ele>630</ele>
        <time>2010-01-01T04:35:43Z</time>
      </trkpt>
      <trkpt lat="45.68822" lon="6.1184">
        <ele>636</ele>
        <time>2010-01-01T04:36:01Z</time>
      </trkpt>
      <trkpt lat="45.68803" lon="6.11917">
        <ele>636</ele>
        <time>2010-01-01T04:36:23Z</time>
      </trkpt>
      <trkpt lat="45.68799" lon="6.11926">
        <ele>636</ele>
        <time>2010-01-01T04:36:26Z</time>
      </trkpt>
      <trkpt lat="45.68796" lon="6.11928">
        <ele>637</ele>
        <time>2010-01-01T04:36:28Z</time>
      </trkpt>
      <trkpt lat="45.68792" lon="6.11926">
        <ele>638</ele>
        <time>2010-01-01T04:36:29Z</time>
      </trkpt>
      <trkpt lat="45.6879" lon="6.11922">
        <ele>639</ele>
        <time>2010-01-01T04:36:31Z</time>
      </trkpt>
      <trkpt lat="45.68793" lon="6.11876">
        <ele>643</ele>
        <time>2010-01-01T04:36:44Z</time>
      </trkpt>
      <trkpt lat="45.68792" lon="6.1182">
        <ele>642</ele>
        <time>2010-01-01T04:36:59Z</time>
      </trkpt>
      <trkpt lat="45.68789" lon="6.11808">
        <ele>641</ele>
        <time>2010-01-01T04:37:03Z</time>
      </trkpt>
      <trkpt lat="45.68784" lon="6.11798">
        <ele>641</ele>
        <time>2010-01-01T04:37:06Z</time>
      </trkpt>
      <trkpt lat="45.68775" lon="6.11798">
        <ele>643</ele>
        <time>2010-01-01T04:37:10Z</time>
      </trkpt>
      <trkpt lat="45.6877" lon="6.11802">
        <ele>646</ele>
        <time>2010-01-01T04:37:12Z</time>
      </trkpt>
      <trkpt lat="45.68766" lon="6.11812">
        <ele>649</ele>
        <time>2010-01-01T04:37:16Z</time>
      </trkpt>
      <trkpt lat="45.68766" lon="6.11829">
        <ele>652</ele>
        <time>2010-01-01T04:37:20Z</time>
      </trkpt>
      <trkpt lat="45.68768" lon="6.11873">
        <ele>651</ele>
        <time>2010-01-01T04:37:33Z</time>
      </trkpt>
      <trkpt lat="45.68764" lon="6.11889">
        <ele>651</ele>
        <time>2010-01-01T04:37:37Z</time>
      </trkpt>
      <trkpt lat="45.68756" lon="6.11899">
        <ele>652</ele>
        <time>2010-01-01T04:37:42Z</time>
      </trkpt>
      <trkpt lat="45.68747" lon="6.11906">
        <ele>654</ele>
        <time>2010-01-01T04:37:46Z</time>
      </trkpt>
      <trkpt lat="45.68738" lon="6.11908">
        <ele>655</ele>
        <time>2010-01-01T04:37:49Z</time>
      </trkpt>
      <trkpt lat="45.68703" lon="6.11895">
        <ele>664</ele>
        <time>2010-01-01T04:38:04Z</time>
      </trkpt>
      <trkpt lat="45.6869" lon="6.11889">
        <ele>667</ele>
        <time>2010-01-01T04:38:09Z</time>
      </trkpt>
      <trkpt lat="45.68676" lon="6.11873">
        <ele>668</ele>
        <time>2010-01-01T04:38:16Z</time>
      </trkpt>
      <trkpt lat="45.68651" lon="6.11835">
        <ele>669</ele>
        <time>2010-01-01T04:38:31Z</time>
      </trkpt>
      <trkpt lat="45.686" lon="6.11765">
        <ele>672</ele>
        <time>2010-01-01T04:38:59Z</time>
      </trkpt>
      <trkpt lat="45.68542" lon="6.11689">
        <ele>677</ele>
        <time>2010-01-01T04:39:31Z</time>
      </trkpt>
      <trkpt lat="45.68521" lon="6.11679">
        <ele>680</ele>
        <time>2010-01-01T04:39:40Z</time>
      </trkpt>
      <trkpt lat="45.6845" lon="6.11672">
        <ele>688</ele>
        <time>2010-01-01T04:40:08Z</time>
      </trkpt>
      <trkpt lat="45.68443" lon="6.11676">
        <ele>689</ele>
        <time>2010-01-01T04:40:11Z</time>
      </trkpt>
      <trkpt lat="45.68439" lon="6.11681">
        <ele>689</ele>
        <time>2010-01-01T04:40:13Z</time>
      </trkpt>
      <trkpt lat="45.68432" lon="6.11694">
        <ele>690</ele>
        <time>2010-01-01T04:40:18Z</time>
      </trkpt>
      <trkpt lat="45.68426" lon="6.11719">
        <ele>690</ele>
        <time>2010-01-01T04:40:25Z</time>
      </trkpt>
      <trkpt lat="45.68404" lon="6.1176">
        <ele>696</ele>
        <time>2010-01-01T04:40:40Z</time>
      </trkpt>
      <trkpt lat="45.684" lon="6.11771">
        <ele>697</ele>
        <time>2010-01-01T04:40:43Z</time>
      </trkpt>
      <trkpt lat="45.68399" lon="6.1181">
        <ele>698</ele>
        <time>2010-01-01T04:40:54Z</time>
      </trkpt>
      <trkpt lat="45.68396" lon="6.11823">
        <ele>699</ele>
        <time>2010-01-01T04:40:58Z</time>
      </trkpt>
      <trkpt lat="45.68389" lon="6.11831">
        <ele>699</ele>
        <time>2010-01-01T04:41:02Z</time>
      </trkpt>
      <trkpt lat="45.68336" lon="6.11851">
        <ele>701</ele>
        <time>2010-01-01T04:41:24Z</time>
      </trkpt>
      <trkpt lat="45.68323" lon="6.11864">
        <ele>702</ele>
        <time>2010-01-01T04:41:30Z</time>
      </trkpt>
      <trkpt lat="45.68265" lon="6.11929">
        <ele>708</ele>
        <time>2010-01-01T04:41:59Z</time>
      </trkpt>
      <trkpt lat="45.68227" lon="6.11964">
        <ele>709</ele>
        <time>2010-01-01T04:42:17Z</time>
      </trkpt>
      <trkpt lat="45.68217" lon="6.11984">
        <ele>710</ele>
        <time>2010-01-01T04:42:24Z</time>
      </trkpt>
      <trkpt lat="45.68215" lon="6.12005">
        <ele>711</ele>
        <time>2010-01-01T04:42:30Z</time>
      </trkpt>
      <trkpt lat="45.68207" lon="6.12217">
        <ele>712</ele>
        <time>2010-01-01T04:43:30Z</time>
      </trkpt>
      <trkpt lat="45.68201" lon="6.12235">
        <ele>712</ele>
        <time>2010-01-01T04:43:35Z</time>
      </trkpt>
      <trkpt lat="45.68193" lon="6.12244">
        <ele>712</ele>
        <time>2010-01-01T04:43:39Z</time>
      </trkpt>
      <trkpt lat="45.68161" lon="6.12248">
        <ele>714</ele>
        <time>2010-01-01T04:43:52Z</time>
      </trkpt>
      <trkpt lat="45.68136" lon="6.12256">
        <ele>714</ele>
        <time>2010-01-01T04:44:02Z</time>
      </trkpt>
      <trkpt lat="45.68123" lon="6.12268">
        <ele>714</ele>
        <time>2010-01-01T04:44:09Z</time>
      </trkpt>
      <trkpt lat="45.68106" lon="6.12289">
        <ele>715</ele>
        <time>2010-01-01T04:44:18Z</time>
      </trkpt>
      <trkpt lat="45.68089" lon="6.12316">
        <ele>715</ele>
        <time>2010-01-01T04:44:28Z</time>
      </trkpt>
      <trkpt lat="45.68079" lon="6.12341">
        <ele>715</ele>
        <time>2010-01-01T04:44:36Z</time>
      </trkpt>
      <trkpt lat="45.68075" lon="6.12371">
        <ele>715</ele>
        <time>2010-01-01T04:44:44Z</time>
      </trkpt>
      <trkpt lat="45.68069" lon="6.12476">
        <ele>716</ele>
        <time>2010-01-01T04:45:14Z</time>
      </trkpt>
      <trkpt lat="45.68064" lon="6.12497">
        <ele>717</ele>
        <time>2010-01-01T04:45:20Z</time>
      </trkpt>
      <trkpt lat="45.68055" lon="6.1251">
        <ele>719</ele>
        <time>2010-01-01T04:45:25Z</time>
      </trkpt>
      <trkpt lat="45.68048" lon="6.12516">
        <ele>720</ele>
        <time>2010-01-01T04:45:28Z</time>
      </trkpt>
      <trkpt lat="45.68052" lon="6.125">
        <ele>719</ele>
        <time>2010-01-01T04:45:33Z</time>
      </trkpt>
      <trkpt lat="45.68053" lon="6.12486">
        <ele>719</ele>
        <time>2010-01-01T04:45:37Z</time>
      </trkpt>
      <trkpt lat="45.68034" lon="6.12388">
        <ele>724</ele>
        <time>2010-01-01T04:46:06Z</time>
      </trkpt>
      <trkpt lat="45.68023" lon="6.12358">
        <ele>726</ele>
        <time>2010-01-01T04:46:15Z</time>
      </trkpt>
      <trkpt lat="45.67933" lon="6.12232">
        <ele>730</ele>
        <time>2010-01-01T04:47:05Z</time>
      </trkpt>
      <trkpt lat="45.6789" lon="6.1217">
        <ele>737</ele>
        <time>2010-01-01T04:47:30Z</time>
      </trkpt>
      <trkpt lat="45.67886" lon="6.12141">
        <ele>738</ele>
        <time>2010-01-01T04:47:38Z</time>
      </trkpt>
      <trkpt lat="45.67892" lon="6.12021">
        <ele>744</ele>
        <time>2010-01-01T04:48:12Z</time>
      </trkpt>
      <trkpt lat="45.67915" lon="6.11982">
        <ele>745</ele>
        <time>2010-01-01T04:48:26Z</time>
      </trkpt>
      <trkpt lat="45.67969" lon="6.11909">
        <ele>743</ele>
        <time>2010-01-01T04:48:56Z</time>
      </trkpt>
      <trkpt lat="45.67972" lon="6.1189">
        <ele>744</ele>
        <time>2010-01-01T04:49:01Z</time>
      </trkpt>
      <trkpt lat="45.6797" lon="6.11837">
        <ele>750</ele>
        <time>2010-01-01T04:49:16Z</time>
      </trkpt>
      <trkpt lat="45.67986" lon="6.11778">
        <ele>749</ele>
        <time>2010-01-01T04:49:34Z</time>
      </trkpt>
      <trkpt lat="45.67985" lon="6.11759">
        <ele>751</ele>
        <time>2010-01-01T04:49:39Z</time>
      </trkpt>
      <trkpt lat="45.67954" lon="6.11701">
        <ele>758</ele>
        <time>2010-01-01T04:49:59Z</time>
      </trkpt>
      <trkpt lat="45.67952" lon="6.11679">
        <ele>759</ele>
        <time>2010-01-01T04:50:06Z</time>
      </trkpt>
      <trkpt lat="45.67957" lon="6.11661">
        <ele>758</ele>
        <time>2010-01-01T04:50:11Z</time>
      </trkpt>
      <trkpt lat="45.67981" lon="6.11636">
        <ele>755</ele>
        <time>2010-01-01T04:50:23Z</time>
      </trkpt>
      <trkpt lat="45.67986" lon="6.11622">
        <ele>755</ele>
        <time>2010-01-01T04:50:27Z</time>
      </trkpt>
      <trkpt lat="45.67987" lon="6.116">
        <ele>755</ele>
        <time>2010-01-01T04:50:34Z</time>
      </trkpt>
      <trkpt lat="45.67983" lon="6.11558">
        <ele>756</ele>
        <time>2010-01-01T04:50:45Z</time>
      </trkpt>
      <trkpt lat="45.67976" lon="6.11519">
        <ele>757</ele>
        <time>2010-01-01T04:50:57Z</time>
      </trkpt>
      <trkpt lat="45.6791" lon="6.11402">
        <ele>767</ele>
        <time>2010-01-01T04:51:39Z</time>
      </trkpt>
      <trkpt lat="45.6788" lon="6.11353">
        <ele>772</ele>
        <time>2010-01-01T04:51:57Z</time>
      </trkpt>
      <trkpt lat="45.67836" lon="6.11294">
        <ele>774</ele>
        <time>2010-01-01T04:52:21Z</time>
      </trkpt>
      <trkpt lat="45.67799" lon="6.11248">
        <ele>774</ele>
        <time>2010-01-01T04:52:41Z</time>
      </trkpt>
      <trkpt lat="45.67752" lon="6.11203">
        <ele>773</ele>
        <time>2010-01-01T04:53:03Z</time>
      </trkpt>
      <trkpt lat="45.67707" lon="6.11173">
        <ele>776</ele>
        <time>2010-01-01T04:53:23Z</time>
      </trkpt>
      <trkpt lat="45.67652" lon="6.11161">
        <ele>785</ele>
        <time>2010-01-01T04:53:45Z</time>
      </trkpt>
      <trkpt lat="45.67616" lon="6.11126">
        <ele>785</ele>
        <time>2010-01-01T04:54:03Z</time>
      </trkpt>
      <trkpt lat="45.676" lon="6.11115">
        <ele>785</ele>
        <time>2010-01-01T04:54:10Z</time>
      </trkpt>
      <trkpt lat="45.67559" lon="6.11131">
        <ele>795</ele>
        <time>2010-01-01T04:54:27Z</time>
      </trkpt>
      <trkpt lat="45.67529" lon="6.11152">
        <ele>804</ele>
        <time>2010-01-01T04:54:40Z</time>
      </trkpt>
      <trkpt lat="45.6751" lon="6.11154">
        <ele>811</ele>
        <time>2010-01-01T04:54:48Z</time>
      </trkpt>
      <trkpt lat="45.67496" lon="6.11146">
        <ele>816</ele>
        <time>2010-01-01T04:54:54Z</time>
      </trkpt>
      <trkpt lat="45.67473" lon="6.11122">
        <ele>823</ele>
        <time>2010-01-01T04:55:05Z</time>
      </trkpt>
      <trkpt lat="45.67446" lon="6.11071">
        <ele>817</ele>
        <time>2010-01-01T04:55:23Z</time>
      </trkpt>
      <trkpt lat="45.67431" lon="6.11032">
        <ele>814</ele>
        <time>2010-01-01T04:55:36Z</time>
      </trkpt>
      <trkpt lat="45.67425" lon="6.1098">
        <ele>805</ele>
        <time>2010-01-01T04:55:51Z</time>
      </trkpt>
      <trkpt lat="45.67416" lon="6.10953">
        <ele>803</ele>
        <time>2010-01-01T04:55:59Z</time>
      </trkpt>
      <trkpt lat="45.67377" lon="6.10891">
        <ele>802</ele>
        <time>2010-01-01T04:56:22Z</time>
      </trkpt>
      <trkpt lat="45.67361" lon="6.10873">
        <ele>800</ele>
        <time>2010-01-01T04:56:30Z</time>
      </trkpt>
      <trkpt lat="45.67341" lon="6.10868">
        <ele>801</ele>
        <time>2010-01-01T04:56:39Z</time>
      </trkpt>
      <trkpt lat="45.67325" lon="6.10857">
        <ele>802</ele>
        <time>2010-01-01T04:56:46Z</time>
      </trkpt>
      <trkpt lat="45.67297" lon="6.1078">
        <ele>804</ele>
        <time>2010-01-01T04:57:10Z</time>
      </trkpt>
      <trkpt lat="45.673" lon="6.10735">
        <ele>805</ele>
        <time>2010-01-01T04:57:23Z</time>
      </trkpt>
      <trkpt lat="45.673" lon="6.10715">
        <ele>805</ele>
        <time>2010-01-01T04:57:28Z</time>
      </trkpt>
      <trkpt lat="45.67292" lon="6.10692">
        <ele>805</ele>
        <time>2010-01-01T04:57:35Z</time>
      </trkpt>
      <trkpt lat="45.67275" lon="6.1067">
        <ele>803</ele>
        <time>2010-01-01T04:57:44Z</time>
      </trkpt>
      <trkpt lat="45.67245" lon="6.10648">
        <ele>800</ele>
        <time>2010-01-01T04:57:58Z</time>
      </trkpt>
      <trkpt lat="45.67209" lon="6.10641">
        <ele>799</ele>
        <time>2010-01-01T04:58:13Z</time>
      </trkpt>
      <trkpt lat="45.67133" lon="6.1063">
        <ele>800</ele>
        <time>2010-01-01T04:58:43Z</time>
      </trkpt>
      <trkpt lat="45.6711" lon="6.10601">
        <ele>799</ele>
        <time>2010-01-01T04:58:55Z</time>
      </trkpt>
      <trkpt lat="45.67093" lon="6.10559">
        <ele>798</ele>
        <time>2010-01-01T04:59:09Z</time>
      </trkpt>
      <trkpt lat="45.67058" lon="6.10505">
        <ele>800</ele>
        <time>2010-01-01T04:59:30Z</time>
      </trkpt>
      <trkpt lat="45.67029" lon="6.10411">
        <ele>798</ele>
        <time>2010-01-01T04:59:58Z</time>
      </trkpt>
      <trkpt lat="45.66924" lon="6.10271">
        <ele>800</ele>
        <time>2010-01-01T05:00:56Z</time>
      </trkpt>
      <trkpt lat="45.66892" lon="6.10233">
        <ele>796</ele>
        <time>2010-01-01T05:01:12Z</time>
      </trkpt>
      <trkpt lat="45.6682" lon="6.10245">
        <ele>802</ele>
        <time>2010-01-01T05:01:41Z</time>
      </trkpt>
      <trkpt lat="45.66784" lon="6.10263">
        <ele>804</ele>
        <time>2010-01-01T05:01:57Z</time>
      </trkpt>
      <trkpt lat="45.66755" lon="6.10323">
        <ele>811</ele>
        <time>2010-01-01T05:02:17Z</time>
      </trkpt>
      <trkpt lat="45.66734" lon="6.10342">
        <ele>818</ele>
        <time>2010-01-01T05:02:27Z</time>
      </trkpt>
      <trkpt lat="45.66725" lon="6.10339">
        <ele>819</ele>
        <time>2010-01-01T05:02:31Z</time>
      </trkpt>
      <trkpt lat="45.66714" lon="6.10324">
        <ele>822</ele>
        <time>2010-01-01T05:02:37Z</time>
      </trkpt>
      <trkpt lat="45.66716" lon="6.10252">
        <ele>816</ele>
        <time>2010-01-01T05:02:57Z</time>
      </trkpt>
      <trkpt lat="45.66728" lon="6.10173">
        <ele>811</ele>
        <time>2010-01-01T05:03:20Z</time>
      </trkpt>
      <trkpt lat="45.66717" lon="6.10125">
        <ele>812</ele>
        <time>2010-01-01T05:03:34Z</time>
      </trkpt>
      <trkpt lat="45.66688" lon="6.10098">
        <ele>816</ele>
        <time>2010-01-01T05:03:48Z</time>
      </trkpt>
      <trkpt lat="45.66642" lon="6.10082">
        <ele>821</ele>
        <time>2010-01-01T05:04:07Z</time>
      </trkpt>
      <trkpt lat="45.66631" lon="6.10071">
        <ele>821</ele>
        <time>2010-01-01T05:04:12Z</time>
      </trkpt>
      <trkpt lat="45.66618" lon="6.10048">
        <ele>818</ele>
        <time>2010-01-01T05:04:20Z</time>
      </trkpt>
      <trkpt lat="45.66606" lon="6.10032">
        <ele>817</ele>
        <time>2010-01-01T05:04:27Z</time>
      </trkpt>
      <trkpt lat="45.66584" lon="6.10024">
        <ele>818</ele>
        <time>2010-01-01T05:04:36Z</time>
      </trkpt>
      <trkpt lat="45.66535" lon="6.1003">
        <ele>824</ele>
        <time>2010-01-01T05:04:56Z</time>
      </trkpt>
      <trkpt lat="45.66508" lon="6.10016">
        <ele>828</ele>
        <time>2010-01-01T05:05:07Z</time>
      </trkpt>
      <trkpt lat="45.66496" lon="6.09989">
        <ele>828</ele>
        <time>2010-01-01T05:05:16Z</time>
      </trkpt>
      <trkpt lat="45.66491" lon="6.09962">
        <ele>827</ele>
        <time>2010-01-01T05:05:24Z</time>
      </trkpt>
      <trkpt lat="45.66496" lon="6.09917">
        <ele>825</ele>
        <time>2010-01-01T05:05:37Z</time>
      </trkpt>
      <trkpt lat="45.66489" lon="6.09891">
        <ele>825</ele>
        <time>2010-01-01T05:05:44Z</time>
      </trkpt>
      <trkpt lat="45.66467" lon="6.09864">
        <ele>829</ele>
        <time>2010-01-01T05:05:56Z</time>
      </trkpt>
      <trkpt lat="45.664" lon="6.09801">
        <ele>840</ele>
        <time>2010-01-01T05:06:28Z</time>
      </trkpt>
      <trkpt lat="45.66378" lon="6.09735">
        <ele>836</ele>
        <time>2010-01-01T05:06:48Z</time>
      </trkpt>
      <trkpt lat="45.66365" lon="6.09722">
        <ele>836</ele>
        <time>2010-01-01T05:06:55Z</time>
      </trkpt>
      <trkpt lat="45.66308" lon="6.09707">
        <ele>842</ele>
        <time>2010-01-01T05:07:18Z</time>
      </trkpt>
      <trkpt lat="45.66259" lon="6.09668">
        <ele>844</ele>
        <time>2010-01-01T05:07:40Z</time>
      </trkpt>
      <trkpt lat="45.66192" lon="6.09627">
        <ele>851</ele>
        <time>2010-01-01T05:08:10Z</time>
      </trkpt>
      <trkpt lat="45.66131" lon="6.09553">
        <ele>859</ele>
        <time>2010-01-01T05:08:42Z</time>
      </trkpt>
      <trkpt lat="45.66051" lon="6.09489">
        <ele>864</ele>
        <time>2010-01-01T05:09:18Z</time>
      </trkpt>
      <trkpt lat="45.66019" lon="6.09482">
        <ele>870</ele>
        <time>2010-01-01T05:09:31Z</time>
      </trkpt>
      <trkpt lat="45.65963" lon="6.09446">
        <ele>873</ele>
        <time>2010-01-01T05:09:56Z</time>
      </trkpt>
      <trkpt lat="45.65935" lon="6.09437">
        <ele>874</ele>
        <time>2010-01-01T05:10:07Z</time>
      </trkpt>
      <trkpt lat="45.65886" lon="6.09447">
        <ele>878</ele>
        <time>2010-01-01T05:10:27Z</time>
      </trkpt>
      <trkpt lat="45.65864" lon="6.09439">
        <ele>879</ele>
        <time>2010-01-01T05:10:36Z</time>
      </trkpt>
      <trkpt lat="45.65823" lon="6.09411">
        <ele>878</ele>
        <time>2010-01-01T05:10:54Z</time>
      </trkpt>
      <trkpt lat="45.65814" lon="6.09408">
        <ele>876</ele>
        <time>2010-01-01T05:10:58Z</time>
      </trkpt>
      <trkpt lat="45.65799" lon="6.09415">
        <ele>876</ele>
        <time>2010-01-01T05:11:04Z</time>
      </trkpt>
      <trkpt lat="45.65769" lon="6.09439">
        <ele>881</ele>
        <time>2010-01-01T05:11:18Z</time>
      </trkpt>
      <trkpt lat="45.65743" lon="6.09456">
        <ele>888</ele>
        <time>2010-01-01T05:11:30Z</time>
      </trkpt>
      <trkpt lat="45.65707" lon="6.0946">
        <ele>890</ele>
        <time>2010-01-01T05:11:44Z</time>
      </trkpt>
      <trkpt lat="45.65682" lon="6.0947">
        <ele>892</ele>
        <time>2010-01-01T05:11:54Z</time>
      </trkpt>
      <trkpt lat="45.65662" lon="6.09486">
        <ele>895</ele>
        <time>2010-01-01T05:12:04Z</time>
      </trkpt>
      <trkpt lat="45.6564" lon="6.09509">
        <ele>902</ele>
        <time>2010-01-01T05:12:15Z</time>
      </trkpt>
      <trkpt lat="45.6563" lon="6.09513">
        <ele>905</ele>
        <time>2010-01-01T05:12:19Z</time>
      </trkpt>
      <trkpt lat="45.65622" lon="6.09514">
        <ele>906</ele>
        <time>2010-01-01T05:12:22Z</time>
      </trkpt>
      <trkpt lat="45.65568" lon="6.09471">
        <ele>904</ele>
        <time>2010-01-01T05:12:47Z</time>
      </trkpt>
      <trkpt lat="45.65501" lon="6.09444">
        <ele>906</ele>
        <time>2010-01-01T05:13:15Z</time>
      </trkpt>
      <trkpt lat="45.65472" lon="6.09449">
        <ele>911</ele>
        <time>2010-01-01T05:13:26Z</time>
      </trkpt>
      <trkpt lat="45.65429" lon="6.09438">
        <ele>908</ele>
        <time>2010-01-01T05:13:44Z</time>
      </trkpt>
      <trkpt lat="45.65398" lon="6.09445">
        <ele>910</ele>
        <time>2010-01-01T05:13:56Z</time>
      </trkpt>
      <trkpt lat="45.65369" lon="6.09467">
        <ele>913</ele>
        <time>2010-01-01T05:14:09Z</time>
      </trkpt>
      <trkpt lat="45.65328" lon="6.09521">
        <ele>920</ele>
        <time>2010-01-01T05:14:32Z</time>
      </trkpt>
      <trkpt lat="45.65292" lon="6.09519">
        <ele>917</ele>
        <time>2010-01-01T05:14:46Z</time>
      </trkpt>
      <trkpt lat="45.65259" lon="6.09538">
        <ele>921</ele>
        <time>2010-01-01T05:15:00Z</time>
      </trkpt>
      <trkpt lat="45.65228" lon="6.09557">
        <ele>924</ele>
        <time>2010-01-01T05:15:14Z</time>
      </trkpt>
      <trkpt lat="45.65197" lon="6.09565">
        <ele>926</ele>
        <time>2010-01-01T05:15:27Z</time>
      </trkpt>
      <trkpt lat="45.6518" lon="6.0955">
        <ele>926</ele>
        <time>2010-01-01T05:15:35Z</time>
      </trkpt>
      <trkpt lat="45.65181" lon="6.09508">
        <ele>922</ele>
        <time>2010-01-01T05:15:46Z</time>
      </trkpt>
      <trkpt lat="45.65169" lon="6.09479">
        <ele>922</ele>
        <time>2010-01-01T05:15:56Z</time>
      </trkpt>
      <trkpt lat="45.65129" lon="6.09448">
        <ele>925</ele>
        <time>2010-01-01T05:16:14Z</time>
      </trkpt>
      <trkpt lat="45.65084" lon="6.09417">
        <ele>924</ele>
        <time>2010-01-01T05:16:34Z</time>
      </trkpt>
      <trkpt lat="45.65032" lon="6.0935">
        <ele>923</ele>
        <time>2010-01-01T05:17:02Z</time>
      </trkpt>
      <trkpt lat="45.65006" lon="6.0935">
        <ele>924</ele>
        <time>2010-01-01T05:17:12Z</time>
      </trkpt>
      <trkpt lat="45.6496" lon="6.09369">
        <ele>927</ele>
        <time>2010-01-01T05:17:31Z</time>
      </trkpt>
      <trkpt lat="45.64919" lon="6.09369">
        <ele>926</ele>
        <time>2010-01-01T05:17:48Z</time>
      </trkpt>
      <trkpt lat="45.64888" lon="6.09384">
        <ele>928</ele>
        <time>2010-01-01T05:18:01Z</time>
      </trkpt>
      <trkpt lat="45.64841" lon="6.09431">
        <ele>934</ele>
        <time>2010-01-01T05:18:24Z</time>
      </trkpt>
      <trkpt lat="45.64814" lon="6.0944">
        <ele>934</ele>
        <time>2010-01-01T05:18:35Z</time>
      </trkpt>
      <trkpt lat="45.64792" lon="6.09428">
        <ele>938</ele>
        <time>2010-01-01T05:18:44Z</time>
      </trkpt>
      <trkpt lat="45.64771" lon="6.09322">
        <ele>938</ele>
        <time>2010-01-01T05:19:15Z</time>
      </trkpt>
      <trkpt lat="45.64733" lon="6.09238">
        <ele>934</ele>
        <time>2010-01-01T05:19:43Z</time>
      </trkpt>
      <trkpt lat="45.646" lon="6.09166">
        <ele>925</ele>
        <time>2010-01-01T05:20:40Z</time>
      </trkpt>
      <trkpt lat="45.64581" lon="6.09165">
        <ele>924</ele>
        <time>2010-01-01T05:20:48Z</time>
      </trkpt>
      <trkpt lat="45.64547" lon="6.09197">
        <ele>927</ele>
        <time>2010-01-01T05:21:04Z</time>
      </trkpt>
      <trkpt lat="45.64528" lon="6.092">
        <ele>928</ele>
        <time>2010-01-01T05:21:12Z</time>
      </trkpt>
      <trkpt lat="45.64429" lon="6.09167">
        <ele>929</ele>
        <time>2010-01-01T05:21:52Z</time>
      </trkpt>
      <trkpt lat="45.64386" lon="6.09174">
        <ele>929</ele>
        <time>2010-01-01T05:22:10Z</time>
      </trkpt>
      <trkpt lat="45.64348" lon="6.09141">
        <ele>920</ele>
        <time>2010-01-01T05:22:28Z</time>
      </trkpt>
      <trkpt lat="45.6432" lon="6.09139">
        <ele>918</ele>
        <time>2010-01-01T05:22:39Z</time>
      </trkpt>
      <trkpt lat="45.64288" lon="6.09128">
        <ele>916</ele>
        <time>2010-01-01T05:22:52Z</time>
      </trkpt>
      <trkpt lat="45.64208" lon="6.09112">
        <ele>918</ele>
        <time>2010-01-01T05:23:24Z</time>
      </trkpt>
      <trkpt lat="45.64146" lon="6.09116">
        <ele>923</ele>
        <time>2010-01-01T05:23:49Z</time>
      </trkpt>
      <trkpt lat="45.64114" lon="6.09098">
        <ele>921</ele>
        <time>2010-01-01T05:24:03Z</time>
      </trkpt>
      <trkpt lat="45.64074" lon="6.09069">
        <ele>918</ele>
        <time>2010-01-01T05:24:21Z</time>
      </trkpt>
      <trkpt lat="45.64056" lon="6.09063">
        <ele>918</ele>
        <time>2010-01-01T05:24:28Z</time>
      </trkpt>
      <trkpt lat="45.64026" lon="6.09076">
        <ele>921</ele>
        <time>2010-01-01T05:24:41Z</time>
      </trkpt>
      <trkpt lat="45.64011" lon="6.09076">
        <ele>921</ele>
        <time>2010-01-01T05:24:47Z</time>
      </trkpt>
      <trkpt lat="45.63951" lon="6.09061">
        <ele>921</ele>
        <time>2010-01-01T05:25:11Z</time>
      </trkpt>
      <trkpt lat="45.63933" lon="6.09053">
        <ele>922</ele>
        <time>2010-01-01T05:25:19Z</time>
      </trkpt>
      <trkpt lat="45.63902" lon="6.09015">
        <ele>925</ele>
        <time>2010-01-01T05:25:35Z</time>
      </trkpt>
      <trkpt lat="45.63886" lon="6.09009">
        <ele>927</ele>
        <time>2010-01-01T05:25:42Z</time>
      </trkpt>
      <trkpt lat="45.6385" lon="6.09007">
        <ele>926</ele>
        <time>2010-01-01T05:25:56Z</time>
      </trkpt>
      <trkpt lat="45.63827" lon="6.08998">
        <ele>927</ele>
        <time>2010-01-01T05:26:06Z</time>
      </trkpt>
      <trkpt lat="45.63768" lon="6.08963">
        <ele>929</ele>
        <time>2010-01-01T05:26:31Z</time>
      </trkpt>
      <trkpt lat="45.63736" lon="6.08956">
        <ele>930</ele>
        <time>2010-01-01T05:26:44Z</time>
      </trkpt>
      <trkpt lat="45.63716" lon="6.08946">
        <ele>931</ele>
        <time>2010-01-01T05:26:53Z</time>
      </trkpt>
      <trkpt lat="45.63699" lon="6.089">
        <ele>924</ele>
        <time>2010-01-01T05:27:07Z</time>
      </trkpt>
      <trkpt lat="45.63692" lon="6.0889">
        <ele>922</ele>
        <time>2010-01-01T05:27:11Z</time>
      </trkpt>
      <trkpt lat="45.63633" lon="6.08851">
        <ele>923</ele>
        <time>2010-01-01T05:27:37Z</time>
      </trkpt>
      <trkpt lat="45.63589" lon="6.08812">
        <ele>923</ele>
        <time>2010-01-01T05:27:58Z</time>
      </trkpt>
      <trkpt lat="45.63569" lon="6.08807">
        <ele>922</ele>
        <time>2010-01-01T05:28:06Z</time>
      </trkpt>
      <trkpt lat="45.63526" lon="6.08821">
        <ele>922</ele>
        <time>2010-01-01T05:28:24Z</time>
      </trkpt>
      <trkpt lat="45.63512" lon="6.08817">
        <ele>922</ele>
        <time>2010-01-01T05:28:29Z</time>
      </trkpt>
      <trkpt lat="45.63505" lon="6.08812">
        <ele>922</ele>
        <time>2010-01-01T05:28:33Z</time>
      </trkpt>
      <trkpt lat="45.63497" lon="6.08803">
        <ele>922</ele>
        <time>2010-01-01T05:28:37Z</time>
      </trkpt>
      <trkpt lat="45.63478" lon="6.08765">
        <ele>922</ele>
        <time>2010-01-01T05:28:50Z</time>
      </trkpt>
      <trkpt lat="45.63473" lon="6.08757">
        <ele>922</ele>
        <time>2010-01-01T05:28:53Z</time>
      </trkpt>
      <trkpt lat="45.63463" lon="6.08748">
        <ele>921</ele>
        <time>2010-01-01T05:28:57Z</time>
      </trkpt>
      <trkpt lat="45.63367" lon="6.08713">
        <ele>919</ele>
        <time>2010-01-01T05:29:37Z</time>
      </trkpt>
      <trkpt lat="45.63351" lon="6.08713">
        <ele>920</ele>
        <time>2010-01-01T05:29:44Z</time>
      </trkpt>
      <trkpt lat="45.6331" lon="6.08729">
        <ele>922</ele>
        <time>2010-01-01T05:30:01Z</time>
      </trkpt>
      <trkpt lat="45.63279" lon="6.08731">
        <ele>923</ele>
        <time>2010-01-01T05:30:13Z</time>
      </trkpt>
      <trkpt lat="45.6322" lon="6.08754">
        <ele>924</ele>
        <time>2010-01-01T05:30:37Z</time>
      </trkpt>
      <trkpt lat="45.63173" lon="6.08752">
        <ele>924</ele>
        <time>2010-01-01T05:30:56Z</time>
      </trkpt>
      <trkpt lat="45.63153" lon="6.08748">
        <ele>923</ele>
        <time>2010-01-01T05:31:04Z</time>
      </trkpt>
      <trkpt lat="45.63135" lon="6.08742">
        <ele>923</ele>
        <time>2010-01-01T05:31:12Z</time>
      </trkpt>
      <trkpt lat="45.6308" lon="6.08708">
        <ele>920</ele>
        <time>2010-01-01T05:31:36Z</time>
      </trkpt>
      <trkpt lat="45.6307" lon="6.08704">
        <ele>920</ele>
        <time>2010-01-01T05:31:40Z</time>
      </trkpt>
      <trkpt lat="45.63048" lon="6.087">
        <ele>920</ele>
        <time>2010-01-01T05:31:49Z</time>
      </trkpt>
      <trkpt lat="45.63033" lon="6.08702">
        <ele>921</ele>
        <time>2010-01-01T05:31:55Z</time>
      </trkpt>
      <trkpt lat="45.63024" lon="6.08698">
        <ele>921</ele>
        <time>2010-01-01T05:31:59Z</time>
      </trkpt>
      <trkpt lat="45.63019" lon="6.08692">
        <ele>921</ele>
        <time>2010-01-01T05:32:01Z</time>
      </trkpt>
      <trkpt lat="45.63014" lon="6.08683">
        <ele>920</ele>
        <time>2010-01-01T05:32:04Z</time>
      </trkpt>
      <trkpt lat="45.62997" lon="6.08627">
        <ele>913</ele>
        <time>2010-01-01T05:32:22Z</time>
      </trkpt>
      <trkpt lat="45.62992" lon="6.08619">
        <ele>911</ele>
        <time>2010-01-01T05:32:25Z</time>
      </trkpt>
      <trkpt lat="45.62984" lon="6.08611">
        <ele>911</ele>
        <time>2010-01-01T05:32:28Z</time>
      </trkpt>
      <trkpt lat="45.62933" lon="6.08573">
        <ele>912</ele>
        <time>2010-01-01T05:32:51Z</time>
      </trkpt>
      <trkpt lat="45.62918" lon="6.08565">
        <ele>914</ele>
        <time>2010-01-01T05:32:58Z</time>
      </trkpt>
      <trkpt lat="45.62908" lon="6.08564">
        <ele>914</ele>
        <time>2010-01-01T05:33:02Z</time>
      </trkpt>
      <trkpt lat="45.6286" lon="6.08571">
        <ele>913</ele>
        <time>2010-01-01T05:33:21Z</time>
      </trkpt>
      <trkpt lat="45.62844" lon="6.08563">
        <ele>912</ele>
        <time>2010-01-01T05:33:28Z</time>
      </trkpt>
      <trkpt lat="45.62809" lon="6.08526">
        <ele>906</ele>
        <time>2010-01-01T05:33:45Z</time>
      </trkpt>
      <trkpt lat="45.62799" lon="6.08517">
        <ele>904</ele>
        <time>2010-01-01T05:33:50Z</time>
      </trkpt>
      <trkpt lat="45.62783" lon="6.08509">
        <ele>904</ele>
        <time>2010-01-01T05:33:57Z</time>
      </trkpt>
      <trkpt lat="45.6271" lon="6.08486">
        <ele>903</ele>
        <time>2010-01-01T05:34:27Z</time>
      </trkpt>
      <trkpt lat="45.62689" lon="6.08481">
        <ele>902</ele>
        <time>2010-01-01T05:34:35Z</time>
      </trkpt>
      <trkpt lat="45.62661" lon="6.08483">
        <ele>902</ele>
        <time>2010-01-01T05:34:47Z</time>
      </trkpt>
      <trkpt lat="45.62631" lon="6.08493">
        <ele>902</ele>
        <time>2010-01-01T05:34:59Z</time>
      </trkpt>
      <trkpt lat="45.62559" lon="6.08526">
        <ele>902</ele>
        <time>2010-01-01T05:35:29Z</time>
      </trkpt>
      <trkpt lat="45.62542" lon="6.08531">
        <ele>902</ele>
        <time>2010-01-01T05:35:36Z</time>
      </trkpt>
      <trkpt lat="45.62529" lon="6.08531">
        <ele>902</ele>
        <time>2010-01-01T05:35:41Z</time>
      </trkpt>
      <trkpt lat="45.62511" lon="6.08529">
        <ele>902</ele>
        <time>2010-01-01T05:35:49Z</time>
      </trkpt>
      <trkpt lat="45.62431" lon="6.08496">
        <ele>894</ele>
        <time>2010-01-01T05:36:22Z</time>
      </trkpt>
      <trkpt lat="45.62419" lon="6.08489">
        <ele>893</ele>
        <time>2010-01-01T05:36:27Z</time>
      </trkpt>
      <trkpt lat="45.62268" lon="6.08378">
        <ele>891</ele>
        <time>2010-01-01T05:37:35Z</time>
      </trkpt>
      <trkpt lat="45.62191" lon="6.08326">
        <ele>889</ele>
        <time>2010-01-01T05:38:09Z</time>
      </trkpt>
      <trkpt lat="45.62179" lon="6.08315">
        <ele>887</ele>
        <time>2010-01-01T05:38:15Z</time>
      </trkpt>
      <trkpt lat="45.62175" lon="6.08309">
        <ele>887</ele>
        <time>2010-01-01T05:38:17Z</time>
      </trkpt>
      <trkpt lat="45.62171" lon="6.08299">
        <ele>887</ele>
        <time>2010-01-01T05:38:20Z</time>
      </trkpt>
      <trkpt lat="45.62163" lon="6.08263">
        <ele>887</ele>
        <time>2010-01-01T05:38:31Z</time>
      </trkpt>
      <trkpt lat="45.62183" lon="6.08264">
        <ele>887</ele>
        <time>2010-01-01T05:38:39Z</time>
      </trkpt>
      <trkpt lat="45.62247" lon="6.08247">
        <ele>884</ele>
        <time>2010-01-01T05:39:05Z</time>
      </trkpt>
      <trkpt lat="45.62323" lon="6.08242">
        <ele>883</ele>
        <time>2010-01-01T05:39:35Z</time>
      </trkpt>
      <trkpt lat="45.62247" lon="6.08247">
        <ele>884</ele>
        <time>2010-01-01T05:40:06Z</time>
      </trkpt>
      <trkpt lat="45.62183" lon="6.08264">
        <ele>887</ele>
        <time>2010-01-01T05:40:32Z</time>
      </trkpt>
      <trkpt lat="45.62163" lon="6.08263">
        <ele>887</ele>
        <time>2010-01-01T05:40:40Z</time>
      </trkpt>
      <trkpt lat="45.62148" lon="6.08198">
        <ele>888</ele>
        <time>2010-01-01T05:40:59Z</time>
      </trkpt>
      <trkpt lat="45.62135" lon="6.08164">
        <ele>891</ele>
        <time>2010-01-01T05:41:10Z</time>
      </trkpt>
      <trkpt lat="45.62098" lon="6.0809">
        <ele>897</ele>
        <time>2010-01-01T05:41:35Z</time>
      </trkpt>
      <trkpt lat="45.62073" lon="6.08051">
        <ele>896</ele>
        <time>2010-01-01T05:41:50Z</time>
      </trkpt>
      <trkpt lat="45.62062" lon="6.08039">
        <ele>896</ele>
        <time>2010-01-01T05:41:56Z</time>
      </trkpt>
      <trkpt lat="45.62055" lon="6.08025">
        <ele>897</ele>
        <time>2010-01-01T05:42:01Z</time>
      </trkpt>
      <trkpt lat="45.62051" lon="6.08002">
        <ele>898</ele>
        <time>2010-01-01T05:42:07Z</time>
      </trkpt>
      <trkpt lat="45.62029" lon="6.0801">
        <ele>898</ele>
        <time>2010-01-01T05:42:16Z</time>
      </trkpt>
      <trkpt lat="45.62009" lon="6.08012">
        <ele>899</ele>
        <time>2010-01-01T05:42:24Z</time>
      </trkpt>
      <trkpt lat="45.61888" lon="6.08007">
        <ele>903</ele>
        <time>2010-01-01T05:43:13Z</time>
      </trkpt>
      <trkpt lat="45.61835" lon="6.07994">
        <ele>902</ele>
        <time>2010-01-01T05:43:34Z</time>
      </trkpt>
      <trkpt lat="45.61826" lon="6.07997">
        <ele>902</ele>
        <time>2010-01-01T05:43:38Z</time>
      </trkpt>
      <trkpt lat="45.6179" lon="6.08001">
        <ele>903</ele>
        <time>2010-01-01T05:43:53Z</time>
      </trkpt>
      <trkpt lat="45.61731" lon="6.07999">
        <ele>904</ele>
        <time>2010-01-01T05:44:16Z</time>
      </trkpt>
      <trkpt lat="45.61716" lon="6.07995">
        <ele>905</ele>
        <time>2010-01-01T05:44:22Z</time>
      </trkpt>
      <trkpt lat="45.61689" lon="6.07978">
        <ele>905</ele>
        <time>2010-01-01T05:44:34Z</time>
      </trkpt>
      <trkpt lat="45.61677" lon="6.07968">
        <ele>905</ele>
        <time>2010-01-01T05:44:40Z</time>
      </trkpt>
      <trkpt lat="45.61582" lon="6.07866">
        <ele>910</ele>
        <time>2010-01-01T05:45:27Z</time>
      </trkpt>
      <trkpt lat="45.61539" lon="6.07832">
        <ele>914</ele>
        <time>2010-01-01T05:45:47Z</time>
      </trkpt>
      <trkpt lat="45.61511" lon="6.07812">
        <ele>917</ele>
        <time>2010-01-01T05:45:59Z</time>
      </trkpt>
      <trkpt lat="45.61516" lon="6.07785">
        <ele>917</ele>
        <time>2010-01-01T05:46:07Z</time>
      </trkpt>
      <trkpt lat="45.61514" lon="6.07772">
        <ele>917</ele>
        <time>2010-01-01T05:46:11Z</time>
      </trkpt>
      <trkpt lat="45.61492" lon="6.07715">
        <ele>917</ele>
        <time>2010-01-01T05:46:29Z</time>
      </trkpt>
      <trkpt lat="45.61465" lon="6.07572">
        <ele>930</ele>
        <time>2010-01-01T05:47:11Z</time>
      </trkpt>
      <trkpt lat="45.61456" lon="6.07531">
        <ele>932</ele>
        <time>2010-01-01T05:47:23Z</time>
      </trkpt>
      <trkpt lat="45.61415" lon="6.07407">
        <ele>936</ele>
        <time>2010-01-01T05:48:01Z</time>
      </trkpt>
      <trkpt lat="45.614" lon="6.07374">
        <ele>940</ele>
        <time>2010-01-01T05:48:12Z</time>
      </trkpt>
      <trkpt lat="45.61371" lon="6.07329">
        <ele>947</ele>
        <time>2010-01-01T05:48:29Z</time>
      </trkpt>
      <trkpt lat="45.61326" lon="6.07239">
        <ele>945</ele>
        <time>2010-01-01T05:49:00Z</time>
      </trkpt>
      <trkpt lat="45.61316" lon="6.07223">
        <ele>946</ele>
        <time>2010-01-01T05:49:06Z</time>
      </trkpt>
      <trkpt lat="45.61294" lon="6.07199">
        <ele>950</ele>
        <time>2010-01-01T05:49:17Z</time>
      </trkpt>
      <trkpt lat="45.61276" lon="6.07187">
        <ele>952</ele>
        <time>2010-01-01T05:49:25Z</time>
      </trkpt>
      <trkpt lat="45.6127" lon="6.07174">
        <ele>953</ele>
        <time>2010-01-01T05:49:30Z</time>
      </trkpt>
      <trkpt lat="45.6127" lon="6.07172">
        <ele>953</ele>
        <time>2010-01-01T05:49:30Z</time>
      </trkpt>
      <trkpt lat="45.61274" lon="6.07163">
        <ele>955</ele>
        <time>2010-01-01T05:49:33Z</time>
      </trkpt>
      <trkpt lat="45.61281" lon="6.07161">
        <ele>956</ele>
        <time>2010-01-01T05:49:36Z</time>
      </trkpt>
      <trkpt lat="45.6131" lon="6.07167">
        <ele>959</ele>
        <time>2010-01-01T05:49:48Z</time>
      </trkpt>
      <trkpt lat="45.61341" lon="6.07169">
        <ele>963</ele>
        <time>2010-01-01T05:50:00Z</time>
      </trkpt>
      <trkpt lat="45.61352" lon="6.07171">
        <ele>965</ele>
        <time>2010-01-01T05:50:05Z</time>
      </trkpt>
      <trkpt lat="45.61387" lon="6.07185">
        <ele>967</ele>
        <time>2010-01-01T05:50:19Z</time>
      </trkpt>
      <trkpt lat="45.61401" lon="6.07193">
        <ele>968</ele>
        <time>2010-01-01T05:50:25Z</time>
      </trkpt>
      <trkpt lat="45.61418" lon="6.07207">
        <ele>968</ele>
        <time>2010-01-01T05:50:33Z</time>
      </trkpt>
      <trkpt lat="45.61471" lon="6.07257">
        <ele>963</ele>
        <time>2010-01-01T05:50:58Z</time>
      </trkpt>
      <trkpt lat="45.61483" lon="6.07259">
        <ele>965</ele>
        <time>2010-01-01T05:51:03Z</time>
      </trkpt>
      <trkpt lat="45.61485" lon="6.07258">
        <ele>965</ele>
        <time>2010-01-01T05:51:04Z</time>
      </trkpt>
      <trkpt lat="45.61488" lon="6.07251">
        <ele>967</ele>
        <time>2010-01-01T05:51:06Z</time>
      </trkpt>
      <trkpt lat="45.61488" lon="6.07242">
        <ele>969</ele>
        <time>2010-01-01T05:51:09Z</time>
      </trkpt>
      <trkpt lat="45.61484" lon="6.07234">
        <ele>970</ele>
        <time>2010-01-01T05:51:12Z</time>
      </trkpt>
      <trkpt lat="45.61473" lon="6.07221">
        <ele>971</ele>
        <time>2010-01-01T05:51:17Z</time>
      </trkpt>
      <trkpt lat="45.61409" lon="6.0713">
        <ele>982</ele>
        <time>2010-01-01T05:51:54Z</time>
      </trkpt>
      <trkpt lat="45.6127" lon="6.06988">
        <ele>1001</ele>
        <time>2010-01-01T05:53:02Z</time>
      </trkpt>
      <trkpt lat="45.6125" lon="6.06972">
        <ele>1000</ele>
        <time>2010-01-01T05:53:11Z</time>
      </trkpt>
      <trkpt lat="45.61146" lon="6.06897">
        <ele>1006</ele>
        <time>2010-01-01T05:53:58Z</time>
      </trkpt>
      <trkpt lat="45.60966" lon="6.06733">
        <ele>1029</ele>
        <time>2010-01-01T05:55:23Z</time>
      </trkpt>
      <trkpt lat="45.60956" lon="6.06724">
        <ele>1030</ele>
        <time>2010-01-01T05:55:28Z</time>
      </trkpt>
      <trkpt lat="45.60896" lon="6.06683">
        <ele>1035</ele>
        <time>2010-01-01T05:55:55Z</time>
      </trkpt>
      <trkpt lat="45.60868" lon="6.06659">
        <ele>1042</ele>
        <time>2010-01-01T05:56:08Z</time>
      </trkpt>
      <trkpt lat="45.60848" lon="6.06645">
        <ele>1043</ele>
        <time>2010-01-01T05:56:17Z</time>
      </trkpt>
      <trkpt lat="45.60797" lon="6.06617">
        <ele>1045</ele>
        <time>2010-01-01T05:56:38Z</time>
      </trkpt>
      <trkpt lat="45.60766" lon="6.06603">
        <ele>1048</ele>
        <time>2010-01-01T05:56:51Z</time>
      </trkpt>
      <trkpt lat="45.60708" lon="6.0657">
        <ele>1048</ele>
        <time>2010-01-01T05:57:16Z</time>
      </trkpt>
      <trkpt lat="45.60671" lon="6.06557">
        <ele>1050</ele>
        <time>2010-01-01T05:57:32Z</time>
      </trkpt>
      <trkpt lat="45.60661" lon="6.06555">
        <ele>1052</ele>
        <time>2010-01-01T05:57:36Z</time>
      </trkpt>
      <trkpt lat="45.60625" lon="6.06556">
        <ele>1055</ele>
        <time>2010-01-01T05:57:50Z</time>
      </trkpt>
      <trkpt lat="45.6058" lon="6.06552">
        <ele>1057</ele>
        <time>2010-01-01T05:58:08Z</time>
      </trkpt>
      <trkpt lat="45.60554" lon="6.06548">
        <ele>1058</ele>
        <time>2010-01-01T05:58:19Z</time>
      </trkpt>
      <trkpt lat="45.60535" lon="6.06541">
        <ele>1060</ele>
        <time>2010-01-01T05:58:26Z</time>
      </trkpt>
      <trkpt lat="45.60516" lon="6.06525">
        <ele>1060</ele>
        <time>2010-01-01T05:58:35Z</time>
      </trkpt>
      <trkpt lat="45.60469" lon="6.06444">
        <ele>1066</ele>
        <time>2010-01-01T05:59:05Z</time>
      </trkpt>
      <trkpt lat="45.60412" lon="6.06342">
        <ele>1084</ele>
        <time>2010-01-01T05:59:41Z</time>
      </trkpt>
      <trkpt lat="45.60401" lon="6.06325">
        <ele>1086</ele>
        <time>2010-01-01T05:59:48Z</time>
      </trkpt>
      <trkpt lat="45.60356" lon="6.06275">
        <ele>1088</ele>
        <time>2010-01-01T06:00:11Z</time>
      </trkpt>
      <trkpt lat="45.6034" lon="6.0626">
        <ele>1089</ele>
        <time>2010-01-01T06:00:18Z</time>
      </trkpt>
      <trkpt lat="45.60285" lon="6.06243">
        <ele>1091</ele>
        <time>2010-01-01T06:00:41Z</time>
      </trkpt>
      <trkpt lat="45.6026" lon="6.06223">
        <ele>1093</ele>
        <time>2010-01-01T06:00:52Z</time>
      </trkpt>
      <trkpt lat="45.60238" lon="6.06209">
        <ele>1094</ele>
        <time>2010-01-01T06:01:02Z</time>
      </trkpt>
      <trkpt lat="45.6018" lon="6.06193">
        <ele>1095</ele>
        <time>2010-01-01T06:01:26Z</time>
      </trkpt>
      <trkpt lat="45.60144" lon="6.06176">
        <ele>1100</ele>
        <time>2010-01-01T06:01:41Z</time>
      </trkpt>
      <trkpt lat="45.6008" lon="6.06142">
        <ele>1111</ele>
        <time>2010-01-01T06:02:08Z</time>
      </trkpt>
      <trkpt lat="45.60056" lon="6.06133">
        <ele>1111</ele>
        <time>2010-01-01T06:02:18Z</time>
      </trkpt>
      <trkpt lat="45.60006" lon="6.06121">
        <ele>1115</ele>
        <time>2010-01-01T06:02:38Z</time>
      </trkpt>
      <trkpt lat="45.59985" lon="6.06109">
        <ele>1117</ele>
        <time>2010-01-01T06:02:47Z</time>
      </trkpt>
      <trkpt lat="45.59942" lon="6.06075">
        <ele>1123</ele>
        <time>2010-01-01T06:03:07Z</time>
      </trkpt>
      <trkpt lat="45.59901" lon="6.0606">
        <ele>1123</ele>
        <time>2010-01-01T06:03:24Z</time>
      </trkpt>
      <trkpt lat="45.5983" lon="6.06044">
        <ele>1131</ele>
        <time>2010-01-01T06:03:53Z</time>
      </trkpt>
      <trkpt lat="45.59721" lon="6.06026">
        <ele>1137</ele>
        <time>2010-01-01T06:04:37Z</time>
      </trkpt>
      <trkpt lat="45.59624" lon="6.06003">
        <ele>1138</ele>
        <time>2010-01-01T06:05:16Z</time>
      </trkpt>
      <trkpt lat="45.59578" lon="6.06001">
        <ele>1136</ele>
        <time>2010-01-01T06:05:34Z</time>
      </trkpt>
      <trkpt lat="45.59532" lon="6.05992">
        <ele>1135</ele>
        <time>2010-01-01T06:05:53Z</time>
      </trkpt>
      <trkpt lat="45.59263" lon="6.0591">
        <ele>1133</ele>
        <time>2010-01-01T06:07:43Z</time>
      </trkpt>
      <trkpt lat="45.59196" lon="6.05901">
        <ele>1133</ele>
        <time>2010-01-01T06:08:10Z</time>
      </trkpt>
      <trkpt lat="45.59135" lon="6.05897">
        <ele>1127</ele>
        <time>2010-01-01T06:08:35Z</time>
      </trkpt>
      <trkpt lat="45.59102" lon="6.05898">
        <ele>1127</ele>
        <time>2010-01-01T06:08:48Z</time>
      </trkpt>
      <trkpt lat="45.59061" lon="6.0591">
        <ele>1127</ele>
        <time>2010-01-01T06:09:04Z</time>
      </trkpt>
      <trkpt lat="45.59005" lon="6.0593">
        <ele>1124</ele>
        <time>2010-01-01T06:09:28Z</time>
      </trkpt>
      <trkpt lat="45.58972" lon="6.05953">
        <ele>1124</ele>
        <time>2010-01-01T06:09:42Z</time>
      </trkpt>
      <trkpt lat="45.58957" lon="6.05969">
        <ele>1124</ele>
        <time>2010-01-01T06:09:50Z</time>
      </trkpt>
      <trkpt lat="45.58932" lon="6.06005">
        <ele>1124</ele>
        <time>2010-01-01T06:10:04Z</time>
      </trkpt>
      <trkpt lat="45.58912" lon="6.06026">
        <ele>1125</ele>
        <time>2010-01-01T06:10:14Z</time>
      </trkpt>
      <trkpt lat="45.58879" lon="6.06054">
        <ele>1121</ele>
        <time>2010-01-01T06:10:29Z</time>
      </trkpt>
      <trkpt lat="45.58857" lon="6.06064">
        <ele>1118</ele>
        <time>2010-01-01T06:10:39Z</time>
      </trkpt>
      <trkpt lat="45.58827" lon="6.06066">
        <ele>1116</ele>
        <time>2010-01-01T06:10:51Z</time>
      </trkpt>
      <trkpt lat="45.58807" lon="6.06078">
        <ele>1113</ele>
        <time>2010-01-01T06:10:59Z</time>
      </trkpt>
      <trkpt lat="45.58793" lon="6.06084">
        <ele>1111</ele>
        <time>2010-01-01T06:11:05Z</time>
      </trkpt>
      <trkpt lat="45.58756" lon="6.06086">
        <ele>1105</ele>
        <time>2010-01-01T06:11:20Z</time>
      </trkpt>
      <trkpt lat="45.58713" lon="6.06096">
        <ele>1105</ele>
        <time>2010-01-01T06:11:37Z</time>
      </trkpt>
      <trkpt lat="45.58684" lon="6.06095">
        <ele>1104</ele>
        <time>2010-01-01T06:11:49Z</time>
      </trkpt>
      <trkpt lat="45.58613" lon="6.06119">
        <ele>1095</ele>
        <time>2010-01-01T06:12:18Z</time>
      </trkpt>
      <trkpt lat="45.5859" lon="6.0613">
        <ele>1090</ele>
        <time>2010-01-01T06:12:28Z</time>
      </trkpt>
      <trkpt lat="45.58556" lon="6.06159">
        <ele>1088</ele>
        <time>2010-01-01T06:12:44Z</time>
      </trkpt>
      <trkpt lat="45.58543" lon="6.06163">
        <ele>1088</ele>
        <time>2010-01-01T06:12:49Z</time>
      </trkpt>
      <trkpt lat="45.58532" lon="6.0616">
        <ele>1089</ele>
        <time>2010-01-01T06:12:54Z</time>
      </trkpt>
      <trkpt lat="45.58519" lon="6.06153">
        <ele>1088</ele>
        <time>2010-01-01T06:12:59Z</time>
      </trkpt>
      <trkpt lat="45.58505" lon="6.06149">
        <ele>1087</ele>
        <time>2010-01-01T06:13:05Z</time>
      </trkpt>
      <trkpt lat="45.58488" lon="6.06153">
        <ele>1087</ele>
        <time>2010-01-01T06:13:12Z</time>
      </trkpt>
      <trkpt lat="45.58474" lon="6.0616">
        <ele>1085</ele>
        <time>2010-01-01T06:13:18Z</time>
      </trkpt>
      <trkpt lat="45.58452" lon="6.06166">
        <ele>1083</ele>
        <time>2010-01-01T06:13:27Z</time>
      </trkpt>
      <trkpt lat="45.58438" lon="6.06166">
        <ele>1082</ele>
        <time>2010-01-01T06:13:32Z</time>
      </trkpt>
      <trkpt lat="45.58418" lon="6.0616">
        <ele>1081</ele>
        <time>2010-01-01T06:13:40Z</time>
      </trkpt>
      <trkpt lat="45.58398" lon="6.06158">
        <ele>1082</ele>
        <time>2010-01-01T06:13:48Z</time>
      </trkpt>
      <trkpt lat="45.58371" lon="6.0616">
        <ele>1083</ele>
        <time>2010-01-01T06:13:59Z</time>
      </trkpt>
      <trkpt lat="45.58358" lon="6.06164">
        <ele>1083</ele>
        <time>2010-01-01T06:14:05Z</time>
      </trkpt>
      <trkpt lat="45.5834" lon="6.06175">
        <ele>1079</ele>
        <time>2010-01-01T06:14:12Z</time>
      </trkpt>
      <trkpt lat="45.58322" lon="6.06191">
        <ele>1075</ele>
        <time>2010-01-01T06:14:21Z</time>
      </trkpt>
      <trkpt lat="45.5831" lon="6.06206">
        <ele>1069</ele>
        <time>2010-01-01T06:14:27Z</time>
      </trkpt>
      <trkpt lat="45.58296" lon="6.06215">
        <ele>1065</ele>
        <time>2010-01-01T06:14:33Z</time>
      </trkpt>
      <trkpt lat="45.58288" lon="6.06217">
        <ele>1063</ele>
        <time>2010-01-01T06:14:37Z</time>
      </trkpt>
      <trkpt lat="45.5828" lon="6.06215">
        <ele>1062</ele>
        <time>2010-01-01T06:14:40Z</time>
      </trkpt>
      <trkpt lat="45.58271" lon="6.06209">
        <ele>1062</ele>
        <time>2010-01-01T06:14:44Z</time>
      </trkpt>
      <trkpt lat="45.58256" lon="6.06193">
        <ele>1062</ele>
        <time>2010-01-01T06:14:51Z</time>
      </trkpt>
      <trkpt lat="45.58247" lon="6.06192">
        <ele>1061</ele>
        <time>2010-01-01T06:14:55Z</time>
      </trkpt>
      <trkpt lat="45.58228" lon="6.06204">
        <ele>1059</ele>
        <time>2010-01-01T06:15:03Z</time>
      </trkpt>
      <trkpt lat="45.58215" lon="6.06208">
        <ele>1057</ele>
        <time>2010-01-01T06:15:09Z</time>
      </trkpt>
      <trkpt lat="45.58176" lon="6.06214">
        <ele>1053</ele>
        <time>2010-01-01T06:15:24Z</time>
      </trkpt>
      <trkpt lat="45.58149" lon="6.06214">
        <ele>1052</ele>
        <time>2010-01-01T06:15:35Z</time>
      </trkpt>
      <trkpt lat="45.58115" lon="6.062">
        <ele>1052</ele>
        <time>2010-01-01T06:15:49Z</time>
      </trkpt>
      <trkpt lat="45.58082" lon="6.06194">
        <ele>1047</ele>
        <time>2010-01-01T06:16:03Z</time>
      </trkpt>
      <trkpt lat="45.58051" lon="6.06182">
        <ele>1042</ele>
        <time>2010-01-01T06:16:15Z</time>
      </trkpt>
      <trkpt lat="45.5804" lon="6.0617">
        <ele>1038</ele>
        <time>2010-01-01T06:16:21Z</time>
      </trkpt>
      <trkpt lat="45.58036" lon="6.06151">
        <ele>1038</ele>
        <time>2010-01-01T06:16:27Z</time>
      </trkpt>
      <trkpt lat="45.58032" lon="6.06119">
        <ele>1041</ele>
        <time>2010-01-01T06:16:36Z</time>
      </trkpt>
      <trkpt lat="45.58028" lon="6.06107">
        <ele>1043</ele>
        <time>2010-01-01T06:16:39Z</time>
      </trkpt>
      <trkpt lat="45.58021" lon="6.06096">
        <ele>1045</ele>
        <time>2010-01-01T06:16:44Z</time>
      </trkpt>
      <trkpt lat="45.5802" lon="6.06096">
        <ele>1044</ele>
        <time>2010-01-01T06:16:44Z</time>
      </trkpt>
      <trkpt lat="45.58004" lon="6.06081">
        <ele>1045</ele>
        <time>2010-01-01T06:16:52Z</time>
      </trkpt>
      <trkpt lat="45.57969" lon="6.06056">
        <ele>1035</ele>
        <time>2010-01-01T06:17:07Z</time>
      </trkpt>
      <trkpt lat="45.57945" lon="6.06034">
        <ele>1027</ele>
        <time>2010-01-01T06:17:19Z</time>
      </trkpt>
      <trkpt lat="45.57928" lon="6.06012">
        <ele>1027</ele>
        <time>2010-01-01T06:17:28Z</time>
      </trkpt>
      <trkpt lat="45.57911" lon="6.05975">
        <ele>1025</ele>
        <time>2010-01-01T06:17:40Z</time>
      </trkpt>
      <trkpt lat="45.57896" lon="6.05926">
        <ele>1017</ele>
        <time>2010-01-01T06:17:55Z</time>
      </trkpt>
      <trkpt lat="45.5789" lon="6.05899">
        <ele>1015</ele>
        <time>2010-01-01T06:18:03Z</time>
      </trkpt>
      <trkpt lat="45.57887" lon="6.05871">
        <ele>1011</ele>
        <time>2010-01-01T06:18:11Z</time>
      </trkpt>
      <trkpt lat="45.57886" lon="6.05836">
        <ele>1008</ele>
        <time>2010-01-01T06:18:21Z</time>
      </trkpt>
      <trkpt lat="45.57889" lon="6.05803">
        <ele>1007</ele>
        <time>2010-01-01T06:18:30Z</time>
      </trkpt>
      <trkpt lat="45.579" lon="6.05752">
        <ele>1004</ele>
        <time>2010-01-01T06:18:45Z</time>
      </trkpt>
      <trkpt lat="45.57928" lon="6.05658">
        <ele>996</ele>
        <time>2010-01-01T06:19:14Z</time>
      </trkpt>
      <trkpt lat="45.5795" lon="6.05574">
        <ele>994</ele>
        <time>2010-01-01T06:19:39Z</time>
      </trkpt>
      <trkpt lat="45.57963" lon="6.05472">
        <ele>982</ele>
        <time>2010-01-01T06:20:08Z</time>
      </trkpt>
      <trkpt lat="45.58046" lon="6.05198">
        <ele>964</ele>
        <time>2010-01-01T06:21:32Z</time>
      </trkpt>
      <trkpt lat="45.58065" lon="6.0516">
        <ele>962</ele>
        <time>2010-01-01T06:21:45Z</time>
      </trkpt>
      <trkpt lat="45.58066" lon="6.05148">
        <ele>958</ele>
        <time>2010-01-01T06:21:48Z</time>
      </trkpt>
      <trkpt lat="45.58065" lon="6.05144">
        <ele>956</ele>
        <time>2010-01-01T06:21:49Z</time>
      </trkpt>
      <trkpt lat="45.58063" lon="6.05142">
        <ele>955</ele>
        <time>2010-01-01T06:21:50Z</time>
      </trkpt>
      <trkpt lat="45.58054" lon="6.0514">
        <ele>950</ele>
        <time>2010-01-01T06:21:54Z</time>
      </trkpt>
      <trkpt lat="45.58027" lon="6.05197">
        <ele>954</ele>
        <time>2010-01-01T06:22:13Z</time>
      </trkpt>
      <trkpt lat="45.58011" lon="6.0522">
        <ele>952</ele>
        <time>2010-01-01T06:22:22Z</time>
      </trkpt>
      <trkpt lat="45.57995" lon="6.05253">
        <ele>952</ele>
        <time>2010-01-01T06:22:34Z</time>
      </trkpt>
      <trkpt lat="45.57976" lon="6.05307">
        <ele>953</ele>
        <time>2010-01-01T06:22:51Z</time>
      </trkpt>
      <trkpt lat="45.57968" lon="6.05323">
        <ele>950</ele>
        <time>2010-01-01T06:22:56Z</time>
      </trkpt>
      <trkpt lat="45.57911" lon="6.05399">
        <ele>935</ele>
        <time>2010-01-01T06:23:27Z</time>
      </trkpt>
      <trkpt lat="45.57903" lon="6.05415">
        <ele>930</ele>
        <time>2010-01-01T06:23:33Z</time>
      </trkpt>
      <trkpt lat="45.57898" lon="6.05442">
        <ele>933</ele>
        <time>2010-01-01T06:23:41Z</time>
      </trkpt>
      <trkpt lat="45.57895" lon="6.05447">
        <ele>932</ele>
        <time>2010-01-01T06:23:42Z</time>
      </trkpt>
      <trkpt lat="45.5789" lon="6.05448">
        <ele>929</ele>
        <time>2010-01-01T06:23:44Z</time>
      </trkpt>
      <trkpt lat="45.57886" lon="6.05446">
        <ele>926</ele>
        <time>2010-01-01T06:23:46Z</time>
      </trkpt>
      <trkpt lat="45.57883" lon="6.0544">
        <ele>922</ele>
        <time>2010-01-01T06:23:48Z</time>
      </trkpt>
      <trkpt lat="45.57884" lon="6.05431">
        <ele>921</ele>
        <time>2010-01-01T06:23:51Z</time>
      </trkpt>
      <trkpt lat="45.57893" lon="6.05399">
        <ele>921</ele>
        <time>2010-01-01T06:24:00Z</time>
      </trkpt>
      <trkpt lat="45.57914" lon="6.05347">
        <ele>926</ele>
        <time>2010-01-01T06:24:17Z</time>
      </trkpt>
      <trkpt lat="45.57918" lon="6.05327">
        <ele>923</ele>
        <time>2010-01-01T06:24:23Z</time>
      </trkpt>
      <trkpt lat="45.57933" lon="6.05284">
        <ele>920</ele>
        <time>2010-01-01T06:24:37Z</time>
      </trkpt>
      <trkpt lat="45.57943" lon="6.05229">
        <ele>915</ele>
        <time>2010-01-01T06:24:52Z</time>
      </trkpt>
      <trkpt lat="45.57951" lon="6.05159">
        <ele>908</ele>
        <time>2010-01-01T06:25:12Z</time>
      </trkpt>
      <trkpt lat="45.57956" lon="6.05137">
        <ele>907</ele>
        <time>2010-01-01T06:25:19Z</time>
      </trkpt>
      <trkpt lat="45.57966" lon="6.05117">
        <ele>907</ele>
        <time>2010-01-01T06:25:26Z</time>
      </trkpt>
      <trkpt lat="45.58006" lon="6.05048">
        <ele>904</ele>
        <time>2010-01-01T06:25:51Z</time>
      </trkpt>
      <trkpt lat="45.58026" lon="6.05017">
        <ele>902</ele>
        <time>2010-01-01T06:26:03Z</time>
      </trkpt>
      <trkpt lat="45.5804" lon="6.05007">
        <ele>901</ele>
        <time>2010-01-01T06:26:09Z</time>
      </trkpt>
      <trkpt lat="45.58071" lon="6.04992">
        <ele>903</ele>
        <time>2010-01-01T06:26:22Z</time>
      </trkpt>
      <trkpt lat="45.58079" lon="6.04985">
        <ele>903</ele>
        <time>2010-01-01T06:26:26Z</time>
      </trkpt>
      <trkpt lat="45.58084" lon="6.04975">
        <ele>902</ele>
        <time>2010-01-01T06:26:29Z</time>
      </trkpt>
      <trkpt lat="45.58088" lon="6.04959">
        <ele>902</ele>
        <time>2010-01-01T06:26:34Z</time>
      </trkpt>
      <trkpt lat="45.58084" lon="6.0491">
        <ele>895</ele>
        <time>2010-01-01T06:26:48Z</time>
      </trkpt>
      <trkpt lat="45.58087" lon="6.04875">
        <ele>892</ele>
        <time>2010-01-01T06:26:58Z</time>
      </trkpt>
      <trkpt lat="45.5809" lon="6.04852">
        <ele>888</ele>
        <time>2010-01-01T06:27:04Z</time>
      </trkpt>
      <trkpt lat="45.58115" lon="6.04811">
        <ele>885</ele>
        <time>2010-01-01T06:27:19Z</time>
      </trkpt>
      <trkpt lat="45.58121" lon="6.04773">
        <ele>875</ele>
        <time>2010-01-01T06:27:30Z</time>
      </trkpt>
      <trkpt lat="45.5812" lon="6.0474">
        <ele>870</ele>
        <time>2010-01-01T06:27:40Z</time>
      </trkpt>
      <trkpt lat="45.58122" lon="6.04724">
        <ele>869</ele>
        <time>2010-01-01T06:27:44Z</time>
      </trkpt>
      <trkpt lat="45.58132" lon="6.04701">
        <ele>870</ele>
        <time>2010-01-01T06:27:52Z</time>
      </trkpt>
      <trkpt lat="45.58153" lon="6.04674">
        <ele>873</ele>
        <time>2010-01-01T06:28:03Z</time>
      </trkpt>
      <trkpt lat="45.58163" lon="6.04655">
        <ele>871</ele>
        <time>2010-01-01T06:28:10Z</time>
      </trkpt>
      <trkpt lat="45.5817" lon="6.0463">
        <ele>866</ele>
        <time>2010-01-01T06:28:17Z</time>
      </trkpt>
      <trkpt lat="45.5818" lon="6.04608">
        <ele>861</ele>
        <time>2010-01-01T06:28:25Z</time>
      </trkpt>
      <trkpt lat="45.58196" lon="6.0459">
        <ele>862</ele>
        <time>2010-01-01T06:28:33Z</time>
      </trkpt>
      <trkpt lat="45.58212" lon="6.04569">
        <ele>865</ele>
        <time>2010-01-01T06:28:41Z</time>
      </trkpt>
      <trkpt lat="45.58222" lon="6.04551">
        <ele>865</ele>
        <time>2010-01-01T06:28:48Z</time>
      </trkpt>
      <trkpt lat="45.58234" lon="6.04516">
        <ele>859</ele>
        <time>2010-01-01T06:28:59Z</time>
      </trkpt>
      <trkpt lat="45.58253" lon="6.04487">
        <ele>856</ele>
        <time>2010-01-01T06:29:10Z</time>
      </trkpt>
      <trkpt lat="45.58275" lon="6.04459">
        <ele>854</ele>
        <time>2010-01-01T06:29:22Z</time>
      </trkpt>
      <trkpt lat="45.58315" lon="6.0443">
        <ele>850</ele>
        <time>2010-01-01T06:29:40Z</time>
      </trkpt>
      <trkpt lat="45.58333" lon="6.04414">
        <ele>848</ele>
        <time>2010-01-01T06:29:48Z</time>
      </trkpt>
      <trkpt lat="45.5837" lon="6.044">
        <ele>848</ele>
        <time>2010-01-01T06:30:04Z</time>
      </trkpt>
      <trkpt lat="45.58382" lon="6.04398">
        <ele>847</ele>
        <time>2010-01-01T06:30:08Z</time>
      </trkpt>
      <trkpt lat="45.58397" lon="6.04391">
        <ele>845</ele>
        <time>2010-01-01T06:30:15Z</time>
      </trkpt>
      <trkpt lat="45.58403" lon="6.04384">
        <ele>843</ele>
        <time>2010-01-01T06:30:18Z</time>
      </trkpt>
      <trkpt lat="45.58409" lon="6.04373">
        <ele>841</ele>
        <time>2010-01-01T06:30:22Z</time>
      </trkpt>
      <trkpt lat="45.58415" lon="6.04358">
        <ele>837</ele>
        <time>2010-01-01T06:30:27Z</time>
      </trkpt>
      <trkpt lat="45.58417" lon="6.04306">
        <ele>828</ele>
        <time>2010-01-01T06:30:41Z</time>
      </trkpt>
      <trkpt lat="45.58422" lon="6.04284">
        <ele>825</ele>
        <time>2010-01-01T06:30:48Z</time>
      </trkpt>
      <trkpt lat="45.58426" lon="6.04281">
        <ele>825</ele>
        <time>2010-01-01T06:30:49Z</time>
      </trkpt>
      <trkpt lat="45.58454" lon="6.04292">
        <ele>838</ele>
        <time>2010-01-01T06:31:01Z</time>
      </trkpt>
      <trkpt lat="45.58461" lon="6.04291">
        <ele>840</ele>
        <time>2010-01-01T06:31:04Z</time>
      </trkpt>
      <trkpt lat="45.58469" lon="6.04287">
        <ele>842</ele>
        <time>2010-01-01T06:31:07Z</time>
      </trkpt>
      <trkpt lat="45.58474" lon="6.04278">
        <ele>843</ele>
        <time>2010-01-01T06:31:10Z</time>
      </trkpt>
      <trkpt lat="45.58475" lon="6.04263">
        <ele>841</ele>
        <time>2010-01-01T06:31:15Z</time>
      </trkpt>
      <trkpt lat="45.58474" lon="6.04256">
        <ele>839</ele>
        <time>2010-01-01T06:31:17Z</time>
      </trkpt>
      <trkpt lat="45.58452" lon="6.04185">
        <ele>820</ele>
        <time>2010-01-01T06:31:38Z</time>
      </trkpt>
      <trkpt lat="45.58443" lon="6.04166">
        <ele>817</ele>
        <time>2010-01-01T06:31:45Z</time>
      </trkpt>
      <trkpt lat="45.58421" lon="6.04129">
        <ele>807</ele>
        <time>2010-01-01T06:31:58Z</time>
      </trkpt>
      <trkpt lat="45.58416" lon="6.04118">
        <ele>804</ele>
        <time>2010-01-01T06:32:02Z</time>
      </trkpt>
      <trkpt lat="45.58412" lon="6.04101">
        <ele>801</ele>
        <time>2010-01-01T06:32:07Z</time>
      </trkpt>
      <trkpt lat="45.58416" lon="6.04089">
        <ele>800</ele>
        <time>2010-01-01T06:32:11Z</time>
      </trkpt>
      <trkpt lat="45.58424" lon="6.04083">
        <ele>800</ele>
        <time>2010-01-01T06:32:14Z</time>
      </trkpt>
      <trkpt lat="45.58443" lon="6.04079">
        <ele>802</ele>
        <time>2010-01-01T06:32:22Z</time>
      </trkpt>
      <trkpt lat="45.58486" lon="6.04075">
        <ele>804</ele>
        <time>2010-01-01T06:32:39Z</time>
      </trkpt>
      <trkpt lat="45.58498" lon="6.04069">
        <ele>805</ele>
        <time>2010-01-01T06:32:45Z</time>
      </trkpt>
      <trkpt lat="45.58506" lon="6.04061">
        <ele>805</ele>
        <time>2010-01-01T06:32:48Z</time>
      </trkpt>
      <trkpt lat="45.58511" lon="6.04053">
        <ele>805</ele>
        <time>2010-01-01T06:32:51Z</time>
      </trkpt>
      <trkpt lat="45.58514" lon="6.0404">
        <ele>803</ele>
        <time>2010-01-01T06:32:55Z</time>
      </trkpt>
      <trkpt lat="45.58514" lon="6.04031">
        <ele>802</ele>
        <time>2010-01-01T06:32:58Z</time>
      </trkpt>
      <trkpt lat="45.5851" lon="6.04014">
        <ele>797</ele>
        <time>2010-01-01T06:33:03Z</time>
      </trkpt>
      <trkpt lat="45.58499" lon="6.03993">
        <ele>791</ele>
        <time>2010-01-01T06:33:10Z</time>
      </trkpt>
      <trkpt lat="45.58495" lon="6.03982">
        <ele>789</ele>
        <time>2010-01-01T06:33:14Z</time>
      </trkpt>
      <trkpt lat="45.58495" lon="6.03972">
        <ele>788</ele>
        <time>2010-01-01T06:33:16Z</time>
      </trkpt>
      <trkpt lat="45.58501" lon="6.03961">
        <ele>787</ele>
        <time>2010-01-01T06:33:20Z</time>
      </trkpt>
      <trkpt lat="45.58545" lon="6.0392">
        <ele>789</ele>
        <time>2010-01-01T06:33:41Z</time>
      </trkpt>
      <trkpt lat="45.58564" lon="6.03911">
        <ele>790</ele>
        <time>2010-01-01T06:33:49Z</time>
      </trkpt>
      <trkpt lat="45.58583" lon="6.03911">
        <ele>792</ele>
        <time>2010-01-01T06:33:57Z</time>
      </trkpt>
      <trkpt lat="45.58595" lon="6.039">
        <ele>792</ele>
        <time>2010-01-01T06:34:03Z</time>
      </trkpt>
      <trkpt lat="45.586" lon="6.03882">
        <ele>789</ele>
        <time>2010-01-01T06:34:08Z</time>
      </trkpt>
      <trkpt lat="45.58601" lon="6.03836">
        <ele>783</ele>
        <time>2010-01-01T06:34:21Z</time>
      </trkpt>
      <trkpt lat="45.58606" lon="6.03813">
        <ele>783</ele>
        <time>2010-01-01T06:34:28Z</time>
      </trkpt>
      <trkpt lat="45.58622" lon="6.03794">
        <ele>785</ele>
        <time>2010-01-01T06:34:36Z</time>
      </trkpt>
      <trkpt lat="45.58637" lon="6.03781">
        <ele>787</ele>
        <time>2010-01-01T06:34:43Z</time>
      </trkpt>
      <trkpt lat="45.58641" lon="6.03773">
        <ele>787</ele>
        <time>2010-01-01T06:34:46Z</time>
      </trkpt>
      <trkpt lat="45.58642" lon="6.03757">
        <ele>784</ele>
        <time>2010-01-01T06:34:50Z</time>
      </trkpt>
      <trkpt lat="45.58639" lon="6.03747">
        <ele>783</ele>
        <time>2010-01-01T06:34:53Z</time>
      </trkpt>
      <trkpt lat="45.58633" lon="6.03739">
        <ele>780</ele>
        <time>2010-01-01T06:34:57Z</time>
      </trkpt>
      <trkpt lat="45.58625" lon="6.0374">
        <ele>779</ele>
        <time>2010-01-01T06:35:00Z</time>
      </trkpt>
      <trkpt lat="45.58611" lon="6.03749">
        <ele>777</ele>
        <time>2010-01-01T06:35:06Z</time>
      </trkpt>
      <trkpt lat="45.58598" lon="6.03767">
        <ele>776</ele>
        <time>2010-01-01T06:35:13Z</time>
      </trkpt>
      <trkpt lat="45.58589" lon="6.03784">
        <ele>775</ele>
        <time>2010-01-01T06:35:19Z</time>
      </trkpt>
      <trkpt lat="45.58584" lon="6.03804">
        <ele>776</ele>
        <time>2010-01-01T06:35:25Z</time>
      </trkpt>
      <trkpt lat="45.5858" lon="6.03832">
        <ele>778</ele>
        <time>2010-01-01T06:35:33Z</time>
      </trkpt>
      <trkpt lat="45.58577" lon="6.03845">
        <ele>779</ele>
        <time>2010-01-01T06:35:37Z</time>
      </trkpt>
      <trkpt lat="45.58573" lon="6.03853">
        <ele>779</ele>
        <time>2010-01-01T06:35:40Z</time>
      </trkpt>
      <trkpt lat="45.58567" lon="6.03857">
        <ele>779</ele>
        <time>2010-01-01T06:35:42Z</time>
      </trkpt>
      <trkpt lat="45.58439" lon="6.03884">
        <ele>764</ele>
        <time>2010-01-01T06:36:34Z</time>
      </trkpt>
      <trkpt lat="45.58413" lon="6.03904">
        <ele>764</ele>
        <time>2010-01-01T06:36:46Z</time>
      </trkpt>
      <trkpt lat="45.58404" lon="6.03931">
        <ele>767</ele>
        <time>2010-01-01T06:36:54Z</time>
      </trkpt>
      <trkpt lat="45.58393" lon="6.03948">
        <ele>767</ele>
        <time>2010-01-01T06:37:01Z</time>
      </trkpt>
      <trkpt lat="45.58384" lon="6.03952">
        <ele>765</ele>
        <time>2010-01-01T06:37:05Z</time>
      </trkpt>
      <trkpt lat="45.58373" lon="6.03954">
        <ele>762</ele>
        <time>2010-01-01T06:37:09Z</time>
      </trkpt>
      <trkpt lat="45.58343" lon="6.03954">
        <ele>758</ele>
        <time>2010-01-01T06:37:21Z</time>
      </trkpt>
      <trkpt lat="45.58334" lon="6.03958">
        <ele>758</ele>
        <time>2010-01-01T06:37:25Z</time>
      </trkpt>
      <trkpt lat="45.58322" lon="6.03968">
        <ele>756</ele>
        <time>2010-01-01T06:37:31Z</time>
      </trkpt>
      <trkpt lat="45.58317" lon="6.03968">
        <ele>755</ele>
        <time>2010-01-01T06:37:33Z</time>
      </trkpt>
      <trkpt lat="45.58313" lon="6.03965">
        <ele>753</ele>
        <time>2010-01-01T06:37:34Z</time>
      </trkpt>
      <trkpt lat="45.5831" lon="6.03959">
        <ele>751</ele>
        <time>2010-01-01T06:37:36Z</time>
      </trkpt>
      <trkpt lat="45.58308" lon="6.03951">
        <ele>749</ele>
        <time>2010-01-01T06:37:39Z</time>
      </trkpt>
      <trkpt lat="45.5831" lon="6.03942">
        <ele>748</ele>
        <time>2010-01-01T06:37:41Z</time>
      </trkpt>
      <trkpt lat="45.58317" lon="6.03936">
        <ele>749</ele>
        <time>2010-01-01T06:37:45Z</time>
      </trkpt>
      <trkpt lat="45.58354" lon="6.03923">
        <ele>755</ele>
        <time>2010-01-01T06:38:00Z</time>
      </trkpt>
      <trkpt lat="45.58361" lon="6.03914">
        <ele>756</ele>
        <time>2010-01-01T06:38:04Z</time>
      </trkpt>
      <trkpt lat="45.58369" lon="6.03899">
        <ele>755</ele>
        <time>2010-01-01T06:38:09Z</time>
      </trkpt>
      <trkpt lat="45.58379" lon="6.0387">
        <ele>752</ele>
        <time>2010-01-01T06:38:18Z</time>
      </trkpt>
      <trkpt lat="45.58373" lon="6.03867">
        <ele>751</ele>
        <time>2010-01-01T06:38:21Z</time>
      </trkpt>
      <trkpt lat="45.58359" lon="6.03892">
        <ele>752</ele>
        <time>2010-01-01T06:38:30Z</time>
      </trkpt>
      <trkpt lat="45.58356" lon="6.03895">
        <ele>752</ele>
        <time>2010-01-01T06:38:31Z</time>
      </trkpt>
      <trkpt lat="45.58353" lon="6.03894">
        <ele>751</ele>
        <time>2010-01-01T06:38:32Z</time>
      </trkpt>
      <trkpt lat="45.5835" lon="6.0389">
        <ele>750</ele>
        <time>2010-01-01T06:38:34Z</time>
      </trkpt>
      <trkpt lat="45.58353" lon="6.0383">
        <ele>744</ele>
        <time>2010-01-01T06:38:51Z</time>
      </trkpt>
      <trkpt lat="45.58359" lon="6.03803">
        <ele>742</ele>
        <time>2010-01-01T06:38:59Z</time>
      </trkpt>
      <trkpt lat="45.58382" lon="6.03757">
        <ele>734</ele>
        <time>2010-01-01T06:39:15Z</time>
      </trkpt>
      <trkpt lat="45.58415" lon="6.03712">
        <ele>728</ele>
        <time>2010-01-01T06:39:33Z</time>
      </trkpt>
      <trkpt lat="45.58422" lon="6.03694">
        <ele>725</ele>
        <time>2010-01-01T06:39:39Z</time>
      </trkpt>
      <trkpt lat="45.58422" lon="6.03676">
        <ele>721</ele>
        <time>2010-01-01T06:39:44Z</time>
      </trkpt>
      <trkpt lat="45.58417" lon="6.03624">
        <ele>713</ele>
        <time>2010-01-01T06:39:58Z</time>
      </trkpt>
      <trkpt lat="45.58418" lon="6.03604">
        <ele>712</ele>
        <time>2010-01-01T06:40:04Z</time>
      </trkpt>
      <trkpt lat="45.58381" lon="6.0363">
        <ele>712</ele>
        <time>2010-01-01T06:40:20Z</time>
      </trkpt>
      <trkpt lat="45.58303" lon="6.03633">
        <ele>705</ele>
        <time>2010-01-01T06:40:52Z</time>
      </trkpt>
      <trkpt lat="45.58229" lon="6.03654">
        <ele>697</ele>
        <time>2010-01-01T06:41:22Z</time>
      </trkpt>
      <trkpt lat="45.58218" lon="6.03669">
        <ele>694</ele>
        <time>2010-01-01T06:41:28Z</time>
      </trkpt>
      <trkpt lat="45.58212" lon="6.03689">
        <ele>694</ele>
        <time>2010-01-01T06:41:34Z</time>
      </trkpt>
      <trkpt lat="45.58202" lon="6.03786">
        <ele>709</ele>
        <time>2010-01-01T06:42:02Z</time>
      </trkpt>
      <trkpt lat="45.582" lon="6.03799">
        <ele>711</ele>
        <time>2010-01-01T06:42:05Z</time>
      </trkpt>
      <trkpt lat="45.58194" lon="6.03805">
        <ele>711</ele>
        <time>2010-01-01T06:42:08Z</time>
      </trkpt>
      <trkpt lat="45.58187" lon="6.03805">
        <ele>710</ele>
        <time>2010-01-01T06:42:11Z</time>
      </trkpt>
      <trkpt lat="45.58176" lon="6.03789">
        <ele>704</ele>
        <time>2010-01-01T06:42:17Z</time>
      </trkpt>
      <trkpt lat="45.58166" lon="6.03766">
        <ele>696</ele>
        <time>2010-01-01T06:42:25Z</time>
      </trkpt>
      <trkpt lat="45.58161" lon="6.03758">
        <ele>693</ele>
        <time>2010-01-01T06:42:28Z</time>
      </trkpt>
      <trkpt lat="45.58153" lon="6.03758">
        <ele>691</ele>
        <time>2010-01-01T06:42:31Z</time>
      </trkpt>
      <trkpt lat="45.58148" lon="6.03762">
        <ele>691</ele>
        <time>2010-01-01T06:42:33Z</time>
      </trkpt>
      <trkpt lat="45.58128" lon="6.03828">
        <ele>695</ele>
        <time>2010-01-01T06:42:53Z</time>
      </trkpt>
      <trkpt lat="45.58068" lon="6.03947">
        <ele>683</ele>
        <time>2010-01-01T06:43:35Z</time>
      </trkpt>
      <trkpt lat="45.58066" lon="6.03957">
        <ele>682</ele>
        <time>2010-01-01T06:43:37Z</time>
      </trkpt>
      <trkpt lat="45.58075" lon="6.03984">
        <ele>687</ele>
        <time>2010-01-01T06:43:46Z</time>
      </trkpt>
      <trkpt lat="45.58076" lon="6.03992">
        <ele>688</ele>
        <time>2010-01-01T06:43:48Z</time>
      </trkpt>
      <trkpt lat="45.58074" lon="6.03998">
        <ele>687</ele>
        <time>2010-01-01T06:43:50Z</time>
      </trkpt>
      <trkpt lat="45.58069" lon="6.04005">
        <ele>686</ele>
        <time>2010-01-01T06:43:53Z</time>
      </trkpt>
      <trkpt lat="45.58063" lon="6.04006">
        <ele>684</ele>
        <time>2010-01-01T06:43:55Z</time>
      </trkpt>
      <trkpt lat="45.58054" lon="6.04006">
        <ele>680</ele>
        <time>2010-01-01T06:43:59Z</time>
      </trkpt>
      <trkpt lat="45.58046" lon="6.04003">
        <ele>677</ele>
        <time>2010-01-01T06:44:02Z</time>
      </trkpt>
      <trkpt lat="45.58038" lon="6.04003">
        <ele>675</ele>
        <time>2010-01-01T06:44:05Z</time>
      </trkpt>
      <trkpt lat="45.58032" lon="6.04012">
        <ele>675</ele>
        <time>2010-01-01T06:44:09Z</time>
      </trkpt>
      <trkpt lat="45.58026" lon="6.04037">
        <ele>678</ele>
        <time>2010-01-01T06:44:16Z</time>
      </trkpt>
      <trkpt lat="45.5802" lon="6.0405">
        <ele>680</ele>
        <time>2010-01-01T06:44:21Z</time>
      </trkpt>
      <trkpt lat="45.58002" lon="6.04076">
        <ele>682</ele>
        <time>2010-01-01T06:44:31Z</time>
      </trkpt>
      <trkpt lat="45.57987" lon="6.04106">
        <ele>689</ele>
        <time>2010-01-01T06:44:41Z</time>
      </trkpt>
      <trkpt lat="45.57978" lon="6.04116">
        <ele>689</ele>
        <time>2010-01-01T06:44:46Z</time>
      </trkpt>
      <trkpt lat="45.57968" lon="6.04119">
        <ele>687</ele>
        <time>2010-01-01T06:44:50Z</time>
      </trkpt>
      <trkpt lat="45.57956" lon="6.04117">
        <ele>686</ele>
        <time>2010-01-01T06:44:55Z</time>
      </trkpt>
      <trkpt lat="45.57951" lon="6.04115">
        <ele>685</ele>
        <time>2010-01-01T06:44:57Z</time>
      </trkpt>
      <trkpt lat="45.57945" lon="6.04103">
        <ele>685</ele>
        <time>2010-01-01T06:45:01Z</time>
      </trkpt>
      <trkpt lat="45.57944" lon="6.04093">
        <ele>685</ele>
        <time>2010-01-01T06:45:04Z</time>
      </trkpt>
      <trkpt lat="45.57947" lon="6.04071">
        <ele>684</ele>
        <time>2010-01-01T06:45:10Z</time>
      </trkpt>
      <trkpt lat="45.57948" lon="6.04055">
        <ele>684</ele>
        <time>2010-01-01T06:45:14Z</time>
      </trkpt>
      <trkpt lat="45.57942" lon="6.0403">
        <ele>684</ele>
        <time>2010-01-01T06:45:22Z</time>
      </trkpt>
      <trkpt lat="45.57931" lon="6.04008">
        <ele>683</ele>
        <time>2010-01-01T06:45:29Z</time>
      </trkpt>
      <trkpt lat="45.57918" lon="6.03987">
        <ele>684</ele>
        <time>2010-01-01T06:45:37Z</time>
      </trkpt>
      <trkpt lat="45.57905" lon="6.03956">
        <ele>687</ele>
        <time>2010-01-01T06:45:47Z</time>
      </trkpt>
      <trkpt lat="45.57892" lon="6.03903">
        <ele>690</ele>
        <time>2010-01-01T06:46:03Z</time>
      </trkpt>
      <trkpt lat="45.57867" lon="6.03784">
        <ele>690</ele>
        <time>2010-01-01T06:46:38Z</time>
      </trkpt>
      <trkpt lat="45.57862" lon="6.03771">
        <ele>690</ele>
        <time>2010-01-01T06:46:42Z</time>
      </trkpt>
      <trkpt lat="45.57858" lon="6.03765">
        <ele>690</ele>
        <time>2010-01-01T06:46:44Z</time>
      </trkpt>
      <trkpt lat="45.57852" lon="6.03762">
        <ele>690</ele>
        <time>2010-01-01T06:46:47Z</time>
      </trkpt>
      <trkpt lat="45.57829" lon="6.03764">
        <ele>694</ele>
        <time>2010-01-01T06:46:56Z</time>
      </trkpt>
      <trkpt lat="45.57822" lon="6.03761">
        <ele>694</ele>
        <time>2010-01-01T06:46:59Z</time>
      </trkpt>
      <trkpt lat="45.57816" lon="6.03753">
        <ele>692</ele>
        <time>2010-01-01T06:47:02Z</time>
      </trkpt>
      <trkpt lat="45.57812" lon="6.03742">
        <ele>692</ele>
        <time>2010-01-01T06:47:06Z</time>
      </trkpt>
      <trkpt lat="45.5781" lon="6.03726">
        <ele>692</ele>
        <time>2010-01-01T06:47:10Z</time>
      </trkpt>
      <trkpt lat="45.57823" lon="6.03584">
        <ele>701</ele>
        <time>2010-01-01T06:47:51Z</time>
      </trkpt>
      <trkpt lat="45.57822" lon="6.03557">
        <ele>701</ele>
        <time>2010-01-01T06:47:58Z</time>
      </trkpt>
      <trkpt lat="45.57816" lon="6.03535">
        <ele>702</ele>
        <time>2010-01-01T06:48:05Z</time>
      </trkpt>
      <trkpt lat="45.57778" lon="6.03489">
        <ele>707</ele>
        <time>2010-01-01T06:48:25Z</time>
      </trkpt>
      <trkpt lat="45.57757" lon="6.03455">
        <ele>708</ele>
        <time>2010-01-01T06:48:37Z</time>
      </trkpt>
      <trkpt lat="45.57743" lon="6.03428">
        <ele>708</ele>
        <time>2010-01-01T06:48:47Z</time>
      </trkpt>
      <trkpt lat="45.57607" lon="6.03132">
        <ele>715</ele>
        <time>2010-01-01T06:50:26Z</time>
      </trkpt>
      <trkpt lat="45.57545" lon="6.03003">
        <ele>723</ele>
        <time>2010-01-01T06:51:10Z</time>
      </trkpt>
      <trkpt lat="45.57531" lon="6.0299">
        <ele>722</ele>
        <time>2010-01-01T06:51:17Z</time>
      </trkpt>
      <trkpt lat="45.57514" lon="6.0299">
        <ele>723</ele>
        <time>2010-01-01T06:51:23Z</time>
      </trkpt>
      <trkpt lat="45.57499" lon="6.02997">
        <ele>724</ele>
        <time>2010-01-01T06:51:30Z</time>
      </trkpt>
      <trkpt lat="45.57381" lon="6.0307">
        <ele>732</ele>
        <time>2010-01-01T06:52:21Z</time>
      </trkpt>
      <trkpt lat="45.57348" lon="6.03097">
        <ele>731</ele>
        <time>2010-01-01T06:52:36Z</time>
      </trkpt>
      <trkpt lat="45.57309" lon="6.03139">
        <ele>733</ele>
        <time>2010-01-01T06:52:56Z</time>
      </trkpt>
      <trkpt lat="45.57298" lon="6.03143">
        <ele>733</ele>
        <time>2010-01-01T06:53:01Z</time>
      </trkpt>
      <trkpt lat="45.57286" lon="6.03141">
        <ele>733</ele>
        <time>2010-01-01T06:53:05Z</time>
      </trkpt>
      <trkpt lat="45.57271" lon="6.03134">
        <ele>735</ele>
        <time>2010-01-01T06:53:12Z</time>
      </trkpt>
      <trkpt lat="45.57291" lon="6.03032">
        <ele>736</ele>
        <time>2010-01-01T06:53:41Z</time>
      </trkpt>
      <trkpt lat="45.57294" lon="6.02968">
        <ele>736</ele>
        <time>2010-01-01T06:53:59Z</time>
      </trkpt>
      <trkpt lat="45.57288" lon="6.02898">
        <ele>735</ele>
        <time>2010-01-01T06:54:19Z</time>
      </trkpt>
      <trkpt lat="45.57273" lon="6.0283">
        <ele>732</ele>
        <time>2010-01-01T06:54:39Z</time>
      </trkpt>
      <trkpt lat="45.57244" lon="6.02766">
        <ele>732</ele>
        <time>2010-01-01T06:55:00Z</time>
      </trkpt>
      <trkpt lat="45.57163" lon="6.02654">
        <ele>733</ele>
        <time>2010-01-01T06:55:46Z</time>
      </trkpt>
      <trkpt lat="45.57149" lon="6.02639">
        <ele>733</ele>
        <time>2010-01-01T06:55:53Z</time>
      </trkpt>
      <trkpt lat="45.57123" lon="6.0262">
        <ele>732</ele>
        <time>2010-01-01T06:56:04Z</time>
      </trkpt>
      <trkpt lat="45.57104" lon="6.02616">
        <ele>731</ele>
        <time>2010-01-01T06:56:12Z</time>
      </trkpt>
      <trkpt lat="45.57087" lon="6.02618">
        <ele>731</ele>
        <time>2010-01-01T06:56:19Z</time>
      </trkpt>
      <trkpt lat="45.57049" lon="6.02634">
        <ele>733</ele>
        <time>2010-01-01T06:56:35Z</time>
      </trkpt>
      <trkpt lat="45.57033" lon="6.02637">
        <ele>732</ele>
        <time>2010-01-01T06:56:41Z</time>
      </trkpt>
      <trkpt lat="45.57011" lon="6.02636">
        <ele>729</ele>
        <time>2010-01-01T06:56:50Z</time>
      </trkpt>
      <trkpt lat="45.56968" lon="6.02614">
        <ele>726</ele>
        <time>2010-01-01T06:57:08Z</time>
      </trkpt>
      <trkpt lat="45.56908" lon="6.02569">
        <ele>719</ele>
        <time>2010-01-01T06:57:35Z</time>
      </trkpt>
      <trkpt lat="45.56816" lon="6.02559">
        <ele>711</ele>
        <time>2010-01-01T06:58:12Z</time>
      </trkpt>
      <trkpt lat="45.56751" lon="6.02518">
        <ele>707</ele>
        <time>2010-01-01T06:58:41Z</time>
      </trkpt>
      <trkpt lat="45.56732" lon="6.02503">
        <ele>707</ele>
        <time>2010-01-01T06:58:49Z</time>
      </trkpt>
      <trkpt lat="45.56646" lon="6.02455">
        <ele>706</ele>
        <time>2010-01-01T06:59:26Z</time>
      </trkpt>
      <trkpt lat="45.56595" lon="6.02421">
        <ele>700</ele>
        <time>2010-01-01T06:59:49Z</time>
      </trkpt>
      <trkpt lat="45.56559" lon="6.02405">
        <ele>699</ele>
        <time>2010-01-01T07:00:04Z</time>
      </trkpt>
      <trkpt lat="45.56529" lon="6.024">
        <ele>700</ele>
        <time>2010-01-01T07:00:16Z</time>
      </trkpt>
      <trkpt lat="45.56437" lon="6.02396">
        <ele>702</ele>
        <time>2010-01-01T07:00:53Z</time>
      </trkpt>
      <trkpt lat="45.56391" lon="6.02389">
        <ele>699</ele>
        <time>2010-01-01T07:01:11Z</time>
      </trkpt>
      <trkpt lat="45.56375" lon="6.0239">
        <ele>695</ele>
        <time>2010-01-01T07:01:18Z</time>
      </trkpt>
      <trkpt lat="45.56358" lon="6.02395">
        <ele>692</ele>
        <time>2010-01-01T07:01:25Z</time>
      </trkpt>
      <trkpt lat="45.56334" lon="6.02408">
        <ele>690</ele>
        <time>2010-01-01T07:01:35Z</time>
      </trkpt>
      <trkpt lat="45.56304" lon="6.02437">
        <ele>690</ele>
        <time>2010-01-01T07:01:50Z</time>
      </trkpt>
      <trkpt lat="45.56284" lon="6.02449">
        <ele>686</ele>
        <time>2010-01-01T07:01:58Z</time>
      </trkpt>
      <trkpt lat="45.56278" lon="6.02457">
        <ele>686</ele>
        <time>2010-01-01T07:02:02Z</time>
      </trkpt>
      <trkpt lat="45.56274" lon="6.0249">
        <ele>690</ele>
        <time>2010-01-01T07:02:11Z</time>
      </trkpt>
      <trkpt lat="45.56265" lon="6.02504">
        <ele>690</ele>
        <time>2010-01-01T07:02:16Z</time>
      </trkpt>
      <trkpt lat="45.56257" lon="6.02511">
        <ele>689</ele>
        <time>2010-01-01T07:02:20Z</time>
      </trkpt>
      <trkpt lat="45.5624" lon="6.02514">
        <ele>684</ele>
        <time>2010-01-01T07:02:27Z</time>
      </trkpt>
      <trkpt lat="45.56211" lon="6.02513">
        <ele>676</ele>
        <time>2010-01-01T07:02:38Z</time>
      </trkpt>
      <trkpt lat="45.56198" lon="6.02522">
        <ele>674</ele>
        <time>2010-01-01T07:02:44Z</time>
      </trkpt>
      <trkpt lat="45.56183" lon="6.02538">
        <ele>675</ele>
        <time>2010-01-01T07:02:52Z</time>
      </trkpt>
      <trkpt lat="45.56163" lon="6.02542">
        <ele>674</ele>
        <time>2010-01-01T07:03:00Z</time>
      </trkpt>
      <trkpt lat="45.56117" lon="6.02539">
        <ele>669</ele>
        <time>2010-01-01T07:03:18Z</time>
      </trkpt>
      <trkpt lat="45.56094" lon="6.02542">
        <ele>667</ele>
        <time>2010-01-01T07:03:27Z</time>
      </trkpt>
      <trkpt lat="45.56068" lon="6.02553">
        <ele>670</ele>
        <time>2010-01-01T07:03:38Z</time>
      </trkpt>
      <trkpt lat="45.56048" lon="6.02565">
        <ele>675</ele>
        <time>2010-01-01T07:03:47Z</time>
      </trkpt>
      <trkpt lat="45.56041" lon="6.02564">
        <ele>674</ele>
        <time>2010-01-01T07:03:50Z</time>
      </trkpt>
      <trkpt lat="45.56038" lon="6.02558">
        <ele>672</ele>
        <time>2010-01-01T07:03:52Z</time>
      </trkpt>
      <trkpt lat="45.56037" lon="6.02549">
        <ele>668</ele>
        <time>2010-01-01T07:03:54Z</time>
      </trkpt>
      <trkpt lat="45.5604" lon="6.02542">
        <ele>665</ele>
        <time>2010-01-01T07:03:57Z</time>
      </trkpt>
      <trkpt lat="45.56045" lon="6.02535">
        <ele>663</ele>
        <time>2010-01-01T07:04:00Z</time>
      </trkpt>
      <trkpt lat="45.56055" lon="6.02528">
        <ele>661</ele>
        <time>2010-01-01T07:04:04Z</time>
      </trkpt>
      <trkpt lat="45.56154" lon="6.02469">
        <ele>658</ele>
        <time>2010-01-01T07:04:47Z</time>
      </trkpt>
      <trkpt lat="45.56159" lon="6.02463">
        <ele>657</ele>
        <time>2010-01-01T07:04:50Z</time>
      </trkpt>
      <trkpt lat="45.5616" lon="6.02454">
        <ele>655</ele>
        <time>2010-01-01T07:04:52Z</time>
      </trkpt>
      <trkpt lat="45.56158" lon="6.02448">
        <ele>653</ele>
        <time>2010-01-01T07:04:54Z</time>
      </trkpt>
      <trkpt lat="45.56154" lon="6.02443">
        <ele>651</ele>
        <time>2010-01-01T07:04:56Z</time>
      </trkpt>
      <trkpt lat="45.56145" lon="6.02442">
        <ele>650</ele>
        <time>2010-01-01T07:05:00Z</time>
      </trkpt>
      <trkpt lat="45.56113" lon="6.02454">
        <ele>647</ele>
        <time>2010-01-01T07:05:13Z</time>
      </trkpt>
      <trkpt lat="45.56074" lon="6.02473">
        <ele>645</ele>
        <time>2010-01-01T07:05:29Z</time>
      </trkpt>
      <trkpt lat="45.56042" lon="6.02482">
        <ele>646</ele>
        <time>2010-01-01T07:05:43Z</time>
      </trkpt>
      <trkpt lat="45.56017" lon="6.0248">
        <ele>645</ele>
        <time>2010-01-01T07:05:53Z</time>
      </trkpt>
      <trkpt lat="45.56009" lon="6.02476">
        <ele>645</ele>
        <time>2010-01-01T07:05:56Z</time>
      </trkpt>
      <trkpt lat="45.55997" lon="6.02443">
        <ele>646</ele>
        <time>2010-01-01T07:06:06Z</time>
      </trkpt>
      <trkpt lat="45.55997" lon="6.02429">
        <ele>648</ele>
        <time>2010-01-01T07:06:10Z</time>
      </trkpt>
      <trkpt lat="45.56" lon="6.02417">
        <ele>647</ele>
        <time>2010-01-01T07:06:14Z</time>
      </trkpt>
      <trkpt lat="45.56009" lon="6.02399">
        <ele>651</ele>
        <time>2010-01-01T07:06:20Z</time>
      </trkpt>
      <trkpt lat="45.56023" lon="6.02382">
        <ele>652</ele>
        <time>2010-01-01T07:06:27Z</time>
      </trkpt>
      <trkpt lat="45.56045" lon="6.02364">
        <ele>648</ele>
        <time>2010-01-01T07:06:38Z</time>
      </trkpt>
      <trkpt lat="45.56049" lon="6.0235">
        <ele>649</ele>
        <time>2010-01-01T07:06:42Z</time>
      </trkpt>
      <trkpt lat="45.56054" lon="6.02317">
        <ele>654</ele>
        <time>2010-01-01T07:06:51Z</time>
      </trkpt>
      <trkpt lat="45.56066" lon="6.02284">
        <ele>658</ele>
        <time>2010-01-01T07:07:02Z</time>
      </trkpt>
      <trkpt lat="45.56129" lon="6.02205">
        <ele>662</ele>
        <time>2010-01-01T07:07:35Z</time>
      </trkpt>
      <trkpt lat="45.56141" lon="6.02184">
        <ele>661</ele>
        <time>2010-01-01T07:07:43Z</time>
      </trkpt>
      <trkpt lat="45.56145" lon="6.02153">
        <ele>660</ele>
        <time>2010-01-01T07:07:52Z</time>
      </trkpt>
      <trkpt lat="45.56145" lon="6.02125">
        <ele>659</ele>
        <time>2010-01-01T07:08:00Z</time>
      </trkpt>
      <trkpt lat="45.56134" lon="6.02046">
        <ele>663</ele>
        <time>2010-01-01T07:08:22Z</time>
      </trkpt>
      <trkpt lat="45.56155" lon="6.02041">
        <ele>663</ele>
        <time>2010-01-01T07:08:31Z</time>
      </trkpt>
      <trkpt lat="45.56205" lon="6.01996">
        <ele>672</ele>
        <time>2010-01-01T07:08:54Z</time>
      </trkpt>
      <trkpt lat="45.56243" lon="6.01991">
        <ele>670</ele>
        <time>2010-01-01T07:09:10Z</time>
      </trkpt>
      <trkpt lat="45.56284" lon="6.01961">
        <ele>675</ele>
        <time>2010-01-01T07:09:28Z</time>
      </trkpt>
      <trkpt lat="45.56315" lon="6.01927">
        <ele>680</ele>
        <time>2010-01-01T07:09:44Z</time>
      </trkpt>
      <trkpt lat="45.56375" lon="6.01814">
        <ele>690</ele>
        <time>2010-01-01T07:10:23Z</time>
      </trkpt>
      <trkpt lat="45.56426" lon="6.01703">
        <ele>705</ele>
        <time>2010-01-01T07:11:01Z</time>
      </trkpt>
      <trkpt lat="45.56428" lon="6.01684">
        <ele>707</ele>
        <time>2010-01-01T07:11:06Z</time>
      </trkpt>
      <trkpt lat="45.56422" lon="6.01623">
        <ele>712</ele>
        <time>2010-01-01T07:11:23Z</time>
      </trkpt>
      <trkpt lat="45.56424" lon="6.01543">
        <ele>712</ele>
        <time>2010-01-01T07:11:46Z</time>
      </trkpt>
      <trkpt lat="45.56434" lon="6.0146">
        <ele>713</ele>
        <time>2010-01-01T07:12:09Z</time>
      </trkpt>
      <trkpt lat="45.56469" lon="6.01309">
        <ele>711</ele>
        <time>2010-01-01T07:12:54Z</time>
      </trkpt>
      <trkpt lat="45.5649" lon="6.01244">
        <ele>710</ele>
        <time>2010-01-01T07:13:14Z</time>
      </trkpt>
      <trkpt lat="45.56518" lon="6.01111">
        <ele>709</ele>
        <time>2010-01-01T07:13:53Z</time>
      </trkpt>
      <trkpt lat="45.56521" lon="6.01092">
        <ele>708</ele>
        <time>2010-01-01T07:13:58Z</time>
      </trkpt>
      <trkpt lat="45.56562" lon="6.01029">
        <ele>706</ele>
        <time>2010-01-01T07:14:22Z</time>
      </trkpt>
      <trkpt lat="45.5658" lon="6.00969">
        <ele>707</ele>
        <time>2010-01-01T07:14:41Z</time>
      </trkpt>
      <trkpt lat="45.56585" lon="6.00956">
        <ele>706</ele>
        <time>2010-01-01T07:14:45Z</time>
      </trkpt>
      <trkpt lat="45.56605" lon="6.00925">
        <ele>707</ele>
        <time>2010-01-01T07:14:57Z</time>
      </trkpt>
      <trkpt lat="45.56644" lon="6.00845">
        <ele>712</ele>
        <time>2010-01-01T07:15:24Z</time>
      </trkpt>
      <trkpt lat="45.56657" lon="6.00825">
        <ele>713</ele>
        <time>2010-01-01T07:15:32Z</time>
      </trkpt>
      <trkpt lat="45.56662" lon="6.00822">
        <ele>714</ele>
        <time>2010-01-01T07:15:34Z</time>
      </trkpt>
      <trkpt lat="45.56709" lon="6.00827">
        <ele>713</ele>
        <time>2010-01-01T07:15:53Z</time>
      </trkpt>
      <trkpt lat="45.56723" lon="6.00829">
        <ele>713</ele>
        <time>2010-01-01T07:15:58Z</time>
      </trkpt>
      <trkpt lat="45.56728" lon="6.00835">
        <ele>712</ele>
        <time>2010-01-01T07:16:01Z</time>
      </trkpt>
      <trkpt lat="45.56746" lon="6.0093">
        <ele>705</ele>
        <time>2010-01-01T07:16:29Z</time>
      </trkpt>
      <trkpt lat="45.5684" lon="6.00917">
        <ele>699</ele>
        <time>2010-01-01T07:17:06Z</time>
      </trkpt>
      <trkpt lat="45.56903" lon="6.00897">
        <ele>698</ele>
        <time>2010-01-01T07:17:32Z</time>
      </trkpt>
      <trkpt lat="45.56967" lon="6.00879">
        <ele>690</ele>
        <time>2010-01-01T07:17:58Z</time>
      </trkpt>
      <trkpt lat="45.5702" lon="6.00853">
        <ele>689</ele>
        <time>2010-01-01T07:18:21Z</time>
      </trkpt>
      <trkpt lat="45.57049" lon="6.00831">
        <ele>686</ele>
        <time>2010-01-01T07:18:34Z</time>
      </trkpt>
      <trkpt lat="45.5712" lon="6.00763">
        <ele>683</ele>
        <time>2010-01-01T07:19:08Z</time>
      </trkpt>
      <trkpt lat="45.57191" lon="6.00714">
        <ele>683</ele>
        <time>2010-01-01T07:19:40Z</time>
      </trkpt>
      <trkpt lat="45.57251" lon="6.00659">
        <ele>678</ele>
        <time>2010-01-01T07:20:08Z</time>
      </trkpt>
      <trkpt lat="45.57286" lon="6.00594">
        <ele>671</ele>
        <time>2010-01-01T07:20:31Z</time>
      </trkpt>
      <trkpt lat="45.5732" lon="6.00512">
        <ele>671</ele>
        <time>2010-01-01T07:20:58Z</time>
      </trkpt>
      <trkpt lat="45.57381" lon="6.00328">
        <ele>654</ele>
        <time>2010-01-01T07:21:55Z</time>
      </trkpt>
      <trkpt lat="45.57419" lon="6.00131">
        <ele>646</ele>
        <time>2010-01-01T07:22:52Z</time>
      </trkpt>
      <trkpt lat="45.5744" lon="6.0001">
        <ele>640</ele>
        <time>2010-01-01T07:23:27Z</time>
      </trkpt>
      <trkpt lat="45.57449" lon="5.99984">
        <ele>637</ele>
        <time>2010-01-01T07:23:35Z</time>
      </trkpt>
      <trkpt lat="45.57456" lon="5.9998">
        <ele>636</ele>
        <time>2010-01-01T07:23:38Z</time>
      </trkpt>
      <trkpt lat="45.57462" lon="5.99981">
        <ele>634</ele>
        <time>2010-01-01T07:23:41Z</time>
      </trkpt>
      <trkpt lat="45.57471" lon="5.99992">
        <ele>632</ele>
        <time>2010-01-01T07:23:45Z</time>
      </trkpt>
      <trkpt lat="45.57475" lon="6.00016">
        <ele>631</ele>
        <time>2010-01-01T07:23:52Z</time>
      </trkpt>
      <trkpt lat="45.57486" lon="6.00118">
        <ele>627</ele>
        <time>2010-01-01T07:24:21Z</time>
      </trkpt>
      <trkpt lat="45.57523" lon="6.00357">
        <ele>612</ele>
        <time>2010-01-01T07:25:30Z</time>
      </trkpt>
      <trkpt lat="45.57537" lon="6.00493">
        <ele>603</ele>
        <time>2010-01-01T07:26:08Z</time>
      </trkpt>
      <trkpt lat="45.57551" lon="6.00554">
        <ele>597</ele>
        <time>2010-01-01T07:26:26Z</time>
      </trkpt>
      <trkpt lat="45.57576" lon="6.00632">
        <ele>590</ele>
        <time>2010-01-01T07:26:50Z</time>
      </trkpt>
      <trkpt lat="45.57589" lon="6.00661">
        <ele>589</ele>
        <time>2010-01-01T07:27:00Z</time>
      </trkpt>
      <trkpt lat="45.57598" lon="6.00673">
        <ele>587</ele>
        <time>2010-01-01T07:27:05Z</time>
      </trkpt>
      <trkpt lat="45.57611" lon="6.00674">
        <ele>585</ele>
        <time>2010-01-01T07:27:10Z</time>
      </trkpt>
      <trkpt lat="45.57625" lon="6.00671">
        <ele>582</ele>
        <time>2010-01-01T07:27:16Z</time>
      </trkpt>
      <trkpt lat="45.57644" lon="6.00655">
        <ele>579</ele>
        <time>2010-01-01T07:27:25Z</time>
      </trkpt>
      <trkpt lat="45.5766" lon="6.00629">
        <ele>578</ele>
        <time>2010-01-01T07:27:34Z</time>
      </trkpt>
      <trkpt lat="45.57671" lon="6.00587">
        <ele>576</ele>
        <time>2010-01-01T07:27:47Z</time>
      </trkpt>
      <trkpt lat="45.57672" lon="6.00548">
        <ele>574</ele>
        <time>2010-01-01T07:27:58Z</time>
      </trkpt>
      <trkpt lat="45.57667" lon="6.00487">
        <ele>574</ele>
        <time>2010-01-01T07:28:15Z</time>
      </trkpt>
      <trkpt lat="45.57666" lon="6.00466">
        <ele>575</ele>
        <time>2010-01-01T07:28:21Z</time>
      </trkpt>
      <trkpt lat="45.57694" lon="6.00327">
        <ele>566</ele>
        <time>2010-01-01T07:29:01Z</time>
      </trkpt>
      <trkpt lat="45.57701" lon="6.00239">
        <ele>558</ele>
        <time>2010-01-01T07:29:26Z</time>
      </trkpt>
      <trkpt lat="45.57704" lon="6.00146">
        <ele>550</ele>
        <time>2010-01-01T07:29:52Z</time>
      </trkpt>
      <trkpt lat="45.57718" lon="6.00078">
        <ele>547</ele>
        <time>2010-01-01T07:30:12Z</time>
      </trkpt>
      <trkpt lat="45.57721" lon="5.99975">
        <ele>545</ele>
        <time>2010-01-01T07:30:41Z</time>
      </trkpt>
      <trkpt lat="45.57722" lon="5.99776">
        <ele>533</ele>
        <time>2010-01-01T07:31:37Z</time>
      </trkpt>
      <trkpt lat="45.57718" lon="5.99653">
        <ele>534</ele>
        <time>2010-01-01T07:32:11Z</time>
      </trkpt>
      <trkpt lat="45.57691" lon="5.99507">
        <ele>529</ele>
        <time>2010-01-01T07:32:54Z</time>
      </trkpt>
      <trkpt lat="45.57671" lon="5.99315">
        <ele>519</ele>
        <time>2010-01-01T07:33:48Z</time>
      </trkpt>
      <trkpt lat="45.57642" lon="5.99206">
        <ele>514</ele>
        <time>2010-01-01T07:34:21Z</time>
      </trkpt>
      <trkpt lat="45.57586" lon="5.99045">
        <ele>497</ele>
        <time>2010-01-01T07:35:11Z</time>
      </trkpt>
      <trkpt lat="45.57561" lon="5.98984">
        <ele>492</ele>
        <time>2010-01-01T07:35:31Z</time>
      </trkpt>
      <trkpt lat="45.57537" lon="5.98951">
        <ele>493</ele>
        <time>2010-01-01T07:35:44Z</time>
      </trkpt>
      <trkpt lat="45.5751" lon="5.98927">
        <ele>489</ele>
        <time>2010-01-01T07:35:57Z</time>
      </trkpt>
      <trkpt lat="45.57455" lon="5.98891">
        <ele>487</ele>
        <time>2010-01-01T07:36:21Z</time>
      </trkpt>
      <trkpt lat="45.57442" lon="5.98877">
        <ele>484</ele>
        <time>2010-01-01T07:36:28Z</time>
      </trkpt>
      <trkpt lat="45.57439" lon="5.98864">
        <ele>481</ele>
        <time>2010-01-01T07:36:32Z</time>
      </trkpt>
      <trkpt lat="45.57443" lon="5.98852">
        <ele>477</ele>
        <time>2010-01-01T07:36:35Z</time>
      </trkpt>
      <trkpt lat="45.57451" lon="5.98846">
        <ele>475</ele>
        <time>2010-01-01T07:36:39Z</time>
      </trkpt>
      <trkpt lat="45.57482" lon="5.98847">
        <ele>474</ele>
        <time>2010-01-01T07:36:51Z</time>
      </trkpt>
      <trkpt lat="45.57502" lon="5.98842">
        <ele>472</ele>
        <time>2010-01-01T07:36:59Z</time>
      </trkpt>
      <trkpt lat="45.57524" lon="5.9883">
        <ele>470</ele>
        <time>2010-01-01T07:37:09Z</time>
      </trkpt>
      <trkpt lat="45.57545" lon="5.98813">
        <ele>468</ele>
        <time>2010-01-01T07:37:19Z</time>
      </trkpt>
      <trkpt lat="45.57565" lon="5.98805">
        <ele>467</ele>
        <time>2010-01-01T07:37:27Z</time>
      </trkpt>
      <trkpt lat="45.57618" lon="5.9879">
        <ele>464</ele>
        <time>2010-01-01T07:37:48Z</time>
      </trkpt>
      <trkpt lat="45.5764" lon="5.98781">
        <ele>460</ele>
        <time>2010-01-01T07:37:58Z</time>
      </trkpt>
      <trkpt lat="45.57658" lon="5.98767">
        <ele>457</ele>
        <time>2010-01-01T07:38:06Z</time>
      </trkpt>
      <trkpt lat="45.57664" lon="5.98759">
        <ele>456</ele>
        <time>2010-01-01T07:38:09Z</time>
      </trkpt>
      <trkpt lat="45.57695" lon="5.98689">
        <ele>450</ele>
        <time>2010-01-01T07:38:32Z</time>
      </trkpt>
      <trkpt lat="45.57724" lon="5.98649">
        <ele>450</ele>
        <time>2010-01-01T07:38:48Z</time>
      </trkpt>
      <trkpt lat="45.57742" lon="5.98636">
        <ele>450</ele>
        <time>2010-01-01T07:38:57Z</time>
      </trkpt>
      <trkpt lat="45.5777" lon="5.98628">
        <ele>449</ele>
        <time>2010-01-01T07:39:08Z</time>
      </trkpt>
      <trkpt lat="45.57779" lon="5.98624">
        <ele>448</ele>
        <time>2010-01-01T07:39:12Z</time>
      </trkpt>
      <trkpt lat="45.57791" lon="5.98613">
        <ele>448</ele>
        <time>2010-01-01T07:39:17Z</time>
      </trkpt>
      <trkpt lat="45.57801" lon="5.98593">
        <ele>448</ele>
        <time>2010-01-01T07:39:24Z</time>
      </trkpt>
      <trkpt lat="45.57805" lon="5.98577">
        <ele>448</ele>
        <time>2010-01-01T07:39:29Z</time>
      </trkpt>
      <trkpt lat="45.57803" lon="5.98566">
        <ele>447</ele>
        <time>2010-01-01T07:39:32Z</time>
      </trkpt>
      <trkpt lat="45.57792" lon="5.98554">
        <ele>445</ele>
        <time>2010-01-01T07:39:38Z</time>
      </trkpt>
      <trkpt lat="45.57777" lon="5.98543">
        <ele>442</ele>
        <time>2010-01-01T07:39:45Z</time>
      </trkpt>
      <trkpt lat="45.57764" lon="5.98543">
        <ele>440</ele>
        <time>2010-01-01T07:39:50Z</time>
      </trkpt>
      <trkpt lat="45.57737" lon="5.98555">
        <ele>438</ele>
        <time>2010-01-01T07:40:01Z</time>
      </trkpt>
      <trkpt lat="45.57732" lon="5.98551">
        <ele>437</ele>
        <time>2010-01-01T07:40:03Z</time>
      </trkpt>
      <trkpt lat="45.57727" lon="5.98554">
        <ele>437</ele>
        <time>2010-01-01T07:40:06Z</time>
      </trkpt>
      <trkpt lat="45.57714" lon="5.98556">
        <ele>436</ele>
        <time>2010-01-01T07:40:11Z</time>
      </trkpt>
      <trkpt lat="45.57694" lon="5.9855">
        <ele>433</ele>
        <time>2010-01-01T07:40:19Z</time>
      </trkpt>
      <trkpt lat="45.57643" lon="5.98472">
        <ele>419</ele>
        <time>2010-01-01T07:40:49Z</time>
      </trkpt>
      <trkpt lat="45.57622" lon="5.98446">
        <ele>414</ele>
        <time>2010-01-01T07:41:00Z</time>
      </trkpt>
      <trkpt lat="45.57617" lon="5.98442">
        <ele>413</ele>
        <time>2010-01-01T07:41:02Z</time>
      </trkpt>
      <trkpt lat="45.57606" lon="5.98439">
        <ele>411</ele>
        <time>2010-01-01T07:41:07Z</time>
      </trkpt>
      <trkpt lat="45.57579" lon="5.98439">
        <ele>409</ele>
        <time>2010-01-01T07:41:18Z</time>
      </trkpt>
      <trkpt lat="45.57576" lon="5.98437">
        <ele>409</ele>
        <time>2010-01-01T07:41:19Z</time>
      </trkpt>
      <trkpt lat="45.57567" lon="5.98425">
        <ele>406</ele>
        <time>2010-01-01T07:41:24Z</time>
      </trkpt>
      <trkpt lat="45.57558" lon="5.98408">
        <ele>403</ele>
        <time>2010-01-01T07:41:30Z</time>
      </trkpt>
      <trkpt lat="45.57556" lon="5.98395">
        <ele>401</ele>
        <time>2010-01-01T07:41:34Z</time>
      </trkpt>
      <trkpt lat="45.57543" lon="5.984">
        <ele>399</ele>
        <time>2010-01-01T07:41:39Z</time>
      </trkpt>
      <trkpt lat="45.57523" lon="5.9839">
        <ele>393</ele>
        <time>2010-01-01T07:41:47Z</time>
      </trkpt>
      <trkpt lat="45.57505" lon="5.9837">
        <ele>386</ele>
        <time>2010-01-01T07:41:57Z</time>
      </trkpt>
      <trkpt lat="45.57484" lon="5.98341">
        <ele>379</ele>
        <time>2010-01-01T07:42:08Z</time>
      </trkpt>
      <trkpt lat="45.57459" lon="5.98311">
        <ele>368</ele>
        <time>2010-01-01T07:42:21Z</time>
      </trkpt>
      <trkpt lat="45.57431" lon="5.98271">
        <ele>355</ele>
        <time>2010-01-01T07:42:37Z</time>
      </trkpt>
      <trkpt lat="45.57427" lon="5.98255">
        <ele>352</ele>
        <time>2010-01-01T07:42:42Z</time>
      </trkpt>
      <trkpt lat="45.57432" lon="5.98238">
        <ele>352</ele>
        <time>2010-01-01T07:42:47Z</time>
      </trkpt>
      <trkpt lat="45.57465" lon="5.98181">
        <ele>355</ele>
        <time>2010-01-01T07:43:08Z</time>
      </trkpt>
      <trkpt lat="45.57465" lon="5.98173">
        <ele>353</ele>
        <time>2010-01-01T07:43:10Z</time>
      </trkpt>
      <trkpt lat="45.57484" lon="5.98119">
        <ele>349</ele>
        <time>2010-01-01T07:43:27Z</time>
      </trkpt>
      <trkpt lat="45.57505" lon="5.98075">
        <ele>348</ele>
        <time>2010-01-01T07:43:42Z</time>
      </trkpt>
      <trkpt lat="45.57514" lon="5.98062">
        <ele>348</ele>
        <time>2010-01-01T07:43:47Z</time>
      </trkpt>
      <trkpt lat="45.5751" lon="5.98055">
        <ele>346</ele>
        <time>2010-01-01T07:43:50Z</time>
      </trkpt>
      <trkpt lat="45.57511" lon="5.98043">
        <ele>345</ele>
        <time>2010-01-01T07:43:53Z</time>
      </trkpt>
      <trkpt lat="45.5752" lon="5.9803">
        <ele>346</ele>
        <time>2010-01-01T07:43:58Z</time>
      </trkpt>
      <trkpt lat="45.57586" lon="5.97956">
        <ele>348</ele>
        <time>2010-01-01T07:44:32Z</time>
      </trkpt>
      <trkpt lat="45.57597" lon="5.97941">
        <ele>348</ele>
        <time>2010-01-01T07:44:38Z</time>
      </trkpt>
      <trkpt lat="45.57606" lon="5.97911">
        <ele>346</ele>
        <time>2010-01-01T07:44:47Z</time>
      </trkpt>
      <trkpt lat="45.57608" lon="5.9788">
        <ele>345</ele>
        <time>2010-01-01T07:44:56Z</time>
      </trkpt>
      <trkpt lat="45.57607" lon="5.97851">
        <ele>344</ele>
        <time>2010-01-01T07:45:04Z</time>
      </trkpt>
      <trkpt lat="45.5759" lon="5.97768">
        <ele>337</ele>
        <time>2010-01-01T07:45:28Z</time>
      </trkpt>
      <trkpt lat="45.5759" lon="5.9775">
        <ele>337</ele>
        <time>2010-01-01T07:45:33Z</time>
      </trkpt>
      <trkpt lat="45.57591" lon="5.97729">
        <ele>335</ele>
        <time>2010-01-01T07:45:39Z</time>
      </trkpt>
      <trkpt lat="45.57598" lon="5.97692">
        <ele>332</ele>
        <time>2010-01-01T07:45:50Z</time>
      </trkpt>
      <trkpt lat="45.57613" lon="5.97638">
        <ele>330</ele>
        <time>2010-01-01T07:46:06Z</time>
      </trkpt>
      <trkpt lat="45.57647" lon="5.97561">
        <ele>328</ele>
        <time>2010-01-01T07:46:31Z</time>
      </trkpt>
      <trkpt lat="45.57669" lon="5.97517">
        <ele>324</ele>
        <time>2010-01-01T07:46:47Z</time>
      </trkpt>
      <trkpt lat="45.57677" lon="5.97505">
        <ele>324</ele>
        <time>2010-01-01T07:46:51Z</time>
      </trkpt>
      <trkpt lat="45.57686" lon="5.97487">
        <ele>322</ele>
        <time>2010-01-01T07:46:57Z</time>
      </trkpt>
      <trkpt lat="45.57688" lon="5.97473">
        <ele>321</ele>
        <time>2010-01-01T07:47:01Z</time>
      </trkpt>
      <trkpt lat="45.57682" lon="5.9745">
        <ele>321</ele>
        <time>2010-01-01T07:47:08Z</time>
      </trkpt>
      <trkpt lat="45.57689" lon="5.97447">
        <ele>321</ele>
        <time>2010-01-01T07:47:11Z</time>
      </trkpt>
      <trkpt lat="45.57759" lon="5.97388">
        <ele>318</ele>
        <time>2010-01-01T07:47:44Z</time>
      </trkpt>
      <trkpt lat="45.57764" lon="5.97382">
        <ele>318</ele>
        <time>2010-01-01T07:47:46Z</time>
      </trkpt>
      <trkpt lat="45.57768" lon="5.97371">
        <ele>319</ele>
        <time>2010-01-01T07:47:50Z</time>
      </trkpt>
      <trkpt lat="45.57766" lon="5.9736">
        <ele>320</ele>
        <time>2010-01-01T07:47:53Z</time>
      </trkpt>
      <trkpt lat="45.57757" lon="5.97349">
        <ele>319</ele>
        <time>2010-01-01T07:47:58Z</time>
      </trkpt>
      <trkpt lat="45.57746" lon="5.97324">
        <ele>319</ele>
        <time>2010-01-01T07:48:06Z</time>
      </trkpt>
      <trkpt lat="45.57739" lon="5.97299">
        <ele>318</ele>
        <time>2010-01-01T07:48:14Z</time>
      </trkpt>
      <trkpt lat="45.57744" lon="5.97273">
        <ele>318</ele>
        <time>2010-01-01T07:48:21Z</time>
      </trkpt>
      <trkpt lat="45.57737" lon="5.9722">
        <ele>318</ele>
        <time>2010-01-01T07:48:36Z</time>
      </trkpt>
      <trkpt lat="45.57707" lon="5.97139">
        <ele>317</ele>
        <time>2010-01-01T07:49:02Z</time>
      </trkpt>
      <trkpt lat="45.57691" lon="5.97109">
        <ele>315</ele>
        <time>2010-01-01T07:49:13Z</time>
      </trkpt>
      <trkpt lat="45.5767" lon="5.97077">
        <ele>315</ele>
        <time>2010-01-01T07:49:25Z</time>
      </trkpt>
      <trkpt lat="45.57609" lon="5.96923">
        <ele>313</ele>
        <time>2010-01-01T07:50:14Z</time>
      </trkpt>
      <trkpt lat="45.57602" lon="5.96911">
        <ele>313</ele>
        <time>2010-01-01T07:50:19Z</time>
      </trkpt>
      <trkpt lat="45.57596" lon="5.96904">
        <ele>314</ele>
        <time>2010-01-01T07:50:22Z</time>
      </trkpt>
      <trkpt lat="45.57589" lon="5.969">
        <ele>314</ele>
        <time>2010-01-01T07:50:25Z</time>
      </trkpt>
      <trkpt lat="45.57568" lon="5.96905">
        <ele>315</ele>
        <time>2010-01-01T07:50:33Z</time>
      </trkpt>
      <trkpt lat="45.57566" lon="5.96902">
        <ele>315</ele>
        <time>2010-01-01T07:50:35Z</time>
      </trkpt>
      <trkpt lat="45.5755" lon="5.96842">
        <ele>314</ele>
        <time>2010-01-01T07:50:53Z</time>
      </trkpt>
      <trkpt lat="45.57546" lon="5.96814">
        <ele>312</ele>
        <time>2010-01-01T07:51:01Z</time>
      </trkpt>
      <trkpt lat="45.57542" lon="5.96807">
        <ele>312</ele>
        <time>2010-01-01T07:51:03Z</time>
      </trkpt>
      <trkpt lat="45.57537" lon="5.96804">
        <ele>311</ele>
        <time>2010-01-01T07:51:05Z</time>
      </trkpt>
      <trkpt lat="45.57527" lon="5.9681">
        <ele>311</ele>
        <time>2010-01-01T07:51:10Z</time>
      </trkpt>
      <trkpt lat="45.57525" lon="5.96801">
        <ele>310</ele>
        <time>2010-01-01T07:51:12Z</time>
      </trkpt>
      <trkpt lat="45.57527" lon="5.96796">
        <ele>310</ele>
        <time>2010-01-01T07:51:14Z</time>
      </trkpt>
      <trkpt lat="45.57475" lon="5.96629">
        <ele>308</ele>
        <time>2010-01-01T07:52:05Z</time>
      </trkpt>
      <trkpt lat="45.57473" lon="5.96596">
        <ele>307</ele>
        <time>2010-01-01T07:52:14Z</time>
      </trkpt>
      <trkpt lat="45.57488" lon="5.96567">
        <ele>306</ele>
        <time>2010-01-01T07:52:24Z</time>
      </trkpt>
      <trkpt lat="45.57512" lon="5.9656">
        <ele>306</ele>
        <time>2010-01-01T07:52:34Z</time>
      </trkpt>
      <trkpt lat="45.57528" lon="5.96546">
        <ele>305</ele>
        <time>2010-01-01T07:52:42Z</time>
      </trkpt>
      <trkpt lat="45.57532" lon="5.96525">
        <ele>305</ele>
        <time>2010-01-01T07:52:48Z</time>
      </trkpt>
      <trkpt lat="45.5752" lon="5.9647">
        <ele>306</ele>
        <time>2010-01-01T07:53:04Z</time>
      </trkpt>
      <trkpt lat="45.57512" lon="5.96456">
        <ele>306</ele>
        <time>2010-01-01T07:53:09Z</time>
      </trkpt>
      <trkpt lat="45.57505" lon="5.9646">
        <ele>305</ele>
        <time>2010-01-01T07:53:12Z</time>
      </trkpt>
      <trkpt lat="45.57497" lon="5.96458">
        <ele>305</ele>
        <time>2010-01-01T07:53:15Z</time>
      </trkpt>
      <trkpt lat="45.57489" lon="5.96452">
        <ele>304</ele>
        <time>2010-01-01T07:53:19Z</time>
      </trkpt>
      <trkpt lat="45.57486" lon="5.96446">
        <ele>304</ele>
        <time>2010-01-01T07:53:21Z</time>
      </trkpt>
      <trkpt lat="45.57489" lon="5.96433">
        <ele>304</ele>
        <time>2010-01-01T07:53:25Z</time>
      </trkpt>
      <trkpt lat="45.57482" lon="5.96386">
        <ele>303</ele>
        <time>2010-01-01T07:53:38Z</time>
      </trkpt>
      <trkpt lat="45.57486" lon="5.96375">
        <ele>303</ele>
        <time>2010-01-01T07:53:42Z</time>
      </trkpt>
      <trkpt lat="45.57486" lon="5.96369">
        <ele>303</ele>
        <time>2010-01-01T07:53:43Z</time>
      </trkpt>
      <trkpt lat="45.57482" lon="5.96351">
        <ele>304</ele>
        <time>2010-01-01T07:53:49Z</time>
      </trkpt>
      <trkpt lat="45.57444" lon="5.96217">
        <ele>303</ele>
        <time>2010-01-01T07:54:29Z</time>
      </trkpt>
      <trkpt lat="45.57435" lon="5.96174">
        <ele>303</ele>
        <time>2010-01-01T07:54:42Z</time>
      </trkpt>
      <trkpt lat="45.57433" lon="5.96158">
        <ele>302</ele>
        <time>2010-01-01T07:54:46Z</time>
      </trkpt>
      <trkpt lat="45.57419" lon="5.96115">
        <ele>301</ele>
        <time>2010-01-01T07:55:00Z</time>
      </trkpt>
      <trkpt lat="45.57347" lon="5.95833">
        <ele>299</ele>
        <time>2010-01-01T07:56:24Z</time>
      </trkpt>
      <trkpt lat="45.57341" lon="5.95817">
        <ele>299</ele>
        <time>2010-01-01T07:56:29Z</time>
      </trkpt>
      <trkpt lat="45.5733" lon="5.95796">
        <ele>299</ele>
        <time>2010-01-01T07:56:36Z</time>
      </trkpt>
      <trkpt lat="45.57315" lon="5.95774">
        <ele>299</ele>
        <time>2010-01-01T07:56:45Z</time>
      </trkpt>
      <trkpt lat="45.57312" lon="5.95775">
        <ele>299</ele>
        <time>2010-01-01T07:56:46Z</time>
      </trkpt>
      <trkpt lat="45.57303" lon="5.95794">
        <ele>299</ele>
        <time>2010-01-01T07:56:53Z</time>
      </trkpt>
      <trkpt lat="45.57297" lon="5.95799">
        <ele>299</ele>
        <time>2010-01-01T07:56:55Z</time>
      </trkpt>
      <trkpt lat="45.57288" lon="5.95796">
        <ele>299</ele>
        <time>2010-01-01T07:56:59Z</time>
      </trkpt>
      <trkpt lat="45.57258" lon="5.95752">
        <ele>299</ele>
        <time>2010-01-01T07:57:16Z</time>
      </trkpt>
      <trkpt lat="45.57249" lon="5.95747">
        <ele>298</ele>
        <time>2010-01-01T07:57:20Z</time>
      </trkpt>
      <trkpt lat="45.57232" lon="5.95746">
        <ele>299</ele>
        <time>2010-01-01T07:57:27Z</time>
      </trkpt>
      <trkpt lat="45.57223" lon="5.95738">
        <ele>299</ele>
        <time>2010-01-01T07:57:31Z</time>
      </trkpt>
      <trkpt lat="45.57214" lon="5.95705">
        <ele>298</ele>
        <time>2010-01-01T07:57:41Z</time>
      </trkpt>
      <trkpt lat="45.57206" lon="5.95659">
        <ele>299</ele>
        <time>2010-01-01T07:57:54Z</time>
      </trkpt>
      <trkpt lat="45.57193" lon="5.95626">
        <ele>300</ele>
        <time>2010-01-01T07:58:05Z</time>
      </trkpt>
      <trkpt lat="45.57171" lon="5.95506">
        <ele>295</ele>
        <time>2010-01-01T07:58:40Z</time>
      </trkpt>
      <trkpt lat="45.5714" lon="5.95294">
        <ele>294</ele>
        <time>2010-01-01T07:59:40Z</time>
      </trkpt>
      <trkpt lat="45.57132" lon="5.95229">
        <ele>294</ele>
        <time>2010-01-01T07:59:59Z</time>
      </trkpt>
      <trkpt lat="45.57096" lon="5.94976">
        <ele>292</ele>
        <time>2010-01-01T08:01:11Z</time>
      </trkpt>
      <trkpt lat="45.57079" lon="5.94875">
        <ele>290</ele>
        <time>2010-01-01T08:01:40Z</time>
      </trkpt>
      <trkpt lat="45.57068" lon="5.94785">
        <ele>290</ele>
        <time>2010-01-01T08:02:06Z</time>
      </trkpt>
      <trkpt lat="45.57062" lon="5.94755">
        <ele>290</ele>
        <time>2010-01-01T08:02:15Z</time>
      </trkpt>
      <trkpt lat="45.56981" lon="5.94491">
        <ele>287</ele>
        <time>2010-01-01T08:03:35Z</time>
      </trkpt>
      <trkpt lat="45.56969" lon="5.9444">
        <ele>286</ele>
        <time>2010-01-01T08:03:51Z</time>
      </trkpt>
      <trkpt lat="45.56867" lon="5.94103">
        <ele>284</ele>
        <time>2010-01-01T08:05:33Z</time>
      </trkpt>
      <trkpt lat="45.56845" lon="5.94022">
        <ele>282</ele>
        <time>2010-01-01T08:05:58Z</time>
      </trkpt>
      <trkpt lat="45.56829" lon="5.93947">
        <ele>279</ele>
        <time>2010-01-01T08:06:20Z</time>
      </trkpt>
      <trkpt lat="45.56816" lon="5.93885">
        <ele>279</ele>
        <time>2010-01-01T08:06:38Z</time>
      </trkpt>
      <trkpt lat="45.56813" lon="5.93853">
        <ele>280</ele>
        <time>2010-01-01T08:06:47Z</time>
      </trkpt>
      <trkpt lat="45.56828" lon="5.93752">
        <ele>282</ele>
        <time>2010-01-01T08:07:16Z</time>
      </trkpt>
      <trkpt lat="45.56835" lon="5.93658">
        <ele>283</ele>
        <time>2010-01-01T08:07:42Z</time>
      </trkpt>
      <trkpt lat="45.56837" lon="5.93598">
        <ele>284</ele>
        <time>2010-01-01T08:07:59Z</time>
      </trkpt>
      <trkpt lat="45.56826" lon="5.93385">
        <ele>281</ele>
        <time>2010-01-01T08:08:59Z</time>
      </trkpt>
      <trkpt lat="45.56828" lon="5.93378">
        <ele>281</ele>
        <time>2010-01-01T08:09:01Z</time>
      </trkpt>
      <trkpt lat="45.56839" lon="5.93369">
        <ele>281</ele>
        <time>2010-01-01T08:09:06Z</time>
      </trkpt>
      <trkpt lat="45.5684" lon="5.93361">
        <ele>281</ele>
        <time>2010-01-01T08:09:09Z</time>
      </trkpt>
      <trkpt lat="45.56839" lon="5.93354">
        <ele>281</ele>
        <time>2010-01-01T08:09:11Z</time>
      </trkpt>
      <trkpt lat="45.56828" lon="5.93356">
        <ele>281</ele>
        <time>2010-01-01T08:09:15Z</time>
      </trkpt>
      <trkpt lat="45.56793" lon="5.93347">
        <ele>281</ele>
        <time>2010-01-01T08:09:29Z</time>
      </trkpt>
      <trkpt lat="45.56756" lon="5.93352">
        <ele>281</ele>
        <time>2010-01-01T08:09:44Z</time>
      </trkpt>
      <trkpt lat="45.56752" lon="5.93358">
        <ele>281</ele>
        <time>2010-01-01T08:09:46Z</time>
      </trkpt>
      <trkpt lat="45.56752" lon="5.93366">
        <ele>282</ele>
        <time>2010-01-01T08:09:49Z</time>
      </trkpt>
      <trkpt lat="45.56748" lon="5.93369">
        <ele>282</ele>
        <time>2010-01-01T08:09:50Z</time>
      </trkpt>
      <trkpt lat="45.56653" lon="5.93385">
        <ele>282</ele>
        <time>2010-01-01T08:10:29Z</time>
      </trkpt>
      <trkpt lat="45.56643" lon="5.93391">
        <ele>282</ele>
        <time>2010-01-01T08:10:33Z</time>
      </trkpt>
      <trkpt lat="45.5663" lon="5.93408">
        <ele>282</ele>
        <time>2010-01-01T08:10:40Z</time>
      </trkpt>
      <trkpt lat="45.56624" lon="5.934">
        <ele>282</ele>
        <time>2010-01-01T08:10:43Z</time>
      </trkpt>
      <trkpt lat="45.56619" lon="5.93399">
        <ele>282</ele>
        <time>2010-01-01T08:10:45Z</time>
      </trkpt>
      <trkpt lat="45.56618" lon="5.93361">
        <ele>282</ele>
        <time>2010-01-01T08:10:56Z</time>
      </trkpt>
      <trkpt lat="45.56619" lon="5.93309">
        <ele>281</ele>
        <time>2010-01-01T08:11:11Z</time>
      </trkpt>
      <trkpt lat="45.56629" lon="5.93122">
        <ele>282</ele>
        <time>2010-01-01T08:12:03Z</time>
      </trkpt>
      <trkpt lat="45.56634" lon="5.92962">
        <ele>280</ele>
        <time>2010-01-01T08:12:48Z</time>
      </trkpt>
      <trkpt lat="45.56637" lon="5.92951">
        <ele>280</ele>
        <time>2010-01-01T08:12:51Z</time>
      </trkpt>
      <trkpt lat="45.56637" lon="5.92911">
        <ele>279</ele>
        <time>2010-01-01T08:13:03Z</time>
      </trkpt>
      <trkpt lat="45.5664" lon="5.92901">
        <ele>280</ele>
        <time>2010-01-01T08:13:06Z</time>
      </trkpt>
      <trkpt lat="45.5664" lon="5.92879">
        <ele>280</ele>
        <time>2010-01-01T08:13:12Z</time>
      </trkpt>
      <trkpt lat="45.56645" lon="5.92862">
        <ele>281</ele>
        <time>2010-01-01T08:13:17Z</time>
      </trkpt>
      <trkpt lat="45.56645" lon="5.92844">
        <ele>282</ele>
        <time>2010-01-01T08:13:22Z</time>
      </trkpt>
      <trkpt lat="45.5665" lon="5.92838">
        <ele>282</ele>
        <time>2010-01-01T08:13:25Z</time>
      </trkpt>
      <trkpt lat="45.56652" lon="5.92829">
        <ele>283</ele>
        <time>2010-01-01T08:13:27Z</time>
      </trkpt>
      <trkpt lat="45.56654" lon="5.92781">
        <ele>282</ele>
        <time>2010-01-01T08:13:41Z</time>
      </trkpt>
      <trkpt lat="45.5665" lon="5.92768">
        <ele>281</ele>
        <time>2010-01-01T08:13:45Z</time>
      </trkpt>
      <trkpt lat="45.56649" lon="5.92759">
        <ele>280</ele>
        <time>2010-01-01T08:13:47Z</time>
      </trkpt>
      <trkpt lat="45.56651" lon="5.92746">
        <ele>279</ele>
        <time>2010-01-01T08:13:51Z</time>
      </trkpt>
      <trkpt lat="45.56651" lon="5.92646">
        <ele>277</ele>
        <time>2010-01-01T08:14:19Z</time>
      </trkpt>
      <trkpt lat="45.56649" lon="5.92589">
        <ele>277</ele>
        <time>2010-01-01T08:14:35Z</time>
      </trkpt>
      <trkpt lat="45.56646" lon="5.92563">
        <ele>278</ele>
        <time>2010-01-01T08:14:42Z</time>
      </trkpt>
      <trkpt lat="45.56732" lon="5.92485">
        <ele>282</ele>
        <time>2010-01-01T08:15:23Z</time>
      </trkpt>
      <trkpt lat="45.56728" lon="5.92438">
        <ele>282</ele>
        <time>2010-01-01T08:15:37Z</time>
      </trkpt>
      <trkpt lat="45.56727" lon="5.92416">
        <ele>282</ele>
        <time>2010-01-01T08:15:43Z</time>
      </trkpt>
      <trkpt lat="45.56728" lon="5.92397">
        <ele>282</ele>
        <time>2010-01-01T08:15:48Z</time>
      </trkpt>
      <trkpt lat="45.56734" lon="5.92358">
        <ele>282</ele>
        <time>2010-01-01T08:15:59Z</time>
      </trkpt>
      <trkpt lat="45.56741" lon="5.92335">
        <ele>282</ele>
        <time>2010-01-01T08:16:06Z</time>
      </trkpt>
      <trkpt lat="45.56758" lon="5.92292">
        <ele>283</ele>
        <time>2010-01-01T08:16:20Z</time>
      </trkpt>
      <trkpt lat="45.56778" lon="5.9225">
        <ele>285</ele>
        <time>2010-01-01T08:16:34Z</time>
      </trkpt>
      <trkpt lat="45.56827" lon="5.92127">
        <ele>280</ele>
        <time>2010-01-01T08:17:14Z</time>
      </trkpt>
      <trkpt lat="45.5683" lon="5.92131">
        <ele>280</ele>
        <time>2010-01-01T08:17:16Z</time>
      </trkpt>
      <trkpt lat="45.56847" lon="5.92143">
        <ele>280</ele>
        <time>2010-01-01T08:17:23Z</time>
      </trkpt>
      <trkpt lat="45.56882" lon="5.9211">
        <ele>280</ele>
        <time>2010-01-01T08:17:40Z</time>
      </trkpt>
      <trkpt lat="45.56992" lon="5.92027">
        <ele>274</ele>
        <time>2010-01-01T08:18:30Z</time>
      </trkpt>
      <trkpt lat="45.56978" lon="5.91992">
        <ele>276</ele>
        <time>2010-01-01T08:18:41Z</time>
      </trkpt>
      <trkpt lat="45.57044" lon="5.91939">
        <ele>273</ele>
        <time>2010-01-01T08:19:11Z</time>
      </trkpt>
      <trkpt lat="45.57008" lon="5.91848">
        <ele>278</ele>
        <time>2010-01-01T08:19:41Z</time>
      </trkpt>
      <trkpt lat="45.57024" lon="5.91831">
        <ele>278</ele>
        <time>2010-01-01T08:19:49Z</time>
      </trkpt>
      <trkpt lat="45.57052" lon="5.91797">
        <ele>277</ele>
        <time>2010-01-01T08:20:03Z</time>
      </trkpt>
      <trkpt lat="45.57057" lon="5.91799">
        <ele>276</ele>
        <time>2010-01-01T08:20:05Z</time>
      </trkpt>
      <trkpt lat="45.57063" lon="5.91799">
        <ele>276</ele>
        <time>2010-01-01T08:20:08Z</time>
      </trkpt>
      <trkpt lat="45.5707" lon="5.91794">
        <ele>275</ele>
        <time>2010-01-01T08:20:11Z</time>
      </trkpt>
      <trkpt lat="45.57075" lon="5.91785">
        <ele>275</ele>
        <time>2010-01-01T08:20:14Z</time>
      </trkpt>
      <trkpt lat="45.57082" lon="5.91781">
        <ele>274</ele>
        <time>2010-01-01T08:20:17Z</time>
      </trkpt>
      <trkpt lat="45.57149" lon="5.91725">
        <ele>272</ele>
        <time>2010-01-01T08:20:48Z</time>
      </trkpt>
      <trkpt lat="45.57307" lon="5.91611">
        <ele>271</ele>
        <time>2010-01-01T08:21:59Z</time>
      </trkpt>
      <trkpt lat="45.57342" lon="5.91589">
        <ele>270</ele>
        <time>2010-01-01T08:22:14Z</time>
      </trkpt>
      <trkpt lat="45.5731" lon="5.91417">
        <ele>271</ele>
        <time>2010-01-01T08:23:04Z</time>
      </trkpt>
      <trkpt lat="45.57365" lon="5.91362">
        <ele>269</ele>
        <time>2010-01-01T08:23:31Z</time>
      </trkpt>
      <trkpt lat="45.57487" lon="5.91259">
        <ele>267</ele>
        <time>2010-01-01T08:24:28Z</time>
      </trkpt>
      <trkpt lat="45.57495" lon="5.91247">
        <ele>267</ele>
        <time>2010-01-01T08:24:33Z</time>
      </trkpt>
      <trkpt lat="45.575" lon="5.91235">
        <ele>267</ele>
        <time>2010-01-01T08:24:37Z</time>
      </trkpt>
      <trkpt lat="45.57503" lon="5.91235">
        <ele>267</ele>
        <time>2010-01-01T08:24:38Z</time>
      </trkpt>
      <trkpt lat="45.57506" lon="5.91233">
        <ele>267</ele>
        <time>2010-01-01T08:24:39Z</time>
      </trkpt>
      <trkpt lat="45.57507" lon="5.91229">
        <ele>267</ele>
        <time>2010-01-01T08:24:40Z</time>
      </trkpt>
      <trkpt lat="45.57506" lon="5.91225">
        <ele>267</ele>
        <time>2010-01-01T08:24:41Z</time>
      </trkpt>
      <trkpt lat="45.575" lon="5.91223">
        <ele>267</ele>
        <time>2010-01-01T08:24:44Z</time>
      </trkpt>
      <trkpt lat="45.57501" lon="5.91212">
        <ele>267</ele>
        <time>2010-01-01T08:24:47Z</time>
      </trkpt>
      <trkpt lat="45.5752" lon="5.91094">
        <ele>268</ele>
        <time>2010-01-01T08:25:21Z</time>
      </trkpt>
      <trkpt lat="45.57525" lon="5.91051">
        <ele>268</ele>
        <time>2010-01-01T08:25:33Z</time>
      </trkpt>
      <trkpt lat="45.57545" lon="5.91054">
        <ele>268</ele>
        <time>2010-01-01T08:25:41Z</time>
      </trkpt>
      <trkpt lat="45.57549" lon="5.9106">
        <ele>268</ele>
        <time>2010-01-01T08:25:43Z</time>
      </trkpt>
      <trkpt lat="45.57686" lon="5.91063">
        <ele>266</ele>
        <time>2010-01-01T08:26:38Z</time>
      </trkpt>
      <trkpt lat="45.57753" lon="5.91061">
        <ele>267</ele>
        <time>2010-01-01T08:27:05Z</time>
      </trkpt>
      <trkpt lat="45.57767" lon="5.91053">
        <ele>266</ele>
        <time>2010-01-01T08:27:11Z</time>
      </trkpt>
      <trkpt lat="45.57841" lon="5.90945">
        <ele>267</ele>
        <time>2010-01-01T08:27:54Z</time>
      </trkpt>
      <trkpt lat="45.57847" lon="5.90938">
        <ele>267</ele>
        <time>2010-01-01T08:27:57Z</time>
      </trkpt>
      <trkpt lat="45.57849" lon="5.90931">
        <ele>267</ele>
        <time>2010-01-01T08:27:59Z</time>
      </trkpt>
      <trkpt lat="45.57864" lon="5.90921">
        <ele>267</ele>
        <time>2010-01-01T08:28:05Z</time>
      </trkpt>
      <trkpt lat="45.57868" lon="5.9091">
        <ele>266</ele>
        <time>2010-01-01T08:28:09Z</time>
      </trkpt>
      <trkpt lat="45.57868" lon="5.90896">
        <ele>266</ele>
        <time>2010-01-01T08:28:13Z</time>
      </trkpt>
      <trkpt lat="45.57874" lon="5.9089">
        <ele>266</ele>
        <time>2010-01-01T08:28:16Z</time>
      </trkpt>
      <trkpt lat="45.57883" lon="5.90896">
        <ele>266</ele>
        <time>2010-01-01T08:28:20Z</time>
      </trkpt>
      <trkpt lat="45.57936" lon="5.90904">
        <ele>266</ele>
        <time>2010-01-01T08:28:41Z</time>
      </trkpt>
      <trkpt lat="45.57954" lon="5.90903">
        <ele>265</ele>
        <time>2010-01-01T08:28:48Z</time>
      </trkpt>
      <trkpt lat="45.58073" lon="5.90885">
        <ele>264</ele>
        <time>2010-01-01T08:29:36Z</time>
      </trkpt>
      <trkpt lat="45.58065" lon="5.90778">
        <ele>263</ele>
        <time>2010-01-01T08:30:06Z</time>
      </trkpt>
      <trkpt lat="45.582" lon="5.90725">
        <ele>263</ele>
        <time>2010-01-01T08:31:02Z</time>
      </trkpt>
      <trkpt lat="45.58219" lon="5.90703">
        <ele>262</ele>
        <time>2010-01-01T08:31:12Z</time>
      </trkpt>
      <trkpt lat="45.58252" lon="5.90689">
        <ele>263</ele>
        <time>2010-01-01T08:31:26Z</time>
      </trkpt>
      <trkpt lat="45.58266" lon="5.90684">
        <ele>263</ele>
        <time>2010-01-01T08:31:32Z</time>
      </trkpt>
      <trkpt lat="45.58338" lon="5.90667">
        <ele>263</ele>
        <time>2010-01-01T08:32:01Z</time>
      </trkpt>
      <trkpt lat="45.58385" lon="5.90651">
        <ele>262</ele>
        <time>2010-01-01T08:32:20Z</time>
      </trkpt>
      <trkpt lat="45.58418" lon="5.90648">
        <ele>262</ele>
        <time>2010-01-01T08:32:33Z</time>
      </trkpt>
      <trkpt lat="45.58434" lon="5.90636">
        <ele>261</ele>
        <time>2010-01-01T08:32:41Z</time>
      </trkpt>
      <trkpt lat="45.58489" lon="5.90549">
        <ele>259</ele>
        <time>2010-01-01T08:33:14Z</time>
      </trkpt>
      <trkpt lat="45.58513" lon="5.90517">
        <ele>260</ele>
        <time>2010-01-01T08:33:27Z</time>
      </trkpt>
      <trkpt lat="45.58617" lon="5.90419">
        <ele>261</ele>
        <time>2010-01-01T08:34:17Z</time>
      </trkpt>
      <trkpt lat="45.58683" lon="5.90321">
        <ele>264</ele>
        <time>2010-01-01T08:34:55Z</time>
      </trkpt>
      <trkpt lat="45.58845" lon="5.90104">
        <ele>260</ele>
        <time>2010-01-01T08:36:24Z</time>
      </trkpt>
      <trkpt lat="45.58882" lon="5.90073">
        <ele>258</ele>
        <time>2010-01-01T08:36:41Z</time>
      </trkpt>
      <trkpt lat="45.58893" lon="5.9006">
        <ele>256</ele>
        <time>2010-01-01T08:36:46Z</time>
      </trkpt>
      <trkpt lat="45.58899" lon="5.90051">
        <ele>256</ele>
        <time>2010-01-01T08:36:50Z</time>
      </trkpt>
      <trkpt lat="45.58912" lon="5.90018">
        <ele>257</ele>
        <time>2010-01-01T08:37:01Z</time>
      </trkpt>
      <trkpt lat="45.58953" lon="5.89956">
        <ele>256</ele>
        <time>2010-01-01T08:37:24Z</time>
      </trkpt>
      <trkpt lat="45.59031" lon="5.89852">
        <ele>256</ele>
        <time>2010-01-01T08:38:07Z</time>
      </trkpt>
      <trkpt lat="45.59072" lon="5.89794">
        <ele>256</ele>
        <time>2010-01-01T08:38:30Z</time>
      </trkpt>
      <trkpt lat="45.59119" lon="5.89737">
        <ele>254</ele>
        <time>2010-01-01T08:38:55Z</time>
      </trkpt>
      <trkpt lat="45.59147" lon="5.89712">
        <ele>255</ele>
        <time>2010-01-01T08:39:08Z</time>
      </trkpt>
      <trkpt lat="45.5922" lon="5.89605">
        <ele>257</ele>
        <time>2010-01-01T08:39:50Z</time>
      </trkpt>
      <trkpt lat="45.59351" lon="5.89423">
        <ele>256</ele>
        <time>2010-01-01T08:41:03Z</time>
      </trkpt>
      <trkpt lat="45.59421" lon="5.89338">
        <ele>255</ele>
        <time>2010-01-01T08:41:40Z</time>
      </trkpt>
      <trkpt lat="45.59456" lon="5.89299">
        <ele>253</ele>
        <time>2010-01-01T08:41:58Z</time>
      </trkpt>
      <trkpt lat="45.59493" lon="5.89281">
        <ele>255</ele>
        <time>2010-01-01T08:42:13Z</time>
      </trkpt>
      <trkpt lat="45.59517" lon="5.89272">
        <ele>255</ele>
        <time>2010-01-01T08:42:23Z</time>
      </trkpt>
      <trkpt lat="45.59582" lon="5.89255">
        <ele>254</ele>
        <time>2010-01-01T08:42:50Z</time>
      </trkpt>
      <trkpt lat="45.59615" lon="5.8925">
        <ele>253</ele>
        <time>2010-01-01T08:43:03Z</time>
      </trkpt>
      <trkpt lat="45.59635" lon="5.89249">
        <ele>253</ele>
        <time>2010-01-01T08:43:11Z</time>
      </trkpt>
      <trkpt lat="45.597" lon="5.89228">
        <ele>254</ele>
        <time>2010-01-01T08:43:38Z</time>
      </trkpt>
      <trkpt lat="45.59784" lon="5.89182">
        <ele>253</ele>
        <time>2010-01-01T08:44:14Z</time>
      </trkpt>
      <trkpt lat="45.59864" lon="5.89142">
        <ele>255</ele>
        <time>2010-01-01T08:44:48Z</time>
      </trkpt>
      <trkpt lat="45.60007" lon="5.89085">
        <ele>254</ele>
        <time>2010-01-01T08:45:47Z</time>
      </trkpt>
      <trkpt lat="45.60052" lon="5.89062">
        <ele>254</ele>
        <time>2010-01-01T08:46:06Z</time>
      </trkpt>
      <trkpt lat="45.60097" lon="5.89022">
        <ele>254</ele>
        <time>2010-01-01T08:46:27Z</time>
      </trkpt>
      <trkpt lat="45.60137" lon="5.88973">
        <ele>254</ele>
        <time>2010-01-01T08:46:48Z</time>
      </trkpt>
      <trkpt lat="45.60171" lon="5.88937">
        <ele>253</ele>
        <time>2010-01-01T08:47:05Z</time>
      </trkpt>
      <trkpt lat="45.60218" lon="5.88879">
        <ele>250</ele>
        <time>2010-01-01T08:47:30Z</time>
      </trkpt>
      <trkpt lat="45.60219" lon="5.88878">
        <ele>250</ele>
        <time>2010-01-01T08:47:31Z</time>
      </trkpt>
      <trkpt lat="45.60229" lon="5.88896">
        <ele>250</ele>
        <time>2010-01-01T08:47:37Z</time>
      </trkpt>
      <trkpt lat="45.60238" lon="5.88908">
        <ele>250</ele>
        <time>2010-01-01T08:47:42Z</time>
      </trkpt>
      <trkpt lat="45.6024" lon="5.88908">
        <ele>250</ele>
        <time>2010-01-01T08:47:43Z</time>
      </trkpt>
      <trkpt lat="45.60259" lon="5.88891">
        <ele>250</ele>
        <time>2010-01-01T08:47:52Z</time>
      </trkpt>
      <trkpt lat="45.60301" lon="5.88844">
        <ele>253</ele>
        <time>2010-01-01T08:48:13Z</time>
      </trkpt>
      <trkpt lat="45.60427" lon="5.88701">
        <ele>251</ele>
        <time>2010-01-01T08:49:18Z</time>
      </trkpt>
      <trkpt lat="45.60468" lon="5.88659">
        <ele>249</ele>
        <time>2010-01-01T08:49:38Z</time>
      </trkpt>
      <trkpt lat="45.60512" lon="5.88632">
        <ele>249</ele>
        <time>2010-01-01T08:49:57Z</time>
      </trkpt>
      <trkpt lat="45.60556" lon="5.88612">
        <ele>250</ele>
        <time>2010-01-01T08:50:15Z</time>
      </trkpt>
      <trkpt lat="45.60573" lon="5.88609">
        <ele>250</ele>
        <time>2010-01-01T08:50:22Z</time>
      </trkpt>
      <trkpt lat="45.60584" lon="5.88598">
        <ele>250</ele>
        <time>2010-01-01T08:50:28Z</time>
      </trkpt>
      <trkpt lat="45.6061" lon="5.88587">
        <ele>250</ele>
        <time>2010-01-01T08:50:39Z</time>
      </trkpt>
      <trkpt lat="45.60623" lon="5.88577">
        <ele>250</ele>
        <time>2010-01-01T08:50:44Z</time>
      </trkpt>
      <trkpt lat="45.60647" lon="5.88565">
        <ele>250</ele>
        <time>2010-01-01T08:50:55Z</time>
      </trkpt>
      <trkpt lat="45.60796" lon="5.88496">
        <ele>250</ele>
        <time>2010-01-01T08:51:57Z</time>
      </trkpt>
      <trkpt lat="45.60875" lon="5.88462">
        <ele>250</ele>
        <time>2010-01-01T08:52:30Z</time>
      </trkpt>
      <trkpt lat="45.60975" lon="5.88414">
        <ele>248</ele>
        <time>2010-01-01T08:53:13Z</time>
      </trkpt>
      <trkpt lat="45.61034" lon="5.88387">
        <ele>248</ele>
        <time>2010-01-01T08:53:37Z</time>
      </trkpt>
      <trkpt lat="45.61148" lon="5.88354">
        <ele>248</ele>
        <time>2010-01-01T08:54:24Z</time>
      </trkpt>
      <trkpt lat="45.61216" lon="5.8834">
        <ele>248</ele>
        <time>2010-01-01T08:54:51Z</time>
      </trkpt>
      <trkpt lat="45.61287" lon="5.88335">
        <ele>249</ele>
        <time>2010-01-01T08:55:20Z</time>
      </trkpt>
      <trkpt lat="45.61448" lon="5.88336">
        <ele>246</ele>
        <time>2010-01-01T08:56:24Z</time>
      </trkpt>
      <trkpt lat="45.61499" lon="5.88333">
        <ele>248</ele>
        <time>2010-01-01T08:56:45Z</time>
      </trkpt>
      <trkpt lat="45.61556" lon="5.88335">
        <ele>247</ele>
        <time>2010-01-01T08:57:08Z</time>
      </trkpt>
      <trkpt lat="45.61594" lon="5.88331">
        <ele>245</ele>
        <time>2010-01-01T08:57:23Z</time>
      </trkpt>
      <trkpt lat="45.61631" lon="5.88312">
        <ele>243</ele>
        <time>2010-01-01T08:57:39Z</time>
      </trkpt>
      <trkpt lat="45.61649" lon="5.88299">
        <ele>243</ele>
        <time>2010-01-01T08:57:47Z</time>
      </trkpt>
      <trkpt lat="45.61673" lon="5.88277">
        <ele>245</ele>
        <time>2010-01-01T08:57:58Z</time>
      </trkpt>
      <trkpt lat="45.61688" lon="5.88258">
        <ele>245</ele>
        <time>2010-01-01T08:58:06Z</time>
      </trkpt>
      <trkpt lat="45.61712" lon="5.8822">
        <ele>245</ele>
        <time>2010-01-01T08:58:20Z</time>
      </trkpt>
      <trkpt lat="45.61758" lon="5.88133">
        <ele>246</ele>
        <time>2010-01-01T08:58:51Z</time>
      </trkpt>
      <trkpt lat="45.61783" lon="5.88098">
        <ele>247</ele>
        <time>2010-01-01T08:59:05Z</time>
      </trkpt>
      <trkpt lat="45.61819" lon="5.88063">
        <ele>249</ele>
        <time>2010-01-01T08:59:22Z</time>
      </trkpt>
      <trkpt lat="45.61863" lon="5.88024">
        <ele>245</ele>
        <time>2010-01-01T08:59:43Z</time>
      </trkpt>
      <trkpt lat="45.62001" lon="5.87884">
        <ele>245</ele>
        <time>2010-01-01T09:00:51Z</time>
      </trkpt>
      <trkpt lat="45.62092" lon="5.878">
        <ele>242</ele>
        <time>2010-01-01T09:01:34Z</time>
      </trkpt>
      <trkpt lat="45.62175" lon="5.8772">
        <ele>241</ele>
        <time>2010-01-01T09:02:14Z</time>
      </trkpt>
      <trkpt lat="45.622" lon="5.87686">
        <ele>241</ele>
        <time>2010-01-01T09:02:28Z</time>
      </trkpt>
      <trkpt lat="45.62232" lon="5.87654">
        <ele>243</ele>
        <time>2010-01-01T09:02:44Z</time>
      </trkpt>
      <trkpt lat="45.62373" lon="5.87503">
        <ele>240</ele>
        <time>2010-01-01T09:03:54Z</time>
      </trkpt>
      <trkpt lat="45.62454" lon="5.87431">
        <ele>243</ele>
        <time>2010-01-01T09:04:32Z</time>
      </trkpt>
      <trkpt lat="45.62506" lon="5.87389">
        <ele>241</ele>
        <time>2010-01-01T09:04:56Z</time>
      </trkpt>
      <trkpt lat="45.62555" lon="5.87346">
        <ele>241</ele>
        <time>2010-01-01T09:05:19Z</time>
      </trkpt>
      <trkpt lat="45.62595" lon="5.87327">
        <ele>241</ele>
        <time>2010-01-01T09:05:36Z</time>
      </trkpt>
      <trkpt lat="45.62641" lon="5.87317">
        <ele>241</ele>
        <time>2010-01-01T09:05:55Z</time>
      </trkpt>
      <trkpt lat="45.62685" lon="5.87317">
        <ele>240</ele>
        <time>2010-01-01T09:06:12Z</time>
      </trkpt>
      <trkpt lat="45.62714" lon="5.87325">
        <ele>240</ele>
        <time>2010-01-01T09:06:24Z</time>
      </trkpt>
      <trkpt lat="45.62791" lon="5.87371">
        <ele>239</ele>
        <time>2010-01-01T09:06:58Z</time>
      </trkpt>
      <trkpt lat="45.62839" lon="5.87366">
        <ele>240</ele>
        <time>2010-01-01T09:07:17Z</time>
      </trkpt>
      <trkpt lat="45.62858" lon="5.8736">
        <ele>240</ele>
        <time>2010-01-01T09:07:25Z</time>
      </trkpt>
      <trkpt lat="45.62868" lon="5.87354">
        <ele>241</ele>
        <time>2010-01-01T09:07:29Z</time>
      </trkpt>
      <trkpt lat="45.62934" lon="5.87279">
        <ele>241</ele>
        <time>2010-01-01T09:08:03Z</time>
      </trkpt>
      <trkpt lat="45.62986" lon="5.87226">
        <ele>240</ele>
        <time>2010-01-01T09:08:28Z</time>
      </trkpt>
      <trkpt lat="45.63006" lon="5.87209">
        <ele>240</ele>
        <time>2010-01-01T09:08:38Z</time>
      </trkpt>
      <trkpt lat="45.6302" lon="5.87203">
        <ele>240</ele>
        <time>2010-01-01T09:08:44Z</time>
      </trkpt>
      <trkpt lat="45.63054" lon="5.87201">
        <ele>239</ele>
        <time>2010-01-01T09:08:57Z</time>
      </trkpt>
      <trkpt lat="45.63073" lon="5.87202">
        <ele>239</ele>
        <time>2010-01-01T09:09:05Z</time>
      </trkpt>
      <trkpt lat="45.63088" lon="5.87198">
        <ele>238</ele>
        <time>2010-01-01T09:09:11Z</time>
      </trkpt>
      <trkpt lat="45.6313" lon="5.87182">
        <ele>238</ele>
        <time>2010-01-01T09:09:28Z</time>
      </trkpt>
      <trkpt lat="45.63193" lon="5.87147">
        <ele>240</ele>
        <time>2010-01-01T09:09:55Z</time>
      </trkpt>
      <trkpt lat="45.63229" lon="5.87118">
        <ele>240</ele>
        <time>2010-01-01T09:10:12Z</time>
      </trkpt>
      <trkpt lat="45.63276" lon="5.871">
        <ele>239</ele>
        <time>2010-01-01T09:10:31Z</time>
      </trkpt>
      <trkpt lat="45.63323" lon="5.87096">
        <ele>239</ele>
        <time>2010-01-01T09:10:50Z</time>
      </trkpt>
      <trkpt lat="45.63433" lon="5.87082">
        <ele>240</ele>
        <time>2010-01-01T09:11:34Z</time>
      </trkpt>
      <trkpt lat="45.63463" lon="5.8707">
        <ele>241</ele>
        <time>2010-01-01T09:11:47Z</time>
      </trkpt>
      <trkpt lat="45.6354" lon="5.8702">
        <ele>240</ele>
        <time>2010-01-01T09:12:21Z</time>
      </trkpt>
      <trkpt lat="45.63671" lon="5.86989">
        <ele>241</ele>
        <time>2010-01-01T09:13:14Z</time>
      </trkpt>
      <trkpt lat="45.63757" lon="5.86976">
        <ele>238</ele>
        <time>2010-01-01T09:13:49Z</time>
      </trkpt>
      <trkpt lat="45.6381" lon="5.86974">
        <ele>238</ele>
        <time>2010-01-01T09:14:10Z</time>
      </trkpt>
      <trkpt lat="45.6384" lon="5.86969">
        <ele>241</ele>
        <time>2010-01-01T09:14:22Z</time>
      </trkpt>
      <trkpt lat="45.63903" lon="5.86937">
        <ele>239</ele>
        <time>2010-01-01T09:14:49Z</time>
      </trkpt>
      <trkpt lat="45.63914" lon="5.86923">
        <ele>238</ele>
        <time>2010-01-01T09:14:54Z</time>
      </trkpt>
      <trkpt lat="45.63919" lon="5.86913">
        <ele>238</ele>
        <time>2010-01-01T09:14:58Z</time>
      </trkpt>
      <trkpt lat="45.63927" lon="5.86903">
        <ele>238</ele>
        <time>2010-01-01T09:15:02Z</time>
      </trkpt>
      <trkpt lat="45.63937" lon="5.86897">
        <ele>238</ele>
        <time>2010-01-01T09:15:07Z</time>
      </trkpt>
      <trkpt lat="45.63993" lon="5.86886">
        <ele>240</ele>
        <time>2010-01-01T09:15:29Z</time>
      </trkpt>
      <trkpt lat="45.64023" lon="5.86874">
        <ele>241</ele>
        <time>2010-01-01T09:15:42Z</time>
      </trkpt>
      <trkpt lat="45.64075" lon="5.86848">
        <ele>242</ele>
        <time>2010-01-01T09:16:04Z</time>
      </trkpt>
      <trkpt lat="45.64096" lon="5.86833">
        <ele>241</ele>
        <time>2010-01-01T09:16:13Z</time>
      </trkpt>
      <trkpt lat="45.64156" lon="5.86796">
        <ele>241</ele>
        <time>2010-01-01T09:16:39Z</time>
      </trkpt>
      <trkpt lat="45.64174" lon="5.86781">
        <ele>240</ele>
        <time>2010-01-01T09:16:48Z</time>
      </trkpt>
      <trkpt lat="45.64225" lon="5.86759">
        <ele>237</ele>
        <time>2010-01-01T09:17:09Z</time>
      </trkpt>
      <trkpt lat="45.64347" lon="5.86694">
        <ele>237</ele>
        <time>2010-01-01T09:18:01Z</time>
      </trkpt>
      <trkpt lat="45.64389" lon="5.86676">
        <ele>238</ele>
        <time>2010-01-01T09:18:19Z</time>
      </trkpt>
      <trkpt lat="45.64413" lon="5.86668">
        <ele>238</ele>
        <time>2010-01-01T09:18:28Z</time>
      </trkpt>
      <trkpt lat="45.64404" lon="5.86627">
        <ele>239</ele>
        <time>2010-01-01T09:18:40Z</time>
      </trkpt>
      <trkpt lat="45.64404" lon="5.86621">
        <ele>239</ele>
        <time>2010-01-01T09:18:42Z</time>
      </trkpt>
      <trkpt lat="45.64408" lon="5.86615">
        <ele>239</ele>
        <time>2010-01-01T09:18:44Z</time>
      </trkpt>
      <trkpt lat="45.6449" lon="5.86611">
        <ele>240</ele>
        <time>2010-01-01T09:19:17Z</time>
      </trkpt>
      <trkpt lat="45.64536" lon="5.86591">
        <ele>240</ele>
        <time>2010-01-01T09:19:37Z</time>
      </trkpt>
      <trkpt lat="45.64581" lon="5.86555">
        <ele>239</ele>
        <time>2010-01-01T09:19:57Z</time>
      </trkpt>
      <trkpt lat="45.64619" lon="5.86508">
        <ele>240</ele>
        <time>2010-01-01T09:20:17Z</time>
      </trkpt>
      <trkpt lat="45.64622" lon="5.86514">
        <ele>240</ele>
        <time>2010-01-01T09:20:19Z</time>
      </trkpt>
      <trkpt lat="45.64636" lon="5.86551">
        <ele>240</ele>
        <time>2010-01-01T09:20:31Z</time>
      </trkpt>
      <trkpt lat="45.64639" lon="5.86555">
        <ele>240</ele>
        <time>2010-01-01T09:20:33Z</time>
      </trkpt>
      <trkpt lat="45.64642" lon="5.86554">
        <ele>240</ele>
        <time>2010-01-01T09:20:34Z</time>
      </trkpt>
      <trkpt lat="45.64649" lon="5.86541">
        <ele>240</ele>
        <time>2010-01-01T09:20:39Z</time>
      </trkpt>
      <trkpt lat="45.64654" lon="5.86534">
        <ele>240</ele>
        <time>2010-01-01T09:20:41Z</time>
      </trkpt>
      <trkpt lat="45.64671" lon="5.86523">
        <ele>240</ele>
        <time>2010-01-01T09:20:49Z</time>
      </trkpt>
      <trkpt lat="45.647" lon="5.86491">
        <ele>240</ele>
        <time>2010-01-01T09:21:04Z</time>
      </trkpt>
      <trkpt lat="45.64712" lon="5.86474">
        <ele>240</ele>
        <time>2010-01-01T09:21:10Z</time>
      </trkpt>
      <trkpt lat="45.64716" lon="5.86472">
        <ele>240</ele>
        <time>2010-01-01T09:21:12Z</time>
      </trkpt>
      <trkpt lat="45.64721" lon="5.86471">
        <ele>240</ele>
        <time>2010-01-01T09:21:14Z</time>
      </trkpt>
      <trkpt lat="45.64757" lon="5.86482">
        <ele>238</ele>
        <time>2010-01-01T09:21:29Z</time>
      </trkpt>
      <trkpt lat="45.64767" lon="5.86497">
        <ele>237</ele>
        <time>2010-01-01T09:21:35Z</time>
      </trkpt>
      <trkpt lat="45.64774" lon="5.86512">
        <ele>236</ele>
        <time>2010-01-01T09:21:40Z</time>
      </trkpt>
      <trkpt lat="45.64778" lon="5.86515">
        <ele>236</ele>
        <time>2010-01-01T09:21:41Z</time>
      </trkpt>
      <trkpt lat="45.64799" lon="5.86523">
        <ele>235</ele>
        <time>2010-01-01T09:21:50Z</time>
      </trkpt>
      <trkpt lat="45.64816" lon="5.86532">
        <ele>234</ele>
        <time>2010-01-01T09:21:57Z</time>
      </trkpt>
      <trkpt lat="45.64826" lon="5.8651">
        <ele>234</ele>
        <time>2010-01-01T09:22:05Z</time>
      </trkpt>
      <trkpt lat="45.64833" lon="5.86501">
        <ele>234</ele>
        <time>2010-01-01T09:22:08Z</time>
      </trkpt>
      <trkpt lat="45.64837" lon="5.86498">
        <ele>234</ele>
        <time>2010-01-01T09:22:10Z</time>
      </trkpt>
      <trkpt lat="45.6489" lon="5.86505">
        <ele>235</ele>
        <time>2010-01-01T09:22:32Z</time>
      </trkpt>
      <trkpt lat="45.6493" lon="5.86499">
        <ele>235</ele>
        <time>2010-01-01T09:22:48Z</time>
      </trkpt>
      <trkpt lat="45.64979" lon="5.86482">
        <ele>236</ele>
        <time>2010-01-01T09:23:08Z</time>
      </trkpt>
      <trkpt lat="45.65013" lon="5.86463">
        <ele>237</ele>
        <time>2010-01-01T09:23:22Z</time>
      </trkpt>
      <trkpt lat="45.65043" lon="5.86437">
        <ele>237</ele>
        <time>2010-01-01T09:23:37Z</time>
      </trkpt>
      <trkpt lat="45.65076" lon="5.86401">
        <ele>238</ele>
        <time>2010-01-01T09:23:53Z</time>
      </trkpt>
      <trkpt lat="45.65124" lon="5.86325">
        <ele>238</ele>
        <time>2010-01-01T09:24:22Z</time>
      </trkpt>
      <trkpt lat="45.65139" lon="5.86288">
        <ele>238</ele>
        <time>2010-01-01T09:24:34Z</time>
      </trkpt>
      <trkpt lat="45.65167" lon="5.86258">
        <ele>237</ele>
        <time>2010-01-01T09:24:48Z</time>
      </trkpt>
      <trkpt lat="45.65145" lon="5.86256">
        <ele>238</ele>
        <time>2010-01-01T09:24:57Z</time>
      </trkpt>
      <trkpt lat="45.65127" lon="5.86248">
        <ele>238</ele>
        <time>2010-01-01T09:25:04Z</time>
      </trkpt>
      <trkpt lat="45.65085" lon="5.86237">
        <ele>238</ele>
        <time>2010-01-01T09:25:21Z</time>
      </trkpt>
      <trkpt lat="45.65084" lon="5.86237">
        <ele>238</ele>
        <time>2010-01-01T09:25:22Z</time>
      </trkpt>
      <trkpt lat="45.65127" lon="5.86248">
        <ele>238</ele>
        <time>2010-01-01T09:25:39Z</time>
      </trkpt>
      <trkpt lat="45.65145" lon="5.86256">
        <ele>238</ele>
        <time>2010-01-01T09:25:47Z</time>
      </trkpt>
      <trkpt lat="45.65167" lon="5.86258">
        <ele>237</ele>
        <time>2010-01-01T09:25:55Z</time>
      </trkpt>
      <trkpt lat="45.65183" lon="5.86221">
        <ele>237</ele>
        <time>2010-01-01T09:26:08Z</time>
      </trkpt>
      <trkpt lat="45.6519" lon="5.86212">
        <ele>237</ele>
        <time>2010-01-01T09:26:11Z</time>
      </trkpt>
      <trkpt lat="45.65213" lon="5.86233">
        <ele>235</ele>
        <time>2010-01-01T09:26:22Z</time>
      </trkpt>
      <trkpt lat="45.65224" lon="5.86232">
        <ele>235</ele>
        <time>2010-01-01T09:26:27Z</time>
      </trkpt>
      <trkpt lat="45.65249" lon="5.86238">
        <ele>235</ele>
        <time>2010-01-01T09:26:37Z</time>
      </trkpt>
      <trkpt lat="45.65261" lon="5.86237">
        <ele>234</ele>
        <time>2010-01-01T09:26:42Z</time>
      </trkpt>
      <trkpt lat="45.65275" lon="5.86234">
        <ele>234</ele>
        <time>2010-01-01T09:26:47Z</time>
      </trkpt>
      <trkpt lat="45.65305" lon="5.86215">
        <ele>235</ele>
        <time>2010-01-01T09:27:01Z</time>
      </trkpt>
      <trkpt lat="45.65312" lon="5.86214">
        <ele>234</ele>
        <time>2010-01-01T09:27:03Z</time>
      </trkpt>
      <trkpt lat="45.65336" lon="5.86218">
        <ele>234</ele>
        <time>2010-01-01T09:27:13Z</time>
      </trkpt>
      <trkpt lat="45.65344" lon="5.86217">
        <ele>234</ele>
        <time>2010-01-01T09:27:16Z</time>
      </trkpt>
      <trkpt lat="45.65378" lon="5.86191">
        <ele>234</ele>
        <time>2010-01-01T09:27:32Z</time>
      </trkpt>
      <trkpt lat="45.65425" lon="5.86175">
        <ele>235</ele>
        <time>2010-01-01T09:27:51Z</time>
      </trkpt>
      <trkpt lat="45.65445" lon="5.86174">
        <ele>235</ele>
        <time>2010-01-01T09:27:59Z</time>
      </trkpt>
      <trkpt lat="45.65486" lon="5.86178">
        <ele>235</ele>
        <time>2010-01-01T09:28:15Z</time>
      </trkpt>
      <trkpt lat="45.65501" lon="5.86182">
        <ele>235</ele>
        <time>2010-01-01T09:28:22Z</time>
      </trkpt>
      <trkpt lat="45.65514" lon="5.86189">
        <ele>235</ele>
        <time>2010-01-01T09:28:27Z</time>
      </trkpt>
      <trkpt lat="45.65522" lon="5.86189">
        <ele>235</ele>
        <time>2010-01-01T09:28:30Z</time>
      </trkpt>
      <trkpt lat="45.65502" lon="5.86043">
        <ele>233</ele>
        <time>2010-01-01T09:29:12Z</time>
      </trkpt>
      <trkpt lat="45.65513" lon="5.85991">
        <ele>234</ele>
        <time>2010-01-01T09:29:27Z</time>
      </trkpt>
      <trkpt lat="45.65513" lon="5.85977">
        <ele>235</ele>
        <time>2010-01-01T09:29:31Z</time>
      </trkpt>
      <trkpt lat="45.65589" lon="5.85942">
        <ele>235</ele>
        <time>2010-01-01T09:30:03Z</time>
      </trkpt>
      <trkpt lat="45.65601" lon="5.85927">
        <ele>236</ele>
        <time>2010-01-01T09:30:09Z</time>
      </trkpt>
      <trkpt lat="45.6563" lon="5.85902">
        <ele>236</ele>
        <time>2010-01-01T09:30:23Z</time>
      </trkpt>
      <trkpt lat="45.65681" lon="5.85859">
        <ele>236</ele>
        <time>2010-01-01T09:30:47Z</time>
      </trkpt>
      <trkpt lat="45.65707" lon="5.8585">
        <ele>237</ele>
        <time>2010-01-01T09:30:57Z</time>
      </trkpt>
      <trkpt lat="45.65737" lon="5.85849">
        <ele>237</ele>
        <time>2010-01-01T09:31:09Z</time>
      </trkpt>
      <trkpt lat="45.65846" lon="5.8587">
        <ele>239</ele>
        <time>2010-01-01T09:31:53Z</time>
      </trkpt>
      <trkpt lat="45.65879" lon="5.8588">
        <ele>238</ele>
        <time>2010-01-01T09:32:07Z</time>
      </trkpt>
      <trkpt lat="45.65894" lon="5.85882">
        <ele>237</ele>
        <time>2010-01-01T09:32:13Z</time>
      </trkpt>
      <trkpt lat="45.65922" lon="5.8588">
        <ele>238</ele>
        <time>2010-01-01T09:32:24Z</time>
      </trkpt>
      <trkpt lat="45.66003" lon="5.85853">
        <ele>237</ele>
        <time>2010-01-01T09:32:57Z</time>
      </trkpt>
      <trkpt lat="45.66014" lon="5.85844">
        <ele>238</ele>
        <time>2010-01-01T09:33:03Z</time>
      </trkpt>
      <trkpt lat="45.66037" lon="5.85836">
        <ele>239</ele>
        <time>2010-01-01T09:33:12Z</time>
      </trkpt>
      <trkpt lat="45.66156" lon="5.85832">
        <ele>236</ele>
        <time>2010-01-01T09:34:00Z</time>
      </trkpt>
      <trkpt lat="45.6617" lon="5.85828">
        <ele>235</ele>
        <time>2010-01-01T09:34:05Z</time>
      </trkpt>
      <trkpt lat="45.66223" lon="5.85805">
        <ele>239</ele>
        <time>2010-01-01T09:34:28Z</time>
      </trkpt>
      <trkpt lat="45.66246" lon="5.85801">
        <ele>237</ele>
        <time>2010-01-01T09:34:37Z</time>
      </trkpt>
      <trkpt lat="45.66283" lon="5.85803">
        <ele>236</ele>
        <time>2010-01-01T09:34:52Z</time>
      </trkpt>
      <trkpt lat="45.66308" lon="5.85802">
        <ele>237</ele>
        <time>2010-01-01T09:35:02Z</time>
      </trkpt>
      <trkpt lat="45.66318" lon="5.85811">
        <ele>236</ele>
        <time>2010-01-01T09:35:06Z</time>
      </trkpt>
      <trkpt lat="45.66347" lon="5.85812">
        <ele>237</ele>
        <time>2010-01-01T09:35:18Z</time>
      </trkpt>
      <trkpt lat="45.66411" lon="5.85836">
        <ele>237</ele>
        <time>2010-01-01T09:35:44Z</time>
      </trkpt>
      <trkpt lat="45.66431" lon="5.85848">
        <ele>235</ele>
        <time>2010-01-01T09:35:53Z</time>
      </trkpt>
      <trkpt lat="45.66435" lon="5.85861">
        <ele>234</ele>
        <time>2010-01-01T09:35:57Z</time>
      </trkpt>
      <trkpt lat="45.66436" lon="5.8587">
        <ele>233</ele>
        <time>2010-01-01T09:36:00Z</time>
      </trkpt>
      <trkpt lat="45.66437" lon="5.85874">
        <ele>233</ele>
        <time>2010-01-01T09:36:01Z</time>
      </trkpt>
      <trkpt lat="45.66444" lon="5.85878">
        <ele>233</ele>
        <time>2010-01-01T09:36:04Z</time>
      </trkpt>
      <trkpt lat="45.6645" lon="5.85876">
        <ele>233</ele>
        <time>2010-01-01T09:36:06Z</time>
      </trkpt>
      <trkpt lat="45.66453" lon="5.85873">
        <ele>233</ele>
        <time>2010-01-01T09:36:08Z</time>
      </trkpt>
      <trkpt lat="45.66467" lon="5.85864">
        <ele>234</ele>
        <time>2010-01-01T09:36:14Z</time>
      </trkpt>
      <trkpt lat="45.66499" lon="5.85875">
        <ele>235</ele>
        <time>2010-01-01T09:36:27Z</time>
      </trkpt>
      <trkpt lat="45.66518" lon="5.85873">
        <ele>236</ele>
        <time>2010-01-01T09:36:35Z</time>
      </trkpt>
      <trkpt lat="45.6654" lon="5.85866">
        <ele>236</ele>
        <time>2010-01-01T09:36:44Z</time>
      </trkpt>
      <trkpt lat="45.66603" lon="5.85833">
        <ele>236</ele>
        <time>2010-01-01T09:37:11Z</time>
      </trkpt>
      <trkpt lat="45.6668" lon="5.85814">
        <ele>235</ele>
        <time>2010-01-01T09:37:42Z</time>
      </trkpt>
      <trkpt lat="45.66703" lon="5.85804">
        <ele>236</ele>
        <time>2010-01-01T09:37:52Z</time>
      </trkpt>
      <trkpt lat="45.66809" lon="5.85745">
        <ele>236</ele>
        <time>2010-01-01T09:38:37Z</time>
      </trkpt>
      <trkpt lat="45.66863" lon="5.85722">
        <ele>243</ele>
        <time>2010-01-01T09:39:00Z</time>
      </trkpt>
      <trkpt lat="45.67053" lon="5.85688">
        <ele>253</ele>
        <time>2010-01-01T09:40:16Z</time>
      </trkpt>
      <trkpt lat="45.67068" lon="5.85676">
        <ele>253</ele>
        <time>2010-01-01T09:40:23Z</time>
      </trkpt>
      <trkpt lat="45.67075" lon="5.85659">
        <ele>255</ele>
        <time>2010-01-01T09:40:29Z</time>
      </trkpt>
      <trkpt lat="45.67091" lon="5.85632">
        <ele>262</ele>
        <time>2010-01-01T09:40:39Z</time>
      </trkpt>
      <trkpt lat="45.67135" lon="5.8563">
        <ele>265</ele>
        <time>2010-01-01T09:40:56Z</time>
      </trkpt>
      <trkpt lat="45.67201" lon="5.85631">
        <ele>270</ele>
        <time>2010-01-01T09:41:23Z</time>
      </trkpt>
      <trkpt lat="45.67327" lon="5.85636">
        <ele>283</ele>
        <time>2010-01-01T09:42:13Z</time>
      </trkpt>
      <trkpt lat="45.67435" lon="5.85652">
        <ele>286</ele>
        <time>2010-01-01T09:42:57Z</time>
      </trkpt>
      <trkpt lat="45.67477" lon="5.85661">
        <ele>285</ele>
        <time>2010-01-01T09:43:14Z</time>
      </trkpt>
      <trkpt lat="45.67495" lon="5.85655">
        <ele>285</ele>
        <time>2010-01-01T09:43:21Z</time>
      </trkpt>
      <trkpt lat="45.6751" lon="5.85642">
        <ele>288</ele>
        <time>2010-01-01T09:43:28Z</time>
      </trkpt>
      <trkpt lat="45.67526" lon="5.85635">
        <ele>288</ele>
        <time>2010-01-01T09:43:35Z</time>
      </trkpt>
      <trkpt lat="45.67538" lon="5.85632">
        <ele>287</ele>
        <time>2010-01-01T09:43:40Z</time>
      </trkpt>
      <trkpt lat="45.67576" lon="5.85616">
        <ele>287</ele>
        <time>2010-01-01T09:43:55Z</time>
      </trkpt>
      <trkpt lat="45.67606" lon="5.85609">
        <ele>289</ele>
        <time>2010-01-01T09:44:08Z</time>
      </trkpt>
      <trkpt lat="45.6763" lon="5.85618">
        <ele>291</ele>
        <time>2010-01-01T09:44:17Z</time>
      </trkpt>
      <trkpt lat="45.6764" lon="5.85629">
        <ele>290</ele>
        <time>2010-01-01T09:44:23Z</time>
      </trkpt>
      <trkpt lat="45.67653" lon="5.85638">
        <ele>289</ele>
        <time>2010-01-01T09:44:28Z</time>
      </trkpt>
      <trkpt lat="45.67668" lon="5.85641">
        <ele>288</ele>
        <time>2010-01-01T09:44:34Z</time>
      </trkpt>
      <trkpt lat="45.67748" lon="5.85632">
        <ele>293</ele>
        <time>2010-01-01T09:45:06Z</time>
      </trkpt>
      <trkpt lat="45.67773" lon="5.85635">
        <ele>292</ele>
        <time>2010-01-01T09:45:17Z</time>
      </trkpt>
      <trkpt lat="45.67871" lon="5.85661">
        <ele>292</ele>
        <time>2010-01-01T09:45:56Z</time>
      </trkpt>
      <trkpt lat="45.67913" lon="5.85668">
        <ele>289</ele>
        <time>2010-01-01T09:46:13Z</time>
      </trkpt>
      <trkpt lat="45.67952" lon="5.85669">
        <ele>292</ele>
        <time>2010-01-01T09:46:29Z</time>
      </trkpt>
      <trkpt lat="45.68051" lon="5.85701">
        <ele>292</ele>
        <time>2010-01-01T09:47:10Z</time>
      </trkpt>
      <trkpt lat="45.68074" lon="5.857">
        <ele>292</ele>
        <time>2010-01-01T09:47:19Z</time>
      </trkpt>
      <trkpt lat="45.68096" lon="5.8569">
        <ele>293</ele>
        <time>2010-01-01T09:47:28Z</time>
      </trkpt>
      <trkpt lat="45.68112" lon="5.85665">
        <ele>299</ele>
        <time>2010-01-01T09:47:38Z</time>
      </trkpt>
      <trkpt lat="45.68127" lon="5.85635">
        <ele>302</ele>
        <time>2010-01-01T09:47:48Z</time>
      </trkpt>
      <trkpt lat="45.68142" lon="5.8562">
        <ele>303</ele>
        <time>2010-01-01T09:47:55Z</time>
      </trkpt>
      <trkpt lat="45.68208" lon="5.85581">
        <ele>305</ele>
        <time>2010-01-01T09:48:24Z</time>
      </trkpt>
      <trkpt lat="45.68233" lon="5.85569">
        <ele>304</ele>
        <time>2010-01-01T09:48:34Z</time>
      </trkpt>
      <trkpt lat="45.68199" lon="5.85565">
        <ele>306</ele>
        <time>2010-01-01T09:48:48Z</time>
      </trkpt>
      <trkpt lat="45.68163" lon="5.85556">
        <ele>309</ele>
        <time>2010-01-01T09:49:03Z</time>
      </trkpt>
      <trkpt lat="45.68148" lon="5.85547">
        <ele>310</ele>
        <time>2010-01-01T09:49:09Z</time>
      </trkpt>
      <trkpt lat="45.68153" lon="5.8552">
        <ele>312</ele>
        <time>2010-01-01T09:49:17Z</time>
      </trkpt>
      <trkpt lat="45.68157" lon="5.8548">
        <ele>317</ele>
        <time>2010-01-01T09:49:28Z</time>
      </trkpt>
      <trkpt lat="45.68155" lon="5.85473">
        <ele>318</ele>
        <time>2010-01-01T09:49:30Z</time>
      </trkpt>
      <trkpt lat="45.68146" lon="5.85467">
        <ele>319</ele>
        <time>2010-01-01T09:49:34Z</time>
      </trkpt>
      <trkpt lat="45.68129" lon="5.8547">
        <ele>319</ele>
        <time>2010-01-01T09:49:41Z</time>
      </trkpt>
      <trkpt lat="45.68114" lon="5.85482">
        <ele>317</ele>
        <time>2010-01-01T09:49:48Z</time>
      </trkpt>
      <trkpt lat="45.68103" lon="5.85484">
        <ele>316</ele>
        <time>2010-01-01T09:49:52Z</time>
      </trkpt>
      <trkpt lat="45.68094" lon="5.85478">
        <ele>316</ele>
        <time>2010-01-01T09:49:56Z</time>
      </trkpt>
      <trkpt lat="45.68092" lon="5.85465">
        <ele>319</ele>
        <time>2010-01-01T09:50:00Z</time>
      </trkpt>
      <trkpt lat="45.68099" lon="5.85453">
        <ele>322</ele>
        <time>2010-01-01T09:50:05Z</time>
      </trkpt>
      <trkpt lat="45.68114" lon="5.85448">
        <ele>323</ele>
        <time>2010-01-01T09:50:11Z</time>
      </trkpt>
      <trkpt lat="45.68127" lon="5.85445">
        <ele>323</ele>
        <time>2010-01-01T09:50:16Z</time>
      </trkpt>
      <trkpt lat="45.68104" lon="5.854">
        <ele>329</ele>
        <time>2010-01-01T09:50:32Z</time>
      </trkpt>
      <trkpt lat="45.68083" lon="5.85396">
        <ele>328</ele>
        <time>2010-01-01T09:50:40Z</time>
      </trkpt>
      <trkpt lat="45.68048" lon="5.85381">
        <ele>328</ele>
        <time>2010-01-01T09:50:55Z</time>
      </trkpt>
      <trkpt lat="45.6803" lon="5.85365">
        <ele>332</ele>
        <time>2010-01-01T09:51:03Z</time>
      </trkpt>
      <trkpt lat="45.68015" lon="5.85342">
        <ele>335</ele>
        <time>2010-01-01T09:51:12Z</time>
      </trkpt>
      <trkpt lat="45.68014" lon="5.85239">
        <ele>339</ele>
        <time>2010-01-01T09:51:41Z</time>
      </trkpt>
      <trkpt lat="45.68006" lon="5.85214">
        <ele>342</ele>
        <time>2010-01-01T09:51:48Z</time>
      </trkpt>
      <trkpt lat="45.67993" lon="5.85193">
        <ele>344</ele>
        <time>2010-01-01T09:51:56Z</time>
      </trkpt>
      <trkpt lat="45.67949" lon="5.8517">
        <ele>345</ele>
        <time>2010-01-01T09:52:15Z</time>
      </trkpt>
      <trkpt lat="45.67918" lon="5.85149">
        <ele>340</ele>
        <time>2010-01-01T09:52:29Z</time>
      </trkpt>
      <trkpt lat="45.67897" lon="5.85123">
        <ele>339</ele>
        <time>2010-01-01T09:52:40Z</time>
      </trkpt>
      <trkpt lat="45.67877" lon="5.85109">
        <ele>340</ele>
        <time>2010-01-01T09:52:49Z</time>
      </trkpt>
      <trkpt lat="45.67843" lon="5.85114">
        <ele>340</ele>
        <time>2010-01-01T09:53:02Z</time>
      </trkpt>
      <trkpt lat="45.67801" lon="5.85125">
        <ele>339</ele>
        <time>2010-01-01T09:53:20Z</time>
      </trkpt>
      <trkpt lat="45.67796" lon="5.85119">
        <ele>342</ele>
        <time>2010-01-01T09:53:22Z</time>
      </trkpt>
      <trkpt lat="45.67782" lon="5.85122">
        <ele>342</ele>
        <time>2010-01-01T09:53:28Z</time>
      </trkpt>
      <trkpt lat="45.67748" lon="5.8514">
        <ele>342</ele>
        <time>2010-01-01T09:53:42Z</time>
      </trkpt>
      <trkpt lat="45.67715" lon="5.8516">
        <ele>343</ele>
        <time>2010-01-01T09:53:57Z</time>
      </trkpt>
      <trkpt lat="45.67697" lon="5.85175">
        <ele>345</ele>
        <time>2010-01-01T09:54:05Z</time>
      </trkpt>
      <trkpt lat="45.67693" lon="5.85175">
        <ele>346</ele>
        <time>2010-01-01T09:54:07Z</time>
      </trkpt>
      <trkpt lat="45.67694" lon="5.85164">
        <ele>347</ele>
        <time>2010-01-01T09:54:10Z</time>
      </trkpt>
      <trkpt lat="45.67689" lon="5.85158">
        <ele>348</ele>
        <time>2010-01-01T09:54:12Z</time>
      </trkpt>
      <trkpt lat="45.67684" lon="5.85158">
        <ele>348</ele>
        <time>2010-01-01T09:54:14Z</time>
      </trkpt>
      <trkpt lat="45.67681" lon="5.8516">
        <ele>348</ele>
        <time>2010-01-01T09:54:16Z</time>
      </trkpt>
      <trkpt lat="45.67674" lon="5.85154">
        <ele>350</ele>
        <time>2010-01-01T09:54:19Z</time>
      </trkpt>
      <trkpt lat="45.67661" lon="5.85152">
        <ele>351</ele>
        <time>2010-01-01T09:54:24Z</time>
      </trkpt>
      <trkpt lat="45.67636" lon="5.85168">
        <ele>351</ele>
        <time>2010-01-01T09:54:35Z</time>
      </trkpt>
      <trkpt lat="45.6763" lon="5.85167">
        <ele>351</ele>
        <time>2010-01-01T09:54:38Z</time>
      </trkpt>
      <trkpt lat="45.67628" lon="5.85157">
        <ele>353</ele>
        <time>2010-01-01T09:54:40Z</time>
      </trkpt>
      <trkpt lat="45.67631" lon="5.85141">
        <ele>355</ele>
        <time>2010-01-01T09:54:45Z</time>
      </trkpt>
      <trkpt lat="45.6764" lon="5.85122">
        <ele>357</ele>
        <time>2010-01-01T09:54:52Z</time>
      </trkpt>
      <trkpt lat="45.6769" lon="5.85041">
        <ele>364</ele>
        <time>2010-01-01T09:55:22Z</time>
      </trkpt>
      <trkpt lat="45.6772" lon="5.85013">
        <ele>368</ele>
        <time>2010-01-01T09:55:36Z</time>
      </trkpt>
      <trkpt lat="45.67924" lon="5.85005">
        <ele>397</ele>
        <time>2010-01-01T09:56:58Z</time>
      </trkpt>
      <trkpt lat="45.67957" lon="5.85011">
        <ele>399</ele>
        <time>2010-01-01T09:57:11Z</time>
      </trkpt>
      <trkpt lat="45.67995" lon="5.85045">
        <ele>388</ele>
        <time>2010-01-01T09:57:29Z</time>
      </trkpt>
      <trkpt lat="45.68016" lon="5.85049">
        <ele>389</ele>
        <time>2010-01-01T09:57:38Z</time>
      </trkpt>
      <trkpt lat="45.68127" lon="5.85039">
        <ele>404</ele>
        <time>2010-01-01T09:58:22Z</time>
      </trkpt>
      <trkpt lat="45.68272" lon="5.85032">
        <ele>426</ele>
        <time>2010-01-01T09:59:20Z</time>
      </trkpt>
      <trkpt lat="45.68314" lon="5.8506">
        <ele>413</ele>
        <time>2010-01-01T09:59:39Z</time>
      </trkpt>
      <trkpt lat="45.6845" lon="5.85083">
        <ele>436</ele>
        <time>2010-01-01T10:00:34Z</time>
      </trkpt>
      <trkpt lat="45.68516" lon="5.85112">
        <ele>434</ele>
        <time>2010-01-01T10:01:01Z</time>
      </trkpt>
      <trkpt lat="45.68531" lon="5.85128">
        <ele>431</ele>
        <time>2010-01-01T10:01:09Z</time>
      </trkpt>
      <trkpt lat="45.68573" lon="5.85155">
        <ele>441</ele>
        <time>2010-01-01T10:01:27Z</time>
      </trkpt>
      <trkpt lat="45.68587" lon="5.85185">
        <ele>440</ele>
        <time>2010-01-01T10:01:37Z</time>
      </trkpt>
      <trkpt lat="45.68594" lon="5.85216">
        <ele>438</ele>
        <time>2010-01-01T10:01:46Z</time>
      </trkpt>
      <trkpt lat="45.68596" lon="5.85249">
        <ele>433</ele>
        <time>2010-01-01T10:01:56Z</time>
      </trkpt>
      <trkpt lat="45.6861" lon="5.85267">
        <ele>434</ele>
        <time>2010-01-01T10:02:03Z</time>
      </trkpt>
      <trkpt lat="45.6863" lon="5.85276">
        <ele>440</ele>
        <time>2010-01-01T10:02:11Z</time>
      </trkpt>
      <trkpt lat="45.68716" lon="5.85301">
        <ele>450</ele>
        <time>2010-01-01T10:02:47Z</time>
      </trkpt>
      <trkpt lat="45.68758" lon="5.85282">
        <ele>459</ele>
        <time>2010-01-01T10:03:04Z</time>
      </trkpt>
      <trkpt lat="45.68816" lon="5.85291">
        <ele>475</ele>
        <time>2010-01-01T10:03:28Z</time>
      </trkpt>
      <trkpt lat="45.68823" lon="5.85286">
        <ele>479</ele>
        <time>2010-01-01T10:03:31Z</time>
      </trkpt>
      <trkpt lat="45.68826" lon="5.85274">
        <ele>482</ele>
        <time>2010-01-01T10:03:34Z</time>
      </trkpt>
      <trkpt lat="45.68819" lon="5.85265">
        <ele>481</ele>
        <time>2010-01-01T10:03:38Z</time>
      </trkpt>
      <trkpt lat="45.68779" lon="5.85266">
        <ele>470</ele>
        <time>2010-01-01T10:03:54Z</time>
      </trkpt>
      <trkpt lat="45.68654" lon="5.85242">
        <ele>460</ele>
        <time>2010-01-01T10:04:45Z</time>
      </trkpt>
      <trkpt lat="45.6865" lon="5.85235">
        <ele>460</ele>
        <time>2010-01-01T10:04:47Z</time>
      </trkpt>
      <trkpt lat="45.68655" lon="5.85227">
        <ele>463</ele>
        <time>2010-01-01T10:04:50Z</time>
      </trkpt>
      <trkpt lat="45.68742" lon="5.85219">
        <ele>481</ele>
        <time>2010-01-01T10:05:25Z</time>
      </trkpt>
      <trkpt lat="45.68796" lon="5.85225">
        <ele>485</ele>
        <time>2010-01-01T10:05:47Z</time>
      </trkpt>
      <trkpt lat="45.68831" lon="5.85209">
        <ele>495</ele>
        <time>2010-01-01T10:06:01Z</time>
      </trkpt>
      <trkpt lat="45.68874" lon="5.85214">
        <ele>501</ele>
        <time>2010-01-01T10:06:19Z</time>
      </trkpt>
      <trkpt lat="45.68885" lon="5.85229">
        <ele>500</ele>
        <time>2010-01-01T10:06:25Z</time>
      </trkpt>
      <trkpt lat="45.68891" lon="5.85246">
        <ele>501</ele>
        <time>2010-01-01T10:06:30Z</time>
      </trkpt>
      <trkpt lat="45.68896" lon="5.85318">
        <ele>511</ele>
        <time>2010-01-01T10:06:50Z</time>
      </trkpt>
      <trkpt lat="45.68884" lon="5.85356">
        <ele>508</ele>
        <time>2010-01-01T10:07:02Z</time>
      </trkpt>
      <trkpt lat="45.68887" lon="5.85408">
        <ele>505</ele>
        <time>2010-01-01T10:07:17Z</time>
      </trkpt>
      <trkpt lat="45.68871" lon="5.85488">
        <ele>497</ele>
        <time>2010-01-01T10:07:40Z</time>
      </trkpt>
      <trkpt lat="45.68874" lon="5.855">
        <ele>498</ele>
        <time>2010-01-01T10:07:43Z</time>
      </trkpt>
      <trkpt lat="45.68884" lon="5.855">
        <ele>504</ele>
        <time>2010-01-01T10:07:47Z</time>
      </trkpt>
      <trkpt lat="45.68888" lon="5.85485">
        <ele>509</ele>
        <time>2010-01-01T10:07:52Z</time>
      </trkpt>
      <trkpt lat="45.68887" lon="5.85468">
        <ele>509</ele>
        <time>2010-01-01T10:07:57Z</time>
      </trkpt>
      <trkpt lat="45.68893" lon="5.8543">
        <ele>507</ele>
        <time>2010-01-01T10:08:07Z</time>
      </trkpt>
      <trkpt lat="45.68916" lon="5.85349">
        <ele>524</ele>
        <time>2010-01-01T10:08:32Z</time>
      </trkpt>
      <trkpt lat="45.68937" lon="5.85299">
        <ele>526</ele>
        <time>2010-01-01T10:08:48Z</time>
      </trkpt>
      <trkpt lat="45.68941" lon="5.85249">
        <ele>532</ele>
        <time>2010-01-01T10:09:02Z</time>
      </trkpt>
      <trkpt lat="45.68938" lon="5.85231">
        <ele>534</ele>
        <time>2010-01-01T10:09:08Z</time>
      </trkpt>
      <trkpt lat="45.68941" lon="5.85222">
        <ele>538</ele>
        <time>2010-01-01T10:09:10Z</time>
      </trkpt>
      <trkpt lat="45.68947" lon="5.85221">
        <ele>541</ele>
        <time>2010-01-01T10:09:13Z</time>
      </trkpt>
      <trkpt lat="45.68951" lon="5.85224">
        <ele>542</ele>
        <time>2010-01-01T10:09:15Z</time>
      </trkpt>
      <trkpt lat="45.68953" lon="5.85238">
        <ele>540</ele>
        <time>2010-01-01T10:09:19Z</time>
      </trkpt>
      <trkpt lat="45.68951" lon="5.85267">
        <ele>533</ele>
        <time>2010-01-01T10:09:27Z</time>
      </trkpt>
      <trkpt lat="45.68952" lon="5.85294">
        <ele>532</ele>
        <time>2010-01-01T10:09:34Z</time>
      </trkpt>
      <trkpt lat="45.68949" lon="5.85325">
        <ele>534</ele>
        <time>2010-01-01T10:09:43Z</time>
      </trkpt>
      <trkpt lat="45.68937" lon="5.85351">
        <ele>531</ele>
        <time>2010-01-01T10:09:52Z</time>
      </trkpt>
      <trkpt lat="45.68934" lon="5.85409">
        <ele>528</ele>
        <time>2010-01-01T10:10:08Z</time>
      </trkpt>
      <trkpt lat="45.68922" lon="5.85447">
        <ele>523</ele>
        <time>2010-01-01T10:10:20Z</time>
      </trkpt>
      <trkpt lat="45.68922" lon="5.85466">
        <ele>523</ele>
        <time>2010-01-01T10:10:25Z</time>
      </trkpt>
      <trkpt lat="45.68933" lon="5.85483">
        <ele>527</ele>
        <time>2010-01-01T10:10:31Z</time>
      </trkpt>
      <trkpt lat="45.6895" lon="5.85496">
        <ele>534</ele>
        <time>2010-01-01T10:10:39Z</time>
      </trkpt>
      <trkpt lat="45.6898" lon="5.85511">
        <ele>549</ele>
        <time>2010-01-01T10:10:52Z</time>
      </trkpt>
      <trkpt lat="45.69" lon="5.85512">
        <ele>559</ele>
        <time>2010-01-01T10:11:00Z</time>
      </trkpt>
      <trkpt lat="45.69012" lon="5.85516">
        <ele>562</ele>
        <time>2010-01-01T10:11:05Z</time>
      </trkpt>
      <trkpt lat="45.69032" lon="5.85546">
        <ele>556</ele>
        <time>2010-01-01T10:11:16Z</time>
      </trkpt>
      <trkpt lat="45.69039" lon="5.85551">
        <ele>555</ele>
        <time>2010-01-01T10:11:20Z</time>
      </trkpt>
      <trkpt lat="45.69048" lon="5.85554">
        <ele>555</ele>
        <time>2010-01-01T10:11:23Z</time>
      </trkpt>
      <trkpt lat="45.69129" lon="5.85563">
        <ele>559</ele>
        <time>2010-01-01T10:11:56Z</time>
      </trkpt>
      <trkpt lat="45.69143" lon="5.85561">
        <ele>559</ele>
        <time>2010-01-01T10:12:01Z</time>
      </trkpt>
      <trkpt lat="45.69167" lon="5.85542">
        <ele>567</ele>
        <time>2010-01-01T10:12:12Z</time>
      </trkpt>
      <trkpt lat="45.69186" lon="5.85513">
        <ele>577</ele>
        <time>2010-01-01T10:12:23Z</time>
      </trkpt>
      <trkpt lat="45.69198" lon="5.85502">
        <ele>577</ele>
        <time>2010-01-01T10:12:29Z</time>
      </trkpt>
      <trkpt lat="45.6921" lon="5.85499">
        <ele>576</ele>
        <time>2010-01-01T10:12:34Z</time>
      </trkpt>
      <trkpt lat="45.69223" lon="5.85503">
        <ele>573</ele>
        <time>2010-01-01T10:12:39Z</time>
      </trkpt>
      <trkpt lat="45.69274" lon="5.85534">
        <ele>574</ele>
        <time>2010-01-01T10:13:02Z</time>
      </trkpt>
      <trkpt lat="45.69313" lon="5.85567">
        <ele>579</ele>
        <time>2010-01-01T10:13:20Z</time>
      </trkpt>
      <trkpt lat="45.69319" lon="5.85568">
        <ele>582</ele>
        <time>2010-01-01T10:13:22Z</time>
      </trkpt>
      <trkpt lat="45.69323" lon="5.85562">
        <ele>585</ele>
        <time>2010-01-01T10:13:24Z</time>
      </trkpt>
      <trkpt lat="45.69322" lon="5.85556">
        <ele>585</ele>
        <time>2010-01-01T10:13:26Z</time>
      </trkpt>
      <trkpt lat="45.69301" lon="5.85531">
        <ele>583</ele>
        <time>2010-01-01T10:13:37Z</time>
      </trkpt>
      <trkpt lat="45.69266" lon="5.85505">
        <ele>580</ele>
        <time>2010-01-01T10:13:53Z</time>
      </trkpt>
      <trkpt lat="45.69255" lon="5.85493">
        <ele>581</ele>
        <time>2010-01-01T10:13:58Z</time>
      </trkpt>
      <trkpt lat="45.69249" lon="5.85483">
        <ele>583</ele>
        <time>2010-01-01T10:14:02Z</time>
      </trkpt>
      <trkpt lat="45.69226" lon="5.85416">
        <ele>591</ele>
        <time>2010-01-01T10:14:23Z</time>
      </trkpt>
      <trkpt lat="45.69207" lon="5.85357">
        <ele>593</ele>
        <time>2010-01-01T10:14:41Z</time>
      </trkpt>
      <trkpt lat="45.69195" lon="5.85326">
        <ele>594</ele>
        <time>2010-01-01T10:14:51Z</time>
      </trkpt>
      <trkpt lat="45.69174" lon="5.85303">
        <ele>597</ele>
        <time>2010-01-01T10:15:02Z</time>
      </trkpt>
      <trkpt lat="45.69165" lon="5.85287">
        <ele>599</ele>
        <time>2010-01-01T10:15:07Z</time>
      </trkpt>
      <trkpt lat="45.69172" lon="5.85285">
        <ele>601</ele>
        <time>2010-01-01T10:15:10Z</time>
      </trkpt>
      <trkpt lat="45.69189" lon="5.8529">
        <ele>604</ele>
        <time>2010-01-01T10:15:17Z</time>
      </trkpt>
      <trkpt lat="45.69247" lon="5.8533">
        <ele>605</ele>
        <time>2010-01-01T10:15:43Z</time>
      </trkpt>
      <trkpt lat="45.69348" lon="5.85356">
        <ele>613</ele>
        <time>2010-01-01T10:16:24Z</time>
      </trkpt>
      <trkpt lat="45.69368" lon="5.85356">
        <ele>614</ele>
        <time>2010-01-01T10:16:32Z</time>
      </trkpt>
      <trkpt lat="45.69423" lon="5.85335">
        <ele>619</ele>
        <time>2010-01-01T10:16:55Z</time>
      </trkpt>
      <trkpt lat="45.69446" lon="5.85332">
        <ele>621</ele>
        <time>2010-01-01T10:17:04Z</time>
      </trkpt>
      <trkpt lat="45.69456" lon="5.85337">
        <ele>621</ele>
        <time>2010-01-01T10:17:08Z</time>
      </trkpt>
      <trkpt lat="45.6947" lon="5.85348">
        <ele>622</ele>
        <time>2010-01-01T10:17:15Z</time>
      </trkpt>
      <trkpt lat="45.69529" lon="5.85439">
        <ele>626</ele>
        <time>2010-01-01T10:17:49Z</time>
      </trkpt>
      <trkpt lat="45.69549" lon="5.85446">
        <ele>630</ele>
        <time>2010-01-01T10:17:58Z</time>
      </trkpt>
      <trkpt lat="45.69624" lon="5.8546">
        <ele>632</ele>
        <time>2010-01-01T10:18:28Z</time>
      </trkpt>
      <trkpt lat="45.69694" lon="5.8548">
        <ele>636</ele>
        <time>2010-01-01T10:18:56Z</time>
      </trkpt>
      <trkpt lat="45.69731" lon="5.85474">
        <ele>642</ele>
        <time>2010-01-01T10:19:11Z</time>
      </trkpt>
      <trkpt lat="45.69768" lon="5.85492">
        <ele>642</ele>
        <time>2010-01-01T10:19:27Z</time>
      </trkpt>
      <trkpt lat="45.69826" lon="5.85529">
        <ele>635</ele>
        <time>2010-01-01T10:19:52Z</time>
      </trkpt>
      <trkpt lat="45.69853" lon="5.85533">
        <ele>635</ele>
        <time>2010-01-01T10:20:03Z</time>
      </trkpt>
      <trkpt lat="45.69956" lon="5.8553">
        <ele>625</ele>
        <time>2010-01-01T10:20:45Z</time>
      </trkpt>
      <trkpt lat="45.70021" lon="5.85539">
        <ele>625</ele>
        <time>2010-01-01T10:21:11Z</time>
      </trkpt>
      <trkpt lat="45.70177" lon="5.85549">
        <ele>618</ele>
        <time>2010-01-01T10:22:13Z</time>
      </trkpt>
      <trkpt lat="45.70209" lon="5.85544">
        <ele>619</ele>
        <time>2010-01-01T10:22:26Z</time>
      </trkpt>
      <trkpt lat="45.70237" lon="5.85507">
        <ele>627</ele>
        <time>2010-01-01T10:22:41Z</time>
      </trkpt>
      <trkpt lat="45.70286" lon="5.85499">
        <ele>621</ele>
        <time>2010-01-01T10:23:01Z</time>
      </trkpt>
      <trkpt lat="45.70327" lon="5.85497">
        <ele>618</ele>
        <time>2010-01-01T10:23:18Z</time>
      </trkpt>
      <trkpt lat="45.70353" lon="5.85485">
        <ele>621</ele>
        <time>2010-01-01T10:23:28Z</time>
      </trkpt>
      <trkpt lat="45.70397" lon="5.85479">
        <ele>621</ele>
        <time>2010-01-01T10:23:46Z</time>
      </trkpt>
      <trkpt lat="45.70417" lon="5.85479">
        <ele>621</ele>
        <time>2010-01-01T10:23:54Z</time>
      </trkpt>
      <trkpt lat="45.70467" lon="5.85459">
        <ele>621</ele>
        <time>2010-01-01T10:24:15Z</time>
      </trkpt>
      <trkpt lat="45.70482" lon="5.85449">
        <ele>622</ele>
        <time>2010-01-01T10:24:22Z</time>
      </trkpt>
      <trkpt lat="45.70484" lon="5.85444">
        <ele>622</ele>
        <time>2010-01-01T10:24:23Z</time>
      </trkpt>
      <trkpt lat="45.70482" lon="5.85449">
        <ele>622</ele>
        <time>2010-01-01T10:24:25Z</time>
      </trkpt>
      <trkpt lat="45.70467" lon="5.85459">
        <ele>621</ele>
        <time>2010-01-01T10:24:31Z</time>
      </trkpt>
      <trkpt lat="45.70417" lon="5.85479">
        <ele>621</ele>
        <time>2010-01-01T10:24:52Z</time>
      </trkpt>
      <trkpt lat="45.70397" lon="5.85479">
        <ele>621</ele>
        <time>2010-01-01T10:25:00Z</time>
      </trkpt>
      <trkpt lat="45.70353" lon="5.85485">
        <ele>621</ele>
        <time>2010-01-01T10:25:18Z</time>
      </trkpt>
      <trkpt lat="45.70327" lon="5.85497">
        <ele>618</ele>
        <time>2010-01-01T10:25:29Z</time>
      </trkpt>
      <trkpt lat="45.70375" lon="5.85494">
        <ele>616</ele>
        <time>2010-01-01T10:25:48Z</time>
      </trkpt>
      <trkpt lat="45.70466" lon="5.85501">
        <ele>609</ele>
        <time>2010-01-01T10:26:25Z</time>
      </trkpt>
      <trkpt lat="45.70505" lon="5.85479">
        <ele>608</ele>
        <time>2010-01-01T10:26:41Z</time>
      </trkpt>
      <trkpt lat="45.70544" lon="5.85469">
        <ele>603</ele>
        <time>2010-01-01T10:26:57Z</time>
      </trkpt>
      <trkpt lat="45.70631" lon="5.8543">
        <ele>614</ele>
        <time>2010-01-01T10:27:34Z</time>
      </trkpt>
      <trkpt lat="45.70708" lon="5.85416">
        <ele>608</ele>
        <time>2010-01-01T10:28:05Z</time>
      </trkpt>
      <trkpt lat="45.70757" lon="5.85431">
        <ele>600</ele>
        <time>2010-01-01T10:28:25Z</time>
      </trkpt>
      <trkpt lat="45.70784" lon="5.85482">
        <ele>595</ele>
        <time>2010-01-01T10:28:43Z</time>
      </trkpt>
      <trkpt lat="45.708" lon="5.85497">
        <ele>594</ele>
        <time>2010-01-01T10:28:50Z</time>
      </trkpt>
      <trkpt lat="45.70828" lon="5.85492">
        <ele>595</ele>
        <time>2010-01-01T10:29:02Z</time>
      </trkpt>
      <trkpt lat="45.71007" lon="5.8543">
        <ele>594</ele>
        <time>2010-01-01T10:30:15Z</time>
      </trkpt>
      <trkpt lat="45.71113" lon="5.85409">
        <ele>592</ele>
        <time>2010-01-01T10:30:58Z</time>
      </trkpt>
      <trkpt lat="45.71209" lon="5.85386">
        <ele>582</ele>
        <time>2010-01-01T10:31:37Z</time>
      </trkpt>
      <trkpt lat="45.71382" lon="5.85322">
        <ele>573</ele>
        <time>2010-01-01T10:32:49Z</time>
      </trkpt>
      <trkpt lat="45.7143" lon="5.85301">
        <ele>573</ele>
        <time>2010-01-01T10:33:09Z</time>
      </trkpt>
      <trkpt lat="45.71495" lon="5.85231">
        <ele>586</ele>
        <time>2010-01-01T10:33:41Z</time>
      </trkpt>
      <trkpt lat="45.71615" lon="5.85197">
        <ele>579</ele>
        <time>2010-01-01T10:34:30Z</time>
      </trkpt>
      <trkpt lat="45.71693" lon="5.85162">
        <ele>571</ele>
        <time>2010-01-01T10:35:03Z</time>
      </trkpt>
      <trkpt lat="45.71756" lon="5.85129">
        <ele>563</ele>
        <time>2010-01-01T10:35:30Z</time>
      </trkpt>
      <trkpt lat="45.71858" lon="5.85103">
        <ele>561</ele>
        <time>2010-01-01T10:36:11Z</time>
      </trkpt>
      <trkpt lat="45.72011" lon="5.85031">
        <ele>558</ele>
        <time>2010-01-01T10:37:16Z</time>
      </trkpt>
      <trkpt lat="45.72206" lon="5.84953">
        <ele>549</ele>
        <time>2010-01-01T10:38:37Z</time>
      </trkpt>
      <trkpt lat="45.72775" lon="5.8464">
        <ele>534</ele>
        <time>2010-01-01T10:42:41Z</time>
      </trkpt>
      <trkpt lat="45.72853" lon="5.84589">
        <ele>537</ele>
        <time>2010-01-01T10:43:15Z</time>
      </trkpt>
      <trkpt lat="45.72865" lon="5.84585">
        <ele>537</ele>
        <time>2010-01-01T10:43:20Z</time>
      </trkpt>
      <trkpt lat="45.72868" lon="5.84573">
        <ele>540</ele>
        <time>2010-01-01T10:43:24Z</time>
      </trkpt>
      <trkpt lat="45.72876" lon="5.84568">
        <ele>541</ele>
        <time>2010-01-01T10:43:27Z</time>
      </trkpt>
      <trkpt lat="45.72888" lon="5.84537">
        <ele>547</ele>
        <time>2010-01-01T10:43:37Z</time>
      </trkpt>
      <trkpt lat="45.72883" lon="5.8453">
        <ele>549</ele>
        <time>2010-01-01T10:43:40Z</time>
      </trkpt>
      <trkpt lat="45.72881" lon="5.84515">
        <ele>551</ele>
        <time>2010-01-01T10:43:44Z</time>
      </trkpt>
      <trkpt lat="45.72899" lon="5.84493">
        <ele>556</ele>
        <time>2010-01-01T10:43:54Z</time>
      </trkpt>
      <trkpt lat="45.72901" lon="5.84483">
        <ele>558</ele>
        <time>2010-01-01T10:43:56Z</time>
      </trkpt>
      <trkpt lat="45.72906" lon="5.84477">
        <ele>560</ele>
        <time>2010-01-01T10:43:59Z</time>
      </trkpt>
      <trkpt lat="45.72912" lon="5.84475">
        <ele>561</ele>
        <time>2010-01-01T10:44:02Z</time>
      </trkpt>
      <trkpt lat="45.72919" lon="5.84479">
        <ele>560</ele>
        <time>2010-01-01T10:44:05Z</time>
      </trkpt>
      <trkpt lat="45.72932" lon="5.84501">
        <ele>557</ele>
        <time>2010-01-01T10:44:13Z</time>
      </trkpt>
      <trkpt lat="45.72947" lon="5.84504">
        <ele>557</ele>
        <time>2010-01-01T10:44:19Z</time>
      </trkpt>
      <trkpt lat="45.72987" lon="5.84491">
        <ele>560</ele>
        <time>2010-01-01T10:44:35Z</time>
      </trkpt>
      <trkpt lat="45.7309" lon="5.84423">
        <ele>574</ele>
        <time>2010-01-01T10:45:21Z</time>
      </trkpt>
      <trkpt lat="45.73222" lon="5.84313">
        <ele>585</ele>
        <time>2010-01-01T10:46:22Z</time>
      </trkpt>
      <trkpt lat="45.73327" lon="5.84219">
        <ele>573</ele>
        <time>2010-01-01T10:47:11Z</time>
      </trkpt>
      <trkpt lat="45.73397" lon="5.84171">
        <ele>574</ele>
        <time>2010-01-01T10:47:42Z</time>
      </trkpt>
      <trkpt lat="45.73488" lon="5.84117">
        <ele>575</ele>
        <time>2010-01-01T10:48:22Z</time>
      </trkpt>
      <trkpt lat="45.73662" lon="5.84022">
        <ele>575</ele>
        <time>2010-01-01T10:49:36Z</time>
      </trkpt>
      <trkpt lat="45.73731" lon="5.83991">
        <ele>574</ele>
        <time>2010-01-01T10:50:05Z</time>
      </trkpt>
      <trkpt lat="45.7379" lon="5.83917">
        <ele>568</ele>
        <time>2010-01-01T10:50:37Z</time>
      </trkpt>
      <trkpt lat="45.73886" lon="5.83808">
        <ele>575</ele>
        <time>2010-01-01T10:51:26Z</time>
      </trkpt>
      <trkpt lat="45.7405" lon="5.83664">
        <ele>575</ele>
        <time>2010-01-01T10:52:43Z</time>
      </trkpt>
      <trkpt lat="45.74299" lon="5.83487">
        <ele>572</ele>
        <time>2010-01-01T10:54:34Z</time>
      </trkpt>
      <trkpt lat="45.74328" lon="5.83455">
        <ele>569</ele>
        <time>2010-01-01T10:54:49Z</time>
      </trkpt>
      <trkpt lat="45.74338" lon="5.83426">
        <ele>572</ele>
        <time>2010-01-01T10:54:58Z</time>
      </trkpt>
      <trkpt lat="45.74353" lon="5.83367">
        <ele>579</ele>
        <time>2010-01-01T10:55:15Z</time>
      </trkpt>
      <trkpt lat="45.74416" lon="5.83314">
        <ele>577</ele>
        <time>2010-01-01T10:55:44Z</time>
      </trkpt>
      <trkpt lat="45.74473" lon="5.83249">
        <ele>586</ele>
        <time>2010-01-01T10:56:14Z</time>
      </trkpt>
      <trkpt lat="45.74574" lon="5.83178">
        <ele>600</ele>
        <time>2010-01-01T10:56:59Z</time>
      </trkpt>
      <trkpt lat="45.74639" lon="5.83161">
        <ele>600</ele>
        <time>2010-01-01T10:57:25Z</time>
      </trkpt>
      <trkpt lat="45.74651" lon="5.83172">
        <ele>597</ele>
        <time>2010-01-01T10:57:31Z</time>
      </trkpt>
      <trkpt lat="45.74677" lon="5.8321">
        <ele>593</ele>
        <time>2010-01-01T10:57:46Z</time>
      </trkpt>
      <trkpt lat="45.74695" lon="5.83268">
        <ele>587</ele>
        <time>2010-01-01T10:58:03Z</time>
      </trkpt>
      <trkpt lat="45.74707" lon="5.83278">
        <ele>587</ele>
        <time>2010-01-01T10:58:09Z</time>
      </trkpt>
      <trkpt lat="45.74739" lon="5.8327">
        <ele>593</ele>
        <time>2010-01-01T10:58:22Z</time>
      </trkpt>
      <trkpt lat="45.74861" lon="5.83194">
        <ele>599</ele>
        <time>2010-01-01T10:59:15Z</time>
      </trkpt>
      <trkpt lat="45.74869" lon="5.8318">
        <ele>603</ele>
        <time>2010-01-01T10:59:20Z</time>
      </trkpt>
      <trkpt lat="45.74922" lon="5.83138">
        <ele>603</ele>
        <time>2010-01-01T10:59:44Z</time>
      </trkpt>
      <trkpt lat="45.74958" lon="5.83118">
        <ele>604</ele>
        <time>2010-01-01T11:00:00Z</time>
      </trkpt>
      <trkpt lat="45.74995" lon="5.83116">
        <ele>602</ele>
        <time>2010-01-01T11:00:15Z</time>
      </trkpt>
      <trkpt lat="45.75044" lon="5.8309">
        <ele>602</ele>
        <time>2010-01-01T11:00:36Z</time>
      </trkpt>
      <trkpt lat="45.75124" lon="5.83073">
        <ele>599</ele>
        <time>2010-01-01T11:01:08Z</time>
      </trkpt>
      <trkpt lat="45.75244" lon="5.83001">
        <ele>604</ele>
        <time>2010-01-01T11:02:00Z</time>
      </trkpt>
      <trkpt lat="45.75293" lon="5.83016">
        <ele>596</ele>
        <time>2010-01-01T11:02:20Z</time>
      </trkpt>
      <trkpt lat="45.75347" lon="5.83012">
        <ele>590</ele>
        <time>2010-01-01T11:02:42Z</time>
      </trkpt>
      <trkpt lat="45.75436" lon="5.82977">
        <ele>583</ele>
        <time>2010-01-01T11:03:19Z</time>
      </trkpt>
      <trkpt lat="45.75511" lon="5.82907">
        <ele>591</ele>
        <time>2010-01-01T11:03:55Z</time>
      </trkpt>
      <trkpt lat="45.75546" lon="5.829">
        <ele>583</ele>
        <time>2010-01-01T11:04:09Z</time>
      </trkpt>
      <trkpt lat="45.75648" lon="5.82887">
        <ele>568</ele>
        <time>2010-01-01T11:04:50Z</time>
      </trkpt>
      <trkpt lat="45.75666" lon="5.8287">
        <ele>569</ele>
        <time>2010-01-01T11:04:58Z</time>
      </trkpt>
      <trkpt lat="45.75675" lon="5.82808">
        <ele>580</ele>
        <time>2010-01-01T11:05:16Z</time>
      </trkpt>
      <trkpt lat="45.75683" lon="5.8279">
        <ele>581</ele>
        <time>2010-01-01T11:05:22Z</time>
      </trkpt>
      <trkpt lat="45.75696" lon="5.82792">
        <ele>577</ele>
        <time>2010-01-01T11:05:27Z</time>
      </trkpt>
      <trkpt lat="45.75702" lon="5.82824">
        <ele>570</ele>
        <time>2010-01-01T11:05:36Z</time>
      </trkpt>
      <trkpt lat="45.757" lon="5.82875">
        <ele>558</ele>
        <time>2010-01-01T11:05:51Z</time>
      </trkpt>
      <trkpt lat="45.7565" lon="5.82912">
        <ele>558</ele>
        <time>2010-01-01T11:06:13Z</time>
      </trkpt>
      <trkpt lat="45.75592" lon="5.82933">
        <ele>562</ele>
        <time>2010-01-01T11:06:37Z</time>
      </trkpt>
      <trkpt lat="45.75588" lon="5.82944">
        <ele>559</ele>
        <time>2010-01-01T11:06:41Z</time>
      </trkpt>
      <trkpt lat="45.7559" lon="5.82959">
        <ele>553</ele>
        <time>2010-01-01T11:06:45Z</time>
      </trkpt>
      <trkpt lat="45.75597" lon="5.82971">
        <ele>546</ele>
        <time>2010-01-01T11:06:49Z</time>
      </trkpt>
      <trkpt lat="45.7572" lon="5.82906">
        <ele>541</ele>
        <time>2010-01-01T11:07:42Z</time>
      </trkpt>
      <trkpt lat="45.75765" lon="5.82881">
        <ele>536</ele>
        <time>2010-01-01T11:08:01Z</time>
      </trkpt>
      <trkpt lat="45.7578" lon="5.8283">
        <ele>549</ele>
        <time>2010-01-01T11:08:17Z</time>
      </trkpt>
      <trkpt lat="45.75813" lon="5.82817">
        <ele>544</ele>
        <time>2010-01-01T11:08:30Z</time>
      </trkpt>
      <trkpt lat="45.75841" lon="5.8278">
        <ele>544</ele>
        <time>2010-01-01T11:08:45Z</time>
      </trkpt>
      <trkpt lat="45.75885" lon="5.82775">
        <ele>538</ele>
        <time>2010-01-01T11:09:03Z</time>
      </trkpt>
      <trkpt lat="45.75938" lon="5.82764">
        <ele>538</ele>
        <time>2010-01-01T11:09:25Z</time>
      </trkpt>
      <trkpt lat="45.76017" lon="5.82765">
        <ele>524</ele>
        <time>2010-01-01T11:09:56Z</time>
      </trkpt>
      <trkpt lat="45.76127" lon="5.82746">
        <ele>512</ele>
        <time>2010-01-01T11:10:41Z</time>
      </trkpt>
      <trkpt lat="45.76236" lon="5.82715">
        <ele>504</ele>
        <time>2010-01-01T11:11:25Z</time>
      </trkpt>
      <trkpt lat="45.76279" lon="5.8267">
        <ele>500</ele>
        <time>2010-01-01T11:11:46Z</time>
      </trkpt>
      <trkpt lat="45.76335" lon="5.82657">
        <ele>498</ele>
        <time>2010-01-01T11:12:09Z</time>
      </trkpt>
      <trkpt lat="45.7638" lon="5.82617">
        <ele>497</ele>
        <time>2010-01-01T11:12:30Z</time>
      </trkpt>
      <trkpt lat="45.76397" lon="5.82593">
        <ele>495</ele>
        <time>2010-01-01T11:12:40Z</time>
      </trkpt>
      <trkpt lat="45.76414" lon="5.82538">
        <ele>487</ele>
        <time>2010-01-01T11:12:57Z</time>
      </trkpt>
      <trkpt lat="45.76433" lon="5.8252">
        <ele>485</ele>
        <time>2010-01-01T11:13:06Z</time>
      </trkpt>
      <trkpt lat="45.76584" lon="5.82461">
        <ele>475</ele>
        <time>2010-01-01T11:14:08Z</time>
      </trkpt>
      <trkpt lat="45.76654" lon="5.82388">
        <ele>466</ele>
        <time>2010-01-01T11:14:43Z</time>
      </trkpt>
      <trkpt lat="45.76681" lon="5.82378">
        <ele>467</ele>
        <time>2010-01-01T11:14:54Z</time>
      </trkpt>
      <trkpt lat="45.76698" lon="5.82353">
        <ele>463</ele>
        <time>2010-01-01T11:15:04Z</time>
      </trkpt>
      <trkpt lat="45.76702" lon="5.82338">
        <ele>462</ele>
        <time>2010-01-01T11:15:08Z</time>
      </trkpt>
      <trkpt lat="45.76714" lon="5.82325">
        <ele>464</ele>
        <time>2010-01-01T11:15:14Z</time>
      </trkpt>
      <trkpt lat="45.76719" lon="5.82326">
        <ele>465</ele>
        <time>2010-01-01T11:15:16Z</time>
      </trkpt>
      <trkpt lat="45.7673" lon="5.82346">
        <ele>470</ele>
        <time>2010-01-01T11:15:24Z</time>
      </trkpt>
      <trkpt lat="45.76749" lon="5.82324">
        <ele>469</ele>
        <time>2010-01-01T11:15:33Z</time>
      </trkpt>
      <trkpt lat="45.76779" lon="5.82276">
        <ele>471</ele>
        <time>2010-01-01T11:15:51Z</time>
      </trkpt>
      <trkpt lat="45.76887" lon="5.82196">
        <ele>481</ele>
        <time>2010-01-01T11:16:40Z</time>
      </trkpt>
      <trkpt lat="45.77104" lon="5.82103">
        <ele>491</ele>
        <time>2010-01-01T11:18:11Z</time>
      </trkpt>
      <trkpt lat="45.77167" lon="5.82091">
        <ele>491</ele>
        <time>2010-01-01T11:18:36Z</time>
      </trkpt>
      <trkpt lat="45.77336" lon="5.82093">
        <ele>486</ele>
        <time>2010-01-01T11:19:44Z</time>
      </trkpt>
      <trkpt lat="45.77345" lon="5.82087">
        <ele>482</ele>
        <time>2010-01-01T11:19:48Z</time>
      </trkpt>
      <trkpt lat="45.77349" lon="5.8207">
        <ele>478</ele>
        <time>2010-01-01T11:19:53Z</time>
      </trkpt>
      <trkpt lat="45.7734" lon="5.82051">
        <ele>476</ele>
        <time>2010-01-01T11:19:59Z</time>
      </trkpt>
      <trkpt lat="45.7733" lon="5.82039">
        <ele>476</ele>
        <time>2010-01-01T11:20:04Z</time>
      </trkpt>
      <trkpt lat="45.77329" lon="5.8202">
        <ele>475</ele>
        <time>2010-01-01T11:20:10Z</time>
      </trkpt>
      <trkpt lat="45.77337" lon="5.82006">
        <ele>474</ele>
        <time>2010-01-01T11:20:15Z</time>
      </trkpt>
      <trkpt lat="45.77375" lon="5.81991">
        <ele>466</ele>
        <time>2010-01-01T11:20:31Z</time>
      </trkpt>
      <trkpt lat="45.77388" lon="5.81982">
        <ele>464</ele>
        <time>2010-01-01T11:20:36Z</time>
      </trkpt>
      <trkpt lat="45.77393" lon="5.81965">
        <ele>463</ele>
        <time>2010-01-01T11:20:41Z</time>
      </trkpt>
      <trkpt lat="45.77401" lon="5.81956">
        <ele>461</ele>
        <time>2010-01-01T11:20:46Z</time>
      </trkpt>
      <trkpt lat="45.77413" lon="5.81957">
        <ele>458</ele>
        <time>2010-01-01T11:20:50Z</time>
      </trkpt>
      <trkpt lat="45.77431" lon="5.81972">
        <ele>455</ele>
        <time>2010-01-01T11:20:59Z</time>
      </trkpt>
      <trkpt lat="45.77469" lon="5.81985">
        <ele>451</ele>
        <time>2010-01-01T11:21:14Z</time>
      </trkpt>
      <trkpt lat="45.77489" lon="5.82043">
        <ele>456</ele>
        <time>2010-01-01T11:21:32Z</time>
      </trkpt>
      <trkpt lat="45.77502" lon="5.82051">
        <ele>457</ele>
        <time>2010-01-01T11:21:38Z</time>
      </trkpt>
      <trkpt lat="45.77551" lon="5.82059">
        <ele>454</ele>
        <time>2010-01-01T11:21:58Z</time>
      </trkpt>
      <trkpt lat="45.77564" lon="5.82047">
        <ele>448</ele>
        <time>2010-01-01T11:22:04Z</time>
      </trkpt>
      <trkpt lat="45.7758" lon="5.81976">
        <ele>434</ele>
        <time>2010-01-01T11:22:25Z</time>
      </trkpt>
      <trkpt lat="45.77588" lon="5.81963">
        <ele>430</ele>
        <time>2010-01-01T11:22:30Z</time>
      </trkpt>
      <trkpt lat="45.77601" lon="5.81965">
        <ele>429</ele>
        <time>2010-01-01T11:22:35Z</time>
      </trkpt>
      <trkpt lat="45.77637" lon="5.81983">
        <ele>428</ele>
        <time>2010-01-01T11:22:50Z</time>
      </trkpt>
      <trkpt lat="45.77651" lon="5.81975">
        <ele>425</ele>
        <time>2010-01-01T11:22:56Z</time>
      </trkpt>
      <trkpt lat="45.77657" lon="5.8198">
        <ele>424</ele>
        <time>2010-01-01T11:22:59Z</time>
      </trkpt>
      <trkpt lat="45.77698" lon="5.81969">
        <ele>419</ele>
        <time>2010-01-01T11:23:16Z</time>
      </trkpt>
      <trkpt lat="45.77724" lon="5.81944">
        <ele>416</ele>
        <time>2010-01-01T11:23:28Z</time>
      </trkpt>
      <trkpt lat="45.77754" lon="5.81931">
        <ele>415</ele>
        <time>2010-01-01T11:23:41Z</time>
      </trkpt>
      <trkpt lat="45.77788" lon="5.81931">
        <ele>416</ele>
        <time>2010-01-01T11:23:54Z</time>
      </trkpt>
      <trkpt lat="45.77812" lon="5.81924">
        <ele>415</ele>
        <time>2010-01-01T11:24:04Z</time>
      </trkpt>
      <trkpt lat="45.77843" lon="5.81906">
        <ele>410</ele>
        <time>2010-01-01T11:24:18Z</time>
      </trkpt>
      <trkpt lat="45.77884" lon="5.81878">
        <ele>399</ele>
        <time>2010-01-01T11:24:36Z</time>
      </trkpt>
      <trkpt lat="45.77908" lon="5.81852">
        <ele>397</ele>
        <time>2010-01-01T11:24:48Z</time>
      </trkpt>
      <trkpt lat="45.77942" lon="5.81829">
        <ele>395</ele>
        <time>2010-01-01T11:25:03Z</time>
      </trkpt>
      <trkpt lat="45.78058" lon="5.81792">
        <ele>385</ele>
        <time>2010-01-01T11:25:50Z</time>
      </trkpt>
      <trkpt lat="45.78081" lon="5.81773">
        <ele>382</ele>
        <time>2010-01-01T11:26:01Z</time>
      </trkpt>
      <trkpt lat="45.78114" lon="5.8178">
        <ele>379</ele>
        <time>2010-01-01T11:26:14Z</time>
      </trkpt>
      <trkpt lat="45.78165" lon="5.81779">
        <ele>380</ele>
        <time>2010-01-01T11:26:35Z</time>
      </trkpt>
      <trkpt lat="45.7818" lon="5.81777">
        <ele>380</ele>
        <time>2010-01-01T11:26:41Z</time>
      </trkpt>
      <trkpt lat="45.78337" lon="5.81777">
        <ele>383</ele>
        <time>2010-01-01T11:27:44Z</time>
      </trkpt>
      <trkpt lat="45.78382" lon="5.81779">
        <ele>384</ele>
        <time>2010-01-01T11:28:02Z</time>
      </trkpt>
      <trkpt lat="45.78381" lon="5.81779">
        <ele>384</ele>
        <time>2010-01-01T11:28:02Z</time>
      </trkpt>
      <trkpt lat="45.78409" lon="5.8178">
        <ele>386</ele>
        <time>2010-01-01T11:28:13Z</time>
      </trkpt>
      <trkpt lat="45.78411" lon="5.81772">
        <ele>384</ele>
        <time>2010-01-01T11:28:16Z</time>
      </trkpt>
      <trkpt lat="45.78414" lon="5.8177">
        <ele>384</ele>
        <time>2010-01-01T11:28:17Z</time>
      </trkpt>
      <trkpt lat="45.78432" lon="5.81769">
        <ele>385</ele>
        <time>2010-01-01T11:28:24Z</time>
      </trkpt>
      <trkpt lat="45.78445" lon="5.81763">
        <ele>384</ele>
        <time>2010-01-01T11:28:30Z</time>
      </trkpt>
      <trkpt lat="45.78517" lon="5.81711">
        <ele>375</ele>
        <time>2010-01-01T11:29:02Z</time>
      </trkpt>
      <trkpt lat="45.78532" lon="5.81689">
        <ele>372</ele>
        <time>2010-01-01T11:29:11Z</time>
      </trkpt>
      <trkpt lat="45.7854" lon="5.81666">
        <ele>369</ele>
        <time>2010-01-01T11:29:18Z</time>
      </trkpt>
      <trkpt lat="45.7854" lon="5.81655">
        <ele>369</ele>
        <time>2010-01-01T11:29:21Z</time>
      </trkpt>
      <trkpt lat="45.78532" lon="5.81543">
        <ele>376</ele>
        <time>2010-01-01T11:29:52Z</time>
      </trkpt>
      <trkpt lat="45.78533" lon="5.81517">
        <ele>378</ele>
        <time>2010-01-01T11:29:59Z</time>
      </trkpt>
      <trkpt lat="45.78548" lon="5.81521">
        <ele>377</ele>
        <time>2010-01-01T11:30:06Z</time>
      </trkpt>
      <trkpt lat="45.78584" lon="5.8154">
        <ele>375</ele>
        <time>2010-01-01T11:30:21Z</time>
      </trkpt>
      <trkpt lat="45.7865" lon="5.8154">
        <ele>372</ele>
        <time>2010-01-01T11:30:47Z</time>
      </trkpt>
      <trkpt lat="45.78714" lon="5.81524">
        <ele>368</ele>
        <time>2010-01-01T11:31:13Z</time>
      </trkpt>
      <trkpt lat="45.78837" lon="5.81487">
        <ele>367</ele>
        <time>2010-01-01T11:32:04Z</time>
      </trkpt>
      <trkpt lat="45.78919" lon="5.81477">
        <ele>362</ele>
        <time>2010-01-01T11:32:37Z</time>
      </trkpt>
      <trkpt lat="45.78996" lon="5.81473">
        <ele>356</ele>
        <time>2010-01-01T11:33:07Z</time>
      </trkpt>
      <trkpt lat="45.79026" lon="5.81466">
        <ele>356</ele>
        <time>2010-01-01T11:33:20Z</time>
      </trkpt>
      <trkpt lat="45.79056" lon="5.81454">
        <ele>354</ele>
        <time>2010-01-01T11:33:32Z</time>
      </trkpt>
      <trkpt lat="45.79139" lon="5.81362">
        <ele>357</ele>
        <time>2010-01-01T11:34:14Z</time>
      </trkpt>
      <trkpt lat="45.79254" lon="5.81312">
        <ele>355</ele>
        <time>2010-01-01T11:35:02Z</time>
      </trkpt>
      <trkpt lat="45.79277" lon="5.81306">
        <ele>353</ele>
        <time>2010-01-01T11:35:12Z</time>
      </trkpt>
      <trkpt lat="45.79298" lon="5.81306">
        <ele>352</ele>
        <time>2010-01-01T11:35:20Z</time>
      </trkpt>
      <trkpt lat="45.79316" lon="5.81314">
        <ele>352</ele>
        <time>2010-01-01T11:35:27Z</time>
      </trkpt>
      <trkpt lat="45.79332" lon="5.81328">
        <ele>352</ele>
        <time>2010-01-01T11:35:35Z</time>
      </trkpt>
      <trkpt lat="45.79337" lon="5.81335">
        <ele>352</ele>
        <time>2010-01-01T11:35:38Z</time>
      </trkpt>
      <trkpt lat="45.79381" lon="5.81362">
        <ele>354</ele>
        <time>2010-01-01T11:35:57Z</time>
      </trkpt>
      <trkpt lat="45.79391" lon="5.81364">
        <ele>355</ele>
        <time>2010-01-01T11:36:01Z</time>
      </trkpt>
      <trkpt lat="45.79404" lon="5.81362">
        <ele>357</ele>
        <time>2010-01-01T11:36:06Z</time>
      </trkpt>
      <trkpt lat="45.79417" lon="5.81358">
        <ele>359</ele>
        <time>2010-01-01T11:36:12Z</time>
      </trkpt>
      <trkpt lat="45.79506" lon="5.81292">
        <ele>369</ele>
        <time>2010-01-01T11:36:52Z</time>
      </trkpt>
      <trkpt lat="45.79522" lon="5.81276">
        <ele>371</ele>
        <time>2010-01-01T11:36:59Z</time>
      </trkpt>
      <trkpt lat="45.79544" lon="5.81247">
        <ele>372</ele>
        <time>2010-01-01T11:37:11Z</time>
      </trkpt>
      <trkpt lat="45.7961" lon="5.81196">
        <ele>379</ele>
        <time>2010-01-01T11:37:41Z</time>
      </trkpt>
      <trkpt lat="45.79622" lon="5.81186">
        <ele>381</ele>
        <time>2010-01-01T11:37:47Z</time>
      </trkpt>
      <trkpt lat="45.79625" lon="5.81179">
        <ele>382</ele>
        <time>2010-01-01T11:37:49Z</time>
      </trkpt>
      <trkpt lat="45.79632" lon="5.81146">
        <ele>385</ele>
        <time>2010-01-01T11:37:59Z</time>
      </trkpt>
      <trkpt lat="45.79643" lon="5.81133">
        <ele>386</ele>
        <time>2010-01-01T11:38:05Z</time>
      </trkpt>
      <trkpt lat="45.79652" lon="5.81128">
        <ele>387</ele>
        <time>2010-01-01T11:38:08Z</time>
      </trkpt>
      <trkpt lat="45.79745" lon="5.81111">
        <ele>396</ele>
        <time>2010-01-01T11:38:46Z</time>
      </trkpt>
      <trkpt lat="45.79828" lon="5.81054">
        <ele>405</ele>
        <time>2010-01-01T11:39:23Z</time>
      </trkpt>
      <trkpt lat="45.79858" lon="5.81035">
        <ele>406</ele>
        <time>2010-01-01T11:39:36Z</time>
      </trkpt>
      <trkpt lat="45.79887" lon="5.81023">
        <ele>409</ele>
        <time>2010-01-01T11:39:48Z</time>
      </trkpt>
      <trkpt lat="45.79896" lon="5.81036">
        <ele>408</ele>
        <time>2010-01-01T11:39:53Z</time>
      </trkpt>
      <trkpt lat="45.79914" lon="5.81048">
        <ele>407</ele>
        <time>2010-01-01T11:40:01Z</time>
      </trkpt>
      <trkpt lat="45.7992" lon="5.81064">
        <ele>405</ele>
        <time>2010-01-01T11:40:06Z</time>
      </trkpt>
      <trkpt lat="45.79921" lon="5.81094">
        <ele>402</ele>
        <time>2010-01-01T11:40:15Z</time>
      </trkpt>
      <trkpt lat="45.79926" lon="5.81102">
        <ele>401</ele>
        <time>2010-01-01T11:40:18Z</time>
      </trkpt>
      <trkpt lat="45.79931" lon="5.81107">
        <ele>401</ele>
        <time>2010-01-01T11:40:20Z</time>
      </trkpt>
      <trkpt lat="45.79939" lon="5.81109">
        <ele>401</ele>
        <time>2010-01-01T11:40:23Z</time>
      </trkpt>
      <trkpt lat="45.80132" lon="5.81113">
        <ele>406</ele>
        <time>2010-01-01T11:41:41Z</time>
      </trkpt>
      <trkpt lat="45.80142" lon="5.81117">
        <ele>406</ele>
        <time>2010-01-01T11:41:45Z</time>
      </trkpt>
      <trkpt lat="45.80162" lon="5.8114">
        <ele>405</ele>
        <time>2010-01-01T11:41:55Z</time>
      </trkpt>
      <trkpt lat="45.80181" lon="5.81157">
        <ele>404</ele>
        <time>2010-01-01T11:42:04Z</time>
      </trkpt>
      <trkpt lat="45.80162" lon="5.81239">
        <ele>401</ele>
        <time>2010-01-01T11:42:28Z</time>
      </trkpt>
      <trkpt lat="45.80131" lon="5.81388">
        <ele>387</ele>
        <time>2010-01-01T11:43:11Z</time>
      </trkpt>
      <trkpt lat="45.80127" lon="5.81396">
        <ele>385</ele>
        <time>2010-01-01T11:43:14Z</time>
      </trkpt>
      <trkpt lat="45.80119" lon="5.81402">
        <ele>384</ele>
        <time>2010-01-01T11:43:18Z</time>
      </trkpt>
      <trkpt lat="45.80106" lon="5.81408">
        <ele>386</ele>
        <time>2010-01-01T11:43:23Z</time>
      </trkpt>
      <trkpt lat="45.80086" lon="5.81411">
        <ele>393</ele>
        <time>2010-01-01T11:43:31Z</time>
      </trkpt>
      <trkpt lat="45.80067" lon="5.81418">
        <ele>395</ele>
        <time>2010-01-01T11:43:39Z</time>
      </trkpt>
      <trkpt lat="45.80056" lon="5.81425">
        <ele>393</ele>
        <time>2010-01-01T11:43:44Z</time>
      </trkpt>
      <trkpt lat="45.80053" lon="5.81432">
        <ele>389</ele>
        <time>2010-01-01T11:43:46Z</time>
      </trkpt>
      <trkpt lat="45.80054" lon="5.81437">
        <ele>386</ele>
        <time>2010-01-01T11:43:48Z</time>
      </trkpt>
      <trkpt lat="45.80057" lon="5.81439">
        <ele>385</ele>
        <time>2010-01-01T11:43:49Z</time>
      </trkpt>
      <trkpt lat="45.80062" lon="5.81438">
        <ele>384</ele>
        <time>2010-01-01T11:43:51Z</time>
      </trkpt>
      <trkpt lat="45.80072" lon="5.81429">
        <ele>388</ele>
        <time>2010-01-01T11:43:56Z</time>
      </trkpt>
      <trkpt lat="45.80081" lon="5.81425">
        <ele>388</ele>
        <time>2010-01-01T11:44:00Z</time>
      </trkpt>
      <trkpt lat="45.80138" lon="5.81428">
        <ele>373</ele>
        <time>2010-01-01T11:44:22Z</time>
      </trkpt>
      <trkpt lat="45.80185" lon="5.81419">
        <ele>374</ele>
        <time>2010-01-01T11:44:41Z</time>
      </trkpt>
      <trkpt lat="45.80195" lon="5.8141">
        <ele>375</ele>
        <time>2010-01-01T11:44:46Z</time>
      </trkpt>
      <trkpt lat="45.80208" lon="5.81391">
        <ele>375</ele>
        <time>2010-01-01T11:44:53Z</time>
      </trkpt>
      <trkpt lat="45.80216" lon="5.81385">
        <ele>374</ele>
        <time>2010-01-01T11:44:57Z</time>
      </trkpt>
      <trkpt lat="45.80232" lon="5.8138">
        <ele>372</ele>
        <time>2010-01-01T11:45:04Z</time>
      </trkpt>
      <trkpt lat="45.8035" lon="5.81391">
        <ele>361</ele>
        <time>2010-01-01T11:45:51Z</time>
      </trkpt>
      <trkpt lat="45.80382" lon="5.8139">
        <ele>363</ele>
        <time>2010-01-01T11:46:04Z</time>
      </trkpt>
      <trkpt lat="45.80435" lon="5.81384">
        <ele>357</ele>
        <time>2010-01-01T11:46:25Z</time>
      </trkpt>
      <trkpt lat="45.80715" lon="5.81309">
        <ele>341</ele>
        <time>2010-01-01T11:48:19Z</time>
      </trkpt>
      <trkpt lat="45.80819" lon="5.81283">
        <ele>328</ele>
        <time>2010-01-01T11:49:01Z</time>
      </trkpt>
      <trkpt lat="45.80828" lon="5.81283">
        <ele>324</ele>
        <time>2010-01-01T11:49:05Z</time>
      </trkpt>
      <trkpt lat="45.80837" lon="5.81285">
        <ele>321</ele>
        <time>2010-01-01T11:49:09Z</time>
      </trkpt>
      <trkpt lat="45.80845" lon="5.81296">
        <ele>316</ele>
        <time>2010-01-01T11:49:13Z</time>
      </trkpt>
      <trkpt lat="45.80855" lon="5.81343">
        <ele>304</ele>
        <time>2010-01-01T11:49:27Z</time>
      </trkpt>
      <trkpt lat="45.8087" lon="5.81365">
        <ele>301</ele>
        <time>2010-01-01T11:49:35Z</time>
      </trkpt>
      <trkpt lat="45.80887" lon="5.81368">
        <ele>301</ele>
        <time>2010-01-01T11:49:42Z</time>
      </trkpt>
      <trkpt lat="45.80919" lon="5.81361">
        <ele>299</ele>
        <time>2010-01-01T11:49:55Z</time>
      </trkpt>
      <trkpt lat="45.80919" lon="5.81373">
        <ele>297</ele>
        <time>2010-01-01T11:49:59Z</time>
      </trkpt>
      <trkpt lat="45.80904" lon="5.81398">
        <ele>294</ele>
        <time>2010-01-01T11:50:08Z</time>
      </trkpt>
      <trkpt lat="45.80799" lon="5.81537">
        <ele>272</ele>
        <time>2010-01-01T11:51:05Z</time>
      </trkpt>
      <trkpt lat="45.80769" lon="5.81571">
        <ele>267</ele>
        <time>2010-01-01T11:51:20Z</time>
      </trkpt>
      <trkpt lat="45.80746" lon="5.81581">
        <ele>266</ele>
        <time>2010-01-01T11:51:30Z</time>
      </trkpt>
      <trkpt lat="45.80721" lon="5.81582">
        <ele>265</ele>
        <time>2010-01-01T11:51:40Z</time>
      </trkpt>
      <trkpt lat="45.807" lon="5.81587">
        <ele>262</ele>
        <time>2010-01-01T11:51:48Z</time>
      </trkpt>
      <trkpt lat="45.80645" lon="5.81631">
        <ele>255</ele>
        <time>2010-01-01T11:52:14Z</time>
      </trkpt>
      <trkpt lat="45.80628" lon="5.81653">
        <ele>252</ele>
        <time>2010-01-01T11:52:23Z</time>
      </trkpt>
      <trkpt lat="45.80593" lon="5.81684">
        <ele>252</ele>
        <time>2010-01-01T11:52:39Z</time>
      </trkpt>
      <trkpt lat="45.80517" lon="5.81731">
        <ele>251</ele>
        <time>2010-01-01T11:53:12Z</time>
      </trkpt>
      <trkpt lat="45.80506" lon="5.81753">
        <ele>245</ele>
        <time>2010-01-01T11:53:20Z</time>
      </trkpt>
      <trkpt lat="45.80482" lon="5.81758">
        <ele>245</ele>
        <time>2010-01-01T11:53:30Z</time>
      </trkpt>
      <trkpt lat="45.80523" lon="5.81813">
        <ele>238</ele>
        <time>2010-01-01T11:53:52Z</time>
      </trkpt>
      <trkpt lat="45.80552" lon="5.81844">
        <ele>236</ele>
        <time>2010-01-01T11:54:07Z</time>
      </trkpt>
      <trkpt lat="45.80591" lon="5.81891">
        <ele>235</ele>
        <time>2010-01-01T11:54:27Z</time>
      </trkpt>
      <trkpt lat="45.80604" lon="5.8191">
        <ele>235</ele>
        <time>2010-01-01T11:54:34Z</time>
      </trkpt>
      <trkpt lat="45.80616" lon="5.81932">
        <ele>235</ele>
        <time>2010-01-01T11:54:42Z</time>
      </trkpt>
      <trkpt lat="45.80622" lon="5.81947">
        <ele>234</ele>
        <time>2010-01-01T11:54:47Z</time>
      </trkpt>
      <trkpt lat="45.80624" lon="5.81964">
        <ele>234</ele>
        <time>2010-01-01T11:54:52Z</time>
      </trkpt>
      <trkpt lat="45.80626" lon="5.82055">
        <ele>234</ele>
        <time>2010-01-01T11:55:17Z</time>
      </trkpt>
      <trkpt lat="45.8063" lon="5.82091">
        <ele>234</ele>
        <time>2010-01-01T11:55:27Z</time>
      </trkpt>
      <trkpt lat="45.80655" lon="5.82246">
        <ele>235</ele>
        <time>2010-01-01T11:56:12Z</time>
      </trkpt>
      <trkpt lat="45.80675" lon="5.82355">
        <ele>235</ele>
        <time>2010-01-01T11:56:43Z</time>
      </trkpt>
      <trkpt lat="45.80682" lon="5.82379">
        <ele>235</ele>
        <time>2010-01-01T11:56:50Z</time>
      </trkpt>
      <trkpt lat="45.80698" lon="5.8241">
        <ele>235</ele>
        <time>2010-01-01T11:57:01Z</time>
      </trkpt>
      <trkpt lat="45.80746" lon="5.82487">
        <ele>235</ele>
        <time>2010-01-01T11:57:30Z</time>
      </trkpt>
      <trkpt lat="45.80793" lon="5.82588">
        <ele>233</ele>
        <time>2010-01-01T11:58:04Z</time>
      </trkpt>
      <trkpt lat="45.80834" lon="5.82687">
        <ele>233</ele>
        <time>2010-01-01T11:58:36Z</time>
      </trkpt>
      <trkpt lat="45.80847" lon="5.82729">
        <ele>232</ele>
        <time>2010-01-01T11:58:49Z</time>
      </trkpt>
      <trkpt lat="45.80867" lon="5.82885">
        <ele>239</ele>
        <time>2010-01-01T11:59:33Z</time>
      </trkpt>
      <trkpt lat="45.80878" lon="5.82921">
        <ele>241</ele>
        <time>2010-01-01T11:59:44Z</time>
      </trkpt>
      <trkpt lat="45.80901" lon="5.8296">
        <ele>243</ele>
        <time>2010-01-01T11:59:58Z</time>
      </trkpt>
      <trkpt lat="45.80934" lon="5.82992">
        <ele>241</ele>
        <time>2010-01-01T12:00:14Z</time>
      </trkpt>
      <trkpt lat="45.80997" lon="5.83044">
        <ele>237</ele>
        <time>2010-01-01T12:00:43Z</time>
      </trkpt>
      <trkpt lat="45.8105" lon="5.83054">
        <ele>235</ele>
        <time>2010-01-01T12:01:05Z</time>
      </trkpt>
      <trkpt lat="45.81067" lon="5.83077">
        <ele>236</ele>
        <time>2010-01-01T12:01:14Z</time>
      </trkpt>
      <trkpt lat="45.81076" lon="5.83107">
        <ele>237</ele>
        <time>2010-01-01T12:01:23Z</time>
      </trkpt>
      <trkpt lat="45.81069" lon="5.83184">
        <ele>238</ele>
        <time>2010-01-01T12:01:45Z</time>
      </trkpt>
      <trkpt lat="45.81074" lon="5.83235">
        <ele>237</ele>
        <time>2010-01-01T12:01:59Z</time>
      </trkpt>
      <trkpt lat="45.81072" lon="5.83247">
        <ele>238</ele>
        <time>2010-01-01T12:02:03Z</time>
      </trkpt>
      <trkpt lat="45.81067" lon="5.83257">
        <ele>238</ele>
        <time>2010-01-01T12:02:06Z</time>
      </trkpt>
      <trkpt lat="45.80965" lon="5.8336">
        <ele>235</ele>
        <time>2010-01-01T12:02:56Z</time>
      </trkpt>
      <trkpt lat="45.80945" lon="5.83391">
        <ele>235</ele>
        <time>2010-01-01T12:03:08Z</time>
      </trkpt>
      <trkpt lat="45.80771" lon="5.83916">
        <ele>235</ele>
        <time>2010-01-01T12:05:50Z</time>
      </trkpt>
      <trkpt lat="45.80722" lon="5.8406">
        <ele>234</ele>
        <time>2010-01-01T12:06:35Z</time>
      </trkpt>
      <trkpt lat="45.80683" lon="5.84206">
        <ele>233</ele>
        <time>2010-01-01T12:07:18Z</time>
      </trkpt>
      <trkpt lat="45.80631" lon="5.84407">
        <ele>234</ele>
        <time>2010-01-01T12:08:18Z</time>
      </trkpt>
      <trkpt lat="45.80628" lon="5.84441">
        <ele>234</ele>
        <time>2010-01-01T12:08:28Z</time>
      </trkpt>
      <trkpt lat="45.80632" lon="5.8447">
        <ele>235</ele>
        <time>2010-01-01T12:08:36Z</time>
      </trkpt>
      <trkpt lat="45.80664" lon="5.84549">
        <ele>237</ele>
        <time>2010-01-01T12:09:02Z</time>
      </trkpt>
      <trkpt lat="45.80677" lon="5.84604">
        <ele>235</ele>
        <time>2010-01-01T12:09:18Z</time>
      </trkpt>
      <trkpt lat="45.8068" lon="5.84648">
        <ele>235</ele>
        <time>2010-01-01T12:09:30Z</time>
      </trkpt>
      <trkpt lat="45.80675" lon="5.84687">
        <ele>234</ele>
        <time>2010-01-01T12:09:41Z</time>
      </trkpt>
      <trkpt lat="45.8068" lon="5.84712">
        <ele>234</ele>
        <time>2010-01-01T12:09:48Z</time>
      </trkpt>
      <trkpt lat="45.80786" lon="5.8485">
        <ele>237</ele>
        <time>2010-01-01T12:10:46Z</time>
      </trkpt>
      <trkpt lat="45.80865" lon="5.84935">
        <ele>237</ele>
        <time>2010-01-01T12:11:25Z</time>
      </trkpt>
      <trkpt lat="45.80928" lon="5.84971">
        <ele>242</ele>
        <time>2010-01-01T12:11:52Z</time>
      </trkpt>
      <trkpt lat="45.80972" lon="5.84999">
        <ele>243</ele>
        <time>2010-01-01T12:12:12Z</time>
      </trkpt>
      <trkpt lat="45.81019" lon="5.85045">
        <ele>245</ele>
        <time>2010-01-01T12:12:35Z</time>
      </trkpt>
      <trkpt lat="45.81047" lon="5.85063">
        <ele>246</ele>
        <time>2010-01-01T12:12:47Z</time>
      </trkpt>
      <trkpt lat="45.81049" lon="5.85079">
        <ele>247</ele>
        <time>2010-01-01T12:12:51Z</time>
      </trkpt>
      <trkpt lat="45.81056" lon="5.85091">
        <ele>248</ele>
        <time>2010-01-01T12:12:56Z</time>
      </trkpt>
      <trkpt lat="45.81069" lon="5.8509">
        <ele>247</ele>
        <time>2010-01-01T12:13:01Z</time>
      </trkpt>
      <trkpt lat="45.81077" lon="5.85077">
        <ele>246</ele>
        <time>2010-01-01T12:13:06Z</time>
      </trkpt>
      <trkpt lat="45.81076" lon="5.8506">
        <ele>246</ele>
        <time>2010-01-01T12:13:11Z</time>
      </trkpt>
      <trkpt lat="45.81151" lon="5.85002">
        <ele>248</ele>
        <time>2010-01-01T12:13:45Z</time>
      </trkpt>
      <trkpt lat="45.8118" lon="5.84989">
        <ele>249</ele>
        <time>2010-01-01T12:13:57Z</time>
      </trkpt>
      <trkpt lat="45.81244" lon="5.84975">
        <ele>246</ele>
        <time>2010-01-01T12:14:23Z</time>
      </trkpt>
      <trkpt lat="45.8125" lon="5.8501">
        <ele>250</ele>
        <time>2010-01-01T12:14:33Z</time>
      </trkpt>
      <trkpt lat="45.8128" lon="5.85036">
        <ele>251</ele>
        <time>2010-01-01T12:14:47Z</time>
      </trkpt>
      <trkpt lat="45.81318" lon="5.85076">
        <ele>256</ele>
        <time>2010-01-01T12:15:06Z</time>
      </trkpt>
      <trkpt lat="45.81348" lon="5.85111">
        <ele>262</ele>
        <time>2010-01-01T12:15:21Z</time>
      </trkpt>
      <trkpt lat="45.8139" lon="5.85164">
        <ele>271</ele>
        <time>2010-01-01T12:15:44Z</time>
      </trkpt>
      <trkpt lat="45.8142" lon="5.85192">
        <ele>270</ele>
        <time>2010-01-01T12:15:58Z</time>
      </trkpt>
      <trkpt lat="45.81441" lon="5.85217">
        <ele>272</ele>
        <time>2010-01-01T12:16:09Z</time>
      </trkpt>
      <trkpt lat="45.81461" lon="5.85249">
        <ele>276</ele>
        <time>2010-01-01T12:16:21Z</time>
      </trkpt>
      <trkpt lat="45.81527" lon="5.85259">
        <ele>282</ele>
        <time>2010-01-01T12:16:47Z</time>
      </trkpt>
      <trkpt lat="45.81604" lon="5.85248">
        <ele>284</ele>
        <time>2010-01-01T12:17:18Z</time>
      </trkpt>
      <trkpt lat="45.81689" lon="5.85257">
        <ele>291</ele>
        <time>2010-01-01T12:17:52Z</time>
      </trkpt>
      <trkpt lat="45.8175" lon="5.85295">
        <ele>298</ele>
        <time>2010-01-01T12:18:19Z</time>
      </trkpt>
      <trkpt lat="45.81871" lon="5.85277">
        <ele>301</ele>
        <time>2010-01-01T12:19:08Z</time>
      </trkpt>
      <trkpt lat="45.81899" lon="5.85308">
        <ele>307</ele>
        <time>2010-01-01T12:19:22Z</time>
      </trkpt>
      <trkpt lat="45.81907" lon="5.85309">
        <ele>308</ele>
        <time>2010-01-01T12:19:25Z</time>
      </trkpt>
      <trkpt lat="45.81973" lon="5.85283">
        <ele>310</ele>
        <time>2010-01-01T12:19:52Z</time>
      </trkpt>
      <trkpt lat="45.8199" lon="5.8528">
        <ele>311</ele>
        <time>2010-01-01T12:19:59Z</time>
      </trkpt>
      <trkpt lat="45.82092" lon="5.85272">
        <ele>314</ele>
        <time>2010-01-01T12:20:40Z</time>
      </trkpt>
      <trkpt lat="45.8212" lon="5.85264">
        <ele>317</ele>
        <time>2010-01-01T12:20:52Z</time>
      </trkpt>
      <trkpt lat="45.82136" lon="5.85246">
        <ele>319</ele>
        <time>2010-01-01T12:21:00Z</time>
      </trkpt>
      <trkpt lat="45.82163" lon="5.85175">
        <ele>316</ele>
        <time>2010-01-01T12:21:22Z</time>
      </trkpt>
      <trkpt lat="45.82175" lon="5.85171">
        <ele>317</ele>
        <time>2010-01-01T12:21:27Z</time>
      </trkpt>
      <trkpt lat="45.82212" lon="5.85148">
        <ele>317</ele>
        <time>2010-01-01T12:21:43Z</time>
      </trkpt>
      <trkpt lat="45.82225" lon="5.85084">
        <ele>314</ele>
        <time>2010-01-01T12:22:02Z</time>
      </trkpt>
      <trkpt lat="45.82232" lon="5.8507">
        <ele>315</ele>
        <time>2010-01-01T12:22:07Z</time>
      </trkpt>
      <trkpt lat="45.8223" lon="5.85047">
        <ele>314</ele>
        <time>2010-01-01T12:22:13Z</time>
      </trkpt>
      <trkpt lat="45.82238" lon="5.85029">
        <ele>314</ele>
        <time>2010-01-01T12:22:19Z</time>
      </trkpt>
      <trkpt lat="45.82257" lon="5.85003">
        <ele>315</ele>
        <time>2010-01-01T12:22:30Z</time>
      </trkpt>
      <trkpt lat="45.82289" lon="5.84976">
        <ele>315</ele>
        <time>2010-01-01T12:22:45Z</time>
      </trkpt>
      <trkpt lat="45.82313" lon="5.84947">
        <ele>314</ele>
        <time>2010-01-01T12:22:57Z</time>
      </trkpt>
      <trkpt lat="45.82366" lon="5.84907">
        <ele>317</ele>
        <time>2010-01-01T12:23:21Z</time>
      </trkpt>
      <trkpt lat="45.82387" lon="5.849">
        <ele>320</ele>
        <time>2010-01-01T12:23:30Z</time>
      </trkpt>
      <trkpt lat="45.8242" lon="5.84874">
        <ele>322</ele>
        <time>2010-01-01T12:23:45Z</time>
      </trkpt>
      <trkpt lat="45.82458" lon="5.84838">
        <ele>324</ele>
        <time>2010-01-01T12:24:03Z</time>
      </trkpt>
      <trkpt lat="45.82488" lon="5.84822">
        <ele>327</ele>
        <time>2010-01-01T12:24:16Z</time>
      </trkpt>
      <trkpt lat="45.82559" lon="5.8478">
        <ele>330</ele>
        <time>2010-01-01T12:24:47Z</time>
      </trkpt>
      <trkpt lat="45.8258" lon="5.84771">
        <ele>331</ele>
        <time>2010-01-01T12:24:55Z</time>
      </trkpt>
      <trkpt lat="45.82603" lon="5.84771">
        <ele>332</ele>
        <time>2010-01-01T12:25:05Z</time>
      </trkpt>
      <trkpt lat="45.82608" lon="5.84778">
        <ele>332</ele>
        <time>2010-01-01T12:25:07Z</time>
      </trkpt>
      <trkpt lat="45.82626" lon="5.84869">
        <ele>340</ele>
        <time>2010-01-01T12:25:34Z</time>
      </trkpt>
      <trkpt lat="45.8263" lon="5.84916">
        <ele>343</ele>
        <time>2010-01-01T12:25:47Z</time>
      </trkpt>
      <trkpt lat="45.82629" lon="5.84944">
        <ele>345</ele>
        <time>2010-01-01T12:25:55Z</time>
      </trkpt>
      <trkpt lat="45.82623" lon="5.84989">
        <ele>347</ele>
        <time>2010-01-01T12:26:08Z</time>
      </trkpt>
      <trkpt lat="45.82626" lon="5.85032">
        <ele>349</ele>
        <time>2010-01-01T12:26:20Z</time>
      </trkpt>
      <trkpt lat="45.8267" lon="5.84998">
        <ele>345</ele>
        <time>2010-01-01T12:26:40Z</time>
      </trkpt>
      <trkpt lat="45.82681" lon="5.84992">
        <ele>345</ele>
        <time>2010-01-01T12:26:44Z</time>
      </trkpt>
      <trkpt lat="45.82695" lon="5.84992">
        <ele>345</ele>
        <time>2010-01-01T12:26:50Z</time>
      </trkpt>
      <trkpt lat="45.82722" lon="5.85002">
        <ele>343</ele>
        <time>2010-01-01T12:27:01Z</time>
      </trkpt>
      <trkpt lat="45.82738" lon="5.85004">
        <ele>341</ele>
        <time>2010-01-01T12:27:08Z</time>
      </trkpt>
      <trkpt lat="45.82753" lon="5.84998">
        <ele>340</ele>
        <time>2010-01-01T12:27:14Z</time>
      </trkpt>
      <trkpt lat="45.82801" lon="5.84968">
        <ele>333</ele>
        <time>2010-01-01T12:27:35Z</time>
      </trkpt>
      <trkpt lat="45.83063" lon="5.84785">
        <ele>333</ele>
        <time>2010-01-01T12:29:31Z</time>
      </trkpt>
      <trkpt lat="45.83245" lon="5.84732">
        <ele>336</ele>
        <time>2010-01-01T12:30:46Z</time>
      </trkpt>
      <trkpt lat="45.83278" lon="5.84731">
        <ele>337</ele>
        <time>2010-01-01T12:30:59Z</time>
      </trkpt>
      <trkpt lat="45.83289" lon="5.84725">
        <ele>338</ele>
        <time>2010-01-01T12:31:04Z</time>
      </trkpt>
      <trkpt lat="45.83297" lon="5.84714">
        <ele>338</ele>
        <time>2010-01-01T12:31:08Z</time>
      </trkpt>
      <trkpt lat="45.83317" lon="5.84673">
        <ele>335</ele>
        <time>2010-01-01T12:31:22Z</time>
      </trkpt>
      <trkpt lat="45.83332" lon="5.8466">
        <ele>332</ele>
        <time>2010-01-01T12:31:29Z</time>
      </trkpt>
      <trkpt lat="45.83375" lon="5.84635">
        <ele>327</ele>
        <time>2010-01-01T12:31:48Z</time>
      </trkpt>
      <trkpt lat="45.83402" lon="5.84622">
        <ele>327</ele>
        <time>2010-01-01T12:31:59Z</time>
      </trkpt>
      <trkpt lat="45.83403" lon="5.84614">
        <ele>325</ele>
        <time>2010-01-01T12:32:01Z</time>
      </trkpt>
      <trkpt lat="45.83401" lon="5.84608">
        <ele>324</ele>
        <time>2010-01-01T12:32:03Z</time>
      </trkpt>
      <trkpt lat="45.83395" lon="5.84605">
        <ele>324</ele>
        <time>2010-01-01T12:32:06Z</time>
      </trkpt>
      <trkpt lat="45.833" lon="5.8459">
        <ele>320</ele>
        <time>2010-01-01T12:32:44Z</time>
      </trkpt>
      <trkpt lat="45.83294" lon="5.84588">
        <ele>320</ele>
        <time>2010-01-01T12:32:46Z</time>
      </trkpt>
      <trkpt lat="45.83289" lon="5.84582">
        <ele>318</ele>
        <time>2010-01-01T12:32:49Z</time>
      </trkpt>
      <trkpt lat="45.83291" lon="5.84574">
        <ele>316</ele>
        <time>2010-01-01T12:32:51Z</time>
      </trkpt>
      <trkpt lat="45.83302" lon="5.84567">
        <ele>315</ele>
        <time>2010-01-01T12:32:56Z</time>
      </trkpt>
      <trkpt lat="45.83329" lon="5.8456">
        <ele>314</ele>
        <time>2010-01-01T12:33:07Z</time>
      </trkpt>
      <trkpt lat="45.83375" lon="5.84539">
        <ele>308</ele>
        <time>2010-01-01T12:33:27Z</time>
      </trkpt>
      <trkpt lat="45.83453" lon="5.84521">
        <ele>305</ele>
        <time>2010-01-01T12:33:58Z</time>
      </trkpt>
      <trkpt lat="45.83522" lon="5.8449">
        <ele>303</ele>
        <time>2010-01-01T12:34:27Z</time>
      </trkpt>
      <trkpt lat="45.83663" lon="5.84449">
        <ele>307</ele>
        <time>2010-01-01T12:35:25Z</time>
      </trkpt>
      <trkpt lat="45.83697" lon="5.84435">
        <ele>309</ele>
        <time>2010-01-01T12:35:39Z</time>
      </trkpt>
      <trkpt lat="45.83715" lon="5.84433">
        <ele>309</ele>
        <time>2010-01-01T12:35:46Z</time>
      </trkpt>
      <trkpt lat="45.83727" lon="5.84437">
        <ele>309</ele>
        <time>2010-01-01T12:35:51Z</time>
      </trkpt>
      <trkpt lat="45.83751" lon="5.84479">
        <ele>311</ele>
        <time>2010-01-01T12:36:06Z</time>
      </trkpt>
      <trkpt lat="45.83763" lon="5.84516">
        <ele>313</ele>
        <time>2010-01-01T12:36:18Z</time>
      </trkpt>
      <trkpt lat="45.83773" lon="5.84529">
        <ele>315</ele>
        <time>2010-01-01T12:36:23Z</time>
      </trkpt>
      <trkpt lat="45.83786" lon="5.84528">
        <ele>313</ele>
        <time>2010-01-01T12:36:28Z</time>
      </trkpt>
      <trkpt lat="45.838" lon="5.84512">
        <ele>309</ele>
        <time>2010-01-01T12:36:35Z</time>
      </trkpt>
      <trkpt lat="45.8382" lon="5.84479">
        <ele>304</ele>
        <time>2010-01-01T12:36:48Z</time>
      </trkpt>
      <trkpt lat="45.83855" lon="5.84439">
        <ele>306</ele>
        <time>2010-01-01T12:37:05Z</time>
      </trkpt>
      <trkpt lat="45.83864" lon="5.84433">
        <ele>307</ele>
        <time>2010-01-01T12:37:09Z</time>
      </trkpt>
      <trkpt lat="45.83898" lon="5.8445">
        <ele>311</ele>
        <time>2010-01-01T12:37:24Z</time>
      </trkpt>
      <trkpt lat="45.84039" lon="5.84437">
        <ele>310</ele>
        <time>2010-01-01T12:38:20Z</time>
      </trkpt>
      <trkpt lat="45.84165" lon="5.844">
        <ele>313</ele>
        <time>2010-01-01T12:39:12Z</time>
      </trkpt>
      <trkpt lat="45.8419" lon="5.84374">
        <ele>310</ele>
        <time>2010-01-01T12:39:24Z</time>
      </trkpt>
      <trkpt lat="45.84335" lon="5.84378">
        <ele>309</ele>
        <time>2010-01-01T12:40:22Z</time>
      </trkpt>
      <trkpt lat="45.84433" lon="5.84373">
        <ele>308</ele>
        <time>2010-01-01T12:41:02Z</time>
      </trkpt>
      <trkpt lat="45.84611" lon="5.84358">
        <ele>310</ele>
        <time>2010-01-01T12:42:13Z</time>
      </trkpt>
      <trkpt lat="45.84557" lon="5.84423">
        <ele>320</ele>
        <time>2010-01-01T12:42:41Z</time>
      </trkpt>
      <trkpt lat="45.84536" lon="5.84435">
        <ele>323</ele>
        <time>2010-01-01T12:42:50Z</time>
      </trkpt>
      <trkpt lat="45.84503" lon="5.8444">
        <ele>325</ele>
        <time>2010-01-01T12:43:03Z</time>
      </trkpt>
      <trkpt lat="45.84485" lon="5.84447">
        <ele>325</ele>
        <time>2010-01-01T12:43:11Z</time>
      </trkpt>
      <trkpt lat="45.84443" lon="5.84468">
        <ele>327</ele>
        <time>2010-01-01T12:43:29Z</time>
      </trkpt>
      <trkpt lat="45.84352" lon="5.84522">
        <ele>339</ele>
        <time>2010-01-01T12:44:08Z</time>
      </trkpt>
      <trkpt lat="45.8423" lon="5.84568">
        <ele>347</ele>
        <time>2010-01-01T12:44:59Z</time>
      </trkpt>
      <trkpt lat="45.84226" lon="5.84574">
        <ele>348</ele>
        <time>2010-01-01T12:45:01Z</time>
      </trkpt>
      <trkpt lat="45.8423" lon="5.84583">
        <ele>349</ele>
        <time>2010-01-01T12:45:04Z</time>
      </trkpt>
      <trkpt lat="45.84239" lon="5.84588">
        <ele>350</ele>
        <time>2010-01-01T12:45:08Z</time>
      </trkpt>
      <trkpt lat="45.84249" lon="5.84591">
        <ele>350</ele>
        <time>2010-01-01T12:45:12Z</time>
      </trkpt>
      <trkpt lat="45.84259" lon="5.84596">
        <ele>351</ele>
        <time>2010-01-01T12:45:16Z</time>
      </trkpt>
      <trkpt lat="45.84337" lon="5.84674">
        <ele>363</ele>
        <time>2010-01-01T12:45:54Z</time>
      </trkpt>
      <trkpt lat="45.84361" lon="5.84687">
        <ele>368</ele>
        <time>2010-01-01T12:46:04Z</time>
      </trkpt>
      <trkpt lat="45.844" lon="5.84693">
        <ele>370</ele>
        <time>2010-01-01T12:46:20Z</time>
      </trkpt>
      <trkpt lat="45.84409" lon="5.84697">
        <ele>370</ele>
        <time>2010-01-01T12:46:24Z</time>
      </trkpt>
      <trkpt lat="45.84432" lon="5.84717">
        <ele>373</ele>
        <time>2010-01-01T12:46:35Z</time>
      </trkpt>
      <trkpt lat="45.84453" lon="5.84723">
        <ele>374</ele>
        <time>2010-01-01T12:46:43Z</time>
      </trkpt>
      <trkpt lat="45.84489" lon="5.84743">
        <ele>377</ele>
        <time>2010-01-01T12:46:59Z</time>
      </trkpt>
      <trkpt lat="45.84523" lon="5.84764">
        <ele>379</ele>
        <time>2010-01-01T12:47:14Z</time>
      </trkpt>
      <trkpt lat="45.84589" lon="5.84827">
        <ele>387</ele>
        <time>2010-01-01T12:47:45Z</time>
      </trkpt>
      <trkpt lat="45.84618" lon="5.84842">
        <ele>389</ele>
        <time>2010-01-01T12:47:58Z</time>
      </trkpt>
      <trkpt lat="45.84623" lon="5.84847">
        <ele>390</ele>
        <time>2010-01-01T12:48:00Z</time>
      </trkpt>
      <trkpt lat="45.84623" lon="5.84856">
        <ele>392</ele>
        <time>2010-01-01T12:48:03Z</time>
      </trkpt>
      <trkpt lat="45.84618" lon="5.84862">
        <ele>393</ele>
        <time>2010-01-01T12:48:05Z</time>
      </trkpt>
      <trkpt lat="45.846" lon="5.84861">
        <ele>393</ele>
        <time>2010-01-01T12:48:12Z</time>
      </trkpt>
      <trkpt lat="45.84566" lon="5.84856">
        <ele>395</ele>
        <time>2010-01-01T12:48:26Z</time>
      </trkpt>
      <trkpt lat="45.84518" lon="5.84856">
        <ele>397</ele>
        <time>2010-01-01T12:48:45Z</time>
      </trkpt>
      <trkpt lat="45.84477" lon="5.84863">
        <ele>399</ele>
        <time>2010-01-01T12:49:02Z</time>
      </trkpt>
      <trkpt lat="45.84447" lon="5.8487">
        <ele>404</ele>
        <time>2010-01-01T12:49:14Z</time>
      </trkpt>
      <trkpt lat="45.84376" lon="5.84892">
        <ele>411</ele>
        <time>2010-01-01T12:49:43Z</time>
      </trkpt>
      <trkpt lat="45.84349" lon="5.84905">
        <ele>412</ele>
        <time>2010-01-01T12:49:54Z</time>
      </trkpt>
      <trkpt lat="45.84321" lon="5.84927">
        <ele>415</ele>
        <time>2010-01-01T12:50:07Z</time>
      </trkpt>
      <trkpt lat="45.84291" lon="5.84956">
        <ele>418</ele>
        <time>2010-01-01T12:50:22Z</time>
      </trkpt>
      <trkpt lat="45.84256" lon="5.84997">
        <ele>421</ele>
        <time>2010-01-01T12:50:40Z</time>
      </trkpt>
      <trkpt lat="45.84248" lon="5.85013">
        <ele>422</ele>
        <time>2010-01-01T12:50:45Z</time>
      </trkpt>
      <trkpt lat="45.84256" lon="5.85034">
        <ele>426</ele>
        <time>2010-01-01T12:50:52Z</time>
      </trkpt>
      <trkpt lat="45.84308" lon="5.85079">
        <ele>434</ele>
        <time>2010-01-01T12:51:16Z</time>
      </trkpt>
      <trkpt lat="45.8432" lon="5.85094">
        <ele>435</ele>
        <time>2010-01-01T12:51:23Z</time>
      </trkpt>
      <trkpt lat="45.84323" lon="5.85105">
        <ele>436</ele>
        <time>2010-01-01T12:51:26Z</time>
      </trkpt>
      <trkpt lat="45.8432" lon="5.8513">
        <ele>439</ele>
        <time>2010-01-01T12:51:33Z</time>
      </trkpt>
      <trkpt lat="45.84308" lon="5.85161">
        <ele>444</ele>
        <time>2010-01-01T12:51:43Z</time>
      </trkpt>
      <trkpt lat="45.84283" lon="5.85167">
        <ele>443</ele>
        <time>2010-01-01T12:51:53Z</time>
      </trkpt>
      <trkpt lat="45.84239" lon="5.85167">
        <ele>448</ele>
        <time>2010-01-01T12:52:11Z</time>
      </trkpt>
      <trkpt lat="45.84213" lon="5.85185">
        <ele>455</ele>
        <time>2010-01-01T12:52:22Z</time>
      </trkpt>
      <trkpt lat="45.84201" lon="5.85183">
        <ele>454</ele>
        <time>2010-01-01T12:52:27Z</time>
      </trkpt>
      <trkpt lat="45.84187" lon="5.85187">
        <ele>455</ele>
        <time>2010-01-01T12:52:33Z</time>
      </trkpt>
      <trkpt lat="45.84166" lon="5.85206">
        <ele>457</ele>
        <time>2010-01-01T12:52:43Z</time>
      </trkpt>
      <trkpt lat="45.84155" lon="5.85221">
        <ele>461</ele>
        <time>2010-01-01T12:52:49Z</time>
      </trkpt>
      <trkpt lat="45.84135" lon="5.85225">
        <ele>463</ele>
        <time>2010-01-01T12:52:57Z</time>
      </trkpt>
      <trkpt lat="45.84137" lon="5.8523">
        <ele>466</ele>
        <time>2010-01-01T12:52:58Z</time>
      </trkpt>
      <trkpt lat="45.84145" lon="5.85235">
        <ele>467</ele>
        <time>2010-01-01T12:53:02Z</time>
      </trkpt>
      <trkpt lat="45.84175" lon="5.85247">
        <ele>469</ele>
        <time>2010-01-01T12:53:14Z</time>
      </trkpt>
      <trkpt lat="45.84196" lon="5.85262">
        <ele>475</ele>
        <time>2010-01-01T12:53:24Z</time>
      </trkpt>
      <trkpt lat="45.84218" lon="5.85268">
        <ele>476</ele>
        <time>2010-01-01T12:53:33Z</time>
      </trkpt>
      <trkpt lat="45.84234" lon="5.85261">
        <ele>475</ele>
        <time>2010-01-01T12:53:39Z</time>
      </trkpt>
      <trkpt lat="45.84256" lon="5.85259">
        <ele>475</ele>
        <time>2010-01-01T12:53:48Z</time>
      </trkpt>
      <trkpt lat="45.84302" lon="5.8527">
        <ele>482</ele>
        <time>2010-01-01T12:54:07Z</time>
      </trkpt>
      <trkpt lat="45.84482" lon="5.85302">
        <ele>492</ele>
        <time>2010-01-01T12:55:20Z</time>
      </trkpt>
      <trkpt lat="45.84509" lon="5.85311">
        <ele>494</ele>
        <time>2010-01-01T12:55:31Z</time>
      </trkpt>
      <trkpt lat="45.84532" lon="5.85323">
        <ele>499</ele>
        <time>2010-01-01T12:55:40Z</time>
      </trkpt>
      <trkpt lat="45.84549" lon="5.85323">
        <ele>499</ele>
        <time>2010-01-01T12:55:47Z</time>
      </trkpt>
      <trkpt lat="45.84556" lon="5.85327">
        <ele>500</ele>
        <time>2010-01-01T12:55:50Z</time>
      </trkpt>
      <trkpt lat="45.8456" lon="5.85335">
        <ele>503</ele>
        <time>2010-01-01T12:55:53Z</time>
      </trkpt>
      <trkpt lat="45.84555" lon="5.85344">
        <ele>506</ele>
        <time>2010-01-01T12:55:56Z</time>
      </trkpt>
      <trkpt lat="45.84535" lon="5.85348">
        <ele>507</ele>
        <time>2010-01-01T12:56:04Z</time>
      </trkpt>
      <trkpt lat="45.84491" lon="5.85367">
        <ele>511</ele>
        <time>2010-01-01T12:56:23Z</time>
      </trkpt>
      <trkpt lat="45.84462" lon="5.8537">
        <ele>513</ele>
        <time>2010-01-01T12:56:34Z</time>
      </trkpt>
      <trkpt lat="45.84455" lon="5.85374">
        <ele>515</ele>
        <time>2010-01-01T12:56:37Z</time>
      </trkpt>
      <trkpt lat="45.84454" lon="5.8539">
        <ele>519</ele>
        <time>2010-01-01T12:56:42Z</time>
      </trkpt>
      <trkpt lat="45.84462" lon="5.85411">
        <ele>523</ele>
        <time>2010-01-01T12:56:48Z</time>
      </trkpt>
      <trkpt lat="45.84478" lon="5.85428">
        <ele>526</ele>
        <time>2010-01-01T12:56:56Z</time>
      </trkpt>
      <trkpt lat="45.84495" lon="5.85436">
        <ele>527</ele>
        <time>2010-01-01T12:57:04Z</time>
      </trkpt>
      <trkpt lat="45.84529" lon="5.85437">
        <ele>528</ele>
        <time>2010-01-01T12:57:17Z</time>
      </trkpt>
      <trkpt lat="45.84538" lon="5.85441">
        <ele>530</ele>
        <time>2010-01-01T12:57:21Z</time>
      </trkpt>
      <trkpt lat="45.84539" lon="5.85451">
        <ele>532</ele>
        <time>2010-01-01T12:57:24Z</time>
      </trkpt>
      <trkpt lat="45.84534" lon="5.85459">
        <ele>534</ele>
        <time>2010-01-01T12:57:27Z</time>
      </trkpt>
      <trkpt lat="45.84492" lon="5.85485">
        <ele>540</ele>
        <time>2010-01-01T12:57:45Z</time>
      </trkpt>
      <trkpt lat="45.84466" lon="5.85493">
        <ele>541</ele>
        <time>2010-01-01T12:57:56Z</time>
      </trkpt>
      <trkpt lat="45.84338" lon="5.855">
        <ele>563</ele>
        <time>2010-01-01T12:58:47Z</time>
      </trkpt>
      <trkpt lat="45.84313" lon="5.85506">
        <ele>566</ele>
        <time>2010-01-01T12:58:57Z</time>
      </trkpt>
      <trkpt lat="45.84248" lon="5.85532">
        <ele>571</ele>
        <time>2010-01-01T12:59:24Z</time>
      </trkpt>
      <trkpt lat="45.84226" lon="5.85543">
        <ele>578</ele>
        <time>2010-01-01T12:59:34Z</time>
      </trkpt>
      <trkpt lat="45.84105" lon="5.85563">
        <ele>597</ele>
        <time>2010-01-01T13:00:22Z</time>
      </trkpt>
      <trkpt lat="45.8405" lon="5.8556">
        <ele>601</ele>
        <time>2010-01-01T13:00:44Z</time>
      </trkpt>
      <trkpt lat="45.84012" lon="5.8555">
        <ele>598</ele>
        <time>2010-01-01T13:01:00Z</time>
      </trkpt>
      <trkpt lat="45.8397" lon="5.85532">
        <ele>596</ele>
        <time>2010-01-01T13:01:17Z</time>
      </trkpt>
      <trkpt lat="45.83963" lon="5.85534">
        <ele>595</ele>
        <time>2010-01-01T13:01:20Z</time>
      </trkpt>
      <trkpt lat="45.83959" lon="5.85541">
        <ele>595</ele>
        <time>2010-01-01T13:01:23Z</time>
      </trkpt>
      <trkpt lat="45.83972" lon="5.8557">
        <ele>600</ele>
        <time>2010-01-01T13:01:32Z</time>
      </trkpt>
      <trkpt lat="45.8399" lon="5.85584">
        <ele>603</ele>
        <time>2010-01-01T13:01:41Z</time>
      </trkpt>
      <trkpt lat="45.84055" lon="5.85618">
        <ele>618</ele>
        <time>2010-01-01T13:02:08Z</time>
      </trkpt>
      <trkpt lat="45.84081" lon="5.85636">
        <ele>624</ele>
        <time>2010-01-01T13:02:20Z</time>
      </trkpt>
      <trkpt lat="45.84106" lon="5.85661">
        <ele>631</ele>
        <time>2010-01-01T13:02:32Z</time>
      </trkpt>
      <trkpt lat="45.84134" lon="5.85677">
        <ele>636</ele>
        <time>2010-01-01T13:02:44Z</time>
      </trkpt>
      <trkpt lat="45.84185" lon="5.85684">
        <ele>640</ele>
        <time>2010-01-01T13:03:05Z</time>
      </trkpt>
      <trkpt lat="45.84209" lon="5.85677">
        <ele>637</ele>
        <time>2010-01-01T13:03:14Z</time>
      </trkpt>
      <trkpt lat="45.84232" lon="5.85682">
        <ele>639</ele>
        <time>2010-01-01T13:03:24Z</time>
      </trkpt>
      <trkpt lat="45.84244" lon="5.85695">
        <ele>643</ele>
        <time>2010-01-01T13:03:30Z</time>
      </trkpt>
      <trkpt lat="45.84245" lon="5.85703">
        <ele>647</ele>
        <time>2010-01-01T13:03:32Z</time>
      </trkpt>
      <trkpt lat="45.84241" lon="5.85711">
        <ele>649</ele>
        <time>2010-01-01T13:03:35Z</time>
      </trkpt>
      <trkpt lat="45.84221" lon="5.85716">
        <ele>650</ele>
        <time>2010-01-01T13:03:43Z</time>
      </trkpt>
      <trkpt lat="45.84177" lon="5.85706">
        <ele>648</ele>
        <time>2010-01-01T13:04:01Z</time>
      </trkpt>
      <trkpt lat="45.84158" lon="5.85707">
        <ele>647</ele>
        <time>2010-01-01T13:04:08Z</time>
      </trkpt>
      <trkpt lat="45.84115" lon="5.85717">
        <ele>646</ele>
        <time>2010-01-01T13:04:26Z</time>
      </trkpt>
      <trkpt lat="45.84095" lon="5.85731">
        <ele>645</ele>
        <time>2010-01-01T13:04:35Z</time>
      </trkpt>
      <trkpt lat="45.84085" lon="5.85753">
        <ele>645</ele>
        <time>2010-01-01T13:04:42Z</time>
      </trkpt>
      <trkpt lat="45.84096" lon="5.8577">
        <ele>651</ele>
        <time>2010-01-01T13:04:48Z</time>
      </trkpt>
      <trkpt lat="45.84118" lon="5.85779">
        <ele>660</ele>
        <time>2010-01-01T13:04:58Z</time>
      </trkpt>
      <trkpt lat="45.84165" lon="5.85783">
        <ele>670</ele>
        <time>2010-01-01T13:05:16Z</time>
      </trkpt>
      <trkpt lat="45.8419" lon="5.85791">
        <ele>675</ele>
        <time>2010-01-01T13:05:27Z</time>
      </trkpt>
      <trkpt lat="45.84206" lon="5.858">
        <ele>679</ele>
        <time>2010-01-01T13:05:34Z</time>
      </trkpt>
      <trkpt lat="45.84225" lon="5.85819">
        <ele>684</ele>
        <time>2010-01-01T13:05:43Z</time>
      </trkpt>
      <trkpt lat="45.84256" lon="5.85838">
        <ele>691</ele>
        <time>2010-01-01T13:05:56Z</time>
      </trkpt>
      <trkpt lat="45.84266" lon="5.85839">
        <ele>695</ele>
        <time>2010-01-01T13:06:00Z</time>
      </trkpt>
      <trkpt lat="45.84275" lon="5.85832">
        <ele>695</ele>
        <time>2010-01-01T13:06:04Z</time>
      </trkpt>
      <trkpt lat="45.84288" lon="5.85799">
        <ele>689</ele>
        <time>2010-01-01T13:06:15Z</time>
      </trkpt>
      <trkpt lat="45.84305" lon="5.85764">
        <ele>684</ele>
        <time>2010-01-01T13:06:27Z</time>
      </trkpt>
      <trkpt lat="45.84313" lon="5.85752">
        <ele>682</ele>
        <time>2010-01-01T13:06:32Z</time>
      </trkpt>
      <trkpt lat="45.8432" lon="5.85747">
        <ele>683</ele>
        <time>2010-01-01T13:06:35Z</time>
      </trkpt>
      <trkpt lat="45.84328" lon="5.85746">
        <ele>684</ele>
        <time>2010-01-01T13:06:38Z</time>
      </trkpt>
      <trkpt lat="45.84352" lon="5.8575">
        <ele>689</ele>
        <time>2010-01-01T13:06:48Z</time>
      </trkpt>
      <trkpt lat="45.84356" lon="5.85757">
        <ele>692</ele>
        <time>2010-01-01T13:06:50Z</time>
      </trkpt>
      <trkpt lat="45.84354" lon="5.85764">
        <ele>694</ele>
        <time>2010-01-01T13:06:52Z</time>
      </trkpt>
      <trkpt lat="45.84334" lon="5.85769">
        <ele>694</ele>
        <time>2010-01-01T13:07:00Z</time>
      </trkpt>
      <trkpt lat="45.84328" lon="5.85774">
        <ele>695</ele>
        <time>2010-01-01T13:07:03Z</time>
      </trkpt>
      <trkpt lat="45.84296" lon="5.85848">
        <ele>706</ele>
        <time>2010-01-01T13:07:27Z</time>
      </trkpt>
      <trkpt lat="45.84281" lon="5.85874">
        <ele>708</ele>
        <time>2010-01-01T13:07:37Z</time>
      </trkpt>
      <trkpt lat="45.84272" lon="5.85908">
        <ele>715</ele>
        <time>2010-01-01T13:07:47Z</time>
      </trkpt>
      <trkpt lat="45.84258" lon="5.85914">
        <ele>713</ele>
        <time>2010-01-01T13:07:53Z</time>
      </trkpt>
      <trkpt lat="45.84199" lon="5.85906">
        <ele>706</ele>
        <time>2010-01-01T13:08:16Z</time>
      </trkpt>
      <trkpt lat="45.84192" lon="5.85911">
        <ele>705</ele>
        <time>2010-01-01T13:08:20Z</time>
      </trkpt>
      <trkpt lat="45.84192" lon="5.85919">
        <ele>707</ele>
        <time>2010-01-01T13:08:22Z</time>
      </trkpt>
      <trkpt lat="45.84197" lon="5.85923">
        <ele>709</ele>
        <time>2010-01-01T13:08:24Z</time>
      </trkpt>
      <trkpt lat="45.84211" lon="5.85925">
        <ele>712</ele>
        <time>2010-01-01T13:08:30Z</time>
      </trkpt>
      <trkpt lat="45.84237" lon="5.85936">
        <ele>717</ele>
        <time>2010-01-01T13:08:41Z</time>
      </trkpt>
      <trkpt lat="45.84265" lon="5.85952">
        <ele>726</ele>
        <time>2010-01-01T13:08:53Z</time>
      </trkpt>
      <trkpt lat="45.84279" lon="5.85951">
        <ele>730</ele>
        <time>2010-01-01T13:08:58Z</time>
      </trkpt>
      <trkpt lat="45.84299" lon="5.8593">
        <ele>733</ele>
        <time>2010-01-01T13:09:08Z</time>
      </trkpt>
      <trkpt lat="45.84312" lon="5.85911">
        <ele>732</ele>
        <time>2010-01-01T13:09:16Z</time>
      </trkpt>
      <trkpt lat="45.84331" lon="5.85888">
        <ele>730</ele>
        <time>2010-01-01T13:09:26Z</time>
      </trkpt>
      <trkpt lat="45.84344" lon="5.85868">
        <ele>729</ele>
        <time>2010-01-01T13:09:33Z</time>
      </trkpt>
      <trkpt lat="45.84357" lon="5.85854">
        <ele>728</ele>
        <time>2010-01-01T13:09:40Z</time>
      </trkpt>
      <trkpt lat="45.84368" lon="5.85851">
        <ele>730</ele>
        <time>2010-01-01T13:09:44Z</time>
      </trkpt>
      <trkpt lat="45.84393" lon="5.85857">
        <ele>737</ele>
        <time>2010-01-01T13:09:54Z</time>
      </trkpt>
      <trkpt lat="45.8443" lon="5.85869">
        <ele>738</ele>
        <time>2010-01-01T13:10:10Z</time>
      </trkpt>
      <trkpt lat="45.84433" lon="5.85875">
        <ele>740</ele>
        <time>2010-01-01T13:10:12Z</time>
      </trkpt>
      <trkpt lat="45.84432" lon="5.85882">
        <ele>742</ele>
        <time>2010-01-01T13:10:14Z</time>
      </trkpt>
      <trkpt lat="45.84426" lon="5.85886">
        <ele>744</ele>
        <time>2010-01-01T13:10:16Z</time>
      </trkpt>
      <trkpt lat="45.84408" lon="5.85886">
        <ele>745</ele>
        <time>2010-01-01T13:10:23Z</time>
      </trkpt>
      <trkpt lat="45.84376" lon="5.85894">
        <ele>745</ele>
        <time>2010-01-01T13:10:36Z</time>
      </trkpt>
      <trkpt lat="45.84357" lon="5.85911">
        <ele>748</ele>
        <time>2010-01-01T13:10:45Z</time>
      </trkpt>
      <trkpt lat="45.84338" lon="5.85936">
        <ele>749</ele>
        <time>2010-01-01T13:10:56Z</time>
      </trkpt>
      <trkpt lat="45.84336" lon="5.85966">
        <ele>756</ele>
        <time>2010-01-01T13:11:04Z</time>
      </trkpt>
      <trkpt lat="45.84345" lon="5.85982">
        <ele>761</ele>
        <time>2010-01-01T13:11:10Z</time>
      </trkpt>
      <trkpt lat="45.84359" lon="5.85981">
        <ele>764</ele>
        <time>2010-01-01T13:11:15Z</time>
      </trkpt>
      <trkpt lat="45.84388" lon="5.85973">
        <ele>766</ele>
        <time>2010-01-01T13:11:27Z</time>
      </trkpt>
      <trkpt lat="45.84429" lon="5.85972">
        <ele>766</ele>
        <time>2010-01-01T13:11:44Z</time>
      </trkpt>
      <trkpt lat="45.84449" lon="5.85983">
        <ele>770</ele>
        <time>2010-01-01T13:11:52Z</time>
      </trkpt>
      <trkpt lat="45.84486" lon="5.86023">
        <ele>775</ele>
        <time>2010-01-01T13:12:11Z</time>
      </trkpt>
      <trkpt lat="45.84497" lon="5.86041">
        <ele>777</ele>
        <time>2010-01-01T13:12:17Z</time>
      </trkpt>
      <trkpt lat="45.84515" lon="5.86076">
        <ele>778</ele>
        <time>2010-01-01T13:12:30Z</time>
      </trkpt>
      <trkpt lat="45.84544" lon="5.86113">
        <ele>783</ele>
        <time>2010-01-01T13:12:45Z</time>
      </trkpt>
      <trkpt lat="45.84558" lon="5.86127">
        <ele>786</ele>
        <time>2010-01-01T13:12:52Z</time>
      </trkpt>
      <trkpt lat="45.84612" lon="5.86144">
        <ele>790</ele>
        <time>2010-01-01T13:13:14Z</time>
      </trkpt>
      <trkpt lat="45.8463" lon="5.86151">
        <ele>792</ele>
        <time>2010-01-01T13:13:22Z</time>
      </trkpt>
      <trkpt lat="45.84645" lon="5.86166">
        <ele>793</ele>
        <time>2010-01-01T13:13:29Z</time>
      </trkpt>
      <trkpt lat="45.84659" lon="5.86196">
        <ele>795</ele>
        <time>2010-01-01T13:13:39Z</time>
      </trkpt>
      <trkpt lat="45.84672" lon="5.86211">
        <ele>796</ele>
        <time>2010-01-01T13:13:46Z</time>
      </trkpt>
      <trkpt lat="45.84699" lon="5.86221">
        <ele>797</ele>
        <time>2010-01-01T13:13:57Z</time>
      </trkpt>
      <trkpt lat="45.84743" lon="5.86231">
        <ele>800</ele>
        <time>2010-01-01T13:14:15Z</time>
      </trkpt>
      <trkpt lat="45.84758" lon="5.86237">
        <ele>802</ele>
        <time>2010-01-01T13:14:21Z</time>
      </trkpt>
      <trkpt lat="45.84811" lon="5.86268">
        <ele>809</ele>
        <time>2010-01-01T13:14:44Z</time>
      </trkpt>
      <trkpt lat="45.84842" lon="5.86292">
        <ele>812</ele>
        <time>2010-01-01T13:14:58Z</time>
      </trkpt>
      <trkpt lat="45.84867" lon="5.8632">
        <ele>816</ele>
        <time>2010-01-01T13:15:11Z</time>
      </trkpt>
      <trkpt lat="45.84986" lon="5.86412">
        <ele>826</ele>
        <time>2010-01-01T13:16:05Z</time>
      </trkpt>
      <trkpt lat="45.85012" lon="5.86431">
        <ele>829</ele>
        <time>2010-01-01T13:16:16Z</time>
      </trkpt>
      <trkpt lat="45.8503" lon="5.86441">
        <ele>831</ele>
        <time>2010-01-01T13:16:24Z</time>
      </trkpt>
      <trkpt lat="45.85055" lon="5.86458">
        <ele>834</ele>
        <time>2010-01-01T13:16:35Z</time>
      </trkpt>
      <trkpt lat="45.85076" lon="5.86479">
        <ele>834</ele>
        <time>2010-01-01T13:16:45Z</time>
      </trkpt>
      <trkpt lat="45.8509" lon="5.86496">
        <ele>834</ele>
        <time>2010-01-01T13:16:53Z</time>
      </trkpt>
      <trkpt lat="45.85111" lon="5.86553">
        <ele>841</ele>
        <time>2010-01-01T13:17:11Z</time>
      </trkpt>
      <trkpt lat="45.85135" lon="5.86606">
        <ele>846</ele>
        <time>2010-01-01T13:17:28Z</time>
      </trkpt>
      <trkpt lat="45.85135" lon="5.86605">
        <ele>846</ele>
        <time>2010-01-01T13:17:29Z</time>
      </trkpt>
      <trkpt lat="45.85154" lon="5.8665">
        <ele>848</ele>
        <time>2010-01-01T13:17:43Z</time>
      </trkpt>
      <trkpt lat="45.85155" lon="5.86678">
        <ele>847</ele>
        <time>2010-01-01T13:17:51Z</time>
      </trkpt>
      <trkpt lat="45.85147" lon="5.86732">
        <ele>849</ele>
        <time>2010-01-01T13:18:07Z</time>
      </trkpt>
      <trkpt lat="45.85141" lon="5.86742">
        <ele>851</ele>
        <time>2010-01-01T13:18:10Z</time>
      </trkpt>
      <trkpt lat="45.85121" lon="5.86761">
        <ele>855</ele>
        <time>2010-01-01T13:18:20Z</time>
      </trkpt>
      <trkpt lat="45.8509" lon="5.86782">
        <ele>861</ele>
        <time>2010-01-01T13:18:34Z</time>
      </trkpt>
      <trkpt lat="45.85086" lon="5.86792">
        <ele>862</ele>
        <time>2010-01-01T13:18:37Z</time>
      </trkpt>
      <trkpt lat="45.8508" lon="5.86821">
        <ele>867</ele>
        <time>2010-01-01T13:18:45Z</time>
      </trkpt>
      <trkpt lat="45.85066" lon="5.86821">
        <ele>870</ele>
        <time>2010-01-01T13:18:51Z</time>
      </trkpt>
      <trkpt lat="45.85049" lon="5.86806">
        <ele>871</ele>
        <time>2010-01-01T13:18:59Z</time>
      </trkpt>
      <trkpt lat="45.85035" lon="5.86781">
        <ele>871</ele>
        <time>2010-01-01T13:19:08Z</time>
      </trkpt>
      <trkpt lat="45.84977" lon="5.86706">
        <ele>877</ele>
        <time>2010-01-01T13:19:39Z</time>
      </trkpt>
      <trkpt lat="45.84965" lon="5.86701">
        <ele>877</ele>
        <time>2010-01-01T13:19:44Z</time>
      </trkpt>
      <trkpt lat="45.8494" lon="5.86707">
        <ele>879</ele>
        <time>2010-01-01T13:19:54Z</time>
      </trkpt>
      <trkpt lat="45.84895" lon="5.86722">
        <ele>882</ele>
        <time>2010-01-01T13:20:13Z</time>
      </trkpt>
      <trkpt lat="45.84859" lon="5.86741">
        <ele>884</ele>
        <time>2010-01-01T13:20:28Z</time>
      </trkpt>
      <trkpt lat="45.84804" lon="5.86765">
        <ele>890</ele>
        <time>2010-01-01T13:20:51Z</time>
      </trkpt>
      <trkpt lat="45.84785" lon="5.86766">
        <ele>890</ele>
        <time>2010-01-01T13:20:59Z</time>
      </trkpt>
      <trkpt lat="45.84749" lon="5.86744">
        <ele>890</ele>
        <time>2010-01-01T13:21:14Z</time>
      </trkpt>
      <trkpt lat="45.84705" lon="5.86721">
        <ele>895</ele>
        <time>2010-01-01T13:21:33Z</time>
      </trkpt>
      <trkpt lat="45.84672" lon="5.8671">
        <ele>900</ele>
        <time>2010-01-01T13:21:47Z</time>
      </trkpt>
      <trkpt lat="45.84659" lon="5.86708">
        <ele>901</ele>
        <time>2010-01-01T13:21:52Z</time>
      </trkpt>
      <trkpt lat="45.8465" lon="5.86712">
        <ele>902</ele>
        <time>2010-01-01T13:21:56Z</time>
      </trkpt>
      <trkpt lat="45.84644" lon="5.86725">
        <ele>905</ele>
        <time>2010-01-01T13:22:00Z</time>
      </trkpt>
      <trkpt lat="45.84655" lon="5.86796">
        <ele>914</ele>
        <time>2010-01-01T13:22:20Z</time>
      </trkpt>
      <trkpt lat="45.84658" lon="5.86844">
        <ele>920</ele>
        <time>2010-01-01T13:22:34Z</time>
      </trkpt>
      <trkpt lat="45.84657" lon="5.86876">
        <ele>924</ele>
        <time>2010-01-01T13:22:43Z</time>
      </trkpt>
      <trkpt lat="45.8467" lon="5.86903">
        <ele>926</ele>
        <time>2010-01-01T13:22:52Z</time>
      </trkpt>
      <trkpt lat="45.84716" lon="5.86937">
        <ele>929</ele>
        <time>2010-01-01T13:23:12Z</time>
      </trkpt>
      <trkpt lat="45.84729" lon="5.86956">
        <ele>932</ele>
        <time>2010-01-01T13:23:20Z</time>
      </trkpt>
      <trkpt lat="45.84739" lon="5.86962">
        <ele>932</ele>
        <time>2010-01-01T13:23:24Z</time>
      </trkpt>
      <trkpt lat="45.84768" lon="5.86997">
        <ele>935</ele>
        <time>2010-01-01T13:23:39Z</time>
      </trkpt>
      <trkpt lat="45.84779" lon="5.87027">
        <ele>939</ele>
        <time>2010-01-01T13:23:49Z</time>
      </trkpt>
      <trkpt lat="45.84805" lon="5.87069">
        <ele>943</ele>
        <time>2010-01-01T13:24:04Z</time>
      </trkpt>
      <trkpt lat="45.84821" lon="5.871">
        <ele>945</ele>
        <time>2010-01-01T13:24:15Z</time>
      </trkpt>
      <trkpt lat="45.84819" lon="5.87142">
        <ele>947</ele>
        <time>2010-01-01T13:24:27Z</time>
      </trkpt>
      <trkpt lat="45.84835" lon="5.87157">
        <ele>946</ele>
        <time>2010-01-01T13:24:35Z</time>
      </trkpt>
      <trkpt lat="45.84859" lon="5.87159">
        <ele>944</ele>
        <time>2010-01-01T13:24:44Z</time>
      </trkpt>
      <trkpt lat="45.84866" lon="5.87163">
        <ele>943</ele>
        <time>2010-01-01T13:24:47Z</time>
      </trkpt>
      <trkpt lat="45.84877" lon="5.87179">
        <ele>943</ele>
        <time>2010-01-01T13:24:53Z</time>
      </trkpt>
      <trkpt lat="45.84877" lon="5.87191">
        <ele>944</ele>
        <time>2010-01-01T13:24:57Z</time>
      </trkpt>
      <trkpt lat="45.84842" lon="5.87287">
        <ele>953</ele>
        <time>2010-01-01T13:25:27Z</time>
      </trkpt>
      <trkpt lat="45.84818" lon="5.8734">
        <ele>956</ele>
        <time>2010-01-01T13:25:45Z</time>
      </trkpt>
      <trkpt lat="45.84798" lon="5.87376">
        <ele>961</ele>
        <time>2010-01-01T13:25:58Z</time>
      </trkpt>
      <trkpt lat="45.84759" lon="5.87408">
        <ele>969</ele>
        <time>2010-01-01T13:26:16Z</time>
      </trkpt>
      <trkpt lat="45.84683" lon="5.87458">
        <ele>973</ele>
        <time>2010-01-01T13:26:49Z</time>
      </trkpt>
      <trkpt lat="45.84656" lon="5.87506">
        <ele>970</ele>
        <time>2010-01-01T13:27:06Z</time>
      </trkpt>
      <trkpt lat="45.8465" lon="5.87519">
        <ele>970</ele>
        <time>2010-01-01T13:27:11Z</time>
      </trkpt>
      <trkpt lat="45.84647" lon="5.87538">
        <ele>970</ele>
        <time>2010-01-01T13:27:16Z</time>
      </trkpt>
      <trkpt lat="45.84657" lon="5.87585">
        <ele>971</ele>
        <time>2010-01-01T13:27:30Z</time>
      </trkpt>
      <trkpt lat="45.84673" lon="5.87636">
        <ele>973</ele>
        <time>2010-01-01T13:27:45Z</time>
      </trkpt>
      <trkpt lat="45.84717" lon="5.87749">
        <ele>979</ele>
        <time>2010-01-01T13:28:21Z</time>
      </trkpt>
      <trkpt lat="45.84763" lon="5.87969">
        <ele>982</ele>
        <time>2010-01-01T13:29:25Z</time>
      </trkpt>
      <trkpt lat="45.8477" lon="5.87983">
        <ele>981</ele>
        <time>2010-01-01T13:29:30Z</time>
      </trkpt>
      <trkpt lat="45.84787" lon="5.87993">
        <ele>980</ele>
        <time>2010-01-01T13:29:38Z</time>
      </trkpt>
      <trkpt lat="45.84849" lon="5.88002">
        <ele>979</ele>
        <time>2010-01-01T13:30:03Z</time>
      </trkpt>
      <trkpt lat="45.84882" lon="5.88009">
        <ele>977</ele>
        <time>2010-01-01T13:30:16Z</time>
      </trkpt>
      <trkpt lat="45.84911" lon="5.88025">
        <ele>977</ele>
        <time>2010-01-01T13:30:28Z</time>
      </trkpt>
      <trkpt lat="45.84931" lon="5.88052">
        <ele>974</ele>
        <time>2010-01-01T13:30:39Z</time>
      </trkpt>
      <trkpt lat="45.84932" lon="5.88087">
        <ele>970</ele>
        <time>2010-01-01T13:30:49Z</time>
      </trkpt>
      <trkpt lat="45.84941" lon="5.88117">
        <ele>966</ele>
        <time>2010-01-01T13:30:58Z</time>
      </trkpt>
      <trkpt lat="45.84964" lon="5.88143">
        <ele>964</ele>
        <time>2010-01-01T13:31:10Z</time>
      </trkpt>
      <trkpt lat="45.84974" lon="5.88177">
        <ele>960</ele>
        <time>2010-01-01T13:31:20Z</time>
      </trkpt>
      <trkpt lat="45.84904" lon="5.88134">
        <ele>960</ele>
        <time>2010-01-01T13:31:51Z</time>
      </trkpt>
      <trkpt lat="45.84864" lon="5.88118">
        <ele>957</ele>
        <time>2010-01-01T13:32:07Z</time>
      </trkpt>
      <trkpt lat="45.84828" lon="5.88122">
        <ele>955</ele>
        <time>2010-01-01T13:32:22Z</time>
      </trkpt>
      <trkpt lat="45.84746" lon="5.88122">
        <ele>950</ele>
        <time>2010-01-01T13:32:55Z</time>
      </trkpt>
      <trkpt lat="45.84695" lon="5.88125">
        <ele>946</ele>
        <time>2010-01-01T13:33:15Z</time>
      </trkpt>
      <trkpt lat="45.84658" lon="5.88133">
        <ele>947</ele>
        <time>2010-01-01T13:33:30Z</time>
      </trkpt>
      <trkpt lat="45.84577" lon="5.88133">
        <ele>940</ele>
        <time>2010-01-01T13:34:02Z</time>
      </trkpt>
      <trkpt lat="45.84546" lon="5.88128">
        <ele>937</ele>
        <time>2010-01-01T13:34:15Z</time>
      </trkpt>
      <trkpt lat="45.84481" lon="5.88132">
        <ele>931</ele>
        <time>2010-01-01T13:34:41Z</time>
      </trkpt>
      <trkpt lat="45.8444" lon="5.88137">
        <ele>925</ele>
        <time>2010-01-01T13:34:57Z</time>
      </trkpt>
      <trkpt lat="45.84408" lon="5.88152">
        <ele>918</ele>
        <time>2010-01-01T13:35:11Z</time>
      </trkpt>
      <trkpt lat="45.84392" lon="5.88188">
        <ele>909</ele>
        <time>2010-01-01T13:35:23Z</time>
      </trkpt>
      <trkpt lat="45.8437" lon="5.882">
        <ele>904</ele>
        <time>2010-01-01T13:35:32Z</time>
      </trkpt>
      <trkpt lat="45.8434" lon="5.882">
        <ele>902</ele>
        <time>2010-01-01T13:35:44Z</time>
      </trkpt>
      <trkpt lat="45.84317" lon="5.88206">
        <ele>900</ele>
        <time>2010-01-01T13:35:54Z</time>
      </trkpt>
      <trkpt lat="45.84301" lon="5.88219">
        <ele>898</ele>
        <time>2010-01-01T13:36:01Z</time>
      </trkpt>
      <trkpt lat="45.84289" lon="5.88244">
        <ele>897</ele>
        <time>2010-01-01T13:36:09Z</time>
      </trkpt>
      <trkpt lat="45.84278" lon="5.88285">
        <ele>893</ele>
        <time>2010-01-01T13:36:22Z</time>
      </trkpt>
      <trkpt lat="45.84264" lon="5.88344">
        <ele>882</ele>
        <time>2010-01-01T13:36:39Z</time>
      </trkpt>
      <trkpt lat="45.84253" lon="5.88379">
        <ele>877</ele>
        <time>2010-01-01T13:36:50Z</time>
      </trkpt>
      <trkpt lat="45.84232" lon="5.88406">
        <ele>872</ele>
        <time>2010-01-01T13:37:01Z</time>
      </trkpt>
      <trkpt lat="45.84202" lon="5.88437">
        <ele>866</ele>
        <time>2010-01-01T13:37:16Z</time>
      </trkpt>
      <trkpt lat="45.84124" lon="5.88462">
        <ele>855</ele>
        <time>2010-01-01T13:37:48Z</time>
      </trkpt>
      <trkpt lat="45.84074" lon="5.88471">
        <ele>851</ele>
        <time>2010-01-01T13:38:08Z</time>
      </trkpt>
      <trkpt lat="45.84021" lon="5.88505">
        <ele>848</ele>
        <time>2010-01-01T13:38:31Z</time>
      </trkpt>
      <trkpt lat="45.84003" lon="5.88535">
        <ele>842</ele>
        <time>2010-01-01T13:38:42Z</time>
      </trkpt>
      <trkpt lat="45.83979" lon="5.88557">
        <ele>836</ele>
        <time>2010-01-01T13:38:54Z</time>
      </trkpt>
      <trkpt lat="45.83943" lon="5.88561">
        <ele>834</ele>
        <time>2010-01-01T13:39:08Z</time>
      </trkpt>
      <trkpt lat="45.83911" lon="5.88557">
        <ele>831</ele>
        <time>2010-01-01T13:39:21Z</time>
      </trkpt>
      <trkpt lat="45.83855" lon="5.88557">
        <ele>818</ele>
        <time>2010-01-01T13:39:43Z</time>
      </trkpt>
      <trkpt lat="45.83803" lon="5.88572">
        <ele>809</ele>
        <time>2010-01-01T13:40:05Z</time>
      </trkpt>
      <trkpt lat="45.83748" lon="5.88593">
        <ele>796</ele>
        <time>2010-01-01T13:40:27Z</time>
      </trkpt>
      <trkpt lat="45.83694" lon="5.88576">
        <ele>795</ele>
        <time>2010-01-01T13:40:50Z</time>
      </trkpt>
      <trkpt lat="45.83648" lon="5.88565">
        <ele>789</ele>
        <time>2010-01-01T13:41:08Z</time>
      </trkpt>
      <trkpt lat="45.83585" lon="5.88565">
        <ele>773</ele>
        <time>2010-01-01T13:41:33Z</time>
      </trkpt>
      <trkpt lat="45.83597" lon="5.88591">
        <ele>768</ele>
        <time>2010-01-01T13:41:42Z</time>
      </trkpt>
      <trkpt lat="45.83622" lon="5.88616">
        <ele>764</ele>
        <time>2010-01-01T13:41:54Z</time>
      </trkpt>
      <trkpt lat="45.83678" lon="5.88657">
        <ele>765</ele>
        <time>2010-01-01T13:42:19Z</time>
      </trkpt>
      <trkpt lat="45.83753" lon="5.88707">
        <ele>760</ele>
        <time>2010-01-01T13:42:53Z</time>
      </trkpt>
      <trkpt lat="45.83807" lon="5.88726">
        <ele>754</ele>
        <time>2010-01-01T13:43:15Z</time>
      </trkpt>
      <trkpt lat="45.83881" lon="5.888">
        <ele>736</ele>
        <time>2010-01-01T13:43:51Z</time>
      </trkpt>
      <trkpt lat="45.83906" lon="5.88812">
        <ele>734</ele>
        <time>2010-01-01T13:44:01Z</time>
      </trkpt>
      <trkpt lat="45.83936" lon="5.88831">
        <ele>731</ele>
        <time>2010-01-01T13:44:15Z</time>
      </trkpt>
      <trkpt lat="45.84011" lon="5.88885">
        <ele>712</ele>
        <time>2010-01-01T13:44:48Z</time>
      </trkpt>
      <trkpt lat="45.84038" lon="5.88909">
        <ele>709</ele>
        <time>2010-01-01T13:45:01Z</time>
      </trkpt>
      <trkpt lat="45.84065" lon="5.88924">
        <ele>707</ele>
        <time>2010-01-01T13:45:12Z</time>
      </trkpt>
      <trkpt lat="45.841" lon="5.88934">
        <ele>707</ele>
        <time>2010-01-01T13:45:27Z</time>
      </trkpt>
      <trkpt lat="45.8411" lon="5.88943">
        <ele>705</ele>
        <time>2010-01-01T13:45:32Z</time>
      </trkpt>
      <trkpt lat="45.84132" lon="5.8897">
        <ele>696</ele>
        <time>2010-01-01T13:45:43Z</time>
      </trkpt>
      <trkpt lat="45.84151" lon="5.89027">
        <ele>685</ele>
        <time>2010-01-01T13:46:01Z</time>
      </trkpt>
      <trkpt lat="45.84167" lon="5.89055">
        <ele>685</ele>
        <time>2010-01-01T13:46:11Z</time>
      </trkpt>
      <trkpt lat="45.84184" lon="5.89073">
        <ele>683</ele>
        <time>2010-01-01T13:46:19Z</time>
      </trkpt>
      <trkpt lat="45.84204" lon="5.89085">
        <ele>681</ele>
        <time>2010-01-01T13:46:28Z</time>
      </trkpt>
      <trkpt lat="45.84234" lon="5.89109">
        <ele>679</ele>
        <time>2010-01-01T13:46:42Z</time>
      </trkpt>
      <trkpt lat="45.84258" lon="5.89119">
        <ele>678</ele>
        <time>2010-01-01T13:46:52Z</time>
      </trkpt>
      <trkpt lat="45.84285" lon="5.89137">
        <ele>677</ele>
        <time>2010-01-01T13:47:04Z</time>
      </trkpt>
      <trkpt lat="45.84307" lon="5.89144">
        <ele>676</ele>
        <time>2010-01-01T13:47:13Z</time>
      </trkpt>
      <trkpt lat="45.8433" lon="5.89157">
        <ele>675</ele>
        <time>2010-01-01T13:47:23Z</time>
      </trkpt>
      <trkpt lat="45.84351" lon="5.89162">
        <ele>674</ele>
        <time>2010-01-01T13:47:31Z</time>
      </trkpt>
      <trkpt lat="45.84398" lon="5.89193">
        <ele>671</ele>
        <time>2010-01-01T13:47:52Z</time>
      </trkpt>
      <trkpt lat="45.84433" lon="5.89211">
        <ele>666</ele>
        <time>2010-01-01T13:48:07Z</time>
      </trkpt>
      <trkpt lat="45.8445" lon="5.89202">
        <ele>665</ele>
        <time>2010-01-01T13:48:14Z</time>
      </trkpt>
      <trkpt lat="45.84464" lon="5.892">
        <ele>664</ele>
        <time>2010-01-01T13:48:20Z</time>
      </trkpt>
      <trkpt lat="45.84488" lon="5.892">
        <ele>663</ele>
        <time>2010-01-01T13:48:29Z</time>
      </trkpt>
      <trkpt lat="45.84536" lon="5.89221">
        <ele>655</ele>
        <time>2010-01-01T13:48:49Z</time>
      </trkpt>
      <trkpt lat="45.84589" lon="5.89237">
        <ele>657</ele>
        <time>2010-01-01T13:49:11Z</time>
      </trkpt>
      <trkpt lat="45.84654" lon="5.89293">
        <ele>653</ele>
        <time>2010-01-01T13:49:41Z</time>
      </trkpt>
      <trkpt lat="45.8466" lon="5.8931">
        <ele>651</ele>
        <time>2010-01-01T13:49:47Z</time>
      </trkpt>
      <trkpt lat="45.84652" lon="5.89323">
        <ele>648</ele>
        <time>2010-01-01T13:49:51Z</time>
      </trkpt>
      <trkpt lat="45.84635" lon="5.89323">
        <ele>645</ele>
        <time>2010-01-01T13:49:58Z</time>
      </trkpt>
      <trkpt lat="45.84617" lon="5.89312">
        <ele>644</ele>
        <time>2010-01-01T13:50:06Z</time>
      </trkpt>
      <trkpt lat="45.84598" lon="5.89304">
        <ele>643</ele>
        <time>2010-01-01T13:50:14Z</time>
      </trkpt>
      <trkpt lat="45.84578" lon="5.89302">
        <ele>642</ele>
        <time>2010-01-01T13:50:22Z</time>
      </trkpt>
      <trkpt lat="45.84573" lon="5.89317">
        <ele>638</ele>
        <time>2010-01-01T13:50:27Z</time>
      </trkpt>
      <trkpt lat="45.8458" lon="5.89338">
        <ele>633</ele>
        <time>2010-01-01T13:50:33Z</time>
      </trkpt>
      <trkpt lat="45.84594" lon="5.89358">
        <ele>631</ele>
        <time>2010-01-01T13:50:41Z</time>
      </trkpt>
      <trkpt lat="45.84613" lon="5.89376">
        <ele>630</ele>
        <time>2010-01-01T13:50:50Z</time>
      </trkpt>
      <trkpt lat="45.84654" lon="5.89426">
        <ele>627</ele>
        <time>2010-01-01T13:51:12Z</time>
      </trkpt>
      <trkpt lat="45.84668" lon="5.89472">
        <ele>620</ele>
        <time>2010-01-01T13:51:26Z</time>
      </trkpt>
      <trkpt lat="45.84663" lon="5.89485">
        <ele>617</ele>
        <time>2010-01-01T13:51:30Z</time>
      </trkpt>
      <trkpt lat="45.84669" lon="5.89522">
        <ele>614</ele>
        <time>2010-01-01T13:51:40Z</time>
      </trkpt>
      <trkpt lat="45.84664" lon="5.89555">
        <ele>609</ele>
        <time>2010-01-01T13:51:50Z</time>
      </trkpt>
      <trkpt lat="45.84657" lon="5.89588">
        <ele>604</ele>
        <time>2010-01-01T13:51:59Z</time>
      </trkpt>
      <trkpt lat="45.84649" lon="5.89621">
        <ele>600</ele>
        <time>2010-01-01T13:52:09Z</time>
      </trkpt>
      <trkpt lat="45.8465" lon="5.89722">
        <ele>591</ele>
        <time>2010-01-01T13:52:37Z</time>
      </trkpt>
      <trkpt lat="45.84656" lon="5.89754">
        <ele>588</ele>
        <time>2010-01-01T13:52:47Z</time>
      </trkpt>
      <trkpt lat="45.84659" lon="5.8978">
        <ele>586</ele>
        <time>2010-01-01T13:52:54Z</time>
      </trkpt>
      <trkpt lat="45.84643" lon="5.89833">
        <ele>581</ele>
        <time>2010-01-01T13:53:10Z</time>
      </trkpt>
      <trkpt lat="45.84639" lon="5.89854">
        <ele>578</ele>
        <time>2010-01-01T13:53:16Z</time>
      </trkpt>
      <trkpt lat="45.84639" lon="5.89873">
        <ele>576</ele>
        <time>2010-01-01T13:53:21Z</time>
      </trkpt>
      <trkpt lat="45.84649" lon="5.89884">
        <ele>575</ele>
        <time>2010-01-01T13:53:26Z</time>
      </trkpt>
      <trkpt lat="45.8466" lon="5.89895">
        <ele>573</ele>
        <time>2010-01-01T13:53:32Z</time>
      </trkpt>
      <trkpt lat="45.84671" lon="5.89899">
        <ele>573</ele>
        <time>2010-01-01T13:53:36Z</time>
      </trkpt>
      <trkpt lat="45.84672" lon="5.89912">
        <ele>570</ele>
        <time>2010-01-01T13:53:40Z</time>
      </trkpt>
      <trkpt lat="45.84663" lon="5.89923">
        <ele>568</ele>
        <time>2010-01-01T13:53:45Z</time>
      </trkpt>
      <trkpt lat="45.84654" lon="5.89916">
        <ele>569</ele>
        <time>2010-01-01T13:53:49Z</time>
      </trkpt>
      <trkpt lat="45.84637" lon="5.89922">
        <ele>568</ele>
        <time>2010-01-01T13:53:56Z</time>
      </trkpt>
      <trkpt lat="45.84637" lon="5.89937">
        <ele>566</ele>
        <time>2010-01-01T13:54:00Z</time>
      </trkpt>
      <trkpt lat="45.84652" lon="5.89944">
        <ele>566</ele>
        <time>2010-01-01T13:54:06Z</time>
      </trkpt>
      <trkpt lat="45.84661" lon="5.89944">
        <ele>566</ele>
        <time>2010-01-01T13:54:10Z</time>
      </trkpt>
      <trkpt lat="45.84673" lon="5.89953">
        <ele>565</ele>
        <time>2010-01-01T13:54:15Z</time>
      </trkpt>
      <trkpt lat="45.84673" lon="5.89977">
        <ele>563</ele>
        <time>2010-01-01T13:54:22Z</time>
      </trkpt>
      <trkpt lat="45.84666" lon="5.89994">
        <ele>562</ele>
        <time>2010-01-01T13:54:28Z</time>
      </trkpt>
      <trkpt lat="45.8466" lon="5.90015">
        <ele>561</ele>
        <time>2010-01-01T13:54:34Z</time>
      </trkpt>
      <trkpt lat="45.84661" lon="5.90044">
        <ele>559</ele>
        <time>2010-01-01T13:54:42Z</time>
      </trkpt>
      <trkpt lat="45.84612" lon="5.90029">
        <ele>559</ele>
        <time>2010-01-01T13:55:02Z</time>
      </trkpt>
      <trkpt lat="45.84591" lon="5.90033">
        <ele>560</ele>
        <time>2010-01-01T13:55:11Z</time>
      </trkpt>
      <trkpt lat="45.84578" lon="5.90096">
        <ele>556</ele>
        <time>2010-01-01T13:55:29Z</time>
      </trkpt>
      <trkpt lat="45.84575" lon="5.90126">
        <ele>555</ele>
        <time>2010-01-01T13:55:37Z</time>
      </trkpt>
      <trkpt lat="45.8457" lon="5.90147">
        <ele>556</ele>
        <time>2010-01-01T13:55:43Z</time>
      </trkpt>
      <trkpt lat="45.84539" lon="5.90191">
        <ele>556</ele>
        <time>2010-01-01T13:56:01Z</time>
      </trkpt>
      <trkpt lat="45.8453" lon="5.90216">
        <ele>554</ele>
        <time>2010-01-01T13:56:09Z</time>
      </trkpt>
      <trkpt lat="45.845" lon="5.9038">
        <ele>546</ele>
        <time>2010-01-01T13:56:56Z</time>
      </trkpt>
      <trkpt lat="45.84505" lon="5.90401">
        <ele>544</ele>
        <time>2010-01-01T13:57:02Z</time>
      </trkpt>
      <trkpt lat="45.84546" lon="5.90457">
        <ele>540</ele>
        <time>2010-01-01T13:57:25Z</time>
      </trkpt>
      <trkpt lat="45.84557" lon="5.90467">
        <ele>539</ele>
        <time>2010-01-01T13:57:30Z</time>
      </trkpt>
      <trkpt lat="45.84561" lon="5.9048">
        <ele>536</ele>
        <time>2010-01-01T13:57:34Z</time>
      </trkpt>
      <trkpt lat="45.84563" lon="5.90501">
        <ele>533</ele>
        <time>2010-01-01T13:57:40Z</time>
      </trkpt>
      <trkpt lat="45.84557" lon="5.90513">
        <ele>531</ele>
        <time>2010-01-01T13:57:44Z</time>
      </trkpt>
      <trkpt lat="45.84525" lon="5.90519">
        <ele>531</ele>
        <time>2010-01-01T13:57:57Z</time>
      </trkpt>
      <trkpt lat="45.84518" lon="5.90532">
        <ele>528</ele>
        <time>2010-01-01T13:58:02Z</time>
      </trkpt>
      <trkpt lat="45.84522" lon="5.90545">
        <ele>525</ele>
        <time>2010-01-01T13:58:06Z</time>
      </trkpt>
      <trkpt lat="45.8453" lon="5.90553">
        <ele>523</ele>
        <time>2010-01-01T13:58:09Z</time>
      </trkpt>
      <trkpt lat="45.84547" lon="5.90558">
        <ele>522</ele>
        <time>2010-01-01T13:58:16Z</time>
      </trkpt>
      <trkpt lat="45.84562" lon="5.90558">
        <ele>522</ele>
        <time>2010-01-01T13:58:22Z</time>
      </trkpt>
      <trkpt lat="45.84582" lon="5.90562">
        <ele>523</ele>
        <time>2010-01-01T13:58:31Z</time>
      </trkpt>
      <trkpt lat="45.84598" lon="5.90562">
        <ele>522</ele>
        <time>2010-01-01T13:58:37Z</time>
      </trkpt>
      <trkpt lat="45.84617" lon="5.90558">
        <ele>520</ele>
        <time>2010-01-01T13:58:45Z</time>
      </trkpt>
      <trkpt lat="45.84631" lon="5.90552">
        <ele>519</ele>
        <time>2010-01-01T13:58:50Z</time>
      </trkpt>
      <trkpt lat="45.84658" lon="5.9055">
        <ele>517</ele>
        <time>2010-01-01T13:59:01Z</time>
      </trkpt>
      <trkpt lat="45.84691" lon="5.90561">
        <ele>515</ele>
        <time>2010-01-01T13:59:15Z</time>
      </trkpt>
      <trkpt lat="45.84707" lon="5.9057">
        <ele>515</ele>
        <time>2010-01-01T13:59:22Z</time>
      </trkpt>
      <trkpt lat="45.84721" lon="5.90585">
        <ele>514</ele>
        <time>2010-01-01T13:59:29Z</time>
      </trkpt>
      <trkpt lat="45.84737" lon="5.90605">
        <ele>514</ele>
        <time>2010-01-01T13:59:37Z</time>
      </trkpt>
      <trkpt lat="45.8474" lon="5.90638">
        <ele>512</ele>
        <time>2010-01-01T13:59:46Z</time>
      </trkpt>
      <trkpt lat="45.84764" lon="5.90699">
        <ele>509</ele>
        <time>2010-01-01T14:00:06Z</time>
      </trkpt>
      <trkpt lat="45.84767" lon="5.90721">
        <ele>508</ele>
        <time>2010-01-01T14:00:12Z</time>
      </trkpt>
      <trkpt lat="45.84769" lon="5.90766">
        <ele>507</ele>
        <time>2010-01-01T14:00:25Z</time>
      </trkpt>
      <trkpt lat="45.84781" lon="5.90786">
        <ele>509</ele>
        <time>2010-01-01T14:00:32Z</time>
      </trkpt>
      <trkpt lat="45.84797" lon="5.90801">
        <ele>511</ele>
        <time>2010-01-01T14:00:40Z</time>
      </trkpt>
      <trkpt lat="45.8482" lon="5.90811">
        <ele>513</ele>
        <time>2010-01-01T14:00:49Z</time>
      </trkpt>
      <trkpt lat="45.84842" lon="5.90809">
        <ele>515</ele>
        <time>2010-01-01T14:00:58Z</time>
      </trkpt>
      <trkpt lat="45.84864" lon="5.90804">
        <ele>517</ele>
        <time>2010-01-01T14:01:07Z</time>
      </trkpt>
      <trkpt lat="45.84882" lon="5.90809">
        <ele>518</ele>
        <time>2010-01-01T14:01:15Z</time>
      </trkpt>
      <trkpt lat="45.84911" lon="5.90826">
        <ele>520</ele>
        <time>2010-01-01T14:01:27Z</time>
      </trkpt>
      <trkpt lat="45.84937" lon="5.90853">
        <ele>522</ele>
        <time>2010-01-01T14:01:40Z</time>
      </trkpt>
      <trkpt lat="45.84971" lon="5.90904">
        <ele>523</ele>
        <time>2010-01-01T14:02:00Z</time>
      </trkpt>
      <trkpt lat="45.84996" lon="5.90933">
        <ele>523</ele>
        <time>2010-01-01T14:02:12Z</time>
      </trkpt>
      <trkpt lat="45.85016" lon="5.90952">
        <ele>524</ele>
        <time>2010-01-01T14:02:22Z</time>
      </trkpt>
      <trkpt lat="45.85041" lon="5.90967">
        <ele>526</ele>
        <time>2010-01-01T14:02:33Z</time>
      </trkpt>
      <trkpt lat="45.85058" lon="5.90981">
        <ele>527</ele>
        <time>2010-01-01T14:02:41Z</time>
      </trkpt>
      <trkpt lat="45.85075" lon="5.9099">
        <ele>527</ele>
        <time>2010-01-01T14:02:48Z</time>
      </trkpt>
      <trkpt lat="45.85089" lon="5.91004">
        <ele>528</ele>
        <time>2010-01-01T14:02:55Z</time>
      </trkpt>
      <trkpt lat="45.85144" lon="5.91038">
        <ele>530</ele>
        <time>2010-01-01T14:03:19Z</time>
      </trkpt>
      <trkpt lat="45.85156" lon="5.91086">
        <ele>533</ele>
        <time>2010-01-01T14:03:33Z</time>
      </trkpt>
      <trkpt lat="45.85149" lon="5.91123">
        <ele>536</ele>
        <time>2010-01-01T14:03:44Z</time>
      </trkpt>
      <trkpt lat="45.85134" lon="5.91165">
        <ele>538</ele>
        <time>2010-01-01T14:03:57Z</time>
      </trkpt>
      <trkpt lat="45.85113" lon="5.91193">
        <ele>539</ele>
        <time>2010-01-01T14:04:08Z</time>
      </trkpt>
      <trkpt lat="45.85089" lon="5.91213">
        <ele>537</ele>
        <time>2010-01-01T14:04:19Z</time>
      </trkpt>
      <trkpt lat="45.85071" lon="5.91246">
        <ele>538</ele>
        <time>2010-01-01T14:04:31Z</time>
      </trkpt>
      <trkpt lat="45.85065" lon="5.91305">
        <ele>540</ele>
        <time>2010-01-01T14:04:48Z</time>
      </trkpt>
      <trkpt lat="45.85063" lon="5.91352">
        <ele>542</ele>
        <time>2010-01-01T14:05:01Z</time>
      </trkpt>
      <trkpt lat="45.85051" lon="5.91406">
        <ele>542</ele>
        <time>2010-01-01T14:05:17Z</time>
      </trkpt>
      <trkpt lat="45.85088" lon="5.91577">
        <ele>538</ele>
        <time>2010-01-01T14:06:07Z</time>
      </trkpt>
      <trkpt lat="45.85122" lon="5.91689">
        <ele>531</ele>
        <time>2010-01-01T14:06:41Z</time>
      </trkpt>
      <trkpt lat="45.85141" lon="5.91723">
        <ele>531</ele>
        <time>2010-01-01T14:06:53Z</time>
      </trkpt>
      <trkpt lat="45.8516" lon="5.91737">
        <ele>531</ele>
        <time>2010-01-01T14:07:01Z</time>
      </trkpt>
      <trkpt lat="45.8517" lon="5.91749">
        <ele>530</ele>
        <time>2010-01-01T14:07:07Z</time>
      </trkpt>
      <trkpt lat="45.85179" lon="5.91766">
        <ele>527</ele>
        <time>2010-01-01T14:07:13Z</time>
      </trkpt>
      <trkpt lat="45.85185" lon="5.91784">
        <ele>524</ele>
        <time>2010-01-01T14:07:18Z</time>
      </trkpt>
      <trkpt lat="45.85192" lon="5.91796">
        <ele>522</ele>
        <time>2010-01-01T14:07:23Z</time>
      </trkpt>
      <trkpt lat="45.85204" lon="5.91811">
        <ele>521</ele>
        <time>2010-01-01T14:07:29Z</time>
      </trkpt>
      <trkpt lat="45.85218" lon="5.91821">
        <ele>523</ele>
        <time>2010-01-01T14:07:35Z</time>
      </trkpt>
      <trkpt lat="45.85231" lon="5.91835">
        <ele>521</ele>
        <time>2010-01-01T14:07:42Z</time>
      </trkpt>
      <trkpt lat="45.85263" lon="5.91858">
        <ele>518</ele>
        <time>2010-01-01T14:07:56Z</time>
      </trkpt>
      <trkpt lat="45.85272" lon="5.91873">
        <ele>515</ele>
        <time>2010-01-01T14:08:01Z</time>
      </trkpt>
      <trkpt lat="45.85303" lon="5.91911">
        <ele>510</ele>
        <time>2010-01-01T14:08:18Z</time>
      </trkpt>
      <trkpt lat="45.85331" lon="5.91952">
        <ele>509</ele>
        <time>2010-01-01T14:08:34Z</time>
      </trkpt>
      <trkpt lat="45.85349" lon="5.91986">
        <ele>507</ele>
        <time>2010-01-01T14:08:46Z</time>
      </trkpt>
      <trkpt lat="45.85361" lon="5.91999">
        <ele>507</ele>
        <time>2010-01-01T14:08:52Z</time>
      </trkpt>
      <trkpt lat="45.85378" lon="5.92011">
        <ele>505</ele>
        <time>2010-01-01T14:08:59Z</time>
      </trkpt>
      <trkpt lat="45.85397" lon="5.92015">
        <ele>505</ele>
        <time>2010-01-01T14:09:07Z</time>
      </trkpt>
      <trkpt lat="45.85425" lon="5.92013">
        <ele>505</ele>
        <time>2010-01-01T14:09:18Z</time>
      </trkpt>
      <trkpt lat="45.85437" lon="5.92006">
        <ele>505</ele>
        <time>2010-01-01T14:09:23Z</time>
      </trkpt>
      <trkpt lat="45.85485" lon="5.91989">
        <ele>504</ele>
        <time>2010-01-01T14:09:43Z</time>
      </trkpt>
      <trkpt lat="45.855" lon="5.91986">
        <ele>504</ele>
        <time>2010-01-01T14:09:49Z</time>
      </trkpt>
      <trkpt lat="45.85514" lon="5.91987">
        <ele>504</ele>
        <time>2010-01-01T14:09:55Z</time>
      </trkpt>
      <trkpt lat="45.85549" lon="5.92005">
        <ele>503</ele>
        <time>2010-01-01T14:10:10Z</time>
      </trkpt>
      <trkpt lat="45.85573" lon="5.92025">
        <ele>502</ele>
        <time>2010-01-01T14:10:21Z</time>
      </trkpt>
      <trkpt lat="45.85627" lon="5.92079">
        <ele>500</ele>
        <time>2010-01-01T14:10:47Z</time>
      </trkpt>
      <trkpt lat="45.85743" lon="5.92179">
        <ele>491</ele>
        <time>2010-01-01T14:11:41Z</time>
      </trkpt>
      <trkpt lat="45.85754" lon="5.92193">
        <ele>490</ele>
        <time>2010-01-01T14:11:47Z</time>
      </trkpt>
      <trkpt lat="45.85788" lon="5.92223">
        <ele>486</ele>
        <time>2010-01-01T14:12:03Z</time>
      </trkpt>
      <trkpt lat="45.85825" lon="5.92273">
        <ele>480</ele>
        <time>2010-01-01T14:12:24Z</time>
      </trkpt>
      <trkpt lat="45.85846" lon="5.92291">
        <ele>479</ele>
        <time>2010-01-01T14:12:33Z</time>
      </trkpt>
      <trkpt lat="45.85856" lon="5.92305">
        <ele>478</ele>
        <time>2010-01-01T14:12:39Z</time>
      </trkpt>
      <trkpt lat="45.85862" lon="5.92325">
        <ele>476</ele>
        <time>2010-01-01T14:12:45Z</time>
      </trkpt>
      <trkpt lat="45.85887" lon="5.92493">
        <ele>468</ele>
        <time>2010-01-01T14:13:33Z</time>
      </trkpt>
      <trkpt lat="45.85892" lon="5.92542">
        <ele>468</ele>
        <time>2010-01-01T14:13:47Z</time>
      </trkpt>
      <trkpt lat="45.85892" lon="5.92583">
        <ele>468</ele>
        <time>2010-01-01T14:13:58Z</time>
      </trkpt>
      <trkpt lat="45.85887" lon="5.92631">
        <ele>469</ele>
        <time>2010-01-01T14:14:12Z</time>
      </trkpt>
      <trkpt lat="45.85872" lon="5.92679">
        <ele>470</ele>
        <time>2010-01-01T14:14:26Z</time>
      </trkpt>
      <trkpt lat="45.85865" lon="5.9272">
        <ele>471</ele>
        <time>2010-01-01T14:14:38Z</time>
      </trkpt>
      <trkpt lat="45.85844" lon="5.92863">
        <ele>465</ele>
        <time>2010-01-01T14:15:19Z</time>
      </trkpt>
      <trkpt lat="45.8584" lon="5.929">
        <ele>463</ele>
        <time>2010-01-01T14:15:29Z</time>
      </trkpt>
      <trkpt lat="45.85832" lon="5.92941">
        <ele>460</ele>
        <time>2010-01-01T14:15:41Z</time>
      </trkpt>
      <trkpt lat="45.85832" lon="5.92977">
        <ele>455</ele>
        <time>2010-01-01T14:15:51Z</time>
      </trkpt>
      <trkpt lat="45.85844" lon="5.93002">
        <ele>453</ele>
        <time>2010-01-01T14:16:00Z</time>
      </trkpt>
      <trkpt lat="45.85859" lon="5.93025">
        <ele>451</ele>
        <time>2010-01-01T14:16:08Z</time>
      </trkpt>
      <trkpt lat="45.85879" lon="5.9305">
        <ele>450</ele>
        <time>2010-01-01T14:16:19Z</time>
      </trkpt>
      <trkpt lat="45.85915" lon="5.93115">
        <ele>447</ele>
        <time>2010-01-01T14:16:42Z</time>
      </trkpt>
      <trkpt lat="45.85924" lon="5.93142">
        <ele>446</ele>
        <time>2010-01-01T14:16:51Z</time>
      </trkpt>
      <trkpt lat="45.85948" lon="5.93276">
        <ele>436</ele>
        <time>2010-01-01T14:17:29Z</time>
      </trkpt>
      <trkpt lat="45.85947" lon="5.93297">
        <ele>434</ele>
        <time>2010-01-01T14:17:35Z</time>
      </trkpt>
      <trkpt lat="45.85953" lon="5.93321">
        <ele>434</ele>
        <time>2010-01-01T14:17:42Z</time>
      </trkpt>
      <trkpt lat="45.85965" lon="5.93349">
        <ele>433</ele>
        <time>2010-01-01T14:17:51Z</time>
      </trkpt>
      <trkpt lat="45.8598" lon="5.93378">
        <ele>431</ele>
        <time>2010-01-01T14:18:01Z</time>
      </trkpt>
      <trkpt lat="45.86009" lon="5.93426">
        <ele>425</ele>
        <time>2010-01-01T14:18:19Z</time>
      </trkpt>
      <trkpt lat="45.86014" lon="5.9346">
        <ele>419</ele>
        <time>2010-01-01T14:18:29Z</time>
      </trkpt>
      <trkpt lat="45.86005" lon="5.93514">
        <ele>412</ele>
        <time>2010-01-01T14:18:44Z</time>
      </trkpt>
      <trkpt lat="45.86002" lon="5.93556">
        <ele>406</ele>
        <time>2010-01-01T14:18:56Z</time>
      </trkpt>
      <trkpt lat="45.86007" lon="5.93583">
        <ele>402</ele>
        <time>2010-01-01T14:19:04Z</time>
      </trkpt>
      <trkpt lat="45.86016" lon="5.93604">
        <ele>397</ele>
        <time>2010-01-01T14:19:11Z</time>
      </trkpt>
      <trkpt lat="45.86032" lon="5.93626">
        <ele>393</ele>
        <time>2010-01-01T14:19:20Z</time>
      </trkpt>
      <trkpt lat="45.86043" lon="5.93637">
        <ele>390</ele>
        <time>2010-01-01T14:19:25Z</time>
      </trkpt>
      <trkpt lat="45.86062" lon="5.93647">
        <ele>389</ele>
        <time>2010-01-01T14:19:33Z</time>
      </trkpt>
      <trkpt lat="45.86083" lon="5.9365">
        <ele>388</ele>
        <time>2010-01-01T14:19:41Z</time>
      </trkpt>
      <trkpt lat="45.86095" lon="5.93654">
        <ele>387</ele>
        <time>2010-01-01T14:19:46Z</time>
      </trkpt>
      <trkpt lat="45.86108" lon="5.93665">
        <ele>385</ele>
        <time>2010-01-01T14:19:52Z</time>
      </trkpt>
      <trkpt lat="45.86139" lon="5.93701">
        <ele>375</ele>
        <time>2010-01-01T14:20:08Z</time>
      </trkpt>
      <trkpt lat="45.86154" lon="5.93729">
        <ele>370</ele>
        <time>2010-01-01T14:20:18Z</time>
      </trkpt>
      <trkpt lat="45.86172" lon="5.9377">
        <ele>367</ele>
        <time>2010-01-01T14:20:32Z</time>
      </trkpt>
      <trkpt lat="45.86189" lon="5.93773">
        <ele>367</ele>
        <time>2010-01-01T14:20:39Z</time>
      </trkpt>
      <trkpt lat="45.86201" lon="5.93787">
        <ele>365</ele>
        <time>2010-01-01T14:20:45Z</time>
      </trkpt>
      <trkpt lat="45.86205" lon="5.93807">
        <ele>363</ele>
        <time>2010-01-01T14:20:51Z</time>
      </trkpt>
      <trkpt lat="45.86205" lon="5.93837">
        <ele>361</ele>
        <time>2010-01-01T14:20:59Z</time>
      </trkpt>
      <trkpt lat="45.86209" lon="5.93849">
        <ele>360</ele>
        <time>2010-01-01T14:21:03Z</time>
      </trkpt>
      <trkpt lat="45.86222" lon="5.93865">
        <ele>359</ele>
        <time>2010-01-01T14:21:10Z</time>
      </trkpt>
      <trkpt lat="45.86278" lon="5.93904">
        <ele>353</ele>
        <time>2010-01-01T14:21:34Z</time>
      </trkpt>
      <trkpt lat="45.86311" lon="5.93933">
        <ele>352</ele>
        <time>2010-01-01T14:21:50Z</time>
      </trkpt>
      <trkpt lat="45.8633" lon="5.93968">
        <ele>351</ele>
        <time>2010-01-01T14:22:02Z</time>
      </trkpt>
      <trkpt lat="45.8634" lon="5.93983">
        <ele>350</ele>
        <time>2010-01-01T14:22:08Z</time>
      </trkpt>
      <trkpt lat="45.86362" lon="5.93999">
        <ele>348</ele>
        <time>2010-01-01T14:22:18Z</time>
      </trkpt>
      <trkpt lat="45.86397" lon="5.94034">
        <ele>347</ele>
        <time>2010-01-01T14:22:35Z</time>
      </trkpt>
      <trkpt lat="45.86432" lon="5.94055">
        <ele>348</ele>
        <time>2010-01-01T14:22:50Z</time>
      </trkpt>
      <trkpt lat="45.8645" lon="5.94062">
        <ele>348</ele>
        <time>2010-01-01T14:22:58Z</time>
      </trkpt>
      <trkpt lat="45.86478" lon="5.94076">
        <ele>347</ele>
        <time>2010-01-01T14:23:10Z</time>
      </trkpt>
      <trkpt lat="45.86505" lon="5.94082">
        <ele>345</ele>
        <time>2010-01-01T14:23:20Z</time>
      </trkpt>
      <trkpt lat="45.86522" lon="5.94079">
        <ele>343</ele>
        <time>2010-01-01T14:23:27Z</time>
      </trkpt>
      <trkpt lat="45.86553" lon="5.94064">
        <ele>340</ele>
        <time>2010-01-01T14:23:40Z</time>
      </trkpt>
      <trkpt lat="45.86571" lon="5.94062">
        <ele>341</ele>
        <time>2010-01-01T14:23:48Z</time>
      </trkpt>
      <trkpt lat="45.86584" lon="5.94064">
        <ele>341</ele>
        <time>2010-01-01T14:23:53Z</time>
      </trkpt>
      <trkpt lat="45.86598" lon="5.94071">
        <ele>341</ele>
        <time>2010-01-01T14:23:59Z</time>
      </trkpt>
      <trkpt lat="45.86609" lon="5.94081">
        <ele>340</ele>
        <time>2010-01-01T14:24:04Z</time>
      </trkpt>
      <trkpt lat="45.86627" lon="5.94134">
        <ele>334</ele>
        <time>2010-01-01T14:24:20Z</time>
      </trkpt>
      <trkpt lat="45.86631" lon="5.94142">
        <ele>334</ele>
        <time>2010-01-01T14:24:23Z</time>
      </trkpt>
      <trkpt lat="45.86644" lon="5.94164">
        <ele>333</ele>
        <time>2010-01-01T14:24:31Z</time>
      </trkpt>
      <trkpt lat="45.86674" lon="5.94202">
        <ele>335</ele>
        <time>2010-01-01T14:24:47Z</time>
      </trkpt>
      <trkpt lat="45.8668" lon="5.94212">
        <ele>336</ele>
        <time>2010-01-01T14:24:51Z</time>
      </trkpt>
      <trkpt lat="45.86685" lon="5.94228">
        <ele>337</ele>
        <time>2010-01-01T14:24:56Z</time>
      </trkpt>
      <trkpt lat="45.86679" lon="5.94299">
        <ele>338</ele>
        <time>2010-01-01T14:25:16Z</time>
      </trkpt>
      <trkpt lat="45.86673" lon="5.94324">
        <ele>339</ele>
        <time>2010-01-01T14:25:23Z</time>
      </trkpt>
      <trkpt lat="45.86665" lon="5.94344">
        <ele>340</ele>
        <time>2010-01-01T14:25:30Z</time>
      </trkpt>
      <trkpt lat="45.86659" lon="5.94356">
        <ele>341</ele>
        <time>2010-01-01T14:25:34Z</time>
      </trkpt>
      <trkpt lat="45.8667" lon="5.94378">
        <ele>341</ele>
        <time>2010-01-01T14:25:41Z</time>
      </trkpt>
      <trkpt lat="45.86685" lon="5.94396">
        <ele>340</ele>
        <time>2010-01-01T14:25:49Z</time>
      </trkpt>
      <trkpt lat="45.86704" lon="5.94402">
        <ele>339</ele>
        <time>2010-01-01T14:25:57Z</time>
      </trkpt>
      <trkpt lat="45.86688" lon="5.94444">
        <ele>339</ele>
        <time>2010-01-01T14:26:10Z</time>
      </trkpt>
      <trkpt lat="45.86692" lon="5.94447">
        <ele>339</ele>
        <time>2010-01-01T14:26:12Z</time>
      </trkpt>
      <trkpt lat="45.8672" lon="5.9446">
        <ele>339</ele>
        <time>2010-01-01T14:26:24Z</time>
      </trkpt>
      <trkpt lat="45.86729" lon="5.94463">
        <ele>340</ele>
        <time>2010-01-01T14:26:27Z</time>
      </trkpt>
      <trkpt lat="45.86742" lon="5.94462">
        <ele>341</ele>
        <time>2010-01-01T14:26:33Z</time>
      </trkpt>
      <trkpt lat="45.86769" lon="5.94447">
        <ele>341</ele>
        <time>2010-01-01T14:26:44Z</time>
      </trkpt>
      <trkpt lat="45.86796" lon="5.94441">
        <ele>340</ele>
        <time>2010-01-01T14:26:55Z</time>
      </trkpt>
      <trkpt lat="45.86811" lon="5.94409">
        <ele>340</ele>
        <time>2010-01-01T14:27:06Z</time>
      </trkpt>
      <trkpt lat="45.86814" lon="5.94407">
        <ele>340</ele>
        <time>2010-01-01T14:27:07Z</time>
      </trkpt>
      <trkpt lat="45.86821" lon="5.94382">
        <ele>340</ele>
        <time>2010-01-01T14:27:15Z</time>
      </trkpt>
      <trkpt lat="45.86828" lon="5.94388">
        <ele>341</ele>
        <time>2010-01-01T14:27:18Z</time>
      </trkpt>
      <trkpt lat="45.8684" lon="5.94406">
        <ele>342</ele>
        <time>2010-01-01T14:27:25Z</time>
      </trkpt>
      <trkpt lat="45.86847" lon="5.94413">
        <ele>342</ele>
        <time>2010-01-01T14:27:28Z</time>
      </trkpt>
      <trkpt lat="45.86879" lon="5.94433">
        <ele>340</ele>
        <time>2010-01-01T14:27:42Z</time>
      </trkpt>
      <trkpt lat="45.8689" lon="5.94402">
        <ele>340</ele>
        <time>2010-01-01T14:27:52Z</time>
      </trkpt>
      <trkpt lat="45.86897" lon="5.9439">
        <ele>339</ele>
        <time>2010-01-01T14:27:56Z</time>
      </trkpt>
      <trkpt lat="45.86906" lon="5.94386">
        <ele>337</ele>
        <time>2010-01-01T14:28:00Z</time>
      </trkpt>
      <trkpt lat="45.86943" lon="5.94401">
        <ele>329</ele>
        <time>2010-01-01T14:28:16Z</time>
      </trkpt>
      <trkpt lat="45.86974" lon="5.9441">
        <ele>333</ele>
        <time>2010-01-01T14:28:28Z</time>
      </trkpt>
      <trkpt lat="45.86997" lon="5.94411">
        <ele>339</ele>
        <time>2010-01-01T14:28:37Z</time>
      </trkpt>
      <trkpt lat="45.87038" lon="5.94408">
        <ele>342</ele>
        <time>2010-01-01T14:28:54Z</time>
      </trkpt>
      <trkpt lat="45.87045" lon="5.94396">
        <ele>341</ele>
        <time>2010-01-01T14:28:58Z</time>
      </trkpt>
      <trkpt lat="45.87063" lon="5.94349">
        <ele>340</ele>
        <time>2010-01-01T14:29:13Z</time>
      </trkpt>
      <trkpt lat="45.87085" lon="5.94308">
        <ele>339</ele>
        <time>2010-01-01T14:29:28Z</time>
      </trkpt>
      <trkpt lat="45.87089" lon="5.94306">
        <ele>339</ele>
        <time>2010-01-01T14:29:29Z</time>
      </trkpt>
      <trkpt lat="45.87113" lon="5.94285">
        <ele>339</ele>
        <time>2010-01-01T14:29:41Z</time>
      </trkpt>
      <trkpt lat="45.87119" lon="5.94276">
        <ele>339</ele>
        <time>2010-01-01T14:29:44Z</time>
      </trkpt>
      <trkpt lat="45.87129" lon="5.9427">
        <ele>340</ele>
        <time>2010-01-01T14:29:48Z</time>
      </trkpt>
      <trkpt lat="45.87155" lon="5.94251">
        <ele>340</ele>
        <time>2010-01-01T14:30:00Z</time>
      </trkpt>
      <trkpt lat="45.87261" lon="5.94198">
        <ele>336</ele>
        <time>2010-01-01T14:30:45Z</time>
      </trkpt>
      <trkpt lat="45.87323" lon="5.94147">
        <ele>335</ele>
        <time>2010-01-01T14:31:14Z</time>
      </trkpt>
      <trkpt lat="45.87388" lon="5.94056">
        <ele>332</ele>
        <time>2010-01-01T14:31:50Z</time>
      </trkpt>
      <trkpt lat="45.87421" lon="5.94023">
        <ele>337</ele>
        <time>2010-01-01T14:32:06Z</time>
      </trkpt>
      <trkpt lat="45.87631" lon="5.93914">
        <ele>335</ele>
        <time>2010-01-01T14:33:35Z</time>
      </trkpt>
      <trkpt lat="45.87771" lon="5.93848">
        <ele>332</ele>
        <time>2010-01-01T14:34:34Z</time>
      </trkpt>
      <trkpt lat="45.8777" lon="5.93896">
        <ele>335</ele>
        <time>2010-01-01T14:34:48Z</time>
      </trkpt>
      <trkpt lat="45.87764" lon="5.94043">
        <ele>340</ele>
        <time>2010-01-01T14:35:29Z</time>
      </trkpt>
      <trkpt lat="45.87778" lon="5.94054">
        <ele>341</ele>
        <time>2010-01-01T14:35:35Z</time>
      </trkpt>
      <trkpt lat="45.87835" lon="5.94057">
        <ele>344</ele>
        <time>2010-01-01T14:35:58Z</time>
      </trkpt>
      <trkpt lat="45.87856" lon="5.94048">
        <ele>344</ele>
        <time>2010-01-01T14:36:07Z</time>
      </trkpt>
      <trkpt lat="45.87874" lon="5.94034">
        <ele>344</ele>
        <time>2010-01-01T14:36:15Z</time>
      </trkpt>
      <trkpt lat="45.87894" lon="5.94032">
        <ele>346</ele>
        <time>2010-01-01T14:36:23Z</time>
      </trkpt>
      <trkpt lat="45.87931" lon="5.94034">
        <ele>346</ele>
        <time>2010-01-01T14:36:38Z</time>
      </trkpt>
      <trkpt lat="45.87976" lon="5.94023">
        <ele>346</ele>
        <time>2010-01-01T14:36:56Z</time>
      </trkpt>
      <trkpt lat="45.87988" lon="5.94022">
        <ele>347</ele>
        <time>2010-01-01T14:37:01Z</time>
      </trkpt>
      <trkpt lat="45.88033" lon="5.9403">
        <ele>351</ele>
        <time>2010-01-01T14:37:19Z</time>
      </trkpt>
      <trkpt lat="45.88052" lon="5.94012">
        <ele>353</ele>
        <time>2010-01-01T14:37:28Z</time>
      </trkpt>
      <trkpt lat="45.88063" lon="5.94008">
        <ele>354</ele>
        <time>2010-01-01T14:37:33Z</time>
      </trkpt>
      <trkpt lat="45.8813" lon="5.94016">
        <ele>350</ele>
        <time>2010-01-01T14:38:00Z</time>
      </trkpt>
      <trkpt lat="45.88134" lon="5.94028">
        <ele>350</ele>
        <time>2010-01-01T14:38:03Z</time>
      </trkpt>
      <trkpt lat="45.88142" lon="5.94041">
        <ele>350</ele>
        <time>2010-01-01T14:38:08Z</time>
      </trkpt>
      <trkpt lat="45.8816" lon="5.94063">
        <ele>350</ele>
        <time>2010-01-01T14:38:18Z</time>
      </trkpt>
      <trkpt lat="45.88168" lon="5.94095">
        <ele>350</ele>
        <time>2010-01-01T14:38:27Z</time>
      </trkpt>
      <trkpt lat="45.88172" lon="5.94144">
        <ele>352</ele>
        <time>2010-01-01T14:38:41Z</time>
      </trkpt>
      <trkpt lat="45.88177" lon="5.94174">
        <ele>354</ele>
        <time>2010-01-01T14:38:50Z</time>
      </trkpt>
      <trkpt lat="45.88216" lon="5.94245">
        <ele>357</ele>
        <time>2010-01-01T14:39:15Z</time>
      </trkpt>
      <trkpt lat="45.88286" lon="5.94235">
        <ele>357</ele>
        <time>2010-01-01T14:39:43Z</time>
      </trkpt>
      <trkpt lat="45.88404" lon="5.94222">
        <ele>354</ele>
        <time>2010-01-01T14:40:30Z</time>
      </trkpt>
      <trkpt lat="45.88432" lon="5.94224">
        <ele>354</ele>
        <time>2010-01-01T14:40:41Z</time>
      </trkpt>
      <trkpt lat="45.88446" lon="5.94232">
        <ele>354</ele>
        <time>2010-01-01T14:40:47Z</time>
      </trkpt>
      <trkpt lat="45.88563" lon="5.94349">
        <ele>352</ele>
        <time>2010-01-01T14:41:45Z</time>
      </trkpt>
      <trkpt lat="45.88588" lon="5.94355">
        <ele>350</ele>
        <time>2010-01-01T14:41:55Z</time>
      </trkpt>
      <trkpt lat="45.88637" lon="5.94402">
        <ele>349</ele>
        <time>2010-01-01T14:42:18Z</time>
      </trkpt>
      <trkpt lat="45.88662" lon="5.94408">
        <ele>345</ele>
        <time>2010-01-01T14:42:28Z</time>
      </trkpt>
      <trkpt lat="45.88707" lon="5.94398">
        <ele>339</ele>
        <time>2010-01-01T14:42:47Z</time>
      </trkpt>
      <trkpt lat="45.8872" lon="5.94392">
        <ele>339</ele>
        <time>2010-01-01T14:42:52Z</time>
      </trkpt>
      <trkpt lat="45.88734" lon="5.94464">
        <ele>343</ele>
        <time>2010-01-01T14:43:13Z</time>
      </trkpt>
      <trkpt lat="45.88743" lon="5.94489">
        <ele>345</ele>
        <time>2010-01-01T14:43:21Z</time>
      </trkpt>
      <trkpt lat="45.88744" lon="5.94535">
        <ele>345</ele>
        <time>2010-01-01T14:43:34Z</time>
      </trkpt>
      <trkpt lat="45.88748" lon="5.94544">
        <ele>345</ele>
        <time>2010-01-01T14:43:37Z</time>
      </trkpt>
      <trkpt lat="45.88863" lon="5.94681">
        <ele>344</ele>
        <time>2010-01-01T14:44:36Z</time>
      </trkpt>
      <trkpt lat="45.88874" lon="5.94687">
        <ele>345</ele>
        <time>2010-01-01T14:44:41Z</time>
      </trkpt>
      <trkpt lat="45.88895" lon="5.94691">
        <ele>345</ele>
        <time>2010-01-01T14:44:50Z</time>
      </trkpt>
      <trkpt lat="45.88931" lon="5.94731">
        <ele>347</ele>
        <time>2010-01-01T14:45:08Z</time>
      </trkpt>
      <trkpt lat="45.88933" lon="5.94744">
        <ele>347</ele>
        <time>2010-01-01T14:45:12Z</time>
      </trkpt>
      <trkpt lat="45.8893" lon="5.9476">
        <ele>347</ele>
        <time>2010-01-01T14:45:16Z</time>
      </trkpt>
      <trkpt lat="45.889" lon="5.94851">
        <ele>347</ele>
        <time>2010-01-01T14:45:44Z</time>
      </trkpt>
      <trkpt lat="45.88893" lon="5.94882">
        <ele>348</ele>
        <time>2010-01-01T14:45:53Z</time>
      </trkpt>
      <trkpt lat="45.88888" lon="5.9495">
        <ele>350</ele>
        <time>2010-01-01T14:46:12Z</time>
      </trkpt>
      <trkpt lat="45.88882" lon="5.94991">
        <ele>354</ele>
        <time>2010-01-01T14:46:24Z</time>
      </trkpt>
      <trkpt lat="45.88882" lon="5.95011">
        <ele>356</ele>
        <time>2010-01-01T14:46:30Z</time>
      </trkpt>
      <trkpt lat="45.88891" lon="5.95043">
        <ele>359</ele>
        <time>2010-01-01T14:46:39Z</time>
      </trkpt>
      <trkpt lat="45.88896" lon="5.95074">
        <ele>360</ele>
        <time>2010-01-01T14:46:48Z</time>
      </trkpt>
      <trkpt lat="45.88902" lon="5.95087">
        <ele>361</ele>
        <time>2010-01-01T14:46:52Z</time>
      </trkpt>
      <trkpt lat="45.88916" lon="5.95091">
        <ele>361</ele>
        <time>2010-01-01T14:46:58Z</time>
      </trkpt>
      <trkpt lat="45.88978" lon="5.95085">
        <ele>363</ele>
        <time>2010-01-01T14:47:23Z</time>
      </trkpt>
      <trkpt lat="45.88999" lon="5.95091">
        <ele>364</ele>
        <time>2010-01-01T14:47:32Z</time>
      </trkpt>
      <trkpt lat="45.89013" lon="5.95105">
        <ele>365</ele>
        <time>2010-01-01T14:47:38Z</time>
      </trkpt>
      <trkpt lat="45.89022" lon="5.95135">
        <ele>367</ele>
        <time>2010-01-01T14:47:47Z</time>
      </trkpt>
      <trkpt lat="45.8903" lon="5.95194">
        <ele>367</ele>
        <time>2010-01-01T14:48:04Z</time>
      </trkpt>
      <trkpt lat="45.89045" lon="5.95234">
        <ele>367</ele>
        <time>2010-01-01T14:48:17Z</time>
      </trkpt>
      <trkpt lat="45.89056" lon="5.95268">
        <ele>367</ele>
        <time>2010-01-01T14:48:27Z</time>
      </trkpt>
      <trkpt lat="45.89062" lon="5.95304">
        <ele>366</ele>
        <time>2010-01-01T14:48:38Z</time>
      </trkpt>
      <trkpt lat="45.89061" lon="5.95329">
        <ele>366</ele>
        <time>2010-01-01T14:48:45Z</time>
      </trkpt>
      <trkpt lat="45.89051" lon="5.95387">
        <ele>367</ele>
        <time>2010-01-01T14:49:01Z</time>
      </trkpt>
      <trkpt lat="45.89048" lon="5.95433">
        <ele>365</ele>
        <time>2010-01-01T14:49:14Z</time>
      </trkpt>
      <trkpt lat="45.89051" lon="5.95462">
        <ele>365</ele>
        <time>2010-01-01T14:49:22Z</time>
      </trkpt>
      <trkpt lat="45.8906" lon="5.95489">
        <ele>365</ele>
        <time>2010-01-01T14:49:31Z</time>
      </trkpt>
      <trkpt lat="45.89065" lon="5.95512">
        <ele>364</ele>
        <time>2010-01-01T14:49:37Z</time>
      </trkpt>
      <trkpt lat="45.89066" lon="5.95535">
        <ele>363</ele>
        <time>2010-01-01T14:49:44Z</time>
      </trkpt>
      <trkpt lat="45.89064" lon="5.9555">
        <ele>362</ele>
        <time>2010-01-01T14:49:48Z</time>
      </trkpt>
      <trkpt lat="45.89037" lon="5.95575">
        <ele>361</ele>
        <time>2010-01-01T14:50:01Z</time>
      </trkpt>
      <trkpt lat="45.89082" lon="5.95604">
        <ele>360</ele>
        <time>2010-01-01T14:50:21Z</time>
      </trkpt>
      <trkpt lat="45.89093" lon="5.95629">
        <ele>359</ele>
        <time>2010-01-01T14:50:29Z</time>
      </trkpt>
      <trkpt lat="45.89108" lon="5.957">
        <ele>363</ele>
        <time>2010-01-01T14:50:50Z</time>
      </trkpt>
      <trkpt lat="45.89141" lon="5.95833">
        <ele>369</ele>
        <time>2010-01-01T14:51:29Z</time>
      </trkpt>
      <trkpt lat="45.89164" lon="5.9588">
        <ele>372</ele>
        <time>2010-01-01T14:51:45Z</time>
      </trkpt>
      <trkpt lat="45.89247" lon="5.96017">
        <ele>378</ele>
        <time>2010-01-01T14:52:36Z</time>
      </trkpt>
      <trkpt lat="45.89357" lon="5.96164">
        <ele>379</ele>
        <time>2010-01-01T14:53:36Z</time>
      </trkpt>
      <trkpt lat="45.89375" lon="5.96212">
        <ele>377</ele>
        <time>2010-01-01T14:53:51Z</time>
      </trkpt>
      <trkpt lat="45.89392" lon="5.96364">
        <ele>377</ele>
        <time>2010-01-01T14:54:34Z</time>
      </trkpt>
      <trkpt lat="45.89405" lon="5.96414">
        <ele>376</ele>
        <time>2010-01-01T14:54:49Z</time>
      </trkpt>
      <trkpt lat="45.89557" lon="5.96614">
        <ele>372</ele>
        <time>2010-01-01T14:56:11Z</time>
      </trkpt>
      <trkpt lat="45.89677" lon="5.96716">
        <ele>363</ele>
        <time>2010-01-01T14:57:07Z</time>
      </trkpt>
      <trkpt lat="45.89699" lon="5.96737">
        <ele>362</ele>
        <time>2010-01-01T14:57:18Z</time>
      </trkpt>
      <trkpt lat="45.89882" lon="5.96982">
        <ele>350</ele>
        <time>2010-01-01T14:58:58Z</time>
      </trkpt>
      <trkpt lat="45.89921" lon="5.97038">
        <ele>351</ele>
        <time>2010-01-01T14:59:20Z</time>
      </trkpt>
      <trkpt lat="45.90049" lon="5.9721">
        <ele>349</ele>
        <time>2010-01-01T15:00:30Z</time>
      </trkpt>
      <trkpt lat="45.90082" lon="5.9726">
        <ele>347</ele>
        <time>2010-01-01T15:00:49Z</time>
      </trkpt>
      <trkpt lat="45.90105" lon="5.97316">
        <ele>345</ele>
        <time>2010-01-01T15:01:07Z</time>
      </trkpt>
      <trkpt lat="45.90165" lon="5.97304">
        <ele>338</ele>
        <time>2010-01-01T15:01:31Z</time>
      </trkpt>
      <trkpt lat="45.90216" lon="5.97301">
        <ele>344</ele>
        <time>2010-01-01T15:01:52Z</time>
      </trkpt>
      <trkpt lat="45.90237" lon="5.9729">
        <ele>347</ele>
        <time>2010-01-01T15:02:01Z</time>
      </trkpt>
      <trkpt lat="45.90276" lon="5.97259">
        <ele>351</ele>
        <time>2010-01-01T15:02:19Z</time>
      </trkpt>
      <trkpt lat="45.90304" lon="5.97245">
        <ele>352</ele>
        <time>2010-01-01T15:02:31Z</time>
      </trkpt>
      <trkpt lat="45.90336" lon="5.97239">
        <ele>357</ele>
        <time>2010-01-01T15:02:43Z</time>
      </trkpt>
      <trkpt lat="45.90355" lon="5.97241">
        <ele>359</ele>
        <time>2010-01-01T15:02:51Z</time>
      </trkpt>
      <trkpt lat="45.90366" lon="5.97246">
        <ele>361</ele>
        <time>2010-01-01T15:02:56Z</time>
      </trkpt>
      <trkpt lat="45.90365" lon="5.97266">
        <ele>362</ele>
        <time>2010-01-01T15:03:01Z</time>
      </trkpt>
      <trkpt lat="45.9036" lon="5.97286">
        <ele>363</ele>
        <time>2010-01-01T15:03:07Z</time>
      </trkpt>
      <trkpt lat="45.90341" lon="5.97346">
        <ele>368</ele>
        <time>2010-01-01T15:03:26Z</time>
      </trkpt>
      <trkpt lat="45.90337" lon="5.97387">
        <ele>371</ele>
        <time>2010-01-01T15:03:37Z</time>
      </trkpt>
      <trkpt lat="45.90352" lon="5.97495">
        <ele>375</ele>
        <time>2010-01-01T15:04:08Z</time>
      </trkpt>
      <trkpt lat="45.90355" lon="5.976">
        <ele>373</ele>
        <time>2010-01-01T15:04:37Z</time>
      </trkpt>
      <trkpt lat="45.90361" lon="5.97635">
        <ele>371</ele>
        <time>2010-01-01T15:04:47Z</time>
      </trkpt>
      <trkpt lat="45.9037" lon="5.97657">
        <ele>371</ele>
        <time>2010-01-01T15:04:54Z</time>
      </trkpt>
      <trkpt lat="45.90434" lon="5.97768">
        <ele>371</ele>
        <time>2010-01-01T15:05:34Z</time>
      </trkpt>
      <trkpt lat="45.90451" lon="5.97809">
        <ele>367</ele>
        <time>2010-01-01T15:05:48Z</time>
      </trkpt>
      <trkpt lat="45.90463" lon="5.9787">
        <ele>363</ele>
        <time>2010-01-01T15:06:05Z</time>
      </trkpt>
      <trkpt lat="45.90493" lon="5.98097">
        <ele>365</ele>
        <time>2010-01-01T15:07:10Z</time>
      </trkpt>
      <trkpt lat="45.90496" lon="5.98167">
        <ele>364</ele>
        <time>2010-01-01T15:07:29Z</time>
      </trkpt>
      <trkpt lat="45.90494" lon="5.98236">
        <ele>367</ele>
        <time>2010-01-01T15:07:48Z</time>
      </trkpt>
      <trkpt lat="45.90448" lon="5.98795">
        <ele>365</ele>
        <time>2010-01-01T15:10:25Z</time>
      </trkpt>
      <trkpt lat="45.90449" lon="5.98834">
        <ele>365</ele>
        <time>2010-01-01T15:10:36Z</time>
      </trkpt>
      <trkpt lat="45.90454" lon="5.98905">
        <ele>367</ele>
        <time>2010-01-01T15:10:56Z</time>
      </trkpt>
      <trkpt lat="45.90459" lon="5.9894">
        <ele>368</ele>
        <time>2010-01-01T15:11:06Z</time>
      </trkpt>
      <trkpt lat="45.90467" lon="5.98974">
        <ele>369</ele>
        <time>2010-01-01T15:11:16Z</time>
      </trkpt>
      <trkpt lat="45.9048" lon="5.99003">
        <ele>370</ele>
        <time>2010-01-01T15:11:26Z</time>
      </trkpt>
      <trkpt lat="45.90499" lon="5.99032">
        <ele>373</ele>
        <time>2010-01-01T15:11:37Z</time>
      </trkpt>
      <trkpt lat="45.90535" lon="5.99083">
        <ele>375</ele>
        <time>2010-01-01T15:11:57Z</time>
      </trkpt>
      <trkpt lat="45.90575" lon="5.99133">
        <ele>375</ele>
        <time>2010-01-01T15:12:18Z</time>
      </trkpt>
      <trkpt lat="45.90616" lon="5.99191">
        <ele>381</ele>
        <time>2010-01-01T15:12:41Z</time>
      </trkpt>
      <trkpt lat="45.90626" lon="5.99218">
        <ele>380</ele>
        <time>2010-01-01T15:12:50Z</time>
      </trkpt>
      <trkpt lat="45.90628" lon="5.9924">
        <ele>379</ele>
        <time>2010-01-01T15:12:56Z</time>
      </trkpt>
      <trkpt lat="45.90622" lon="5.99319">
        <ele>380</ele>
        <time>2010-01-01T15:13:18Z</time>
      </trkpt>
      <trkpt lat="45.90623" lon="5.99364">
        <ele>379</ele>
        <time>2010-01-01T15:13:30Z</time>
      </trkpt>
      <trkpt lat="45.90651" lon="5.99586">
        <ele>381</ele>
        <time>2010-01-01T15:14:33Z</time>
      </trkpt>
      <trkpt lat="45.90657" lon="5.99614">
        <ele>382</ele>
        <time>2010-01-01T15:14:41Z</time>
      </trkpt>
      <trkpt lat="45.90699" lon="5.99724">
        <ele>389</ele>
        <time>2010-01-01T15:15:16Z</time>
      </trkpt>
      <trkpt lat="45.90712" lon="5.99763">
        <ele>393</ele>
        <time>2010-01-01T15:15:28Z</time>
      </trkpt>
      <trkpt lat="45.90729" lon="5.99829">
        <ele>388</ele>
        <time>2010-01-01T15:15:48Z</time>
      </trkpt>
      <trkpt lat="45.90758" lon="5.99921">
        <ele>394</ele>
        <time>2010-01-01T15:16:16Z</time>
      </trkpt>
      <trkpt lat="45.90773" lon="5.99956">
        <ele>399</ele>
        <time>2010-01-01T15:16:28Z</time>
      </trkpt>
      <trkpt lat="45.90832" lon="6.00017">
        <ele>410</ele>
        <time>2010-01-01T15:16:57Z</time>
      </trkpt>
      <trkpt lat="45.9084" lon="6.00034">
        <ele>409</ele>
        <time>2010-01-01T15:17:02Z</time>
      </trkpt>
      <trkpt lat="45.90842" lon="6.00055">
        <ele>407</ele>
        <time>2010-01-01T15:17:08Z</time>
      </trkpt>
      <trkpt lat="45.90836" lon="6.00079">
        <ele>407</ele>
        <time>2010-01-01T15:17:15Z</time>
      </trkpt>
      <trkpt lat="45.90834" lon="6.00105">
        <ele>410</ele>
        <time>2010-01-01T15:17:23Z</time>
      </trkpt>
      <trkpt lat="45.90839" lon="6.00124">
        <ele>412</ele>
        <time>2010-01-01T15:17:28Z</time>
      </trkpt>
      <trkpt lat="45.90848" lon="6.00136">
        <ele>413</ele>
        <time>2010-01-01T15:17:33Z</time>
      </trkpt>
      <trkpt lat="45.90871" lon="6.00148">
        <ele>415</ele>
        <time>2010-01-01T15:17:43Z</time>
      </trkpt>
      <trkpt lat="45.90907" lon="6.0016">
        <ele>417</ele>
        <time>2010-01-01T15:17:58Z</time>
      </trkpt>
      <trkpt lat="45.90935" lon="6.00164">
        <ele>417</ele>
        <time>2010-01-01T15:18:09Z</time>
      </trkpt>
      <trkpt lat="45.90956" lon="6.00172">
        <ele>417</ele>
        <time>2010-01-01T15:18:18Z</time>
      </trkpt>
      <trkpt lat="45.90973" lon="6.00187">
        <ele>419</ele>
        <time>2010-01-01T15:18:26Z</time>
      </trkpt>
      <trkpt lat="45.90991" lon="6.00213">
        <ele>422</ele>
        <time>2010-01-01T15:18:36Z</time>
      </trkpt>
      <trkpt lat="45.91041" lon="6.0027">
        <ele>423</ele>
        <time>2010-01-01T15:19:02Z</time>
      </trkpt>
      <trkpt lat="45.9105" lon="6.0029">
        <ele>425</ele>
        <time>2010-01-01T15:19:08Z</time>
      </trkpt>
      <trkpt lat="45.91061" lon="6.00325">
        <ele>431</ele>
        <time>2010-01-01T15:19:19Z</time>
      </trkpt>
      <trkpt lat="45.91083" lon="6.00367">
        <ele>436</ele>
        <time>2010-01-01T15:19:34Z</time>
      </trkpt>
      <trkpt lat="45.91085" lon="6.00384">
        <ele>439</ele>
        <time>2010-01-01T15:19:38Z</time>
      </trkpt>
      <trkpt lat="45.91081" lon="6.00395">
        <ele>440</ele>
        <time>2010-01-01T15:19:42Z</time>
      </trkpt>
      <trkpt lat="45.91074" lon="6.004">
        <ele>440</ele>
        <time>2010-01-01T15:19:45Z</time>
      </trkpt>
      <trkpt lat="45.91066" lon="6.00401">
        <ele>440</ele>
        <time>2010-01-01T15:19:48Z</time>
      </trkpt>
      <trkpt lat="45.91055" lon="6.00393">
        <ele>439</ele>
        <time>2010-01-01T15:19:53Z</time>
      </trkpt>
      <trkpt lat="45.91048" lon="6.0037">
        <ele>437</ele>
        <time>2010-01-01T15:20:00Z</time>
      </trkpt>
      <trkpt lat="45.91043" lon="6.0034">
        <ele>434</ele>
        <time>2010-01-01T15:20:09Z</time>
      </trkpt>
      <trkpt lat="45.91036" lon="6.00329">
        <ele>434</ele>
        <time>2010-01-01T15:20:13Z</time>
      </trkpt>
      <trkpt lat="45.91027" lon="6.00326">
        <ele>435</ele>
        <time>2010-01-01T15:20:17Z</time>
      </trkpt>
      <trkpt lat="45.91017" lon="6.00331">
        <ele>436</ele>
        <time>2010-01-01T15:20:21Z</time>
      </trkpt>
      <trkpt lat="45.91013" lon="6.00342">
        <ele>437</ele>
        <time>2010-01-01T15:20:24Z</time>
      </trkpt>
      <trkpt lat="45.91016" lon="6.00364">
        <ele>438</ele>
        <time>2010-01-01T15:20:31Z</time>
      </trkpt>
      <trkpt lat="45.91009" lon="6.0037">
        <ele>438</ele>
        <time>2010-01-01T15:20:34Z</time>
      </trkpt>
      <trkpt lat="45.9095" lon="6.00389">
        <ele>439</ele>
        <time>2010-01-01T15:20:58Z</time>
      </trkpt>
      <trkpt lat="45.90931" lon="6.0041">
        <ele>438</ele>
        <time>2010-01-01T15:21:08Z</time>
      </trkpt>
      <trkpt lat="45.90906" lon="6.00477">
        <ele>439</ele>
        <time>2010-01-01T15:21:29Z</time>
      </trkpt>
      <trkpt lat="45.90881" lon="6.00506">
        <ele>438</ele>
        <time>2010-01-01T15:21:42Z</time>
      </trkpt>
      <trkpt lat="45.90848" lon="6.00533">
        <ele>437</ele>
        <time>2010-01-01T15:21:57Z</time>
      </trkpt>
      <trkpt lat="45.90815" lon="6.0057">
        <ele>440</ele>
        <time>2010-01-01T15:22:14Z</time>
      </trkpt>
      <trkpt lat="45.90836" lon="6.00611">
        <ele>444</ele>
        <time>2010-01-01T15:22:28Z</time>
      </trkpt>
      <trkpt lat="45.90868" lon="6.00639">
        <ele>446</ele>
        <time>2010-01-01T15:22:43Z</time>
      </trkpt>
      <trkpt lat="45.90923" lon="6.0068">
        <ele>451</ele>
        <time>2010-01-01T15:23:08Z</time>
      </trkpt>
      <trkpt lat="45.90958" lon="6.00719">
        <ele>451</ele>
        <time>2010-01-01T15:23:25Z</time>
      </trkpt>
      <trkpt lat="45.90982" lon="6.00784">
        <ele>458</ele>
        <time>2010-01-01T15:23:46Z</time>
      </trkpt>
      <trkpt lat="45.9105" lon="6.00996">
        <ele>469</ele>
        <time>2010-01-01T15:24:51Z</time>
      </trkpt>
      <trkpt lat="45.91059" lon="6.01039">
        <ele>471</ele>
        <time>2010-01-01T15:25:03Z</time>
      </trkpt>
      <trkpt lat="45.9107" lon="6.01101">
        <ele>474</ele>
        <time>2010-01-01T15:25:21Z</time>
      </trkpt>
      <trkpt lat="45.91082" lon="6.0119">
        <ele>474</ele>
        <time>2010-01-01T15:25:46Z</time>
      </trkpt>
      <trkpt lat="45.91094" lon="6.01199">
        <ele>474</ele>
        <time>2010-01-01T15:25:52Z</time>
      </trkpt>
      <trkpt lat="45.91098" lon="6.01199">
        <ele>474</ele>
        <time>2010-01-01T15:25:53Z</time>
      </trkpt>
      <trkpt lat="45.9115" lon="6.01158">
        <ele>481</ele>
        <time>2010-01-01T15:26:17Z</time>
      </trkpt>
      <trkpt lat="45.91231" lon="6.0111">
        <ele>487</ele>
        <time>2010-01-01T15:26:52Z</time>
      </trkpt>
      <trkpt lat="45.91241" lon="6.01108">
        <ele>488</ele>
        <time>2010-01-01T15:26:56Z</time>
      </trkpt>
      <trkpt lat="45.91272" lon="6.0111">
        <ele>490</ele>
        <time>2010-01-01T15:27:09Z</time>
      </trkpt>
      <trkpt lat="45.91294" lon="6.01096">
        <ele>490</ele>
        <time>2010-01-01T15:27:18Z</time>
      </trkpt>
      <trkpt lat="45.91327" lon="6.01063">
        <ele>488</ele>
        <time>2010-01-01T15:27:34Z</time>
      </trkpt>
      <trkpt lat="45.91339" lon="6.01058">
        <ele>487</ele>
        <time>2010-01-01T15:27:39Z</time>
      </trkpt>
      <trkpt lat="45.9138" lon="6.01059">
        <ele>485</ele>
        <time>2010-01-01T15:27:56Z</time>
      </trkpt>
      <trkpt lat="45.91408" lon="6.01051">
        <ele>484</ele>
        <time>2010-01-01T15:28:07Z</time>
      </trkpt>
      <trkpt lat="45.9142" lon="6.0104">
        <ele>483</ele>
        <time>2010-01-01T15:28:13Z</time>
      </trkpt>
      <trkpt lat="45.91423" lon="6.01032">
        <ele>483</ele>
        <time>2010-01-01T15:28:15Z</time>
      </trkpt>
      <trkpt lat="45.9144" lon="6.00955">
        <ele>480</ele>
        <time>2010-01-01T15:28:38Z</time>
      </trkpt>
      <trkpt lat="45.91461" lon="6.00966">
        <ele>480</ele>
        <time>2010-01-01T15:28:47Z</time>
      </trkpt>
      <trkpt lat="45.91625" lon="6.01011">
        <ele>481</ele>
        <time>2010-01-01T15:29:54Z</time>
      </trkpt>
      <trkpt lat="45.91649" lon="6.01015">
        <ele>480</ele>
        <time>2010-01-01T15:30:03Z</time>
      </trkpt>
      <trkpt lat="45.91695" lon="6.01004">
        <ele>476</ele>
        <time>2010-01-01T15:30:22Z</time>
      </trkpt>
      <trkpt lat="45.91749" lon="6.00965">
        <ele>476</ele>
        <time>2010-01-01T15:30:46Z</time>
      </trkpt>
      <trkpt lat="45.91773" lon="6.00958">
        <ele>474</ele>
        <time>2010-01-01T15:30:56Z</time>
      </trkpt>
      <trkpt lat="45.91865" lon="6.00954">
        <ele>471</ele>
        <time>2010-01-01T15:31:33Z</time>
      </trkpt>
      <trkpt lat="45.91882" lon="6.00956">
        <ele>470</ele>
        <time>2010-01-01T15:31:40Z</time>
      </trkpt>
      <trkpt lat="45.91896" lon="6.00962">
        <ele>469</ele>
        <time>2010-01-01T15:31:46Z</time>
      </trkpt>
      <trkpt lat="45.91913" lon="6.00976">
        <ele>468</ele>
        <time>2010-01-01T15:31:53Z</time>
      </trkpt>
      <trkpt lat="45.91925" lon="6.0099">
        <ele>468</ele>
        <time>2010-01-01T15:32:00Z</time>
      </trkpt>
      <trkpt lat="45.91936" lon="6.01012">
        <ele>468</ele>
        <time>2010-01-01T15:32:07Z</time>
      </trkpt>
      <trkpt lat="45.91942" lon="6.01037">
        <ele>469</ele>
        <time>2010-01-01T15:32:15Z</time>
      </trkpt>
      <trkpt lat="45.9195" lon="6.0113">
        <ele>469</ele>
        <time>2010-01-01T15:32:41Z</time>
      </trkpt>
      <trkpt lat="45.91956" lon="6.01172">
        <ele>469</ele>
        <time>2010-01-01T15:32:53Z</time>
      </trkpt>
      <trkpt lat="45.91961" lon="6.01193">
        <ele>470</ele>
        <time>2010-01-01T15:32:59Z</time>
      </trkpt>
      <trkpt lat="45.91972" lon="6.0121">
        <ele>471</ele>
        <time>2010-01-01T15:33:05Z</time>
      </trkpt>
      <trkpt lat="45.92004" lon="6.01243">
        <ele>473</ele>
        <time>2010-01-01T15:33:21Z</time>
      </trkpt>
      <trkpt lat="45.92013" lon="6.01258">
        <ele>474</ele>
        <time>2010-01-01T15:33:26Z</time>
      </trkpt>
      <trkpt lat="45.92016" lon="6.01271">
        <ele>474</ele>
        <time>2010-01-01T15:33:30Z</time>
      </trkpt>
      <trkpt lat="45.92017" lon="6.01287">
        <ele>474</ele>
        <time>2010-01-01T15:33:35Z</time>
      </trkpt>
      <trkpt lat="45.92013" lon="6.01305">
        <ele>473</ele>
        <time>2010-01-01T15:33:40Z</time>
      </trkpt>
      <trkpt lat="45.92002" lon="6.0132">
        <ele>472</ele>
        <time>2010-01-01T15:33:46Z</time>
      </trkpt>
      <trkpt lat="45.91895" lon="6.0144">
        <ele>480</ele>
        <time>2010-01-01T15:34:40Z</time>
      </trkpt>
      <trkpt lat="45.91857" lon="6.01485">
        <ele>484</ele>
        <time>2010-01-01T15:35:00Z</time>
      </trkpt>
      <trkpt lat="45.91844" lon="6.01512">
        <ele>485</ele>
        <time>2010-01-01T15:35:09Z</time>
      </trkpt>
      <trkpt lat="45.91811" lon="6.01598">
        <ele>489</ele>
        <time>2010-01-01T15:35:37Z</time>
      </trkpt>
      <trkpt lat="45.91791" lon="6.01633">
        <ele>490</ele>
        <time>2010-01-01T15:35:49Z</time>
      </trkpt>
      <trkpt lat="45.91771" lon="6.01659">
        <ele>492</ele>
        <time>2010-01-01T15:36:00Z</time>
      </trkpt>
      <trkpt lat="45.91711" lon="6.0169">
        <ele>494</ele>
        <time>2010-01-01T15:36:26Z</time>
      </trkpt>
      <trkpt lat="45.91683" lon="6.01718">
        <ele>495</ele>
        <time>2010-01-01T15:36:39Z</time>
      </trkpt>
      <trkpt lat="45.91659" lon="6.01766">
        <ele>497</ele>
        <time>2010-01-01T15:36:56Z</time>
      </trkpt>
      <trkpt lat="45.91652" lon="6.01808">
        <ele>501</ele>
        <time>2010-01-01T15:37:08Z</time>
      </trkpt>
      <trkpt lat="45.91655" lon="6.01842">
        <ele>504</ele>
        <time>2010-01-01T15:37:17Z</time>
      </trkpt>
      <trkpt lat="45.91655" lon="6.01841">
        <ele>504</ele>
        <time>2010-01-01T15:37:18Z</time>
      </trkpt>
      <trkpt lat="45.91663" lon="6.01897">
        <ele>507</ele>
        <time>2010-01-01T15:37:33Z</time>
      </trkpt>
      <trkpt lat="45.91668" lon="6.01984">
        <ele>509</ele>
        <time>2010-01-01T15:37:58Z</time>
      </trkpt>
      <trkpt lat="45.91676" lon="6.02004">
        <ele>510</ele>
        <time>2010-01-01T15:38:04Z</time>
      </trkpt>
      <trkpt lat="45.91725" lon="6.02103">
        <ele>507</ele>
        <time>2010-01-01T15:38:38Z</time>
      </trkpt>
      <trkpt lat="45.91799" lon="6.02239">
        <ele>510</ele>
        <time>2010-01-01T15:39:26Z</time>
      </trkpt>
      <trkpt lat="45.91805" lon="6.02259">
        <ele>509</ele>
        <time>2010-01-01T15:39:32Z</time>
      </trkpt>
      <trkpt lat="45.91805" lon="6.02268">
        <ele>509</ele>
        <time>2010-01-01T15:39:35Z</time>
      </trkpt>
      <trkpt lat="45.91801" lon="6.02347">
        <ele>512</ele>
        <time>2010-01-01T15:39:57Z</time>
      </trkpt>
      <trkpt lat="45.91786" lon="6.02477">
        <ele>509</ele>
        <time>2010-01-01T15:40:33Z</time>
      </trkpt>
      <trkpt lat="45.91777" lon="6.02502">
        <ele>507</ele>
        <time>2010-01-01T15:40:41Z</time>
      </trkpt>
      <trkpt lat="45.91765" lon="6.02517">
        <ele>506</ele>
        <time>2010-01-01T15:40:48Z</time>
      </trkpt>
      <trkpt lat="45.91747" lon="6.02528">
        <ele>504</ele>
        <time>2010-01-01T15:40:55Z</time>
      </trkpt>
      <trkpt lat="45.91734" lon="6.02528">
        <ele>504</ele>
        <time>2010-01-01T15:41:01Z</time>
      </trkpt>
      <trkpt lat="45.91667" lon="6.0248">
        <ele>508</ele>
        <time>2010-01-01T15:41:31Z</time>
      </trkpt>
      <trkpt lat="45.91644" lon="6.0247">
        <ele>509</ele>
        <time>2010-01-01T15:41:40Z</time>
      </trkpt>
      <trkpt lat="45.91627" lon="6.0247">
        <ele>508</ele>
        <time>2010-01-01T15:41:47Z</time>
      </trkpt>
      <trkpt lat="45.9161" lon="6.02479">
        <ele>509</ele>
        <time>2010-01-01T15:41:54Z</time>
      </trkpt>
      <trkpt lat="45.91562" lon="6.02533">
        <ele>510</ele>
        <time>2010-01-01T15:42:19Z</time>
      </trkpt>
      <trkpt lat="45.91533" lon="6.02562">
        <ele>512</ele>
        <time>2010-01-01T15:42:33Z</time>
      </trkpt>
      <trkpt lat="45.91516" lon="6.02572">
        <ele>514</ele>
        <time>2010-01-01T15:42:40Z</time>
      </trkpt>
      <trkpt lat="45.91457" lon="6.02583">
        <ele>516</ele>
        <time>2010-01-01T15:43:04Z</time>
      </trkpt>
      <trkpt lat="45.91154" lon="6.02648">
        <ele>511</ele>
        <time>2010-01-01T15:45:07Z</time>
      </trkpt>
      <trkpt lat="45.91025" lon="6.02709">
        <ele>514</ele>
        <time>2010-01-01T15:46:01Z</time>
      </trkpt>
      <trkpt lat="45.90984" lon="6.02717">
        <ele>516</ele>
        <time>2010-01-01T15:46:18Z</time>
      </trkpt>
      <trkpt lat="45.90959" lon="6.02716">
        <ele>518</ele>
        <time>2010-01-01T15:46:28Z</time>
      </trkpt>
      <trkpt lat="45.90922" lon="6.02707">
        <ele>521</ele>
        <time>2010-01-01T15:46:43Z</time>
      </trkpt>
      <trkpt lat="45.90888" lon="6.02693">
        <ele>519</ele>
        <time>2010-01-01T15:46:57Z</time>
      </trkpt>
      <trkpt lat="45.90855" lon="6.02685">
        <ele>517</ele>
        <time>2010-01-01T15:47:10Z</time>
      </trkpt>
      <trkpt lat="45.90799" lon="6.02685">
        <ele>517</ele>
        <time>2010-01-01T15:47:33Z</time>
      </trkpt>
      <trkpt lat="45.90706" lon="6.02689">
        <ele>514</ele>
        <time>2010-01-01T15:48:10Z</time>
      </trkpt>
      <trkpt lat="45.90572" lon="6.02658">
        <ele>520</ele>
        <time>2010-01-01T15:49:04Z</time>
      </trkpt>
      <trkpt lat="45.90539" lon="6.02659">
        <ele>520</ele>
        <time>2010-01-01T15:49:17Z</time>
      </trkpt>
      <trkpt lat="45.90478" lon="6.02677">
        <ele>521</ele>
        <time>2010-01-01T15:49:42Z</time>
      </trkpt>
      <trkpt lat="45.90376" lon="6.02706">
        <ele>521</ele>
        <time>2010-01-01T15:50:24Z</time>
      </trkpt>
      <trkpt lat="45.90348" lon="6.0272">
        <ele>523</ele>
        <time>2010-01-01T15:50:36Z</time>
      </trkpt>
      <trkpt lat="45.90326" lon="6.02745">
        <ele>524</ele>
        <time>2010-01-01T15:50:47Z</time>
      </trkpt>
      <trkpt lat="45.90314" lon="6.02769">
        <ele>524</ele>
        <time>2010-01-01T15:50:55Z</time>
      </trkpt>
      <trkpt lat="45.90311" lon="6.02797">
        <ele>525</ele>
        <time>2010-01-01T15:51:03Z</time>
      </trkpt>
      <trkpt lat="45.90315" lon="6.02818">
        <ele>526</ele>
        <time>2010-01-01T15:51:09Z</time>
      </trkpt>
      <trkpt lat="45.90337" lon="6.02865">
        <ele>529</ele>
        <time>2010-01-01T15:51:25Z</time>
      </trkpt>
      <trkpt lat="45.90347" lon="6.02902">
        <ele>528</ele>
        <time>2010-01-01T15:51:36Z</time>
      </trkpt>
      <trkpt lat="45.90357" lon="6.02986">
        <ele>526</ele>
        <time>2010-01-01T15:52:00Z</time>
      </trkpt>
      <trkpt lat="45.9036" lon="6.03073">
        <ele>528</ele>
        <time>2010-01-01T15:52:24Z</time>
      </trkpt>
      <trkpt lat="45.90372" lon="6.03146">
        <ele>529</ele>
        <time>2010-01-01T15:52:45Z</time>
      </trkpt>
      <trkpt lat="45.9038" lon="6.03203">
        <ele>528</ele>
        <time>2010-01-01T15:53:01Z</time>
      </trkpt>
      <trkpt lat="45.9034" lon="6.03208">
        <ele>524</ele>
        <time>2010-01-01T15:53:17Z</time>
      </trkpt>
      <trkpt lat="45.90317" lon="6.032">
        <ele>521</ele>
        <time>2010-01-01T15:53:27Z</time>
      </trkpt>
      <trkpt lat="45.90277" lon="6.03149">
        <ele>520</ele>
        <time>2010-01-01T15:53:48Z</time>
      </trkpt>
      <trkpt lat="45.90247" lon="6.03088">
        <ele>518</ele>
        <time>2010-01-01T15:54:09Z</time>
      </trkpt>
      <trkpt lat="45.90234" lon="6.03084">
        <ele>517</ele>
        <time>2010-01-01T15:54:14Z</time>
      </trkpt>
      <trkpt lat="45.90214" lon="6.03098">
        <ele>515</ele>
        <time>2010-01-01T15:54:23Z</time>
      </trkpt>
      <trkpt lat="45.90199" lon="6.03119">
        <ele>513</ele>
        <time>2010-01-01T15:54:32Z</time>
      </trkpt>
      <trkpt lat="45.90191" lon="6.0315">
        <ele>512</ele>
        <time>2010-01-01T15:54:41Z</time>
      </trkpt>
      <trkpt lat="45.90183" lon="6.03401">
        <ele>498</ele>
        <time>2010-01-01T15:55:51Z</time>
      </trkpt>
      <trkpt lat="45.90164" lon="6.03544">
        <ele>485</ele>
        <time>2010-01-01T15:56:31Z</time>
      </trkpt>
      <trkpt lat="45.9015" lon="6.03594">
        <ele>483</ele>
        <time>2010-01-01T15:56:46Z</time>
      </trkpt>
      <trkpt lat="45.90043" lon="6.03788">
        <ele>468</ele>
        <time>2010-01-01T15:57:55Z</time>
      </trkpt>
      <trkpt lat="45.89997" lon="6.0398">
        <ele>456</ele>
        <time>2010-01-01T15:58:52Z</time>
      </trkpt>
      <trkpt lat="45.89911" lon="6.04089">
        <ele>445</ele>
        <time>2010-01-01T15:59:38Z</time>
      </trkpt>
      <trkpt lat="45.89828" lon="6.04113">
        <ele>431</ele>
        <time>2010-01-01T16:00:12Z</time>
      </trkpt>
      <trkpt lat="45.89792" lon="6.04147">
        <ele>425</ele>
        <time>2010-01-01T16:00:29Z</time>
      </trkpt>
      <trkpt lat="45.89774" lon="6.04137">
        <ele>421</ele>
        <time>2010-01-01T16:00:37Z</time>
      </trkpt>
      <trkpt lat="45.89759" lon="6.0411">
        <ele>418</ele>
        <time>2010-01-01T16:00:46Z</time>
      </trkpt>
      <trkpt lat="45.89761" lon="6.04081">
        <ele>420</ele>
        <time>2010-01-01T16:00:54Z</time>
      </trkpt>
      <trkpt lat="45.89756" lon="6.04022">
        <ele>421</ele>
        <time>2010-01-01T16:01:11Z</time>
      </trkpt>
      <trkpt lat="45.89738" lon="6.03937">
        <ele>416</ele>
        <time>2010-01-01T16:01:36Z</time>
      </trkpt>
      <trkpt lat="45.89734" lon="6.03895">
        <ele>420</ele>
        <time>2010-01-01T16:01:47Z</time>
      </trkpt>
      <trkpt lat="45.89705" lon="6.03808">
        <ele>421</ele>
        <time>2010-01-01T16:02:14Z</time>
      </trkpt>
      <trkpt lat="45.89665" lon="6.03782">
        <ele>410</ele>
        <time>2010-01-01T16:02:32Z</time>
      </trkpt>
      <trkpt lat="45.89651" lon="6.0374">
        <ele>407</ele>
        <time>2010-01-01T16:02:45Z</time>
      </trkpt>
      <trkpt lat="45.89648" lon="6.03708">
        <ele>407</ele>
        <time>2010-01-01T16:02:54Z</time>
      </trkpt>
      <trkpt lat="45.89632" lon="6.03662">
        <ele>407</ele>
        <time>2010-01-01T16:03:08Z</time>
      </trkpt>
      <trkpt lat="45.89625" lon="6.03649">
        <ele>407</ele>
        <time>2010-01-01T16:03:13Z</time>
      </trkpt>
      <trkpt lat="45.89603" lon="6.03631">
        <ele>404</ele>
        <time>2010-01-01T16:03:23Z</time>
      </trkpt>
      <trkpt lat="45.89583" lon="6.03628">
        <ele>402</ele>
        <time>2010-01-01T16:03:31Z</time>
      </trkpt>
      <trkpt lat="45.89575" lon="6.03638">
        <ele>402</ele>
        <time>2010-01-01T16:03:35Z</time>
      </trkpt>
      <trkpt lat="45.89567" lon="6.03661">
        <ele>404</ele>
        <time>2010-01-01T16:03:42Z</time>
      </trkpt>
      <trkpt lat="45.89545" lon="6.03686">
        <ele>407</ele>
        <time>2010-01-01T16:03:54Z</time>
      </trkpt>
      <trkpt lat="45.89492" lon="6.03713">
        <ele>419</ele>
        <time>2010-01-01T16:04:16Z</time>
      </trkpt>
      <trkpt lat="45.89484" lon="6.03733">
        <ele>426</ele>
        <time>2010-01-01T16:04:23Z</time>
      </trkpt>
      <trkpt lat="45.89485" lon="6.03785">
        <ele>434</ele>
        <time>2010-01-01T16:04:37Z</time>
      </trkpt>
      <trkpt lat="45.8953" lon="6.04018">
        <ele>431</ele>
        <time>2010-01-01T16:05:44Z</time>
      </trkpt>
      <trkpt lat="45.89518" lon="6.04079">
        <ele>443</ele>
        <time>2010-01-01T16:06:02Z</time>
      </trkpt>
      <trkpt lat="45.89503" lon="6.04098">
        <ele>449</ele>
        <time>2010-01-01T16:06:10Z</time>
      </trkpt>
      <trkpt lat="45.89454" lon="6.04135">
        <ele>454</ele>
        <time>2010-01-01T16:06:32Z</time>
      </trkpt>
      <trkpt lat="45.89439" lon="6.04155">
        <ele>454</ele>
        <time>2010-01-01T16:06:40Z</time>
      </trkpt>
      <trkpt lat="45.89425" lon="6.04142">
        <ele>460</ele>
        <time>2010-01-01T16:06:47Z</time>
      </trkpt>
      <trkpt lat="45.89429" lon="6.0412">
        <ele>463</ele>
        <time>2010-01-01T16:06:53Z</time>
      </trkpt>
      <trkpt lat="45.89449" lon="6.04099">
        <ele>462</ele>
        <time>2010-01-01T16:07:03Z</time>
      </trkpt>
      <trkpt lat="45.89453" lon="6.04058">
        <ele>469</ele>
        <time>2010-01-01T16:07:15Z</time>
      </trkpt>
      <trkpt lat="45.89408" lon="6.03961">
        <ele>477</ele>
        <time>2010-01-01T16:07:47Z</time>
      </trkpt>
      <trkpt lat="45.89393" lon="6.03906">
        <ele>471</ele>
        <time>2010-01-01T16:08:04Z</time>
      </trkpt>
      <trkpt lat="45.89378" lon="6.03893">
        <ele>468</ele>
        <time>2010-01-01T16:08:11Z</time>
      </trkpt>
      <trkpt lat="45.89366" lon="6.03893">
        <ele>467</ele>
        <time>2010-01-01T16:08:16Z</time>
      </trkpt>
      <trkpt lat="45.89357" lon="6.03901">
        <ele>469</ele>
        <time>2010-01-01T16:08:20Z</time>
      </trkpt>
      <trkpt lat="45.89357" lon="6.03921">
        <ele>472</ele>
        <time>2010-01-01T16:08:25Z</time>
      </trkpt>
      <trkpt lat="45.89364" lon="6.03947">
        <ele>475</ele>
        <time>2010-01-01T16:08:33Z</time>
      </trkpt>
      <trkpt lat="45.8937" lon="6.03975">
        <ele>478</ele>
        <time>2010-01-01T16:08:41Z</time>
      </trkpt>
      <trkpt lat="45.89368" lon="6.03993">
        <ele>479</ele>
        <time>2010-01-01T16:08:46Z</time>
      </trkpt>
      <trkpt lat="45.89282" lon="6.04157">
        <ele>493</ele>
        <time>2010-01-01T16:09:44Z</time>
      </trkpt>
      <trkpt lat="45.89206" lon="6.04251">
        <ele>493</ele>
        <time>2010-01-01T16:10:24Z</time>
      </trkpt>
      <trkpt lat="45.89192" lon="6.04262">
        <ele>493</ele>
        <time>2010-01-01T16:10:30Z</time>
      </trkpt>
      <trkpt lat="45.89177" lon="6.04264">
        <ele>494</ele>
        <time>2010-01-01T16:10:36Z</time>
      </trkpt>
      <trkpt lat="45.89156" lon="6.04255">
        <ele>494</ele>
        <time>2010-01-01T16:10:45Z</time>
      </trkpt>
      <trkpt lat="45.89097" lon="6.04223">
        <ele>496</ele>
        <time>2010-01-01T16:11:10Z</time>
      </trkpt>
      <trkpt lat="45.88964" lon="6.04185">
        <ele>504</ele>
        <time>2010-01-01T16:12:05Z</time>
      </trkpt>
      <trkpt lat="45.88905" lon="6.04181">
        <ele>504</ele>
        <time>2010-01-01T16:12:28Z</time>
      </trkpt>
      <trkpt lat="45.88889" lon="6.04182">
        <ele>504</ele>
        <time>2010-01-01T16:12:35Z</time>
      </trkpt>
      <trkpt lat="45.88934" lon="6.04217">
        <ele>504</ele>
        <time>2010-01-01T16:12:55Z</time>
      </trkpt>
      <trkpt lat="45.88943" lon="6.04227">
        <ele>504</ele>
        <time>2010-01-01T16:13:00Z</time>
      </trkpt>
      <trkpt lat="45.88945" lon="6.04233">
        <ele>503</ele>
        <time>2010-01-01T16:13:01Z</time>
      </trkpt>
      <trkpt lat="45.88948" lon="6.04251">
        <ele>503</ele>
        <time>2010-01-01T16:13:07Z</time>
      </trkpt>
      <trkpt lat="45.88927" lon="6.04329">
        <ele>503</ele>
        <time>2010-01-01T16:13:30Z</time>
      </trkpt>
      <trkpt lat="45.88924" lon="6.04361">
        <ele>504</ele>
        <time>2010-01-01T16:13:39Z</time>
      </trkpt>
      <trkpt lat="45.88939" lon="6.0444">
        <ele>502</ele>
        <time>2010-01-01T16:14:02Z</time>
      </trkpt>
      <trkpt lat="45.88955" lon="6.04495">
        <ele>500</ele>
        <time>2010-01-01T16:14:18Z</time>
      </trkpt>
      <trkpt lat="45.88961" lon="6.04522">
        <ele>499</ele>
        <time>2010-01-01T16:14:26Z</time>
      </trkpt>
      <trkpt lat="45.88946" lon="6.04573">
        <ele>498</ele>
        <time>2010-01-01T16:14:42Z</time>
      </trkpt>
      <trkpt lat="45.88954" lon="6.04632">
        <ele>497</ele>
        <time>2010-01-01T16:14:58Z</time>
      </trkpt>
      <trkpt lat="45.88954" lon="6.04683">
        <ele>496</ele>
        <time>2010-01-01T16:15:13Z</time>
      </trkpt>
      <trkpt lat="45.8896" lon="6.04737">
        <ele>494</ele>
        <time>2010-01-01T16:15:28Z</time>
      </trkpt>
      <trkpt lat="45.88949" lon="6.04889">
        <ele>494</ele>
        <time>2010-01-01T16:16:10Z</time>
      </trkpt>
      <trkpt lat="45.88954" lon="6.04917">
        <ele>496</ele>
        <time>2010-01-01T16:16:18Z</time>
      </trkpt>
      <trkpt lat="45.88972" lon="6.04979">
        <ele>496</ele>
        <time>2010-01-01T16:16:37Z</time>
      </trkpt>
      <trkpt lat="45.88984" lon="6.0504">
        <ele>495</ele>
        <time>2010-01-01T16:16:55Z</time>
      </trkpt>
      <trkpt lat="45.88983" lon="6.05078">
        <ele>494</ele>
        <time>2010-01-01T16:17:05Z</time>
      </trkpt>
      <trkpt lat="45.88945" lon="6.05251">
        <ele>491</ele>
        <time>2010-01-01T16:17:56Z</time>
      </trkpt>
      <trkpt lat="45.88922" lon="6.05319">
        <ele>490</ele>
        <time>2010-01-01T16:18:17Z</time>
      </trkpt>
      <trkpt lat="45.88922" lon="6.05375">
        <ele>490</ele>
        <time>2010-01-01T16:18:33Z</time>
      </trkpt>
      <trkpt lat="45.88926" lon="6.05424">
        <ele>491</ele>
        <time>2010-01-01T16:18:46Z</time>
      </trkpt>
      <trkpt lat="45.88932" lon="6.05447">
        <ele>492</ele>
        <time>2010-01-01T16:18:53Z</time>
      </trkpt>
      <trkpt lat="45.89002" lon="6.05579">
        <ele>489</ele>
        <time>2010-01-01T16:19:39Z</time>
      </trkpt>
      <trkpt lat="45.89075" lon="6.05726">
        <ele>489</ele>
        <time>2010-01-01T16:20:30Z</time>
      </trkpt>
      <trkpt lat="45.89078" lon="6.05744">
        <ele>490</ele>
        <time>2010-01-01T16:20:35Z</time>
      </trkpt>
      <trkpt lat="45.89078" lon="6.0576">
        <ele>491</ele>
        <time>2010-01-01T16:20:39Z</time>
      </trkpt>
      <trkpt lat="45.89043" lon="6.0589">
        <ele>492</ele>
        <time>2010-01-01T16:21:18Z</time>
      </trkpt>
      <trkpt lat="45.89042" lon="6.05912">
        <ele>491</ele>
        <time>2010-01-01T16:21:24Z</time>
      </trkpt>
      <trkpt lat="45.89048" lon="6.05928">
        <ele>490</ele>
        <time>2010-01-01T16:21:29Z</time>
      </trkpt>
      <trkpt lat="45.8906" lon="6.05937">
        <ele>488</ele>
        <time>2010-01-01T16:21:35Z</time>
      </trkpt>
      <trkpt lat="45.89076" lon="6.05939">
        <ele>486</ele>
        <time>2010-01-01T16:21:41Z</time>
      </trkpt>
      <trkpt lat="45.8909" lon="6.05931">
        <ele>485</ele>
        <time>2010-01-01T16:21:47Z</time>
      </trkpt>
      <trkpt lat="45.891" lon="6.05915">
        <ele>483</ele>
        <time>2010-01-01T16:21:53Z</time>
      </trkpt>
      <trkpt lat="45.89115" lon="6.05903">
        <ele>483</ele>
        <time>2010-01-01T16:22:00Z</time>
      </trkpt>
      <trkpt lat="45.8915" lon="6.05886">
        <ele>483</ele>
        <time>2010-01-01T16:22:15Z</time>
      </trkpt>
      <trkpt lat="45.89167" lon="6.05882">
        <ele>483</ele>
        <time>2010-01-01T16:22:22Z</time>
      </trkpt>
      <trkpt lat="45.89181" lon="6.05886">
        <ele>484</ele>
        <time>2010-01-01T16:22:28Z</time>
      </trkpt>
      <trkpt lat="45.89192" lon="6.05897">
        <ele>486</ele>
        <time>2010-01-01T16:22:33Z</time>
      </trkpt>
      <trkpt lat="45.89225" lon="6.05969">
        <ele>493</ele>
        <time>2010-01-01T16:22:57Z</time>
      </trkpt>
      <trkpt lat="45.89237" lon="6.06028">
        <ele>496</ele>
        <time>2010-01-01T16:23:14Z</time>
      </trkpt>
      <trkpt lat="45.89253" lon="6.06173">
        <ele>500</ele>
        <time>2010-01-01T16:23:55Z</time>
      </trkpt>
      <trkpt lat="45.89265" lon="6.06223">
        <ele>502</ele>
        <time>2010-01-01T16:24:10Z</time>
      </trkpt>
      <trkpt lat="45.89271" lon="6.06266">
        <ele>504</ele>
        <time>2010-01-01T16:24:22Z</time>
      </trkpt>
      <trkpt lat="45.89273" lon="6.0638">
        <ele>506</ele>
        <time>2010-01-01T16:24:54Z</time>
      </trkpt>
      <trkpt lat="45.89289" lon="6.06431">
        <ele>508</ele>
        <time>2010-01-01T16:25:09Z</time>
      </trkpt>
      <trkpt lat="45.89287" lon="6.06438">
        <ele>508</ele>
        <time>2010-01-01T16:25:11Z</time>
      </trkpt>
      <trkpt lat="45.89288" lon="6.06441">
        <ele>508</ele>
        <time>2010-01-01T16:25:12Z</time>
      </trkpt>
      <trkpt lat="45.89293" lon="6.06444">
        <ele>508</ele>
        <time>2010-01-01T16:25:15Z</time>
      </trkpt>
      <trkpt lat="45.89295" lon="6.06442">
        <ele>508</ele>
        <time>2010-01-01T16:25:16Z</time>
      </trkpt>
      <trkpt lat="45.89308" lon="6.0646">
        <ele>508</ele>
        <time>2010-01-01T16:25:23Z</time>
      </trkpt>
      <trkpt lat="45.89362" lon="6.06561">
        <ele>505</ele>
        <time>2010-01-01T16:25:58Z</time>
      </trkpt>
      <trkpt lat="45.89413" lon="6.06665">
        <ele>506</ele>
        <time>2010-01-01T16:26:34Z</time>
      </trkpt>
      <trkpt lat="45.89512" lon="6.06787">
        <ele>500</ele>
        <time>2010-01-01T16:27:26Z</time>
      </trkpt>
      <trkpt lat="45.89536" lon="6.06822">
        <ele>499</ele>
        <time>2010-01-01T16:27:40Z</time>
      </trkpt>
      <trkpt lat="45.89568" lon="6.06891">
        <ele>497</ele>
        <time>2010-01-01T16:28:03Z</time>
      </trkpt>
      <trkpt lat="45.89573" lon="6.06911">
        <ele>497</ele>
        <time>2010-01-01T16:28:09Z</time>
      </trkpt>
      <trkpt lat="45.89575" lon="6.06923">
        <ele>497</ele>
        <time>2010-01-01T16:28:12Z</time>
      </trkpt>
      <trkpt lat="45.89566" lon="6.06977">
        <ele>495</ele>
        <time>2010-01-01T16:28:28Z</time>
      </trkpt>
      <trkpt lat="45.89563" lon="6.07027">
        <ele>495</ele>
        <time>2010-01-01T16:28:41Z</time>
      </trkpt>
      <trkpt lat="45.89569" lon="6.07105">
        <ele>496</ele>
        <time>2010-01-01T16:29:03Z</time>
      </trkpt>
      <trkpt lat="45.89581" lon="6.07186">
        <ele>498</ele>
        <time>2010-01-01T16:29:26Z</time>
      </trkpt>
      <trkpt lat="45.89599" lon="6.07249">
        <ele>501</ele>
        <time>2010-01-01T16:29:45Z</time>
      </trkpt>
      <trkpt lat="45.89602" lon="6.07278">
        <ele>504</ele>
        <time>2010-01-01T16:29:54Z</time>
      </trkpt>
      <trkpt lat="45.89611" lon="6.07416">
        <ele>503</ele>
        <time>2010-01-01T16:30:32Z</time>
      </trkpt>
      <trkpt lat="45.89611" lon="6.07445">
        <ele>502</ele>
        <time>2010-01-01T16:30:40Z</time>
      </trkpt>
      <trkpt lat="45.89608" lon="6.07474">
        <ele>502</ele>
        <time>2010-01-01T16:30:48Z</time>
      </trkpt>
      <trkpt lat="45.89588" lon="6.07588">
        <ele>502</ele>
        <time>2010-01-01T16:31:21Z</time>
      </trkpt>
      <trkpt lat="45.89586" lon="6.07622">
        <ele>502</ele>
        <time>2010-01-01T16:31:31Z</time>
      </trkpt>
      <trkpt lat="45.8959" lon="6.07743">
        <ele>503</ele>
        <time>2010-01-01T16:32:04Z</time>
      </trkpt>
      <trkpt lat="45.8959" lon="6.07772">
        <ele>500</ele>
        <time>2010-01-01T16:32:13Z</time>
      </trkpt>
      <trkpt lat="45.89588" lon="6.07795">
        <ele>497</ele>
        <time>2010-01-01T16:32:19Z</time>
      </trkpt>
      <trkpt lat="45.89573" lon="6.07863">
        <ele>493</ele>
        <time>2010-01-01T16:32:39Z</time>
      </trkpt>
      <trkpt lat="45.89542" lon="6.07992">
        <ele>491</ele>
        <time>2010-01-01T16:33:17Z</time>
      </trkpt>
      <trkpt lat="45.8953" lon="6.08035">
        <ele>490</ele>
        <time>2010-01-01T16:33:30Z</time>
      </trkpt>
      <trkpt lat="45.89523" lon="6.08057">
        <ele>491</ele>
        <time>2010-01-01T16:33:37Z</time>
      </trkpt>
      <trkpt lat="45.89501" lon="6.08101">
        <ele>490</ele>
        <time>2010-01-01T16:33:52Z</time>
      </trkpt>
      <trkpt lat="45.89495" lon="6.08104">
        <ele>491</ele>
        <time>2010-01-01T16:33:54Z</time>
      </trkpt>
      <trkpt lat="45.89491" lon="6.08109">
        <ele>491</ele>
        <time>2010-01-01T16:33:56Z</time>
      </trkpt>
      <trkpt lat="45.8949" lon="6.08118">
        <ele>491</ele>
        <time>2010-01-01T16:33:59Z</time>
      </trkpt>
      <trkpt lat="45.89491" lon="6.08126">
        <ele>490</ele>
        <time>2010-01-01T16:34:01Z</time>
      </trkpt>
      <trkpt lat="45.89468" lon="6.08207">
        <ele>487</ele>
        <time>2010-01-01T16:34:25Z</time>
      </trkpt>
      <trkpt lat="45.89467" lon="6.08235">
        <ele>485</ele>
        <time>2010-01-01T16:34:33Z</time>
      </trkpt>
      <trkpt lat="45.89472" lon="6.08295">
        <ele>486</ele>
        <time>2010-01-01T16:34:50Z</time>
      </trkpt>
      <trkpt lat="45.89478" lon="6.08323">
        <ele>488</ele>
        <time>2010-01-01T16:34:58Z</time>
      </trkpt>
      <trkpt lat="45.89512" lon="6.08391">
        <ele>492</ele>
        <time>2010-01-01T16:35:22Z</time>
      </trkpt>
      <trkpt lat="45.89519" lon="6.08465">
        <ele>495</ele>
        <time>2010-01-01T16:35:42Z</time>
      </trkpt>
      <trkpt lat="45.89526" lon="6.08502">
        <ele>496</ele>
        <time>2010-01-01T16:35:53Z</time>
      </trkpt>
      <trkpt lat="45.89541" lon="6.08559">
        <ele>498</ele>
        <time>2010-01-01T16:36:10Z</time>
      </trkpt>
      <trkpt lat="45.89556" lon="6.08601">
        <ele>500</ele>
        <time>2010-01-01T16:36:23Z</time>
      </trkpt>
      <trkpt lat="45.89559" lon="6.08616">
        <ele>501</ele>
        <time>2010-01-01T16:36:28Z</time>
      </trkpt>
      <trkpt lat="45.89559" lon="6.08642">
        <ele>500</ele>
        <time>2010-01-01T16:36:35Z</time>
      </trkpt>
      <trkpt lat="45.89553" lon="6.08681">
        <ele>498</ele>
        <time>2010-01-01T16:36:46Z</time>
      </trkpt>
      <trkpt lat="45.89522" lon="6.08823">
        <ele>501</ele>
        <time>2010-01-01T16:37:27Z</time>
      </trkpt>
      <trkpt lat="45.89517" lon="6.08834">
        <ele>501</ele>
        <time>2010-01-01T16:37:31Z</time>
      </trkpt>
      <trkpt lat="45.89513" lon="6.08831">
        <ele>502</ele>
        <time>2010-01-01T16:37:33Z</time>
      </trkpt>
      <trkpt lat="45.89508" lon="6.08831">
        <ele>502</ele>
        <time>2010-01-01T16:37:35Z</time>
      </trkpt>
      <trkpt lat="45.89503" lon="6.08836">
        <ele>502</ele>
        <time>2010-01-01T16:37:37Z</time>
      </trkpt>
      <trkpt lat="45.89501" lon="6.08842">
        <ele>502</ele>
        <time>2010-01-01T16:37:39Z</time>
      </trkpt>
      <trkpt lat="45.89471" lon="6.0882">
        <ele>504</ele>
        <time>2010-01-01T16:37:53Z</time>
      </trkpt>
      <trkpt lat="45.89453" lon="6.08809">
        <ele>507</ele>
        <time>2010-01-01T16:38:00Z</time>
      </trkpt>
      <trkpt lat="45.89436" lon="6.08804">
        <ele>508</ele>
        <time>2010-01-01T16:38:07Z</time>
      </trkpt>
      <trkpt lat="45.89421" lon="6.08801">
        <ele>510</ele>
        <time>2010-01-01T16:38:13Z</time>
      </trkpt>
      <trkpt lat="45.89404" lon="6.08803">
        <ele>511</ele>
        <time>2010-01-01T16:38:20Z</time>
      </trkpt>
      <trkpt lat="45.89367" lon="6.08812">
        <ele>512</ele>
        <time>2010-01-01T16:38:35Z</time>
      </trkpt>
      <trkpt lat="45.89342" lon="6.08809">
        <ele>513</ele>
        <time>2010-01-01T16:38:45Z</time>
      </trkpt>
      <trkpt lat="45.89339" lon="6.08806">
        <ele>513</ele>
        <time>2010-01-01T16:38:47Z</time>
      </trkpt>
      <trkpt lat="45.89332" lon="6.08805">
        <ele>513</ele>
        <time>2010-01-01T16:38:50Z</time>
      </trkpt>
      <trkpt lat="45.8932" lon="6.08814">
        <ele>514</ele>
        <time>2010-01-01T16:38:55Z</time>
      </trkpt>
      <trkpt lat="45.89309" lon="6.08816">
        <ele>514</ele>
        <time>2010-01-01T16:38:59Z</time>
      </trkpt>
      <trkpt lat="45.89301" lon="6.08816">
        <ele>514</ele>
        <time>2010-01-01T16:39:03Z</time>
      </trkpt>
      <trkpt lat="45.89287" lon="6.08811">
        <ele>514</ele>
        <time>2010-01-01T16:39:08Z</time>
      </trkpt>
      <trkpt lat="45.89269" lon="6.088">
        <ele>513</ele>
        <time>2010-01-01T16:39:16Z</time>
      </trkpt>
      <trkpt lat="45.89232" lon="6.08886">
        <ele>515</ele>
        <time>2010-01-01T16:39:44Z</time>
      </trkpt>
      <trkpt lat="45.89226" lon="6.08885">
        <ele>516</ele>
        <time>2010-01-01T16:39:47Z</time>
      </trkpt>
      <trkpt lat="45.89221" lon="6.08892">
        <ele>517</ele>
        <time>2010-01-01T16:39:50Z</time>
      </trkpt>
      <trkpt lat="45.89219" lon="6.08909">
        <ele>518</ele>
        <time>2010-01-01T16:39:54Z</time>
      </trkpt>
      <trkpt lat="45.89215" lon="6.08918">
        <ele>519</ele>
        <time>2010-01-01T16:39:57Z</time>
      </trkpt>
      <trkpt lat="45.89209" lon="6.08922">
        <ele>520</ele>
        <time>2010-01-01T16:40:00Z</time>
      </trkpt>
      <trkpt lat="45.89204" lon="6.08922">
        <ele>521</ele>
        <time>2010-01-01T16:40:02Z</time>
      </trkpt>
      <trkpt lat="45.89182" lon="6.08892">
        <ele>522</ele>
        <time>2010-01-01T16:40:14Z</time>
      </trkpt>
      <trkpt lat="45.8916" lon="6.08869">
        <ele>523</ele>
        <time>2010-01-01T16:40:25Z</time>
      </trkpt>
      <trkpt lat="45.89154" lon="6.08868">
        <ele>523</ele>
        <time>2010-01-01T16:40:28Z</time>
      </trkpt>
      <trkpt lat="45.89139" lon="6.08882">
        <ele>525</ele>
        <time>2010-01-01T16:40:35Z</time>
      </trkpt>
      <trkpt lat="45.89117" lon="6.08894">
        <ele>526</ele>
        <time>2010-01-01T16:40:44Z</time>
      </trkpt>
      <trkpt lat="45.89126" lon="6.08934">
        <ele>527</ele>
        <time>2010-01-01T16:40:56Z</time>
      </trkpt>
      <trkpt lat="45.8915" lon="6.09017">
        <ele>528</ele>
        <time>2010-01-01T16:41:21Z</time>
      </trkpt>
      <trkpt lat="45.89164" lon="6.09054">
        <ele>528</ele>
        <time>2010-01-01T16:41:33Z</time>
      </trkpt>
      <trkpt lat="45.89187" lon="6.09083">
        <ele>527</ele>
        <time>2010-01-01T16:41:45Z</time>
      </trkpt>
      <trkpt lat="45.89195" lon="6.09083">
        <ele>526</ele>
        <time>2010-01-01T16:41:48Z</time>
      </trkpt>
      <trkpt lat="45.89215" lon="6.09061">
        <ele>524</ele>
        <time>2010-01-01T16:41:58Z</time>
      </trkpt>
      <trkpt lat="45.89226" lon="6.09083">
        <ele>524</ele>
        <time>2010-01-01T16:42:06Z</time>
      </trkpt>
      <trkpt lat="45.89212" lon="6.09098">
        <ele>526</ele>
        <time>2010-01-01T16:42:13Z</time>
      </trkpt>
      <trkpt lat="45.89211" lon="6.09101">
        <ele>526</ele>
        <time>2010-01-01T16:42:14Z</time>
      </trkpt>
      <trkpt lat="45.89211" lon="6.09105">
        <ele>526</ele>
        <time>2010-01-01T16:42:15Z</time>
      </trkpt>
      <trkpt lat="45.89216" lon="6.09122">
        <ele>527</ele>
        <time>2010-01-01T16:42:20Z</time>
      </trkpt>
    </trkseg>
  </trk>
</gpx>